<?xml version="1.0" encoding="UTF-8" standalone="no" ?>
<gpx xmlns="http://www.topografix.com/GPX/1/1" xmlns:xsi="http://www.w3.org/2001/XMLSchema-instance" xsi:schemaLocation="http://www.topografix.com/GPX/1/1 http://www.topografix.com/GPX/1/1/gpx.xsd" version="1.1" creator="VisuGPX - https://www.visugpx.com">
  <metadata>
    <name>DEROUILLANTE 2009 - 38 km </name>
    <desc><![CDATA[Ballade VTT - Dérouillante 2009 faite avec Yohann, Sébastien, Laurent D, Laurent C, Nicolas, Ludovic, Patrice, 2 inconnus dont j'ai perdu le prénom et moi-même]]></desc>
  </metadata>
  <wpt lat="49.28971" lon="1.40539">
    <ele>202</ele>
  </wpt>
  <wpt lat="49.28993" lon="1.41581">
    <ele>132</ele>
  </wpt>
  <trk>
    <name><![CDATA[DEROUILLANTE 2009 - 38 km _1]]></name>
    <trkseg>
      <trkpt lat="49.28971" lon="1.40539">
        <ele>202</ele>
        <time>2009-03-22T08:32:51Z</time>
      </trkpt>
      <trkpt lat="49.28978" lon="1.40529">
        <ele>181</ele>
        <time>2009-03-22T08:33:01Z</time>
      </trkpt>
      <trkpt lat="49.28978" lon="1.40515">
        <ele>147</ele>
        <time>2009-03-22T08:33:11Z</time>
      </trkpt>
      <trkpt lat="49.28969" lon="1.40518">
        <ele>135</ele>
        <time>2009-03-22T08:33:23Z</time>
      </trkpt>
      <trkpt lat="49.28961" lon="1.40524">
        <ele>146</ele>
        <time>2009-03-22T08:33:36Z</time>
      </trkpt>
      <trkpt lat="49.28969" lon="1.40516">
        <ele>146</ele>
        <time>2009-03-22T08:36:36Z</time>
      </trkpt>
      <trkpt lat="49.28968" lon="1.40501">
        <ele>146</ele>
        <time>2009-03-22T08:36:41Z</time>
      </trkpt>
      <trkpt lat="49.28972" lon="1.40487">
        <ele>139</ele>
        <time>2009-03-22T08:36:45Z</time>
      </trkpt>
      <trkpt lat="49.2898" lon="1.40473">
        <ele>139</ele>
        <time>2009-03-22T08:36:49Z</time>
      </trkpt>
      <trkpt lat="49.28985" lon="1.40462">
        <ele>139</ele>
        <time>2009-03-22T08:36:52Z</time>
      </trkpt>
      <trkpt lat="49.28993" lon="1.40453">
        <ele>139</ele>
        <time>2009-03-22T08:36:55Z</time>
      </trkpt>
      <trkpt lat="49.28996" lon="1.40436">
        <ele>139</ele>
        <time>2009-03-22T08:36:58Z</time>
      </trkpt>
      <trkpt lat="49.28994" lon="1.40418">
        <ele>139</ele>
        <time>2009-03-22T08:37:01Z</time>
      </trkpt>
      <trkpt lat="49.28987" lon="1.40403">
        <ele>139</ele>
        <time>2009-03-22T08:37:04Z</time>
      </trkpt>
      <trkpt lat="49.28979" lon="1.40389">
        <ele>139</ele>
        <time>2009-03-22T08:37:07Z</time>
      </trkpt>
      <trkpt lat="49.28972" lon="1.40375">
        <ele>139</ele>
        <time>2009-03-22T08:37:10Z</time>
      </trkpt>
      <trkpt lat="49.28965" lon="1.40363">
        <ele>139</ele>
        <time>2009-03-22T08:37:13Z</time>
      </trkpt>
      <trkpt lat="49.28958" lon="1.40348">
        <ele>139</ele>
        <time>2009-03-22T08:37:16Z</time>
      </trkpt>
      <trkpt lat="49.2896" lon="1.40334">
        <ele>139</ele>
        <time>2009-03-22T08:37:19Z</time>
      </trkpt>
      <trkpt lat="49.28971" lon="1.40322">
        <ele>139</ele>
        <time>2009-03-22T08:37:22Z</time>
      </trkpt>
      <trkpt lat="49.28982" lon="1.40315">
        <ele>139</ele>
        <time>2009-03-22T08:37:25Z</time>
      </trkpt>
      <trkpt lat="49.28992" lon="1.40307">
        <ele>139</ele>
        <time>2009-03-22T08:37:28Z</time>
      </trkpt>
      <trkpt lat="49.28998" lon="1.40294">
        <ele>139</ele>
        <time>2009-03-22T08:37:31Z</time>
      </trkpt>
      <trkpt lat="49.28994" lon="1.40276">
        <ele>139</ele>
        <time>2009-03-22T08:37:34Z</time>
      </trkpt>
      <trkpt lat="49.28985" lon="1.40264">
        <ele>139</ele>
        <time>2009-03-22T08:37:37Z</time>
      </trkpt>
      <trkpt lat="49.28977" lon="1.40253">
        <ele>139</ele>
        <time>2009-03-22T08:37:40Z</time>
      </trkpt>
      <trkpt lat="49.28969" lon="1.40242">
        <ele>139</ele>
        <time>2009-03-22T08:37:43Z</time>
      </trkpt>
      <trkpt lat="49.28961" lon="1.40231">
        <ele>139</ele>
        <time>2009-03-22T08:37:46Z</time>
      </trkpt>
      <trkpt lat="49.28954" lon="1.4022">
        <ele>139</ele>
        <time>2009-03-22T08:37:49Z</time>
      </trkpt>
      <trkpt lat="49.28947" lon="1.40207">
        <ele>139</ele>
        <time>2009-03-22T08:37:52Z</time>
      </trkpt>
      <trkpt lat="49.28952" lon="1.40192">
        <ele>139</ele>
        <time>2009-03-22T08:37:56Z</time>
      </trkpt>
      <trkpt lat="49.28963" lon="1.40187">
        <ele>139</ele>
        <time>2009-03-22T08:37:59Z</time>
      </trkpt>
      <trkpt lat="49.28974" lon="1.40182">
        <ele>139</ele>
        <time>2009-03-22T08:38:02Z</time>
      </trkpt>
      <trkpt lat="49.28985" lon="1.40176">
        <ele>139</ele>
        <time>2009-03-22T08:38:05Z</time>
      </trkpt>
      <trkpt lat="49.28995" lon="1.4017">
        <ele>139</ele>
        <time>2009-03-22T08:38:08Z</time>
      </trkpt>
      <trkpt lat="49.29006" lon="1.40165">
        <ele>139</ele>
        <time>2009-03-22T08:38:11Z</time>
      </trkpt>
      <trkpt lat="49.29018" lon="1.40159">
        <ele>139</ele>
        <time>2009-03-22T08:38:14Z</time>
      </trkpt>
      <trkpt lat="49.29029" lon="1.40153">
        <ele>139</ele>
        <time>2009-03-22T08:38:17Z</time>
      </trkpt>
      <trkpt lat="49.29041" lon="1.40147">
        <ele>139</ele>
        <time>2009-03-22T08:38:20Z</time>
      </trkpt>
      <trkpt lat="49.29052" lon="1.40141">
        <ele>139</ele>
        <time>2009-03-22T08:38:23Z</time>
      </trkpt>
      <trkpt lat="49.29063" lon="1.40133">
        <ele>139</ele>
        <time>2009-03-22T08:38:26Z</time>
      </trkpt>
      <trkpt lat="49.29073" lon="1.40125">
        <ele>139</ele>
        <time>2009-03-22T08:38:29Z</time>
      </trkpt>
      <trkpt lat="49.29083" lon="1.40117">
        <ele>139</ele>
        <time>2009-03-22T08:38:32Z</time>
      </trkpt>
      <trkpt lat="49.29093" lon="1.40108">
        <ele>139</ele>
        <time>2009-03-22T08:38:35Z</time>
      </trkpt>
      <trkpt lat="49.29104" lon="1.401">
        <ele>139</ele>
        <time>2009-03-22T08:38:38Z</time>
      </trkpt>
      <trkpt lat="49.29114" lon="1.40091">
        <ele>144</ele>
        <time>2009-03-22T08:38:41Z</time>
      </trkpt>
      <trkpt lat="49.29124" lon="1.40082">
        <ele>144</ele>
        <time>2009-03-22T08:38:44Z</time>
      </trkpt>
      <trkpt lat="49.29133" lon="1.40072">
        <ele>144</ele>
        <time>2009-03-22T08:38:47Z</time>
      </trkpt>
      <trkpt lat="49.29142" lon="1.40061">
        <ele>144</ele>
        <time>2009-03-22T08:38:50Z</time>
      </trkpt>
      <trkpt lat="49.29152" lon="1.40051">
        <ele>144</ele>
        <time>2009-03-22T08:38:53Z</time>
      </trkpt>
      <trkpt lat="49.29163" lon="1.40041">
        <ele>144</ele>
        <time>2009-03-22T08:38:56Z</time>
      </trkpt>
      <trkpt lat="49.29173" lon="1.40029">
        <ele>144</ele>
        <time>2009-03-22T08:38:59Z</time>
      </trkpt>
      <trkpt lat="49.29182" lon="1.40019">
        <ele>144</ele>
        <time>2009-03-22T08:39:02Z</time>
      </trkpt>
      <trkpt lat="49.29192" lon="1.40008">
        <ele>144</ele>
        <time>2009-03-22T08:39:05Z</time>
      </trkpt>
      <trkpt lat="49.292" lon="1.39998">
        <ele>144</ele>
        <time>2009-03-22T08:39:08Z</time>
      </trkpt>
      <trkpt lat="49.29209" lon="1.39988">
        <ele>144</ele>
        <time>2009-03-22T08:39:11Z</time>
      </trkpt>
      <trkpt lat="49.29217" lon="1.39977">
        <ele>144</ele>
        <time>2009-03-22T08:39:14Z</time>
      </trkpt>
      <trkpt lat="49.29227" lon="1.39967">
        <ele>144</ele>
        <time>2009-03-22T08:39:17Z</time>
      </trkpt>
      <trkpt lat="49.29236" lon="1.39956">
        <ele>144</ele>
        <time>2009-03-22T08:39:20Z</time>
      </trkpt>
      <trkpt lat="49.29243" lon="1.39945">
        <ele>144</ele>
        <time>2009-03-22T08:39:23Z</time>
      </trkpt>
      <trkpt lat="49.29252" lon="1.39932">
        <ele>144</ele>
        <time>2009-03-22T08:39:26Z</time>
      </trkpt>
      <trkpt lat="49.29259" lon="1.3992">
        <ele>144</ele>
        <time>2009-03-22T08:39:29Z</time>
      </trkpt>
      <trkpt lat="49.29267" lon="1.39906">
        <ele>144</ele>
        <time>2009-03-22T08:39:32Z</time>
      </trkpt>
      <trkpt lat="49.29274" lon="1.39893">
        <ele>144</ele>
        <time>2009-03-22T08:39:35Z</time>
      </trkpt>
      <trkpt lat="49.2928" lon="1.39879">
        <ele>144</ele>
        <time>2009-03-22T08:39:38Z</time>
      </trkpt>
      <trkpt lat="49.29286" lon="1.39867">
        <ele>144</ele>
        <time>2009-03-22T08:39:41Z</time>
      </trkpt>
      <trkpt lat="49.29292" lon="1.39852">
        <ele>144</ele>
        <time>2009-03-22T08:39:45Z</time>
      </trkpt>
      <trkpt lat="49.29297" lon="1.39839">
        <ele>144</ele>
        <time>2009-03-22T08:39:49Z</time>
      </trkpt>
      <trkpt lat="49.29303" lon="1.39826">
        <ele>144</ele>
        <time>2009-03-22T08:39:54Z</time>
      </trkpt>
      <trkpt lat="49.29304" lon="1.39809">
        <ele>144</ele>
        <time>2009-03-22T08:40:00Z</time>
      </trkpt>
      <trkpt lat="49.29296" lon="1.39797">
        <ele>144</ele>
        <time>2009-03-22T08:40:04Z</time>
      </trkpt>
      <trkpt lat="49.2929" lon="1.39786">
        <ele>144</ele>
        <time>2009-03-22T08:40:07Z</time>
      </trkpt>
      <trkpt lat="49.29282" lon="1.39773">
        <ele>144</ele>
        <time>2009-03-22T08:40:10Z</time>
      </trkpt>
      <trkpt lat="49.29274" lon="1.39759">
        <ele>144</ele>
        <time>2009-03-22T08:40:13Z</time>
      </trkpt>
      <trkpt lat="49.29267" lon="1.39745">
        <ele>144</ele>
        <time>2009-03-22T08:40:16Z</time>
      </trkpt>
      <trkpt lat="49.29259" lon="1.3973">
        <ele>144</ele>
        <time>2009-03-22T08:40:19Z</time>
      </trkpt>
      <trkpt lat="49.29251" lon="1.39716">
        <ele>144</ele>
        <time>2009-03-22T08:40:22Z</time>
      </trkpt>
      <trkpt lat="49.29242" lon="1.39701">
        <ele>144</ele>
        <time>2009-03-22T08:40:25Z</time>
      </trkpt>
      <trkpt lat="49.29234" lon="1.39685">
        <ele>144</ele>
        <time>2009-03-22T08:40:28Z</time>
      </trkpt>
      <trkpt lat="49.29226" lon="1.39671">
        <ele>144</ele>
        <time>2009-03-22T08:40:31Z</time>
      </trkpt>
      <trkpt lat="49.29217" lon="1.39656">
        <ele>144</ele>
        <time>2009-03-22T08:40:34Z</time>
      </trkpt>
      <trkpt lat="49.29209" lon="1.3964">
        <ele>144</ele>
        <time>2009-03-22T08:40:37Z</time>
      </trkpt>
      <trkpt lat="49.29201" lon="1.39625">
        <ele>144</ele>
        <time>2009-03-22T08:40:40Z</time>
      </trkpt>
      <trkpt lat="49.29195" lon="1.39614">
        <ele>144</ele>
        <time>2009-03-22T08:40:42Z</time>
      </trkpt>
      <trkpt lat="49.29189" lon="1.39604">
        <ele>144</ele>
        <time>2009-03-22T08:40:44Z</time>
      </trkpt>
      <trkpt lat="49.29183" lon="1.39593">
        <ele>144</ele>
        <time>2009-03-22T08:40:46Z</time>
      </trkpt>
      <trkpt lat="49.29175" lon="1.39578">
        <ele>144</ele>
        <time>2009-03-22T08:40:49Z</time>
      </trkpt>
      <trkpt lat="49.29169" lon="1.39567">
        <ele>144</ele>
        <time>2009-03-22T08:40:51Z</time>
      </trkpt>
      <trkpt lat="49.29163" lon="1.39556">
        <ele>144</ele>
        <time>2009-03-22T08:40:53Z</time>
      </trkpt>
      <trkpt lat="49.29156" lon="1.39545">
        <ele>144</ele>
        <time>2009-03-22T08:40:55Z</time>
      </trkpt>
      <trkpt lat="49.2915" lon="1.39534">
        <ele>144</ele>
        <time>2009-03-22T08:40:57Z</time>
      </trkpt>
      <trkpt lat="49.29144" lon="1.39523">
        <ele>149</ele>
        <time>2009-03-22T08:40:59Z</time>
      </trkpt>
      <trkpt lat="49.29138" lon="1.39511">
        <ele>149</ele>
        <time>2009-03-22T08:41:01Z</time>
      </trkpt>
      <trkpt lat="49.29131" lon="1.395">
        <ele>149</ele>
        <time>2009-03-22T08:41:03Z</time>
      </trkpt>
      <trkpt lat="49.29125" lon="1.3949">
        <ele>149</ele>
        <time>2009-03-22T08:41:05Z</time>
      </trkpt>
      <trkpt lat="49.29119" lon="1.39478">
        <ele>149</ele>
        <time>2009-03-22T08:41:07Z</time>
      </trkpt>
      <trkpt lat="49.29113" lon="1.39467">
        <ele>149</ele>
        <time>2009-03-22T08:41:09Z</time>
      </trkpt>
      <trkpt lat="49.29107" lon="1.39456">
        <ele>149</ele>
        <time>2009-03-22T08:41:11Z</time>
      </trkpt>
      <trkpt lat="49.29101" lon="1.39446">
        <ele>149</ele>
        <time>2009-03-22T08:41:13Z</time>
      </trkpt>
      <trkpt lat="49.29095" lon="1.39435">
        <ele>149</ele>
        <time>2009-03-22T08:41:15Z</time>
      </trkpt>
      <trkpt lat="49.29088" lon="1.39424">
        <ele>149</ele>
        <time>2009-03-22T08:41:17Z</time>
      </trkpt>
      <trkpt lat="49.29082" lon="1.39412">
        <ele>149</ele>
        <time>2009-03-22T08:41:19Z</time>
      </trkpt>
      <trkpt lat="49.29076" lon="1.39402">
        <ele>149</ele>
        <time>2009-03-22T08:41:21Z</time>
      </trkpt>
      <trkpt lat="49.2907" lon="1.39391">
        <ele>149</ele>
        <time>2009-03-22T08:41:23Z</time>
      </trkpt>
      <trkpt lat="49.29064" lon="1.39379">
        <ele>149</ele>
        <time>2009-03-22T08:41:25Z</time>
      </trkpt>
      <trkpt lat="49.29058" lon="1.39367">
        <ele>149</ele>
        <time>2009-03-22T08:41:27Z</time>
      </trkpt>
      <trkpt lat="49.29052" lon="1.39355">
        <ele>149</ele>
        <time>2009-03-22T08:41:29Z</time>
      </trkpt>
      <trkpt lat="49.29046" lon="1.39342">
        <ele>149</ele>
        <time>2009-03-22T08:41:31Z</time>
      </trkpt>
      <trkpt lat="49.29042" lon="1.39329">
        <ele>149</ele>
        <time>2009-03-22T08:41:33Z</time>
      </trkpt>
      <trkpt lat="49.29038" lon="1.39315">
        <ele>149</ele>
        <time>2009-03-22T08:41:35Z</time>
      </trkpt>
      <trkpt lat="49.29034" lon="1.39302">
        <ele>149</ele>
        <time>2009-03-22T08:41:37Z</time>
      </trkpt>
      <trkpt lat="49.2903" lon="1.39287">
        <ele>149</ele>
        <time>2009-03-22T08:41:39Z</time>
      </trkpt>
      <trkpt lat="49.29026" lon="1.39273">
        <ele>149</ele>
        <time>2009-03-22T08:41:41Z</time>
      </trkpt>
      <trkpt lat="49.29024" lon="1.39259">
        <ele>149</ele>
        <time>2009-03-22T08:41:43Z</time>
      </trkpt>
      <trkpt lat="49.29022" lon="1.39243">
        <ele>149</ele>
        <time>2009-03-22T08:41:45Z</time>
      </trkpt>
      <trkpt lat="49.29021" lon="1.39229">
        <ele>149</ele>
        <time>2009-03-22T08:41:47Z</time>
      </trkpt>
      <trkpt lat="49.29021" lon="1.39208">
        <ele>149</ele>
        <time>2009-03-22T08:41:50Z</time>
      </trkpt>
      <trkpt lat="49.29029" lon="1.39194">
        <ele>149</ele>
        <time>2009-03-22T08:41:53Z</time>
      </trkpt>
      <trkpt lat="49.2904" lon="1.39188">
        <ele>149</ele>
        <time>2009-03-22T08:41:56Z</time>
      </trkpt>
      <trkpt lat="49.29051" lon="1.39182">
        <ele>149</ele>
        <time>2009-03-22T08:41:59Z</time>
      </trkpt>
      <trkpt lat="49.29062" lon="1.39174">
        <ele>149</ele>
        <time>2009-03-22T08:42:02Z</time>
      </trkpt>
      <trkpt lat="49.29073" lon="1.39167">
        <ele>149</ele>
        <time>2009-03-22T08:42:05Z</time>
      </trkpt>
      <trkpt lat="49.29084" lon="1.3916">
        <ele>149</ele>
        <time>2009-03-22T08:42:08Z</time>
      </trkpt>
      <trkpt lat="49.29095" lon="1.39152">
        <ele>149</ele>
        <time>2009-03-22T08:42:11Z</time>
      </trkpt>
      <trkpt lat="49.29105" lon="1.39145">
        <ele>154</ele>
        <time>2009-03-22T08:42:14Z</time>
      </trkpt>
      <trkpt lat="49.29117" lon="1.39137">
        <ele>154</ele>
        <time>2009-03-22T08:42:17Z</time>
      </trkpt>
      <trkpt lat="49.29128" lon="1.39129">
        <ele>154</ele>
        <time>2009-03-22T08:42:20Z</time>
      </trkpt>
      <trkpt lat="49.29139" lon="1.39122">
        <ele>154</ele>
        <time>2009-03-22T08:42:23Z</time>
      </trkpt>
      <trkpt lat="49.29149" lon="1.39115">
        <ele>154</ele>
        <time>2009-03-22T08:42:26Z</time>
      </trkpt>
      <trkpt lat="49.2916" lon="1.39107">
        <ele>154</ele>
        <time>2009-03-22T08:42:29Z</time>
      </trkpt>
      <trkpt lat="49.2917" lon="1.39101">
        <ele>154</ele>
        <time>2009-03-22T08:42:32Z</time>
      </trkpt>
      <trkpt lat="49.2918" lon="1.39093">
        <ele>154</ele>
        <time>2009-03-22T08:42:35Z</time>
      </trkpt>
      <trkpt lat="49.29191" lon="1.39086">
        <ele>154</ele>
        <time>2009-03-22T08:42:38Z</time>
      </trkpt>
      <trkpt lat="49.29202" lon="1.39079">
        <ele>154</ele>
        <time>2009-03-22T08:42:41Z</time>
      </trkpt>
      <trkpt lat="49.29212" lon="1.39072">
        <ele>154</ele>
        <time>2009-03-22T08:42:44Z</time>
      </trkpt>
      <trkpt lat="49.29224" lon="1.39065">
        <ele>154</ele>
        <time>2009-03-22T08:42:47Z</time>
      </trkpt>
      <trkpt lat="49.29234" lon="1.39057">
        <ele>154</ele>
        <time>2009-03-22T08:42:50Z</time>
      </trkpt>
      <trkpt lat="49.29246" lon="1.39049">
        <ele>154</ele>
        <time>2009-03-22T08:42:53Z</time>
      </trkpt>
      <trkpt lat="49.29257" lon="1.39041">
        <ele>154</ele>
        <time>2009-03-22T08:42:56Z</time>
      </trkpt>
      <trkpt lat="49.29268" lon="1.39034">
        <ele>154</ele>
        <time>2009-03-22T08:42:59Z</time>
      </trkpt>
      <trkpt lat="49.29279" lon="1.39027">
        <ele>154</ele>
        <time>2009-03-22T08:43:02Z</time>
      </trkpt>
      <trkpt lat="49.2929" lon="1.39019">
        <ele>154</ele>
        <time>2009-03-22T08:43:05Z</time>
      </trkpt>
      <trkpt lat="49.29302" lon="1.39011">
        <ele>154</ele>
        <time>2009-03-22T08:43:08Z</time>
      </trkpt>
      <trkpt lat="49.29314" lon="1.39003">
        <ele>154</ele>
        <time>2009-03-22T08:43:11Z</time>
      </trkpt>
      <trkpt lat="49.29326" lon="1.38994">
        <ele>154</ele>
        <time>2009-03-22T08:43:14Z</time>
      </trkpt>
      <trkpt lat="49.29337" lon="1.38986">
        <ele>154</ele>
        <time>2009-03-22T08:43:17Z</time>
      </trkpt>
      <trkpt lat="49.29348" lon="1.38978">
        <ele>154</ele>
        <time>2009-03-22T08:43:20Z</time>
      </trkpt>
      <trkpt lat="49.2936" lon="1.38969">
        <ele>154</ele>
        <time>2009-03-22T08:43:23Z</time>
      </trkpt>
      <trkpt lat="49.29369" lon="1.38963">
        <ele>154</ele>
        <time>2009-03-22T08:43:26Z</time>
      </trkpt>
      <trkpt lat="49.29378" lon="1.38958">
        <ele>146</ele>
        <time>2009-03-22T08:44:06Z</time>
      </trkpt>
      <trkpt lat="49.29389" lon="1.3895">
        <ele>146</ele>
        <time>2009-03-22T08:44:10Z</time>
      </trkpt>
      <trkpt lat="49.29399" lon="1.38943">
        <ele>146</ele>
        <time>2009-03-22T08:44:13Z</time>
      </trkpt>
      <trkpt lat="49.29409" lon="1.38934">
        <ele>146</ele>
        <time>2009-03-22T08:44:16Z</time>
      </trkpt>
      <trkpt lat="49.2942" lon="1.38926">
        <ele>146</ele>
        <time>2009-03-22T08:44:19Z</time>
      </trkpt>
      <trkpt lat="49.2943" lon="1.38919">
        <ele>146</ele>
        <time>2009-03-22T08:44:22Z</time>
      </trkpt>
      <trkpt lat="49.29441" lon="1.38912">
        <ele>146</ele>
        <time>2009-03-22T08:44:25Z</time>
      </trkpt>
      <trkpt lat="49.29452" lon="1.38904">
        <ele>146</ele>
        <time>2009-03-22T08:44:28Z</time>
      </trkpt>
      <trkpt lat="49.29464" lon="1.38896">
        <ele>146</ele>
        <time>2009-03-22T08:44:31Z</time>
      </trkpt>
      <trkpt lat="49.29472" lon="1.38889">
        <ele>146</ele>
        <time>2009-03-22T08:44:33Z</time>
      </trkpt>
      <trkpt lat="49.29485" lon="1.38881">
        <ele>146</ele>
        <time>2009-03-22T08:44:36Z</time>
      </trkpt>
      <trkpt lat="49.29497" lon="1.38873">
        <ele>146</ele>
        <time>2009-03-22T08:44:39Z</time>
      </trkpt>
      <trkpt lat="49.29508" lon="1.38865">
        <ele>146</ele>
        <time>2009-03-22T08:44:42Z</time>
      </trkpt>
      <trkpt lat="49.29519" lon="1.38857">
        <ele>146</ele>
        <time>2009-03-22T08:44:45Z</time>
      </trkpt>
      <trkpt lat="49.29531" lon="1.3885">
        <ele>146</ele>
        <time>2009-03-22T08:44:48Z</time>
      </trkpt>
      <trkpt lat="49.29542" lon="1.38842">
        <ele>146</ele>
        <time>2009-03-22T08:44:51Z</time>
      </trkpt>
      <trkpt lat="49.29553" lon="1.38834">
        <ele>146</ele>
        <time>2009-03-22T08:44:54Z</time>
      </trkpt>
      <trkpt lat="49.29564" lon="1.38827">
        <ele>146</ele>
        <time>2009-03-22T08:44:57Z</time>
      </trkpt>
      <trkpt lat="49.29575" lon="1.38819">
        <ele>146</ele>
        <time>2009-03-22T08:45:00Z</time>
      </trkpt>
      <trkpt lat="49.29584" lon="1.38813">
        <ele>146</ele>
        <time>2009-03-22T08:45:03Z</time>
      </trkpt>
      <trkpt lat="49.29593" lon="1.38807">
        <ele>146</ele>
        <time>2009-03-22T08:45:06Z</time>
      </trkpt>
      <trkpt lat="49.29603" lon="1.38801">
        <ele>146</ele>
        <time>2009-03-22T08:45:09Z</time>
      </trkpt>
      <trkpt lat="49.29613" lon="1.38794">
        <ele>146</ele>
        <time>2009-03-22T08:45:12Z</time>
      </trkpt>
      <trkpt lat="49.29623" lon="1.38788">
        <ele>146</ele>
        <time>2009-03-22T08:45:15Z</time>
      </trkpt>
      <trkpt lat="49.29632" lon="1.38782">
        <ele>146</ele>
        <time>2009-03-22T08:45:18Z</time>
      </trkpt>
      <trkpt lat="49.2964" lon="1.38775">
        <ele>146</ele>
        <time>2009-03-22T08:45:21Z</time>
      </trkpt>
      <trkpt lat="49.29649" lon="1.38769">
        <ele>146</ele>
        <time>2009-03-22T08:45:24Z</time>
      </trkpt>
      <trkpt lat="49.29658" lon="1.38763">
        <ele>146</ele>
        <time>2009-03-22T08:45:27Z</time>
      </trkpt>
      <trkpt lat="49.29666" lon="1.38757">
        <ele>146</ele>
        <time>2009-03-22T08:45:30Z</time>
      </trkpt>
      <trkpt lat="49.29675" lon="1.38749">
        <ele>146</ele>
        <time>2009-03-22T08:45:33Z</time>
      </trkpt>
      <trkpt lat="49.29684" lon="1.38742">
        <ele>146</ele>
        <time>2009-03-22T08:45:36Z</time>
      </trkpt>
      <trkpt lat="49.29692" lon="1.38734">
        <ele>146</ele>
        <time>2009-03-22T08:45:39Z</time>
      </trkpt>
      <trkpt lat="49.297" lon="1.38725">
        <ele>146</ele>
        <time>2009-03-22T08:45:42Z</time>
      </trkpt>
      <trkpt lat="49.29707" lon="1.38714">
        <ele>146</ele>
        <time>2009-03-22T08:45:45Z</time>
      </trkpt>
      <trkpt lat="49.29713" lon="1.38702">
        <ele>146</ele>
        <time>2009-03-22T08:45:48Z</time>
      </trkpt>
      <trkpt lat="49.29719" lon="1.38689">
        <ele>140</ele>
        <time>2009-03-22T08:45:51Z</time>
      </trkpt>
      <trkpt lat="49.29726" lon="1.38675">
        <ele>140</ele>
        <time>2009-03-22T08:45:54Z</time>
      </trkpt>
      <trkpt lat="49.29733" lon="1.38659">
        <ele>140</ele>
        <time>2009-03-22T08:45:57Z</time>
      </trkpt>
      <trkpt lat="49.29739" lon="1.38643">
        <ele>140</ele>
        <time>2009-03-22T08:46:00Z</time>
      </trkpt>
      <trkpt lat="49.29744" lon="1.3863">
        <ele>140</ele>
        <time>2009-03-22T08:46:03Z</time>
      </trkpt>
      <trkpt lat="49.2975" lon="1.38615">
        <ele>140</ele>
        <time>2009-03-22T08:46:06Z</time>
      </trkpt>
      <trkpt lat="49.29756" lon="1.386">
        <ele>140</ele>
        <time>2009-03-22T08:46:09Z</time>
      </trkpt>
      <trkpt lat="49.2976" lon="1.38585">
        <ele>140</ele>
        <time>2009-03-22T08:46:12Z</time>
      </trkpt>
      <trkpt lat="49.29764" lon="1.38571">
        <ele>140</ele>
        <time>2009-03-22T08:46:15Z</time>
      </trkpt>
      <trkpt lat="49.29768" lon="1.38555">
        <ele>140</ele>
        <time>2009-03-22T08:46:18Z</time>
      </trkpt>
      <trkpt lat="49.29772" lon="1.38539">
        <ele>140</ele>
        <time>2009-03-22T08:46:21Z</time>
      </trkpt>
      <trkpt lat="49.29776" lon="1.38525">
        <ele>140</ele>
        <time>2009-03-22T08:46:24Z</time>
      </trkpt>
      <trkpt lat="49.2978" lon="1.3851">
        <ele>140</ele>
        <time>2009-03-22T08:46:27Z</time>
      </trkpt>
      <trkpt lat="49.29783" lon="1.38497">
        <ele>140</ele>
        <time>2009-03-22T08:46:30Z</time>
      </trkpt>
      <trkpt lat="49.29787" lon="1.3848">
        <ele>140</ele>
        <time>2009-03-22T08:46:34Z</time>
      </trkpt>
      <trkpt lat="49.2979" lon="1.38466">
        <ele>140</ele>
        <time>2009-03-22T08:46:37Z</time>
      </trkpt>
      <trkpt lat="49.29793" lon="1.38451">
        <ele>140</ele>
        <time>2009-03-22T08:46:40Z</time>
      </trkpt>
      <trkpt lat="49.29796" lon="1.38435">
        <ele>140</ele>
        <time>2009-03-22T08:46:43Z</time>
      </trkpt>
      <trkpt lat="49.29799" lon="1.38417">
        <ele>140</ele>
        <time>2009-03-22T08:46:46Z</time>
      </trkpt>
      <trkpt lat="49.29802" lon="1.384">
        <ele>140</ele>
        <time>2009-03-22T08:46:49Z</time>
      </trkpt>
      <trkpt lat="49.29805" lon="1.38383">
        <ele>140</ele>
        <time>2009-03-22T08:46:52Z</time>
      </trkpt>
      <trkpt lat="49.29808" lon="1.38366">
        <ele>140</ele>
        <time>2009-03-22T08:46:55Z</time>
      </trkpt>
      <trkpt lat="49.29811" lon="1.38347">
        <ele>140</ele>
        <time>2009-03-22T08:46:58Z</time>
      </trkpt>
      <trkpt lat="49.29814" lon="1.38327">
        <ele>140</ele>
        <time>2009-03-22T08:47:01Z</time>
      </trkpt>
      <trkpt lat="49.29817" lon="1.38308">
        <ele>140</ele>
        <time>2009-03-22T08:47:04Z</time>
      </trkpt>
      <trkpt lat="49.2982" lon="1.38289">
        <ele>140</ele>
        <time>2009-03-22T08:47:07Z</time>
      </trkpt>
      <trkpt lat="49.29822" lon="1.3827">
        <ele>140</ele>
        <time>2009-03-22T08:47:10Z</time>
      </trkpt>
      <trkpt lat="49.29824" lon="1.38251">
        <ele>140</ele>
        <time>2009-03-22T08:47:13Z</time>
      </trkpt>
      <trkpt lat="49.29826" lon="1.38233">
        <ele>140</ele>
        <time>2009-03-22T08:47:16Z</time>
      </trkpt>
      <trkpt lat="49.29828" lon="1.38213">
        <ele>140</ele>
        <time>2009-03-22T08:47:19Z</time>
      </trkpt>
      <trkpt lat="49.2983" lon="1.38194">
        <ele>140</ele>
        <time>2009-03-22T08:47:22Z</time>
      </trkpt>
      <trkpt lat="49.2983" lon="1.38174">
        <ele>140</ele>
        <time>2009-03-22T08:47:25Z</time>
      </trkpt>
      <trkpt lat="49.29831" lon="1.3816">
        <ele>140</ele>
        <time>2009-03-22T08:47:27Z</time>
      </trkpt>
      <trkpt lat="49.29831" lon="1.38146">
        <ele>140</ele>
        <time>2009-03-22T08:47:29Z</time>
      </trkpt>
      <trkpt lat="49.29831" lon="1.38131">
        <ele>140</ele>
        <time>2009-03-22T08:47:31Z</time>
      </trkpt>
      <trkpt lat="49.29831" lon="1.38117">
        <ele>140</ele>
        <time>2009-03-22T08:47:33Z</time>
      </trkpt>
      <trkpt lat="49.29831" lon="1.38102">
        <ele>140</ele>
        <time>2009-03-22T08:47:35Z</time>
      </trkpt>
      <trkpt lat="49.29831" lon="1.38086">
        <ele>140</ele>
        <time>2009-03-22T08:47:37Z</time>
      </trkpt>
      <trkpt lat="49.29832" lon="1.38072">
        <ele>140</ele>
        <time>2009-03-22T08:47:39Z</time>
      </trkpt>
      <trkpt lat="49.29834" lon="1.38057">
        <ele>140</ele>
        <time>2009-03-22T08:47:41Z</time>
      </trkpt>
      <trkpt lat="49.29838" lon="1.38043">
        <ele>140</ele>
        <time>2009-03-22T08:47:43Z</time>
      </trkpt>
      <trkpt lat="49.29842" lon="1.3803">
        <ele>140</ele>
        <time>2009-03-22T08:47:45Z</time>
      </trkpt>
      <trkpt lat="49.29847" lon="1.38017">
        <ele>140</ele>
        <time>2009-03-22T08:47:47Z</time>
      </trkpt>
      <trkpt lat="49.29851" lon="1.38005">
        <ele>140</ele>
        <time>2009-03-22T08:47:49Z</time>
      </trkpt>
      <trkpt lat="49.29855" lon="1.37992">
        <ele>140</ele>
        <time>2009-03-22T08:47:51Z</time>
      </trkpt>
      <trkpt lat="49.29862" lon="1.37974">
        <ele>140</ele>
        <time>2009-03-22T08:47:54Z</time>
      </trkpt>
      <trkpt lat="49.29868" lon="1.37957">
        <ele>140</ele>
        <time>2009-03-22T08:47:57Z</time>
      </trkpt>
      <trkpt lat="49.29874" lon="1.37938">
        <ele>140</ele>
        <time>2009-03-22T08:48:00Z</time>
      </trkpt>
      <trkpt lat="49.2988" lon="1.3792">
        <ele>140</ele>
        <time>2009-03-22T08:48:03Z</time>
      </trkpt>
      <trkpt lat="49.29884" lon="1.37908">
        <ele>140</ele>
        <time>2009-03-22T08:48:05Z</time>
      </trkpt>
      <trkpt lat="49.29889" lon="1.37895">
        <ele>140</ele>
        <time>2009-03-22T08:48:07Z</time>
      </trkpt>
      <trkpt lat="49.29893" lon="1.37882">
        <ele>140</ele>
        <time>2009-03-22T08:48:09Z</time>
      </trkpt>
      <trkpt lat="49.29897" lon="1.3787">
        <ele>140</ele>
        <time>2009-03-22T08:48:11Z</time>
      </trkpt>
      <trkpt lat="49.29902" lon="1.37857">
        <ele>140</ele>
        <time>2009-03-22T08:48:13Z</time>
      </trkpt>
      <trkpt lat="49.29906" lon="1.37845">
        <ele>140</ele>
        <time>2009-03-22T08:48:15Z</time>
      </trkpt>
      <trkpt lat="49.29911" lon="1.37832">
        <ele>140</ele>
        <time>2009-03-22T08:48:17Z</time>
      </trkpt>
      <trkpt lat="49.29915" lon="1.37819">
        <ele>140</ele>
        <time>2009-03-22T08:48:19Z</time>
      </trkpt>
      <trkpt lat="49.2992" lon="1.37806">
        <ele>140</ele>
        <time>2009-03-22T08:48:21Z</time>
      </trkpt>
      <trkpt lat="49.29924" lon="1.37793">
        <ele>140</ele>
        <time>2009-03-22T08:48:23Z</time>
      </trkpt>
      <trkpt lat="49.29928" lon="1.3778">
        <ele>140</ele>
        <time>2009-03-22T08:48:25Z</time>
      </trkpt>
      <trkpt lat="49.29932" lon="1.37767">
        <ele>140</ele>
        <time>2009-03-22T08:48:27Z</time>
      </trkpt>
      <trkpt lat="49.29937" lon="1.37755">
        <ele>140</ele>
        <time>2009-03-22T08:48:29Z</time>
      </trkpt>
      <trkpt lat="49.29941" lon="1.37741">
        <ele>140</ele>
        <time>2009-03-22T08:48:31Z</time>
      </trkpt>
      <trkpt lat="49.29945" lon="1.37729">
        <ele>140</ele>
        <time>2009-03-22T08:48:33Z</time>
      </trkpt>
      <trkpt lat="49.29951" lon="1.3771">
        <ele>140</ele>
        <time>2009-03-22T08:48:36Z</time>
      </trkpt>
      <trkpt lat="49.29958" lon="1.37692">
        <ele>140</ele>
        <time>2009-03-22T08:48:39Z</time>
      </trkpt>
      <trkpt lat="49.29962" lon="1.37679">
        <ele>140</ele>
        <time>2009-03-22T08:48:41Z</time>
      </trkpt>
      <trkpt lat="49.29967" lon="1.37666">
        <ele>140</ele>
        <time>2009-03-22T08:48:43Z</time>
      </trkpt>
      <trkpt lat="49.29971" lon="1.37653">
        <ele>140</ele>
        <time>2009-03-22T08:48:45Z</time>
      </trkpt>
      <trkpt lat="49.29975" lon="1.37641">
        <ele>140</ele>
        <time>2009-03-22T08:48:47Z</time>
      </trkpt>
      <trkpt lat="49.29981" lon="1.37629">
        <ele>140</ele>
        <time>2009-03-22T08:48:49Z</time>
      </trkpt>
      <trkpt lat="49.29986" lon="1.37618">
        <ele>140</ele>
        <time>2009-03-22T08:48:51Z</time>
      </trkpt>
      <trkpt lat="49.29995" lon="1.37603">
        <ele>140</ele>
        <time>2009-03-22T08:48:54Z</time>
      </trkpt>
      <trkpt lat="49.30005" lon="1.37588">
        <ele>140</ele>
        <time>2009-03-22T08:48:57Z</time>
      </trkpt>
      <trkpt lat="49.30014" lon="1.37573">
        <ele>140</ele>
        <time>2009-03-22T08:49:00Z</time>
      </trkpt>
      <trkpt lat="49.30021" lon="1.37564">
        <ele>140</ele>
        <time>2009-03-22T08:49:02Z</time>
      </trkpt>
      <trkpt lat="49.30031" lon="1.37552">
        <ele>140</ele>
        <time>2009-03-22T08:49:05Z</time>
      </trkpt>
      <trkpt lat="49.3004" lon="1.37538">
        <ele>140</ele>
        <time>2009-03-22T08:49:08Z</time>
      </trkpt>
      <trkpt lat="49.30049" lon="1.37526">
        <ele>140</ele>
        <time>2009-03-22T08:49:11Z</time>
      </trkpt>
      <trkpt lat="49.30059" lon="1.37512">
        <ele>140</ele>
        <time>2009-03-22T08:49:14Z</time>
      </trkpt>
      <trkpt lat="49.30068" lon="1.37499">
        <ele>140</ele>
        <time>2009-03-22T08:49:17Z</time>
      </trkpt>
      <trkpt lat="49.30077" lon="1.37485">
        <ele>140</ele>
        <time>2009-03-22T08:49:20Z</time>
      </trkpt>
      <trkpt lat="49.30085" lon="1.37474">
        <ele>140</ele>
        <time>2009-03-22T08:49:23Z</time>
      </trkpt>
      <trkpt lat="49.30093" lon="1.37462">
        <ele>140</ele>
        <time>2009-03-22T08:49:26Z</time>
      </trkpt>
      <trkpt lat="49.30102" lon="1.37454">
        <ele>140</ele>
        <time>2009-03-22T08:49:30Z</time>
      </trkpt>
      <trkpt lat="49.30112" lon="1.37451">
        <ele>140</ele>
        <time>2009-03-22T08:49:35Z</time>
      </trkpt>
      <trkpt lat="49.30122" lon="1.37452">
        <ele>140</ele>
        <time>2009-03-22T08:49:40Z</time>
      </trkpt>
      <trkpt lat="49.30132" lon="1.37455">
        <ele>140</ele>
        <time>2009-03-22T08:49:46Z</time>
      </trkpt>
      <trkpt lat="49.30142" lon="1.37456">
        <ele>140</ele>
        <time>2009-03-22T08:49:51Z</time>
      </trkpt>
      <trkpt lat="49.30152" lon="1.37456">
        <ele>140</ele>
        <time>2009-03-22T08:49:55Z</time>
      </trkpt>
      <trkpt lat="49.30164" lon="1.37456">
        <ele>140</ele>
        <time>2009-03-22T08:49:59Z</time>
      </trkpt>
      <trkpt lat="49.30176" lon="1.37457">
        <ele>140</ele>
        <time>2009-03-22T08:50:03Z</time>
      </trkpt>
      <trkpt lat="49.30186" lon="1.37457">
        <ele>140</ele>
        <time>2009-03-22T08:50:06Z</time>
      </trkpt>
      <trkpt lat="49.30195" lon="1.37457">
        <ele>140</ele>
        <time>2009-03-22T08:50:09Z</time>
      </trkpt>
      <trkpt lat="49.30204" lon="1.37457">
        <ele>140</ele>
        <time>2009-03-22T08:50:12Z</time>
      </trkpt>
      <trkpt lat="49.30215" lon="1.37457">
        <ele>140</ele>
        <time>2009-03-22T08:50:15Z</time>
      </trkpt>
      <trkpt lat="49.30224" lon="1.3746">
        <ele>140</ele>
        <time>2009-03-22T08:50:18Z</time>
      </trkpt>
      <trkpt lat="49.3023" lon="1.37476">
        <ele>140</ele>
        <time>2009-03-22T08:50:21Z</time>
      </trkpt>
      <trkpt lat="49.30231" lon="1.37493">
        <ele>140</ele>
        <time>2009-03-22T08:50:24Z</time>
      </trkpt>
      <trkpt lat="49.30233" lon="1.37512">
        <ele>140</ele>
        <time>2009-03-22T08:50:27Z</time>
      </trkpt>
      <trkpt lat="49.30235" lon="1.37531">
        <ele>140</ele>
        <time>2009-03-22T08:50:30Z</time>
      </trkpt>
      <trkpt lat="49.30237" lon="1.3755">
        <ele>140</ele>
        <time>2009-03-22T08:50:33Z</time>
      </trkpt>
      <trkpt lat="49.30239" lon="1.3757">
        <ele>140</ele>
        <time>2009-03-22T08:50:36Z</time>
      </trkpt>
      <trkpt lat="49.3024" lon="1.37588">
        <ele>140</ele>
        <time>2009-03-22T08:50:39Z</time>
      </trkpt>
      <trkpt lat="49.30241" lon="1.37608">
        <ele>140</ele>
        <time>2009-03-22T08:50:42Z</time>
      </trkpt>
      <trkpt lat="49.30243" lon="1.37626">
        <ele>140</ele>
        <time>2009-03-22T08:50:45Z</time>
      </trkpt>
      <trkpt lat="49.30246" lon="1.37646">
        <ele>140</ele>
        <time>2009-03-22T08:50:48Z</time>
      </trkpt>
      <trkpt lat="49.30249" lon="1.3766">
        <ele>146</ele>
        <time>2009-03-22T08:50:50Z</time>
      </trkpt>
      <trkpt lat="49.30254" lon="1.37679">
        <ele>146</ele>
        <time>2009-03-22T08:50:53Z</time>
      </trkpt>
      <trkpt lat="49.30259" lon="1.37698">
        <ele>146</ele>
        <time>2009-03-22T08:50:56Z</time>
      </trkpt>
      <trkpt lat="49.30264" lon="1.37717">
        <ele>146</ele>
        <time>2009-03-22T08:50:59Z</time>
      </trkpt>
      <trkpt lat="49.30268" lon="1.3773">
        <ele>146</ele>
        <time>2009-03-22T08:51:01Z</time>
      </trkpt>
      <trkpt lat="49.30274" lon="1.37749">
        <ele>146</ele>
        <time>2009-03-22T08:51:04Z</time>
      </trkpt>
      <trkpt lat="49.3028" lon="1.37767">
        <ele>146</ele>
        <time>2009-03-22T08:51:07Z</time>
      </trkpt>
      <trkpt lat="49.30284" lon="1.37781">
        <ele>146</ele>
        <time>2009-03-22T08:51:09Z</time>
      </trkpt>
      <trkpt lat="49.30288" lon="1.37794">
        <ele>146</ele>
        <time>2009-03-22T08:51:11Z</time>
      </trkpt>
      <trkpt lat="49.30294" lon="1.37813">
        <ele>146</ele>
        <time>2009-03-22T08:51:14Z</time>
      </trkpt>
      <trkpt lat="49.30298" lon="1.37828">
        <ele>146</ele>
        <time>2009-03-22T08:51:16Z</time>
      </trkpt>
      <trkpt lat="49.30304" lon="1.37847">
        <ele>146</ele>
        <time>2009-03-22T08:51:19Z</time>
      </trkpt>
      <trkpt lat="49.3031" lon="1.37864">
        <ele>146</ele>
        <time>2009-03-22T08:51:22Z</time>
      </trkpt>
      <trkpt lat="49.30317" lon="1.37882">
        <ele>146</ele>
        <time>2009-03-22T08:51:25Z</time>
      </trkpt>
      <trkpt lat="49.30324" lon="1.37891">
        <ele>146</ele>
        <time>2009-03-22T08:51:27Z</time>
      </trkpt>
      <trkpt lat="49.30333" lon="1.37896">
        <ele>146</ele>
        <time>2009-03-22T08:51:29Z</time>
      </trkpt>
      <trkpt lat="49.30343" lon="1.37897">
        <ele>146</ele>
        <time>2009-03-22T08:51:31Z</time>
      </trkpt>
      <trkpt lat="49.30352" lon="1.37898">
        <ele>146</ele>
        <time>2009-03-22T08:51:33Z</time>
      </trkpt>
      <trkpt lat="49.30362" lon="1.37899">
        <ele>146</ele>
        <time>2009-03-22T08:51:35Z</time>
      </trkpt>
      <trkpt lat="49.30371" lon="1.379">
        <ele>146</ele>
        <time>2009-03-22T08:51:37Z</time>
      </trkpt>
      <trkpt lat="49.30381" lon="1.379">
        <ele>146</ele>
        <time>2009-03-22T08:51:39Z</time>
      </trkpt>
      <trkpt lat="49.3039" lon="1.379">
        <ele>146</ele>
        <time>2009-03-22T08:51:41Z</time>
      </trkpt>
      <trkpt lat="49.30399" lon="1.37899">
        <ele>146</ele>
        <time>2009-03-22T08:51:43Z</time>
      </trkpt>
      <trkpt lat="49.30412" lon="1.3789">
        <ele>146</ele>
        <time>2009-03-22T08:51:46Z</time>
      </trkpt>
      <trkpt lat="49.30418" lon="1.3788">
        <ele>146</ele>
        <time>2009-03-22T08:51:48Z</time>
      </trkpt>
      <trkpt lat="49.30426" lon="1.37863">
        <ele>146</ele>
        <time>2009-03-22T08:51:51Z</time>
      </trkpt>
      <trkpt lat="49.30431" lon="1.3785">
        <ele>146</ele>
        <time>2009-03-22T08:51:53Z</time>
      </trkpt>
      <trkpt lat="49.30434" lon="1.37837">
        <ele>146</ele>
        <time>2009-03-22T08:51:55Z</time>
      </trkpt>
      <trkpt lat="49.30438" lon="1.37823">
        <ele>146</ele>
        <time>2009-03-22T08:51:57Z</time>
      </trkpt>
      <trkpt lat="49.30442" lon="1.3781">
        <ele>146</ele>
        <time>2009-03-22T08:51:59Z</time>
      </trkpt>
      <trkpt lat="49.30446" lon="1.37795">
        <ele>146</ele>
        <time>2009-03-22T08:52:01Z</time>
      </trkpt>
      <trkpt lat="49.30451" lon="1.37782">
        <ele>146</ele>
        <time>2009-03-22T08:52:03Z</time>
      </trkpt>
      <trkpt lat="49.30454" lon="1.37768">
        <ele>146</ele>
        <time>2009-03-22T08:52:05Z</time>
      </trkpt>
      <trkpt lat="49.30458" lon="1.37755">
        <ele>146</ele>
        <time>2009-03-22T08:52:07Z</time>
      </trkpt>
      <trkpt lat="49.30462" lon="1.37741">
        <ele>146</ele>
        <time>2009-03-22T08:52:09Z</time>
      </trkpt>
      <trkpt lat="49.30467" lon="1.37728">
        <ele>146</ele>
        <time>2009-03-22T08:52:11Z</time>
      </trkpt>
      <trkpt lat="49.30471" lon="1.37714">
        <ele>146</ele>
        <time>2009-03-22T08:52:13Z</time>
      </trkpt>
      <trkpt lat="49.30475" lon="1.37702">
        <ele>146</ele>
        <time>2009-03-22T08:52:15Z</time>
      </trkpt>
      <trkpt lat="49.30479" lon="1.37688">
        <ele>146</ele>
        <time>2009-03-22T08:52:17Z</time>
      </trkpt>
      <trkpt lat="49.30483" lon="1.37675">
        <ele>146</ele>
        <time>2009-03-22T08:52:19Z</time>
      </trkpt>
      <trkpt lat="49.30488" lon="1.37661">
        <ele>146</ele>
        <time>2009-03-22T08:52:21Z</time>
      </trkpt>
      <trkpt lat="49.30492" lon="1.37648">
        <ele>146</ele>
        <time>2009-03-22T08:52:23Z</time>
      </trkpt>
      <trkpt lat="49.30496" lon="1.37635">
        <ele>146</ele>
        <time>2009-03-22T08:52:25Z</time>
      </trkpt>
      <trkpt lat="49.305" lon="1.37621">
        <ele>146</ele>
        <time>2009-03-22T08:52:27Z</time>
      </trkpt>
      <trkpt lat="49.30504" lon="1.37608">
        <ele>146</ele>
        <time>2009-03-22T08:52:29Z</time>
      </trkpt>
      <trkpt lat="49.30508" lon="1.37594">
        <ele>146</ele>
        <time>2009-03-22T08:52:31Z</time>
      </trkpt>
      <trkpt lat="49.30513" lon="1.37582">
        <ele>146</ele>
        <time>2009-03-22T08:52:33Z</time>
      </trkpt>
      <trkpt lat="49.30519" lon="1.37569">
        <ele>146</ele>
        <time>2009-03-22T08:52:35Z</time>
      </trkpt>
      <trkpt lat="49.30526" lon="1.37557">
        <ele>146</ele>
        <time>2009-03-22T08:52:37Z</time>
      </trkpt>
      <trkpt lat="49.30535" lon="1.37548">
        <ele>146</ele>
        <time>2009-03-22T08:52:39Z</time>
      </trkpt>
      <trkpt lat="49.30543" lon="1.3754">
        <ele>146</ele>
        <time>2009-03-22T08:52:41Z</time>
      </trkpt>
      <trkpt lat="49.30553" lon="1.37534">
        <ele>146</ele>
        <time>2009-03-22T08:52:43Z</time>
      </trkpt>
      <trkpt lat="49.30563" lon="1.37529">
        <ele>146</ele>
        <time>2009-03-22T08:52:45Z</time>
      </trkpt>
      <trkpt lat="49.30573" lon="1.37524">
        <ele>146</ele>
        <time>2009-03-22T08:52:47Z</time>
      </trkpt>
      <trkpt lat="49.30583" lon="1.3752">
        <ele>146</ele>
        <time>2009-03-22T08:52:49Z</time>
      </trkpt>
      <trkpt lat="49.30593" lon="1.37515">
        <ele>146</ele>
        <time>2009-03-22T08:52:51Z</time>
      </trkpt>
      <trkpt lat="49.30602" lon="1.37511">
        <ele>146</ele>
        <time>2009-03-22T08:52:53Z</time>
      </trkpt>
      <trkpt lat="49.30612" lon="1.37506">
        <ele>146</ele>
        <time>2009-03-22T08:52:55Z</time>
      </trkpt>
      <trkpt lat="49.30622" lon="1.37502">
        <ele>146</ele>
        <time>2009-03-22T08:52:57Z</time>
      </trkpt>
      <trkpt lat="49.30631" lon="1.37498">
        <ele>146</ele>
        <time>2009-03-22T08:52:59Z</time>
      </trkpt>
      <trkpt lat="49.30641" lon="1.37494">
        <ele>146</ele>
        <time>2009-03-22T08:53:01Z</time>
      </trkpt>
      <trkpt lat="49.30651" lon="1.37491">
        <ele>146</ele>
        <time>2009-03-22T08:53:03Z</time>
      </trkpt>
      <trkpt lat="49.30662" lon="1.37487">
        <ele>146</ele>
        <time>2009-03-22T08:53:05Z</time>
      </trkpt>
      <trkpt lat="49.30673" lon="1.37484">
        <ele>146</ele>
        <time>2009-03-22T08:53:07Z</time>
      </trkpt>
      <trkpt lat="49.30683" lon="1.37481">
        <ele>146</ele>
        <time>2009-03-22T08:53:09Z</time>
      </trkpt>
      <trkpt lat="49.30693" lon="1.37477">
        <ele>146</ele>
        <time>2009-03-22T08:53:11Z</time>
      </trkpt>
      <trkpt lat="49.30704" lon="1.37474">
        <ele>146</ele>
        <time>2009-03-22T08:53:13Z</time>
      </trkpt>
      <trkpt lat="49.30714" lon="1.3747">
        <ele>146</ele>
        <time>2009-03-22T08:53:15Z</time>
      </trkpt>
      <trkpt lat="49.30724" lon="1.37467">
        <ele>146</ele>
        <time>2009-03-22T08:53:17Z</time>
      </trkpt>
      <trkpt lat="49.30733" lon="1.37463">
        <ele>146</ele>
        <time>2009-03-22T08:53:19Z</time>
      </trkpt>
      <trkpt lat="49.30743" lon="1.37458">
        <ele>146</ele>
        <time>2009-03-22T08:53:21Z</time>
      </trkpt>
      <trkpt lat="49.30751" lon="1.37451">
        <ele>146</ele>
        <time>2009-03-22T08:53:23Z</time>
      </trkpt>
      <trkpt lat="49.30757" lon="1.37435">
        <ele>146</ele>
        <time>2009-03-22T08:53:26Z</time>
      </trkpt>
      <trkpt lat="49.30757" lon="1.37421">
        <ele>146</ele>
        <time>2009-03-22T08:53:28Z</time>
      </trkpt>
      <trkpt lat="49.30757" lon="1.37406">
        <ele>146</ele>
        <time>2009-03-22T08:53:30Z</time>
      </trkpt>
      <trkpt lat="49.30757" lon="1.37392">
        <ele>146</ele>
        <time>2009-03-22T08:53:32Z</time>
      </trkpt>
      <trkpt lat="49.30755" lon="1.37378">
        <ele>146</ele>
        <time>2009-03-22T08:53:34Z</time>
      </trkpt>
      <trkpt lat="49.30755" lon="1.37363">
        <ele>146</ele>
        <time>2009-03-22T08:53:36Z</time>
      </trkpt>
      <trkpt lat="49.30754" lon="1.37349">
        <ele>146</ele>
        <time>2009-03-22T08:53:38Z</time>
      </trkpt>
      <trkpt lat="49.30754" lon="1.37334">
        <ele>151</ele>
        <time>2009-03-22T08:53:40Z</time>
      </trkpt>
      <trkpt lat="49.30753" lon="1.3732">
        <ele>151</ele>
        <time>2009-03-22T08:53:42Z</time>
      </trkpt>
      <trkpt lat="49.30754" lon="1.373">
        <ele>151</ele>
        <time>2009-03-22T08:53:45Z</time>
      </trkpt>
      <trkpt lat="49.30755" lon="1.37281">
        <ele>151</ele>
        <time>2009-03-22T08:53:48Z</time>
      </trkpt>
      <trkpt lat="49.30756" lon="1.37261">
        <ele>151</ele>
        <time>2009-03-22T08:53:51Z</time>
      </trkpt>
      <trkpt lat="49.30757" lon="1.3724">
        <ele>151</ele>
        <time>2009-03-22T08:53:54Z</time>
      </trkpt>
      <trkpt lat="49.30757" lon="1.37226">
        <ele>151</ele>
        <time>2009-03-22T08:53:56Z</time>
      </trkpt>
      <trkpt lat="49.30758" lon="1.37211">
        <ele>151</ele>
        <time>2009-03-22T08:53:58Z</time>
      </trkpt>
      <trkpt lat="49.30758" lon="1.37197">
        <ele>151</ele>
        <time>2009-03-22T08:54:00Z</time>
      </trkpt>
      <trkpt lat="49.30759" lon="1.37182">
        <ele>151</ele>
        <time>2009-03-22T08:54:02Z</time>
      </trkpt>
      <trkpt lat="49.3076" lon="1.37161">
        <ele>151</ele>
        <time>2009-03-22T08:54:05Z</time>
      </trkpt>
      <trkpt lat="49.3076" lon="1.37147">
        <ele>151</ele>
        <time>2009-03-22T08:54:07Z</time>
      </trkpt>
      <trkpt lat="49.3076" lon="1.37131">
        <ele>151</ele>
        <time>2009-03-22T08:54:09Z</time>
      </trkpt>
      <trkpt lat="49.3076" lon="1.37117">
        <ele>151</ele>
        <time>2009-03-22T08:54:11Z</time>
      </trkpt>
      <trkpt lat="49.30761" lon="1.37096">
        <ele>151</ele>
        <time>2009-03-22T08:54:14Z</time>
      </trkpt>
      <trkpt lat="49.30761" lon="1.37082">
        <ele>151</ele>
        <time>2009-03-22T08:54:16Z</time>
      </trkpt>
      <trkpt lat="49.30762" lon="1.37062">
        <ele>151</ele>
        <time>2009-03-22T08:54:19Z</time>
      </trkpt>
      <trkpt lat="49.30762" lon="1.37042">
        <ele>151</ele>
        <time>2009-03-22T08:54:22Z</time>
      </trkpt>
      <trkpt lat="49.30763" lon="1.37021">
        <ele>151</ele>
        <time>2009-03-22T08:54:25Z</time>
      </trkpt>
      <trkpt lat="49.30764" lon="1.37007">
        <ele>151</ele>
        <time>2009-03-22T08:54:27Z</time>
      </trkpt>
      <trkpt lat="49.30764" lon="1.36992">
        <ele>151</ele>
        <time>2009-03-22T08:54:29Z</time>
      </trkpt>
      <trkpt lat="49.30764" lon="1.36978">
        <ele>151</ele>
        <time>2009-03-22T08:54:31Z</time>
      </trkpt>
      <trkpt lat="49.30765" lon="1.36963">
        <ele>151</ele>
        <time>2009-03-22T08:54:33Z</time>
      </trkpt>
      <trkpt lat="49.30765" lon="1.36949">
        <ele>151</ele>
        <time>2009-03-22T08:54:35Z</time>
      </trkpt>
      <trkpt lat="49.30766" lon="1.36935">
        <ele>151</ele>
        <time>2009-03-22T08:54:37Z</time>
      </trkpt>
      <trkpt lat="49.30766" lon="1.3692">
        <ele>151</ele>
        <time>2009-03-22T08:54:39Z</time>
      </trkpt>
      <trkpt lat="49.30767" lon="1.36906">
        <ele>151</ele>
        <time>2009-03-22T08:54:41Z</time>
      </trkpt>
      <trkpt lat="49.30767" lon="1.36892">
        <ele>151</ele>
        <time>2009-03-22T08:54:43Z</time>
      </trkpt>
      <trkpt lat="49.30768" lon="1.36871">
        <ele>151</ele>
        <time>2009-03-22T08:54:46Z</time>
      </trkpt>
      <trkpt lat="49.30769" lon="1.36851">
        <ele>151</ele>
        <time>2009-03-22T08:54:49Z</time>
      </trkpt>
      <trkpt lat="49.3077" lon="1.36831">
        <ele>151</ele>
        <time>2009-03-22T08:54:52Z</time>
      </trkpt>
      <trkpt lat="49.3077" lon="1.36814">
        <ele>151</ele>
        <time>2009-03-22T08:54:55Z</time>
      </trkpt>
      <trkpt lat="49.30775" lon="1.36803">
        <ele>151</ele>
        <time>2009-03-22T08:54:59Z</time>
      </trkpt>
      <trkpt lat="49.30785" lon="1.36807">
        <ele>151</ele>
        <time>2009-03-22T08:55:03Z</time>
      </trkpt>
      <trkpt lat="49.30794" lon="1.36813">
        <ele>151</ele>
        <time>2009-03-22T08:55:06Z</time>
      </trkpt>
      <trkpt lat="49.30805" lon="1.3682">
        <ele>151</ele>
        <time>2009-03-22T08:55:09Z</time>
      </trkpt>
      <trkpt lat="49.30816" lon="1.36826">
        <ele>151</ele>
        <time>2009-03-22T08:55:12Z</time>
      </trkpt>
      <trkpt lat="49.30828" lon="1.36833">
        <ele>151</ele>
        <time>2009-03-22T08:55:15Z</time>
      </trkpt>
      <trkpt lat="49.30841" lon="1.3684">
        <ele>151</ele>
        <time>2009-03-22T08:55:18Z</time>
      </trkpt>
      <trkpt lat="49.30849" lon="1.36843">
        <ele>151</ele>
        <time>2009-03-22T08:55:20Z</time>
      </trkpt>
      <trkpt lat="49.30858" lon="1.36848">
        <ele>151</ele>
        <time>2009-03-22T08:55:22Z</time>
      </trkpt>
      <trkpt lat="49.30867" lon="1.36853">
        <ele>151</ele>
        <time>2009-03-22T08:55:24Z</time>
      </trkpt>
      <trkpt lat="49.30876" lon="1.36857">
        <ele>151</ele>
        <time>2009-03-22T08:55:26Z</time>
      </trkpt>
      <trkpt lat="49.30885" lon="1.36862">
        <ele>151</ele>
        <time>2009-03-22T08:55:28Z</time>
      </trkpt>
      <trkpt lat="49.30894" lon="1.36866">
        <ele>151</ele>
        <time>2009-03-22T08:55:30Z</time>
      </trkpt>
      <trkpt lat="49.30907" lon="1.36872">
        <ele>151</ele>
        <time>2009-03-22T08:55:33Z</time>
      </trkpt>
      <trkpt lat="49.30916" lon="1.36877">
        <ele>151</ele>
        <time>2009-03-22T08:55:35Z</time>
      </trkpt>
      <trkpt lat="49.30925" lon="1.36882">
        <ele>151</ele>
        <time>2009-03-22T08:55:37Z</time>
      </trkpt>
      <trkpt lat="49.30933" lon="1.36887">
        <ele>151</ele>
        <time>2009-03-22T08:55:39Z</time>
      </trkpt>
      <trkpt lat="49.30942" lon="1.36892">
        <ele>151</ele>
        <time>2009-03-22T08:55:41Z</time>
      </trkpt>
      <trkpt lat="49.30952" lon="1.36895">
        <ele>151</ele>
        <time>2009-03-22T08:55:43Z</time>
      </trkpt>
      <trkpt lat="49.30961" lon="1.36901">
        <ele>151</ele>
        <time>2009-03-22T08:55:45Z</time>
      </trkpt>
      <trkpt lat="49.3097" lon="1.36906">
        <ele>151</ele>
        <time>2009-03-22T08:55:47Z</time>
      </trkpt>
      <trkpt lat="49.30979" lon="1.36911">
        <ele>151</ele>
        <time>2009-03-22T08:55:49Z</time>
      </trkpt>
      <trkpt lat="49.30989" lon="1.36917">
        <ele>151</ele>
        <time>2009-03-22T08:55:51Z</time>
      </trkpt>
      <trkpt lat="49.30999" lon="1.36922">
        <ele>151</ele>
        <time>2009-03-22T08:55:53Z</time>
      </trkpt>
      <trkpt lat="49.31008" lon="1.36927">
        <ele>151</ele>
        <time>2009-03-22T08:55:55Z</time>
      </trkpt>
      <trkpt lat="49.31017" lon="1.36933">
        <ele>151</ele>
        <time>2009-03-22T08:55:57Z</time>
      </trkpt>
      <trkpt lat="49.31027" lon="1.36938">
        <ele>151</ele>
        <time>2009-03-22T08:55:59Z</time>
      </trkpt>
      <trkpt lat="49.31036" lon="1.36943">
        <ele>151</ele>
        <time>2009-03-22T08:56:01Z</time>
      </trkpt>
      <trkpt lat="49.31046" lon="1.36948">
        <ele>151</ele>
        <time>2009-03-22T08:56:03Z</time>
      </trkpt>
      <trkpt lat="49.31056" lon="1.36953">
        <ele>151</ele>
        <time>2009-03-22T08:56:05Z</time>
      </trkpt>
      <trkpt lat="49.31066" lon="1.36954">
        <ele>151</ele>
        <time>2009-03-22T08:56:07Z</time>
      </trkpt>
      <trkpt lat="49.31076" lon="1.36952">
        <ele>151</ele>
        <time>2009-03-22T08:56:09Z</time>
      </trkpt>
      <trkpt lat="49.31086" lon="1.36948">
        <ele>151</ele>
        <time>2009-03-22T08:56:11Z</time>
      </trkpt>
      <trkpt lat="49.31096" lon="1.36944">
        <ele>151</ele>
        <time>2009-03-22T08:56:13Z</time>
      </trkpt>
      <trkpt lat="49.31105" lon="1.36938">
        <ele>151</ele>
        <time>2009-03-22T08:56:15Z</time>
      </trkpt>
      <trkpt lat="49.31114" lon="1.36933">
        <ele>151</ele>
        <time>2009-03-22T08:56:17Z</time>
      </trkpt>
      <trkpt lat="49.31123" lon="1.36927">
        <ele>151</ele>
        <time>2009-03-22T08:56:19Z</time>
      </trkpt>
      <trkpt lat="49.31131" lon="1.36922">
        <ele>151</ele>
        <time>2009-03-22T08:56:21Z</time>
      </trkpt>
      <trkpt lat="49.31141" lon="1.36919">
        <ele>151</ele>
        <time>2009-03-22T08:56:23Z</time>
      </trkpt>
      <trkpt lat="49.3115" lon="1.36912">
        <ele>151</ele>
        <time>2009-03-22T08:56:25Z</time>
      </trkpt>
      <trkpt lat="49.31157" lon="1.36902">
        <ele>151</ele>
        <time>2009-03-22T08:56:27Z</time>
      </trkpt>
      <trkpt lat="49.31164" lon="1.36888">
        <ele>151</ele>
        <time>2009-03-22T08:56:29Z</time>
      </trkpt>
      <trkpt lat="49.3117" lon="1.36875">
        <ele>151</ele>
        <time>2009-03-22T08:56:31Z</time>
      </trkpt>
      <trkpt lat="49.31176" lon="1.36864">
        <ele>151</ele>
        <time>2009-03-22T08:56:33Z</time>
      </trkpt>
      <trkpt lat="49.31182" lon="1.36852">
        <ele>151</ele>
        <time>2009-03-22T08:56:35Z</time>
      </trkpt>
      <trkpt lat="49.31189" lon="1.3684">
        <ele>145</ele>
        <time>2009-03-22T08:56:37Z</time>
      </trkpt>
      <trkpt lat="49.31195" lon="1.36827">
        <ele>145</ele>
        <time>2009-03-22T08:56:39Z</time>
      </trkpt>
      <trkpt lat="49.31202" lon="1.36814">
        <ele>145</ele>
        <time>2009-03-22T08:56:41Z</time>
      </trkpt>
      <trkpt lat="49.31208" lon="1.36802">
        <ele>145</ele>
        <time>2009-03-22T08:56:43Z</time>
      </trkpt>
      <trkpt lat="49.31214" lon="1.36788">
        <ele>145</ele>
        <time>2009-03-22T08:56:45Z</time>
      </trkpt>
      <trkpt lat="49.31219" lon="1.36775">
        <ele>145</ele>
        <time>2009-03-22T08:56:47Z</time>
      </trkpt>
      <trkpt lat="49.31225" lon="1.36762">
        <ele>145</ele>
        <time>2009-03-22T08:56:49Z</time>
      </trkpt>
      <trkpt lat="49.31231" lon="1.36749">
        <ele>145</ele>
        <time>2009-03-22T08:56:51Z</time>
      </trkpt>
      <trkpt lat="49.31237" lon="1.36736">
        <ele>145</ele>
        <time>2009-03-22T08:56:53Z</time>
      </trkpt>
      <trkpt lat="49.31242" lon="1.36723">
        <ele>145</ele>
        <time>2009-03-22T08:56:55Z</time>
      </trkpt>
      <trkpt lat="49.31248" lon="1.36709">
        <ele>145</ele>
        <time>2009-03-22T08:56:57Z</time>
      </trkpt>
      <trkpt lat="49.31253" lon="1.36696">
        <ele>145</ele>
        <time>2009-03-22T08:56:59Z</time>
      </trkpt>
      <trkpt lat="49.31259" lon="1.36683">
        <ele>145</ele>
        <time>2009-03-22T08:57:01Z</time>
      </trkpt>
      <trkpt lat="49.31265" lon="1.3667">
        <ele>145</ele>
        <time>2009-03-22T08:57:03Z</time>
      </trkpt>
      <trkpt lat="49.31269" lon="1.36655">
        <ele>145</ele>
        <time>2009-03-22T08:57:05Z</time>
      </trkpt>
      <trkpt lat="49.31274" lon="1.36642">
        <ele>145</ele>
        <time>2009-03-22T08:57:07Z</time>
      </trkpt>
      <trkpt lat="49.3128" lon="1.36629">
        <ele>145</ele>
        <time>2009-03-22T08:57:09Z</time>
      </trkpt>
      <trkpt lat="49.31285" lon="1.36617">
        <ele>145</ele>
        <time>2009-03-22T08:57:11Z</time>
      </trkpt>
      <trkpt lat="49.3129" lon="1.36604">
        <ele>145</ele>
        <time>2009-03-22T08:57:13Z</time>
      </trkpt>
      <trkpt lat="49.31296" lon="1.36593">
        <ele>145</ele>
        <time>2009-03-22T08:57:15Z</time>
      </trkpt>
      <trkpt lat="49.31302" lon="1.36582">
        <ele>145</ele>
        <time>2009-03-22T08:57:17Z</time>
      </trkpt>
      <trkpt lat="49.31308" lon="1.3657">
        <ele>145</ele>
        <time>2009-03-22T08:57:19Z</time>
      </trkpt>
      <trkpt lat="49.31315" lon="1.36558">
        <ele>145</ele>
        <time>2009-03-22T08:57:21Z</time>
      </trkpt>
      <trkpt lat="49.3132" lon="1.36547">
        <ele>145</ele>
        <time>2009-03-22T08:57:23Z</time>
      </trkpt>
      <trkpt lat="49.31327" lon="1.36535">
        <ele>145</ele>
        <time>2009-03-22T08:57:25Z</time>
      </trkpt>
      <trkpt lat="49.31333" lon="1.36523">
        <ele>145</ele>
        <time>2009-03-22T08:57:27Z</time>
      </trkpt>
      <trkpt lat="49.31339" lon="1.36512">
        <ele>145</ele>
        <time>2009-03-22T08:57:29Z</time>
      </trkpt>
      <trkpt lat="49.31346" lon="1.36501">
        <ele>145</ele>
        <time>2009-03-22T08:57:31Z</time>
      </trkpt>
      <trkpt lat="49.31352" lon="1.3649">
        <ele>145</ele>
        <time>2009-03-22T08:57:33Z</time>
      </trkpt>
      <trkpt lat="49.31359" lon="1.36478">
        <ele>145</ele>
        <time>2009-03-22T08:57:35Z</time>
      </trkpt>
      <trkpt lat="49.31366" lon="1.36467">
        <ele>145</ele>
        <time>2009-03-22T08:57:37Z</time>
      </trkpt>
      <trkpt lat="49.31373" lon="1.36454">
        <ele>145</ele>
        <time>2009-03-22T08:57:39Z</time>
      </trkpt>
      <trkpt lat="49.3138" lon="1.36442">
        <ele>145</ele>
        <time>2009-03-22T08:57:41Z</time>
      </trkpt>
      <trkpt lat="49.31387" lon="1.36429">
        <ele>145</ele>
        <time>2009-03-22T08:57:43Z</time>
      </trkpt>
      <trkpt lat="49.31393" lon="1.36415">
        <ele>145</ele>
        <time>2009-03-22T08:57:45Z</time>
      </trkpt>
      <trkpt lat="49.31397" lon="1.36398">
        <ele>145</ele>
        <time>2009-03-22T08:57:47Z</time>
      </trkpt>
      <trkpt lat="49.314" lon="1.36383">
        <ele>145</ele>
        <time>2009-03-22T08:57:49Z</time>
      </trkpt>
      <trkpt lat="49.31403" lon="1.36367">
        <ele>145</ele>
        <time>2009-03-22T08:57:51Z</time>
      </trkpt>
      <trkpt lat="49.31406" lon="1.3635">
        <ele>145</ele>
        <time>2009-03-22T08:57:53Z</time>
      </trkpt>
      <trkpt lat="49.31409" lon="1.36334">
        <ele>145</ele>
        <time>2009-03-22T08:57:55Z</time>
      </trkpt>
      <trkpt lat="49.31413" lon="1.36318">
        <ele>145</ele>
        <time>2009-03-22T08:57:57Z</time>
      </trkpt>
      <trkpt lat="49.31416" lon="1.36301">
        <ele>145</ele>
        <time>2009-03-22T08:57:59Z</time>
      </trkpt>
      <trkpt lat="49.31419" lon="1.36286">
        <ele>145</ele>
        <time>2009-03-22T08:58:01Z</time>
      </trkpt>
      <trkpt lat="49.31421" lon="1.3627">
        <ele>145</ele>
        <time>2009-03-22T08:58:03Z</time>
      </trkpt>
      <trkpt lat="49.31424" lon="1.36255">
        <ele>145</ele>
        <time>2009-03-22T08:58:05Z</time>
      </trkpt>
      <trkpt lat="49.31428" lon="1.36239">
        <ele>145</ele>
        <time>2009-03-22T08:58:07Z</time>
      </trkpt>
      <trkpt lat="49.31432" lon="1.36224">
        <ele>145</ele>
        <time>2009-03-22T08:58:09Z</time>
      </trkpt>
      <trkpt lat="49.31436" lon="1.36209">
        <ele>145</ele>
        <time>2009-03-22T08:58:11Z</time>
      </trkpt>
      <trkpt lat="49.31438" lon="1.36193">
        <ele>145</ele>
        <time>2009-03-22T08:58:13Z</time>
      </trkpt>
      <trkpt lat="49.31443" lon="1.36177">
        <ele>145</ele>
        <time>2009-03-22T08:58:15Z</time>
      </trkpt>
      <trkpt lat="49.31446" lon="1.3616">
        <ele>145</ele>
        <time>2009-03-22T08:58:17Z</time>
      </trkpt>
      <trkpt lat="49.3145" lon="1.36144">
        <ele>145</ele>
        <time>2009-03-22T08:58:19Z</time>
      </trkpt>
      <trkpt lat="49.31453" lon="1.36129">
        <ele>145</ele>
        <time>2009-03-22T08:58:21Z</time>
      </trkpt>
      <trkpt lat="49.31455" lon="1.36115">
        <ele>145</ele>
        <time>2009-03-22T08:58:23Z</time>
      </trkpt>
      <trkpt lat="49.31459" lon="1.36098">
        <ele>145</ele>
        <time>2009-03-22T08:58:26Z</time>
      </trkpt>
      <trkpt lat="49.31463" lon="1.3608">
        <ele>145</ele>
        <time>2009-03-22T08:58:29Z</time>
      </trkpt>
      <trkpt lat="49.31466" lon="1.36065">
        <ele>145</ele>
        <time>2009-03-22T08:58:32Z</time>
      </trkpt>
      <trkpt lat="49.31469" lon="1.3605">
        <ele>145</ele>
        <time>2009-03-22T08:58:35Z</time>
      </trkpt>
      <trkpt lat="49.31473" lon="1.36033">
        <ele>145</ele>
        <time>2009-03-22T08:58:38Z</time>
      </trkpt>
      <trkpt lat="49.31476" lon="1.36016">
        <ele>145</ele>
        <time>2009-03-22T08:58:41Z</time>
      </trkpt>
      <trkpt lat="49.3148" lon="1.35998">
        <ele>145</ele>
        <time>2009-03-22T08:58:44Z</time>
      </trkpt>
      <trkpt lat="49.31483" lon="1.35981">
        <ele>145</ele>
        <time>2009-03-22T08:58:47Z</time>
      </trkpt>
      <trkpt lat="49.31487" lon="1.35962">
        <ele>145</ele>
        <time>2009-03-22T08:58:50Z</time>
      </trkpt>
      <trkpt lat="49.3149" lon="1.35948">
        <ele>145</ele>
        <time>2009-03-22T08:58:52Z</time>
      </trkpt>
      <trkpt lat="49.31493" lon="1.35935">
        <ele>145</ele>
        <time>2009-03-22T08:58:54Z</time>
      </trkpt>
      <trkpt lat="49.31497" lon="1.35915">
        <ele>145</ele>
        <time>2009-03-22T08:58:57Z</time>
      </trkpt>
      <trkpt lat="49.31501" lon="1.35895">
        <ele>145</ele>
        <time>2009-03-22T08:59:00Z</time>
      </trkpt>
      <trkpt lat="49.31504" lon="1.35882">
        <ele>145</ele>
        <time>2009-03-22T08:59:02Z</time>
      </trkpt>
      <trkpt lat="49.31507" lon="1.35868">
        <ele>145</ele>
        <time>2009-03-22T08:59:04Z</time>
      </trkpt>
      <trkpt lat="49.31511" lon="1.35853">
        <ele>145</ele>
        <time>2009-03-22T08:59:06Z</time>
      </trkpt>
      <trkpt lat="49.31514" lon="1.35837">
        <ele>145</ele>
        <time>2009-03-22T08:59:08Z</time>
      </trkpt>
      <trkpt lat="49.31518" lon="1.35822">
        <ele>145</ele>
        <time>2009-03-22T08:59:10Z</time>
      </trkpt>
      <trkpt lat="49.31521" lon="1.35806">
        <ele>145</ele>
        <time>2009-03-22T08:59:12Z</time>
      </trkpt>
      <trkpt lat="49.31524" lon="1.35791">
        <ele>145</ele>
        <time>2009-03-22T08:59:14Z</time>
      </trkpt>
      <trkpt lat="49.31526" lon="1.35776">
        <ele>145</ele>
        <time>2009-03-22T08:59:16Z</time>
      </trkpt>
      <trkpt lat="49.31528" lon="1.35762">
        <ele>145</ele>
        <time>2009-03-22T08:59:18Z</time>
      </trkpt>
      <trkpt lat="49.3153" lon="1.35746">
        <ele>145</ele>
        <time>2009-03-22T08:59:20Z</time>
      </trkpt>
      <trkpt lat="49.31532" lon="1.35731">
        <ele>145</ele>
        <time>2009-03-22T08:59:22Z</time>
      </trkpt>
      <trkpt lat="49.31534" lon="1.35716">
        <ele>140</ele>
        <time>2009-03-22T08:59:24Z</time>
      </trkpt>
      <trkpt lat="49.31537" lon="1.357">
        <ele>140</ele>
        <time>2009-03-22T08:59:26Z</time>
      </trkpt>
      <trkpt lat="49.31539" lon="1.35685">
        <ele>140</ele>
        <time>2009-03-22T08:59:28Z</time>
      </trkpt>
      <trkpt lat="49.31541" lon="1.3567">
        <ele>140</ele>
        <time>2009-03-22T08:59:30Z</time>
      </trkpt>
      <trkpt lat="49.31545" lon="1.35656">
        <ele>140</ele>
        <time>2009-03-22T08:59:32Z</time>
      </trkpt>
      <trkpt lat="49.31547" lon="1.35641">
        <ele>140</ele>
        <time>2009-03-22T08:59:34Z</time>
      </trkpt>
      <trkpt lat="49.31549" lon="1.35628">
        <ele>140</ele>
        <time>2009-03-22T08:59:36Z</time>
      </trkpt>
      <trkpt lat="49.31552" lon="1.35613">
        <ele>140</ele>
        <time>2009-03-22T08:59:38Z</time>
      </trkpt>
      <trkpt lat="49.31554" lon="1.35598">
        <ele>140</ele>
        <time>2009-03-22T08:59:40Z</time>
      </trkpt>
      <trkpt lat="49.31555" lon="1.35582">
        <ele>140</ele>
        <time>2009-03-22T08:59:42Z</time>
      </trkpt>
      <trkpt lat="49.31557" lon="1.35567">
        <ele>140</ele>
        <time>2009-03-22T08:59:44Z</time>
      </trkpt>
      <trkpt lat="49.31559" lon="1.35551">
        <ele>140</ele>
        <time>2009-03-22T08:59:46Z</time>
      </trkpt>
      <trkpt lat="49.31561" lon="1.35537">
        <ele>140</ele>
        <time>2009-03-22T08:59:48Z</time>
      </trkpt>
      <trkpt lat="49.31562" lon="1.35523">
        <ele>140</ele>
        <time>2009-03-22T08:59:50Z</time>
      </trkpt>
      <trkpt lat="49.31563" lon="1.35508">
        <ele>140</ele>
        <time>2009-03-22T08:59:52Z</time>
      </trkpt>
      <trkpt lat="49.31565" lon="1.35494">
        <ele>140</ele>
        <time>2009-03-22T08:59:54Z</time>
      </trkpt>
      <trkpt lat="49.31566" lon="1.35479">
        <ele>140</ele>
        <time>2009-03-22T08:59:56Z</time>
      </trkpt>
      <trkpt lat="49.31567" lon="1.35465">
        <ele>140</ele>
        <time>2009-03-22T08:59:58Z</time>
      </trkpt>
      <trkpt lat="49.31568" lon="1.35451">
        <ele>140</ele>
        <time>2009-03-22T09:00:00Z</time>
      </trkpt>
      <trkpt lat="49.3157" lon="1.35436">
        <ele>140</ele>
        <time>2009-03-22T09:00:02Z</time>
      </trkpt>
      <trkpt lat="49.31573" lon="1.35416">
        <ele>140</ele>
        <time>2009-03-22T09:00:05Z</time>
      </trkpt>
      <trkpt lat="49.31576" lon="1.35395">
        <ele>140</ele>
        <time>2009-03-22T09:00:08Z</time>
      </trkpt>
      <trkpt lat="49.31577" lon="1.35381">
        <ele>140</ele>
        <time>2009-03-22T09:00:10Z</time>
      </trkpt>
      <trkpt lat="49.31579" lon="1.35366">
        <ele>140</ele>
        <time>2009-03-22T09:00:12Z</time>
      </trkpt>
      <trkpt lat="49.31581" lon="1.35352">
        <ele>140</ele>
        <time>2009-03-22T09:00:14Z</time>
      </trkpt>
      <trkpt lat="49.31584" lon="1.35338">
        <ele>140</ele>
        <time>2009-03-22T09:00:16Z</time>
      </trkpt>
      <trkpt lat="49.31585" lon="1.35323">
        <ele>140</ele>
        <time>2009-03-22T09:00:18Z</time>
      </trkpt>
      <trkpt lat="49.31588" lon="1.35308">
        <ele>140</ele>
        <time>2009-03-22T09:00:20Z</time>
      </trkpt>
      <trkpt lat="49.3159" lon="1.35293">
        <ele>140</ele>
        <time>2009-03-22T09:00:22Z</time>
      </trkpt>
      <trkpt lat="49.31592" lon="1.35279">
        <ele>140</ele>
        <time>2009-03-22T09:00:24Z</time>
      </trkpt>
      <trkpt lat="49.31595" lon="1.35266">
        <ele>140</ele>
        <time>2009-03-22T09:00:26Z</time>
      </trkpt>
      <trkpt lat="49.31597" lon="1.35252">
        <ele>140</ele>
        <time>2009-03-22T09:00:28Z</time>
      </trkpt>
      <trkpt lat="49.31601" lon="1.35233">
        <ele>140</ele>
        <time>2009-03-22T09:00:31Z</time>
      </trkpt>
      <trkpt lat="49.31602" lon="1.35216">
        <ele>140</ele>
        <time>2009-03-22T09:00:34Z</time>
      </trkpt>
      <trkpt lat="49.31604" lon="1.35201">
        <ele>140</ele>
        <time>2009-03-22T09:00:37Z</time>
      </trkpt>
      <trkpt lat="49.31607" lon="1.35185">
        <ele>140</ele>
        <time>2009-03-22T09:00:40Z</time>
      </trkpt>
      <trkpt lat="49.31609" lon="1.35169">
        <ele>140</ele>
        <time>2009-03-22T09:00:43Z</time>
      </trkpt>
      <trkpt lat="49.31612" lon="1.35152">
        <ele>140</ele>
        <time>2009-03-22T09:00:46Z</time>
      </trkpt>
      <trkpt lat="49.31615" lon="1.35136">
        <ele>140</ele>
        <time>2009-03-22T09:00:49Z</time>
      </trkpt>
      <trkpt lat="49.31617" lon="1.35119">
        <ele>140</ele>
        <time>2009-03-22T09:00:52Z</time>
      </trkpt>
      <trkpt lat="49.31619" lon="1.35103">
        <ele>140</ele>
        <time>2009-03-22T09:00:55Z</time>
      </trkpt>
      <trkpt lat="49.31622" lon="1.35085">
        <ele>140</ele>
        <time>2009-03-22T09:00:58Z</time>
      </trkpt>
      <trkpt lat="49.31626" lon="1.35067">
        <ele>140</ele>
        <time>2009-03-22T09:01:01Z</time>
      </trkpt>
      <trkpt lat="49.31628" lon="1.35054">
        <ele>140</ele>
        <time>2009-03-22T09:01:03Z</time>
      </trkpt>
      <trkpt lat="49.31631" lon="1.35034">
        <ele>140</ele>
        <time>2009-03-22T09:01:06Z</time>
      </trkpt>
      <trkpt lat="49.31635" lon="1.35014">
        <ele>140</ele>
        <time>2009-03-22T09:01:09Z</time>
      </trkpt>
      <trkpt lat="49.31639" lon="1.34994">
        <ele>140</ele>
        <time>2009-03-22T09:01:12Z</time>
      </trkpt>
      <trkpt lat="49.31642" lon="1.34981">
        <ele>140</ele>
        <time>2009-03-22T09:01:14Z</time>
      </trkpt>
      <trkpt lat="49.31645" lon="1.34967">
        <ele>140</ele>
        <time>2009-03-22T09:01:16Z</time>
      </trkpt>
      <trkpt lat="49.31648" lon="1.34953">
        <ele>140</ele>
        <time>2009-03-22T09:01:18Z</time>
      </trkpt>
      <trkpt lat="49.31651" lon="1.34938">
        <ele>140</ele>
        <time>2009-03-22T09:01:20Z</time>
      </trkpt>
      <trkpt lat="49.31654" lon="1.34923">
        <ele>140</ele>
        <time>2009-03-22T09:01:22Z</time>
      </trkpt>
      <trkpt lat="49.31658" lon="1.34908">
        <ele>140</ele>
        <time>2009-03-22T09:01:24Z</time>
      </trkpt>
      <trkpt lat="49.31662" lon="1.34893">
        <ele>140</ele>
        <time>2009-03-22T09:01:26Z</time>
      </trkpt>
      <trkpt lat="49.31665" lon="1.34877">
        <ele>140</ele>
        <time>2009-03-22T09:01:28Z</time>
      </trkpt>
      <trkpt lat="49.31668" lon="1.34861">
        <ele>140</ele>
        <time>2009-03-22T09:01:30Z</time>
      </trkpt>
      <trkpt lat="49.31672" lon="1.34845">
        <ele>140</ele>
        <time>2009-03-22T09:01:32Z</time>
      </trkpt>
      <trkpt lat="49.31676" lon="1.3483">
        <ele>140</ele>
        <time>2009-03-22T09:01:34Z</time>
      </trkpt>
      <trkpt lat="49.31678" lon="1.34814">
        <ele>140</ele>
        <time>2009-03-22T09:01:36Z</time>
      </trkpt>
      <trkpt lat="49.31681" lon="1.34798">
        <ele>140</ele>
        <time>2009-03-22T09:01:38Z</time>
      </trkpt>
      <trkpt lat="49.31683" lon="1.34783">
        <ele>140</ele>
        <time>2009-03-22T09:01:40Z</time>
      </trkpt>
      <trkpt lat="49.31685" lon="1.34768">
        <ele>140</ele>
        <time>2009-03-22T09:01:42Z</time>
      </trkpt>
      <trkpt lat="49.31685" lon="1.34751">
        <ele>140</ele>
        <time>2009-03-22T09:01:44Z</time>
      </trkpt>
      <trkpt lat="49.31686" lon="1.34734">
        <ele>140</ele>
        <time>2009-03-22T09:01:46Z</time>
      </trkpt>
      <trkpt lat="49.31687" lon="1.34713">
        <ele>140</ele>
        <time>2009-03-22T09:01:48Z</time>
      </trkpt>
      <trkpt lat="49.31686" lon="1.34692">
        <ele>140</ele>
        <time>2009-03-22T09:01:50Z</time>
      </trkpt>
      <trkpt lat="49.31687" lon="1.34668">
        <ele>140</ele>
        <time>2009-03-22T09:01:52Z</time>
      </trkpt>
      <trkpt lat="49.31687" lon="1.34643">
        <ele>135</ele>
        <time>2009-03-22T09:01:54Z</time>
      </trkpt>
      <trkpt lat="49.31688" lon="1.34617">
        <ele>135</ele>
        <time>2009-03-22T09:01:56Z</time>
      </trkpt>
      <trkpt lat="49.3169" lon="1.34593">
        <ele>135</ele>
        <time>2009-03-22T09:01:58Z</time>
      </trkpt>
      <trkpt lat="49.31693" lon="1.34569">
        <ele>135</ele>
        <time>2009-03-22T09:02:00Z</time>
      </trkpt>
      <trkpt lat="49.31697" lon="1.34546">
        <ele>135</ele>
        <time>2009-03-22T09:02:02Z</time>
      </trkpt>
      <trkpt lat="49.31701" lon="1.34525">
        <ele>135</ele>
        <time>2009-03-22T09:02:04Z</time>
      </trkpt>
      <trkpt lat="49.31705" lon="1.34504">
        <ele>135</ele>
        <time>2009-03-22T09:02:06Z</time>
      </trkpt>
      <trkpt lat="49.31709" lon="1.34483">
        <ele>135</ele>
        <time>2009-03-22T09:02:08Z</time>
      </trkpt>
      <trkpt lat="49.31712" lon="1.34464">
        <ele>135</ele>
        <time>2009-03-22T09:02:10Z</time>
      </trkpt>
      <trkpt lat="49.31715" lon="1.34446">
        <ele>135</ele>
        <time>2009-03-22T09:02:12Z</time>
      </trkpt>
      <trkpt lat="49.31716" lon="1.34428">
        <ele>135</ele>
        <time>2009-03-22T09:02:14Z</time>
      </trkpt>
      <trkpt lat="49.31715" lon="1.34411">
        <ele>135</ele>
        <time>2009-03-22T09:02:16Z</time>
      </trkpt>
      <trkpt lat="49.31713" lon="1.34395">
        <ele>135</ele>
        <time>2009-03-22T09:02:18Z</time>
      </trkpt>
      <trkpt lat="49.3171" lon="1.3438">
        <ele>140</ele>
        <time>2009-03-22T09:02:20Z</time>
      </trkpt>
      <trkpt lat="49.31707" lon="1.34366">
        <ele>140</ele>
        <time>2009-03-22T09:02:22Z</time>
      </trkpt>
      <trkpt lat="49.31703" lon="1.34352">
        <ele>140</ele>
        <time>2009-03-22T09:02:24Z</time>
      </trkpt>
      <trkpt lat="49.31699" lon="1.34339">
        <ele>140</ele>
        <time>2009-03-22T09:02:26Z</time>
      </trkpt>
      <trkpt lat="49.31696" lon="1.34324">
        <ele>140</ele>
        <time>2009-03-22T09:02:28Z</time>
      </trkpt>
      <trkpt lat="49.31692" lon="1.34311">
        <ele>140</ele>
        <time>2009-03-22T09:02:30Z</time>
      </trkpt>
      <trkpt lat="49.31689" lon="1.34297">
        <ele>140</ele>
        <time>2009-03-22T09:02:32Z</time>
      </trkpt>
      <trkpt lat="49.31685" lon="1.34284">
        <ele>140</ele>
        <time>2009-03-22T09:02:34Z</time>
      </trkpt>
      <trkpt lat="49.31682" lon="1.34269">
        <ele>140</ele>
        <time>2009-03-22T09:02:36Z</time>
      </trkpt>
      <trkpt lat="49.31678" lon="1.34256">
        <ele>145</ele>
        <time>2009-03-22T09:02:38Z</time>
      </trkpt>
      <trkpt lat="49.31674" lon="1.34242">
        <ele>145</ele>
        <time>2009-03-22T09:02:40Z</time>
      </trkpt>
      <trkpt lat="49.3167" lon="1.34227">
        <ele>145</ele>
        <time>2009-03-22T09:02:42Z</time>
      </trkpt>
      <trkpt lat="49.31666" lon="1.34213">
        <ele>145</ele>
        <time>2009-03-22T09:02:44Z</time>
      </trkpt>
      <trkpt lat="49.31662" lon="1.34195">
        <ele>145</ele>
        <time>2009-03-22T09:02:47Z</time>
      </trkpt>
      <trkpt lat="49.31657" lon="1.34178">
        <ele>145</ele>
        <time>2009-03-22T09:02:50Z</time>
      </trkpt>
      <trkpt lat="49.31653" lon="1.34161">
        <ele>145</ele>
        <time>2009-03-22T09:02:53Z</time>
      </trkpt>
      <trkpt lat="49.31648" lon="1.34143">
        <ele>145</ele>
        <time>2009-03-22T09:02:56Z</time>
      </trkpt>
      <trkpt lat="49.31643" lon="1.34125">
        <ele>145</ele>
        <time>2009-03-22T09:02:59Z</time>
      </trkpt>
      <trkpt lat="49.31638" lon="1.34106">
        <ele>145</ele>
        <time>2009-03-22T09:03:02Z</time>
      </trkpt>
      <trkpt lat="49.31633" lon="1.34088">
        <ele>151</ele>
        <time>2009-03-22T09:03:05Z</time>
      </trkpt>
      <trkpt lat="49.31629" lon="1.3407">
        <ele>151</ele>
        <time>2009-03-22T09:03:08Z</time>
      </trkpt>
      <trkpt lat="49.31623" lon="1.34051">
        <ele>151</ele>
        <time>2009-03-22T09:03:11Z</time>
      </trkpt>
      <trkpt lat="49.31619" lon="1.34032">
        <ele>151</ele>
        <time>2009-03-22T09:03:14Z</time>
      </trkpt>
      <trkpt lat="49.31614" lon="1.34013">
        <ele>151</ele>
        <time>2009-03-22T09:03:17Z</time>
      </trkpt>
      <trkpt lat="49.3161" lon="1.34">
        <ele>151</ele>
        <time>2009-03-22T09:03:19Z</time>
      </trkpt>
      <trkpt lat="49.31606" lon="1.33986">
        <ele>151</ele>
        <time>2009-03-22T09:03:21Z</time>
      </trkpt>
      <trkpt lat="49.31603" lon="1.33973">
        <ele>151</ele>
        <time>2009-03-22T09:03:23Z</time>
      </trkpt>
      <trkpt lat="49.31599" lon="1.3396">
        <ele>151</ele>
        <time>2009-03-22T09:03:25Z</time>
      </trkpt>
      <trkpt lat="49.31594" lon="1.33941">
        <ele>151</ele>
        <time>2009-03-22T09:03:28Z</time>
      </trkpt>
      <trkpt lat="49.31589" lon="1.33922">
        <ele>151</ele>
        <time>2009-03-22T09:03:31Z</time>
      </trkpt>
      <trkpt lat="49.31586" lon="1.33908">
        <ele>151</ele>
        <time>2009-03-22T09:03:33Z</time>
      </trkpt>
      <trkpt lat="49.31581" lon="1.33889">
        <ele>151</ele>
        <time>2009-03-22T09:03:36Z</time>
      </trkpt>
      <trkpt lat="49.31577" lon="1.33874">
        <ele>151</ele>
        <time>2009-03-22T09:03:38Z</time>
      </trkpt>
      <trkpt lat="49.31574" lon="1.3386">
        <ele>151</ele>
        <time>2009-03-22T09:03:40Z</time>
      </trkpt>
      <trkpt lat="49.31571" lon="1.33845">
        <ele>151</ele>
        <time>2009-03-22T09:03:42Z</time>
      </trkpt>
      <trkpt lat="49.31567" lon="1.33828">
        <ele>151</ele>
        <time>2009-03-22T09:03:44Z</time>
      </trkpt>
      <trkpt lat="49.31564" lon="1.33813">
        <ele>151</ele>
        <time>2009-03-22T09:03:46Z</time>
      </trkpt>
      <trkpt lat="49.31561" lon="1.33798">
        <ele>151</ele>
        <time>2009-03-22T09:03:48Z</time>
      </trkpt>
      <trkpt lat="49.31558" lon="1.33782">
        <ele>151</ele>
        <time>2009-03-22T09:03:50Z</time>
      </trkpt>
      <trkpt lat="49.31556" lon="1.33768">
        <ele>151</ele>
        <time>2009-03-22T09:03:52Z</time>
      </trkpt>
      <trkpt lat="49.31553" lon="1.33752">
        <ele>151</ele>
        <time>2009-03-22T09:03:56Z</time>
      </trkpt>
      <trkpt lat="49.31551" lon="1.33739">
        <ele>151</ele>
        <time>2009-03-22T09:03:59Z</time>
      </trkpt>
      <trkpt lat="49.31547" lon="1.33725">
        <ele>146</ele>
        <time>2009-03-22T09:04:02Z</time>
      </trkpt>
      <trkpt lat="49.31546" lon="1.3371">
        <ele>146</ele>
        <time>2009-03-22T09:04:08Z</time>
      </trkpt>
      <trkpt lat="49.31543" lon="1.33696">
        <ele>146</ele>
        <time>2009-03-22T09:04:13Z</time>
      </trkpt>
      <trkpt lat="49.3154" lon="1.33682">
        <ele>146</ele>
        <time>2009-03-22T09:04:17Z</time>
      </trkpt>
      <trkpt lat="49.31538" lon="1.33664">
        <ele>146</ele>
        <time>2009-03-22T09:04:21Z</time>
      </trkpt>
      <trkpt lat="49.31535" lon="1.33649">
        <ele>146</ele>
        <time>2009-03-22T09:04:24Z</time>
      </trkpt>
      <trkpt lat="49.31532" lon="1.33632">
        <ele>146</ele>
        <time>2009-03-22T09:04:27Z</time>
      </trkpt>
      <trkpt lat="49.31528" lon="1.33613">
        <ele>146</ele>
        <time>2009-03-22T09:04:30Z</time>
      </trkpt>
      <trkpt lat="49.31526" lon="1.33598">
        <ele>146</ele>
        <time>2009-03-22T09:04:32Z</time>
      </trkpt>
      <trkpt lat="49.31523" lon="1.33584">
        <ele>146</ele>
        <time>2009-03-22T09:04:34Z</time>
      </trkpt>
      <trkpt lat="49.31521" lon="1.3357">
        <ele>146</ele>
        <time>2009-03-22T09:04:36Z</time>
      </trkpt>
      <trkpt lat="49.31518" lon="1.33555">
        <ele>146</ele>
        <time>2009-03-22T09:04:38Z</time>
      </trkpt>
      <trkpt lat="49.31516" lon="1.33541">
        <ele>146</ele>
        <time>2009-03-22T09:04:40Z</time>
      </trkpt>
      <trkpt lat="49.31514" lon="1.33527">
        <ele>146</ele>
        <time>2009-03-22T09:04:42Z</time>
      </trkpt>
      <trkpt lat="49.31511" lon="1.33513">
        <ele>146</ele>
        <time>2009-03-22T09:04:44Z</time>
      </trkpt>
      <trkpt lat="49.31509" lon="1.33499">
        <ele>146</ele>
        <time>2009-03-22T09:04:46Z</time>
      </trkpt>
      <trkpt lat="49.31507" lon="1.33484">
        <ele>146</ele>
        <time>2009-03-22T09:04:48Z</time>
      </trkpt>
      <trkpt lat="49.31504" lon="1.3347">
        <ele>146</ele>
        <time>2009-03-22T09:04:50Z</time>
      </trkpt>
      <trkpt lat="49.31502" lon="1.33456">
        <ele>146</ele>
        <time>2009-03-22T09:04:52Z</time>
      </trkpt>
      <trkpt lat="49.31499" lon="1.33442">
        <ele>146</ele>
        <time>2009-03-22T09:04:54Z</time>
      </trkpt>
      <trkpt lat="49.31497" lon="1.33427">
        <ele>146</ele>
        <time>2009-03-22T09:04:56Z</time>
      </trkpt>
      <trkpt lat="49.31494" lon="1.33411">
        <ele>140</ele>
        <time>2009-03-22T09:04:58Z</time>
      </trkpt>
      <trkpt lat="49.31491" lon="1.33395">
        <ele>140</ele>
        <time>2009-03-22T09:05:00Z</time>
      </trkpt>
      <trkpt lat="49.31489" lon="1.33381">
        <ele>140</ele>
        <time>2009-03-22T09:05:02Z</time>
      </trkpt>
      <trkpt lat="49.31487" lon="1.33367">
        <ele>140</ele>
        <time>2009-03-22T09:05:04Z</time>
      </trkpt>
      <trkpt lat="49.31483" lon="1.33353">
        <ele>140</ele>
        <time>2009-03-22T09:05:06Z</time>
      </trkpt>
      <trkpt lat="49.3148" lon="1.33335">
        <ele>140</ele>
        <time>2009-03-22T09:05:09Z</time>
      </trkpt>
      <trkpt lat="49.31477" lon="1.33319">
        <ele>140</ele>
        <time>2009-03-22T09:05:12Z</time>
      </trkpt>
      <trkpt lat="49.31474" lon="1.33304">
        <ele>140</ele>
        <time>2009-03-22T09:05:15Z</time>
      </trkpt>
      <trkpt lat="49.3147" lon="1.33288">
        <ele>133</ele>
        <time>2009-03-22T09:05:18Z</time>
      </trkpt>
      <trkpt lat="49.31466" lon="1.33271">
        <ele>133</ele>
        <time>2009-03-22T09:05:21Z</time>
      </trkpt>
      <trkpt lat="49.31462" lon="1.33258">
        <ele>133</ele>
        <time>2009-03-22T09:05:23Z</time>
      </trkpt>
      <trkpt lat="49.31458" lon="1.33242">
        <ele>133</ele>
        <time>2009-03-22T09:05:26Z</time>
      </trkpt>
      <trkpt lat="49.31451" lon="1.33228">
        <ele>127</ele>
        <time>2009-03-22T09:05:29Z</time>
      </trkpt>
      <trkpt lat="49.31442" lon="1.3322">
        <ele>127</ele>
        <time>2009-03-22T09:05:31Z</time>
      </trkpt>
      <trkpt lat="49.31434" lon="1.33212">
        <ele>127</ele>
        <time>2009-03-22T09:05:33Z</time>
      </trkpt>
      <trkpt lat="49.31421" lon="1.33204">
        <ele>127</ele>
        <time>2009-03-22T09:05:35Z</time>
      </trkpt>
      <trkpt lat="49.31407" lon="1.33195">
        <ele>127</ele>
        <time>2009-03-22T09:05:37Z</time>
      </trkpt>
      <trkpt lat="49.31394" lon="1.33191">
        <ele>127</ele>
        <time>2009-03-22T09:05:39Z</time>
      </trkpt>
      <trkpt lat="49.3138" lon="1.33188">
        <ele>127</ele>
        <time>2009-03-22T09:05:41Z</time>
      </trkpt>
      <trkpt lat="49.31366" lon="1.33186">
        <ele>121</ele>
        <time>2009-03-22T09:05:43Z</time>
      </trkpt>
      <trkpt lat="49.31351" lon="1.3319">
        <ele>121</ele>
        <time>2009-03-22T09:05:45Z</time>
      </trkpt>
      <trkpt lat="49.31338" lon="1.33196">
        <ele>121</ele>
        <time>2009-03-22T09:05:47Z</time>
      </trkpt>
      <trkpt lat="49.31327" lon="1.33209">
        <ele>121</ele>
        <time>2009-03-22T09:05:49Z</time>
      </trkpt>
      <trkpt lat="49.31317" lon="1.33232">
        <ele>121</ele>
        <time>2009-03-22T09:05:51Z</time>
      </trkpt>
      <trkpt lat="49.31311" lon="1.33244">
        <ele>121</ele>
        <time>2009-03-22T09:05:52Z</time>
      </trkpt>
      <trkpt lat="49.31307" lon="1.33257">
        <ele>121</ele>
        <time>2009-03-22T09:05:53Z</time>
      </trkpt>
      <trkpt lat="49.31303" lon="1.33271">
        <ele>121</ele>
        <time>2009-03-22T09:05:54Z</time>
      </trkpt>
      <trkpt lat="49.31297" lon="1.33284">
        <ele>121</ele>
        <time>2009-03-22T09:05:55Z</time>
      </trkpt>
      <trkpt lat="49.31292" lon="1.33297">
        <ele>121</ele>
        <time>2009-03-22T09:05:56Z</time>
      </trkpt>
      <trkpt lat="49.31285" lon="1.33311">
        <ele>121</ele>
        <time>2009-03-22T09:05:57Z</time>
      </trkpt>
      <trkpt lat="49.31279" lon="1.33324">
        <ele>121</ele>
        <time>2009-03-22T09:05:58Z</time>
      </trkpt>
      <trkpt lat="49.31273" lon="1.33334">
        <ele>121</ele>
        <time>2009-03-22T09:05:59Z</time>
      </trkpt>
      <trkpt lat="49.31261" lon="1.33353">
        <ele>121</ele>
        <time>2009-03-22T09:06:01Z</time>
      </trkpt>
      <trkpt lat="49.31247" lon="1.33368">
        <ele>121</ele>
        <time>2009-03-22T09:06:03Z</time>
      </trkpt>
      <trkpt lat="49.31239" lon="1.33376">
        <ele>121</ele>
        <time>2009-03-22T09:06:04Z</time>
      </trkpt>
      <trkpt lat="49.31222" lon="1.3339">
        <ele>121</ele>
        <time>2009-03-22T09:06:06Z</time>
      </trkpt>
      <trkpt lat="49.31214" lon="1.33394">
        <ele>121</ele>
        <time>2009-03-22T09:06:07Z</time>
      </trkpt>
      <trkpt lat="49.31195" lon="1.33401">
        <ele>121</ele>
        <time>2009-03-22T09:06:09Z</time>
      </trkpt>
      <trkpt lat="49.31185" lon="1.33401">
        <ele>121</ele>
        <time>2009-03-22T09:06:10Z</time>
      </trkpt>
      <trkpt lat="49.31176" lon="1.33397">
        <ele>121</ele>
        <time>2009-03-22T09:06:11Z</time>
      </trkpt>
      <trkpt lat="49.31167" lon="1.3338">
        <ele>121</ele>
        <time>2009-03-22T09:06:13Z</time>
      </trkpt>
      <trkpt lat="49.31161" lon="1.33359">
        <ele>121</ele>
        <time>2009-03-22T09:06:15Z</time>
      </trkpt>
      <trkpt lat="49.31157" lon="1.3334">
        <ele>121</ele>
        <time>2009-03-22T09:06:17Z</time>
      </trkpt>
      <trkpt lat="49.31155" lon="1.33324">
        <ele>121</ele>
        <time>2009-03-22T09:06:19Z</time>
      </trkpt>
      <trkpt lat="49.31152" lon="1.33305">
        <ele>121</ele>
        <time>2009-03-22T09:06:22Z</time>
      </trkpt>
      <trkpt lat="49.31151" lon="1.3329">
        <ele>121</ele>
        <time>2009-03-22T09:06:25Z</time>
      </trkpt>
      <trkpt lat="49.3115" lon="1.33276">
        <ele>121</ele>
        <time>2009-03-22T09:06:28Z</time>
      </trkpt>
      <trkpt lat="49.31147" lon="1.33262">
        <ele>121</ele>
        <time>2009-03-22T09:06:31Z</time>
      </trkpt>
      <trkpt lat="49.31145" lon="1.33244">
        <ele>121</ele>
        <time>2009-03-22T09:06:35Z</time>
      </trkpt>
      <trkpt lat="49.31143" lon="1.33226">
        <ele>121</ele>
        <time>2009-03-22T09:06:39Z</time>
      </trkpt>
      <trkpt lat="49.31142" lon="1.33211">
        <ele>127</ele>
        <time>2009-03-22T09:06:42Z</time>
      </trkpt>
      <trkpt lat="49.3114" lon="1.33197">
        <ele>127</ele>
        <time>2009-03-22T09:06:45Z</time>
      </trkpt>
      <trkpt lat="49.31138" lon="1.33181">
        <ele>127</ele>
        <time>2009-03-22T09:06:48Z</time>
      </trkpt>
      <trkpt lat="49.31136" lon="1.33162">
        <ele>127</ele>
        <time>2009-03-22T09:06:51Z</time>
      </trkpt>
      <trkpt lat="49.31135" lon="1.33144">
        <ele>127</ele>
        <time>2009-03-22T09:06:54Z</time>
      </trkpt>
      <trkpt lat="49.31133" lon="1.33125">
        <ele>127</ele>
        <time>2009-03-22T09:06:57Z</time>
      </trkpt>
      <trkpt lat="49.31132" lon="1.33105">
        <ele>127</ele>
        <time>2009-03-22T09:07:00Z</time>
      </trkpt>
      <trkpt lat="49.3113" lon="1.33085">
        <ele>132</ele>
        <time>2009-03-22T09:07:03Z</time>
      </trkpt>
      <trkpt lat="49.31128" lon="1.33067">
        <ele>132</ele>
        <time>2009-03-22T09:07:06Z</time>
      </trkpt>
      <trkpt lat="49.31127" lon="1.33049">
        <ele>132</ele>
        <time>2009-03-22T09:07:09Z</time>
      </trkpt>
      <trkpt lat="49.31126" lon="1.3303">
        <ele>132</ele>
        <time>2009-03-22T09:07:12Z</time>
      </trkpt>
      <trkpt lat="49.31124" lon="1.3301">
        <ele>132</ele>
        <time>2009-03-22T09:07:15Z</time>
      </trkpt>
      <trkpt lat="49.31123" lon="1.32991">
        <ele>132</ele>
        <time>2009-03-22T09:07:18Z</time>
      </trkpt>
      <trkpt lat="49.31122" lon="1.32971">
        <ele>132</ele>
        <time>2009-03-22T09:07:21Z</time>
      </trkpt>
      <trkpt lat="49.31121" lon="1.32952">
        <ele>132</ele>
        <time>2009-03-22T09:07:24Z</time>
      </trkpt>
      <trkpt lat="49.3112" lon="1.32932">
        <ele>132</ele>
        <time>2009-03-22T09:07:27Z</time>
      </trkpt>
      <trkpt lat="49.31118" lon="1.32911">
        <ele>132</ele>
        <time>2009-03-22T09:07:30Z</time>
      </trkpt>
      <trkpt lat="49.31117" lon="1.32891">
        <ele>132</ele>
        <time>2009-03-22T09:07:33Z</time>
      </trkpt>
      <trkpt lat="49.31117" lon="1.32872">
        <ele>132</ele>
        <time>2009-03-22T09:07:36Z</time>
      </trkpt>
      <trkpt lat="49.31117" lon="1.32852">
        <ele>132</ele>
        <time>2009-03-22T09:07:39Z</time>
      </trkpt>
      <trkpt lat="49.31118" lon="1.32832">
        <ele>132</ele>
        <time>2009-03-22T09:07:42Z</time>
      </trkpt>
      <trkpt lat="49.31119" lon="1.32814">
        <ele>132</ele>
        <time>2009-03-22T09:07:45Z</time>
      </trkpt>
      <trkpt lat="49.31121" lon="1.32796">
        <ele>138</ele>
        <time>2009-03-22T09:07:48Z</time>
      </trkpt>
      <trkpt lat="49.31122" lon="1.3278">
        <ele>138</ele>
        <time>2009-03-22T09:07:51Z</time>
      </trkpt>
      <trkpt lat="49.31124" lon="1.32764">
        <ele>138</ele>
        <time>2009-03-22T09:07:54Z</time>
      </trkpt>
      <trkpt lat="49.31125" lon="1.32747">
        <ele>138</ele>
        <time>2009-03-22T09:07:57Z</time>
      </trkpt>
      <trkpt lat="49.31127" lon="1.32729">
        <ele>138</ele>
        <time>2009-03-22T09:08:00Z</time>
      </trkpt>
      <trkpt lat="49.31128" lon="1.32711">
        <ele>138</ele>
        <time>2009-03-22T09:08:03Z</time>
      </trkpt>
      <trkpt lat="49.3113" lon="1.32692">
        <ele>138</ele>
        <time>2009-03-22T09:08:06Z</time>
      </trkpt>
      <trkpt lat="49.3113" lon="1.32673">
        <ele>138</ele>
        <time>2009-03-22T09:08:09Z</time>
      </trkpt>
      <trkpt lat="49.31131" lon="1.32653">
        <ele>138</ele>
        <time>2009-03-22T09:08:12Z</time>
      </trkpt>
      <trkpt lat="49.3113" lon="1.32634">
        <ele>138</ele>
        <time>2009-03-22T09:08:15Z</time>
      </trkpt>
      <trkpt lat="49.31129" lon="1.32613">
        <ele>138</ele>
        <time>2009-03-22T09:08:18Z</time>
      </trkpt>
      <trkpt lat="49.31127" lon="1.32593">
        <ele>138</ele>
        <time>2009-03-22T09:08:21Z</time>
      </trkpt>
      <trkpt lat="49.31124" lon="1.32574">
        <ele>138</ele>
        <time>2009-03-22T09:08:24Z</time>
      </trkpt>
      <trkpt lat="49.31122" lon="1.32555">
        <ele>138</ele>
        <time>2009-03-22T09:08:27Z</time>
      </trkpt>
      <trkpt lat="49.3112" lon="1.32536">
        <ele>138</ele>
        <time>2009-03-22T09:08:30Z</time>
      </trkpt>
      <trkpt lat="49.31117" lon="1.32517">
        <ele>138</ele>
        <time>2009-03-22T09:08:33Z</time>
      </trkpt>
      <trkpt lat="49.31115" lon="1.32497">
        <ele>138</ele>
        <time>2009-03-22T09:08:36Z</time>
      </trkpt>
      <trkpt lat="49.31112" lon="1.32477">
        <ele>138</ele>
        <time>2009-03-22T09:08:39Z</time>
      </trkpt>
      <trkpt lat="49.3111" lon="1.32458">
        <ele>138</ele>
        <time>2009-03-22T09:08:42Z</time>
      </trkpt>
      <trkpt lat="49.31107" lon="1.3244">
        <ele>138</ele>
        <time>2009-03-22T09:08:45Z</time>
      </trkpt>
      <trkpt lat="49.31105" lon="1.32421">
        <ele>138</ele>
        <time>2009-03-22T09:08:48Z</time>
      </trkpt>
      <trkpt lat="49.31103" lon="1.32401">
        <ele>138</ele>
        <time>2009-03-22T09:08:51Z</time>
      </trkpt>
      <trkpt lat="49.311" lon="1.32383">
        <ele>138</ele>
        <time>2009-03-22T09:08:54Z</time>
      </trkpt>
      <trkpt lat="49.31098" lon="1.32364">
        <ele>138</ele>
        <time>2009-03-22T09:08:57Z</time>
      </trkpt>
      <trkpt lat="49.31095" lon="1.32346">
        <ele>143</ele>
        <time>2009-03-22T09:09:00Z</time>
      </trkpt>
      <trkpt lat="49.31091" lon="1.32328">
        <ele>143</ele>
        <time>2009-03-22T09:09:03Z</time>
      </trkpt>
      <trkpt lat="49.31086" lon="1.3231">
        <ele>143</ele>
        <time>2009-03-22T09:09:06Z</time>
      </trkpt>
      <trkpt lat="49.31081" lon="1.32293">
        <ele>143</ele>
        <time>2009-03-22T09:09:09Z</time>
      </trkpt>
      <trkpt lat="49.31074" lon="1.32277">
        <ele>143</ele>
        <time>2009-03-22T09:09:12Z</time>
      </trkpt>
      <trkpt lat="49.31067" lon="1.32262">
        <ele>143</ele>
        <time>2009-03-22T09:09:15Z</time>
      </trkpt>
      <trkpt lat="49.31059" lon="1.32247">
        <ele>143</ele>
        <time>2009-03-22T09:09:18Z</time>
      </trkpt>
      <trkpt lat="49.31049" lon="1.32235">
        <ele>143</ele>
        <time>2009-03-22T09:09:21Z</time>
      </trkpt>
      <trkpt lat="49.31039" lon="1.32222">
        <ele>143</ele>
        <time>2009-03-22T09:09:24Z</time>
      </trkpt>
      <trkpt lat="49.31029" lon="1.32211">
        <ele>143</ele>
        <time>2009-03-22T09:09:27Z</time>
      </trkpt>
      <trkpt lat="49.31019" lon="1.32202">
        <ele>143</ele>
        <time>2009-03-22T09:09:30Z</time>
      </trkpt>
      <trkpt lat="49.3101" lon="1.32192">
        <ele>143</ele>
        <time>2009-03-22T09:09:33Z</time>
      </trkpt>
      <trkpt lat="49.31003" lon="1.32182">
        <ele>143</ele>
        <time>2009-03-22T09:09:36Z</time>
      </trkpt>
      <trkpt lat="49.30997" lon="1.32172">
        <ele>143</ele>
        <time>2009-03-22T09:09:39Z</time>
      </trkpt>
      <trkpt lat="49.30988" lon="1.32181">
        <ele>143</ele>
        <time>2009-03-22T09:09:43Z</time>
      </trkpt>
      <trkpt lat="49.30984" lon="1.32195">
        <ele>148</ele>
        <time>2009-03-22T09:09:46Z</time>
      </trkpt>
      <trkpt lat="49.3098" lon="1.32209">
        <ele>148</ele>
        <time>2009-03-22T09:09:49Z</time>
      </trkpt>
      <trkpt lat="49.30976" lon="1.32225">
        <ele>148</ele>
        <time>2009-03-22T09:09:52Z</time>
      </trkpt>
      <trkpt lat="49.30972" lon="1.3224">
        <ele>153</ele>
        <time>2009-03-22T09:09:55Z</time>
      </trkpt>
      <trkpt lat="49.30966" lon="1.32255">
        <ele>153</ele>
        <time>2009-03-22T09:09:58Z</time>
      </trkpt>
      <trkpt lat="49.30962" lon="1.32268">
        <ele>153</ele>
        <time>2009-03-22T09:10:01Z</time>
      </trkpt>
      <trkpt lat="49.30957" lon="1.32281">
        <ele>153</ele>
        <time>2009-03-22T09:10:04Z</time>
      </trkpt>
      <trkpt lat="49.30952" lon="1.32298">
        <ele>153</ele>
        <time>2009-03-22T09:10:08Z</time>
      </trkpt>
      <trkpt lat="49.30946" lon="1.3231">
        <ele>153</ele>
        <time>2009-03-22T09:10:11Z</time>
      </trkpt>
      <trkpt lat="49.30941" lon="1.32324">
        <ele>153</ele>
        <time>2009-03-22T09:10:14Z</time>
      </trkpt>
      <trkpt lat="49.30935" lon="1.32337">
        <ele>153</ele>
        <time>2009-03-22T09:10:17Z</time>
      </trkpt>
      <trkpt lat="49.30928" lon="1.3235">
        <ele>153</ele>
        <time>2009-03-22T09:10:20Z</time>
      </trkpt>
      <trkpt lat="49.3092" lon="1.32363">
        <ele>153</ele>
        <time>2009-03-22T09:10:23Z</time>
      </trkpt>
      <trkpt lat="49.30913" lon="1.32378">
        <ele>153</ele>
        <time>2009-03-22T09:10:26Z</time>
      </trkpt>
      <trkpt lat="49.30907" lon="1.32391">
        <ele>153</ele>
        <time>2009-03-22T09:10:29Z</time>
      </trkpt>
      <trkpt lat="49.309" lon="1.32405">
        <ele>153</ele>
        <time>2009-03-22T09:10:32Z</time>
      </trkpt>
      <trkpt lat="49.30893" lon="1.32419">
        <ele>153</ele>
        <time>2009-03-22T09:10:35Z</time>
      </trkpt>
      <trkpt lat="49.30887" lon="1.32434">
        <ele>153</ele>
        <time>2009-03-22T09:10:38Z</time>
      </trkpt>
      <trkpt lat="49.30881" lon="1.32449">
        <ele>153</ele>
        <time>2009-03-22T09:10:41Z</time>
      </trkpt>
      <trkpt lat="49.30876" lon="1.32463">
        <ele>153</ele>
        <time>2009-03-22T09:10:44Z</time>
      </trkpt>
      <trkpt lat="49.30871" lon="1.32478">
        <ele>153</ele>
        <time>2009-03-22T09:10:47Z</time>
      </trkpt>
      <trkpt lat="49.30866" lon="1.32493">
        <ele>153</ele>
        <time>2009-03-22T09:10:50Z</time>
      </trkpt>
      <trkpt lat="49.30862" lon="1.3251">
        <ele>153</ele>
        <time>2009-03-22T09:10:53Z</time>
      </trkpt>
      <trkpt lat="49.30856" lon="1.32526">
        <ele>153</ele>
        <time>2009-03-22T09:10:56Z</time>
      </trkpt>
      <trkpt lat="49.30851" lon="1.32543">
        <ele>153</ele>
        <time>2009-03-22T09:10:59Z</time>
      </trkpt>
      <trkpt lat="49.30846" lon="1.3256">
        <ele>153</ele>
        <time>2009-03-22T09:11:02Z</time>
      </trkpt>
      <trkpt lat="49.30841" lon="1.32576">
        <ele>153</ele>
        <time>2009-03-22T09:11:05Z</time>
      </trkpt>
      <trkpt lat="49.30836" lon="1.32593">
        <ele>153</ele>
        <time>2009-03-22T09:11:08Z</time>
      </trkpt>
      <trkpt lat="49.30831" lon="1.3261">
        <ele>153</ele>
        <time>2009-03-22T09:11:11Z</time>
      </trkpt>
      <trkpt lat="49.30826" lon="1.32627">
        <ele>153</ele>
        <time>2009-03-22T09:11:14Z</time>
      </trkpt>
      <trkpt lat="49.30821" lon="1.32643">
        <ele>153</ele>
        <time>2009-03-22T09:11:17Z</time>
      </trkpt>
      <trkpt lat="49.30815" lon="1.32661">
        <ele>153</ele>
        <time>2009-03-22T09:11:20Z</time>
      </trkpt>
      <trkpt lat="49.30811" lon="1.32673">
        <ele>153</ele>
        <time>2009-03-22T09:11:22Z</time>
      </trkpt>
      <trkpt lat="49.30807" lon="1.32688">
        <ele>153</ele>
        <time>2009-03-22T09:11:25Z</time>
      </trkpt>
      <trkpt lat="49.30803" lon="1.32705">
        <ele>153</ele>
        <time>2009-03-22T09:11:28Z</time>
      </trkpt>
      <trkpt lat="49.30798" lon="1.32723">
        <ele>153</ele>
        <time>2009-03-22T09:11:31Z</time>
      </trkpt>
      <trkpt lat="49.30794" lon="1.32741">
        <ele>153</ele>
        <time>2009-03-22T09:11:34Z</time>
      </trkpt>
      <trkpt lat="49.30789" lon="1.32759">
        <ele>153</ele>
        <time>2009-03-22T09:11:37Z</time>
      </trkpt>
      <trkpt lat="49.30785" lon="1.32778">
        <ele>153</ele>
        <time>2009-03-22T09:11:40Z</time>
      </trkpt>
      <trkpt lat="49.30781" lon="1.32797">
        <ele>148</ele>
        <time>2009-03-22T09:11:43Z</time>
      </trkpt>
      <trkpt lat="49.30777" lon="1.32815">
        <ele>148</ele>
        <time>2009-03-22T09:11:46Z</time>
      </trkpt>
      <trkpt lat="49.30772" lon="1.32833">
        <ele>148</ele>
        <time>2009-03-22T09:11:49Z</time>
      </trkpt>
      <trkpt lat="49.30768" lon="1.32851">
        <ele>148</ele>
        <time>2009-03-22T09:11:52Z</time>
      </trkpt>
      <trkpt lat="49.30764" lon="1.32869">
        <ele>148</ele>
        <time>2009-03-22T09:11:55Z</time>
      </trkpt>
      <trkpt lat="49.30759" lon="1.32888">
        <ele>148</ele>
        <time>2009-03-22T09:11:58Z</time>
      </trkpt>
      <trkpt lat="49.30755" lon="1.32907">
        <ele>148</ele>
        <time>2009-03-22T09:12:01Z</time>
      </trkpt>
      <trkpt lat="49.30751" lon="1.32926">
        <ele>148</ele>
        <time>2009-03-22T09:12:04Z</time>
      </trkpt>
      <trkpt lat="49.30747" lon="1.32945">
        <ele>148</ele>
        <time>2009-03-22T09:12:07Z</time>
      </trkpt>
      <trkpt lat="49.30743" lon="1.32959">
        <ele>148</ele>
        <time>2009-03-22T09:12:09Z</time>
      </trkpt>
      <trkpt lat="49.3074" lon="1.32972">
        <ele>148</ele>
        <time>2009-03-22T09:12:11Z</time>
      </trkpt>
      <trkpt lat="49.30737" lon="1.32987">
        <ele>148</ele>
        <time>2009-03-22T09:12:13Z</time>
      </trkpt>
      <trkpt lat="49.30734" lon="1.33">
        <ele>148</ele>
        <time>2009-03-22T09:12:15Z</time>
      </trkpt>
      <trkpt lat="49.30731" lon="1.33014">
        <ele>148</ele>
        <time>2009-03-22T09:12:17Z</time>
      </trkpt>
      <trkpt lat="49.30728" lon="1.33029">
        <ele>148</ele>
        <time>2009-03-22T09:12:19Z</time>
      </trkpt>
      <trkpt lat="49.30725" lon="1.33042">
        <ele>148</ele>
        <time>2009-03-22T09:12:21Z</time>
      </trkpt>
      <trkpt lat="49.30721" lon="1.33057">
        <ele>148</ele>
        <time>2009-03-22T09:12:23Z</time>
      </trkpt>
      <trkpt lat="49.30717" lon="1.3307">
        <ele>148</ele>
        <time>2009-03-22T09:12:25Z</time>
      </trkpt>
      <trkpt lat="49.30713" lon="1.33085">
        <ele>148</ele>
        <time>2009-03-22T09:12:27Z</time>
      </trkpt>
      <trkpt lat="49.30709" lon="1.33099">
        <ele>148</ele>
        <time>2009-03-22T09:12:29Z</time>
      </trkpt>
      <trkpt lat="49.30705" lon="1.33112">
        <ele>148</ele>
        <time>2009-03-22T09:12:31Z</time>
      </trkpt>
      <trkpt lat="49.30701" lon="1.33127">
        <ele>148</ele>
        <time>2009-03-22T09:12:33Z</time>
      </trkpt>
      <trkpt lat="49.30697" lon="1.3314">
        <ele>148</ele>
        <time>2009-03-22T09:12:35Z</time>
      </trkpt>
      <trkpt lat="49.30693" lon="1.33154">
        <ele>148</ele>
        <time>2009-03-22T09:12:37Z</time>
      </trkpt>
      <trkpt lat="49.3069" lon="1.33168">
        <ele>148</ele>
        <time>2009-03-22T09:12:39Z</time>
      </trkpt>
      <trkpt lat="49.30686" lon="1.33182">
        <ele>148</ele>
        <time>2009-03-22T09:12:41Z</time>
      </trkpt>
      <trkpt lat="49.30681" lon="1.33195">
        <ele>148</ele>
        <time>2009-03-22T09:12:43Z</time>
      </trkpt>
      <trkpt lat="49.30676" lon="1.33209">
        <ele>148</ele>
        <time>2009-03-22T09:12:45Z</time>
      </trkpt>
      <trkpt lat="49.3067" lon="1.33223">
        <ele>148</ele>
        <time>2009-03-22T09:12:47Z</time>
      </trkpt>
      <trkpt lat="49.30664" lon="1.33236">
        <ele>148</ele>
        <time>2009-03-22T09:12:49Z</time>
      </trkpt>
      <trkpt lat="49.30659" lon="1.33251">
        <ele>148</ele>
        <time>2009-03-22T09:12:51Z</time>
      </trkpt>
      <trkpt lat="49.30654" lon="1.33264">
        <ele>148</ele>
        <time>2009-03-22T09:12:53Z</time>
      </trkpt>
      <trkpt lat="49.30649" lon="1.33278">
        <ele>148</ele>
        <time>2009-03-22T09:12:55Z</time>
      </trkpt>
      <trkpt lat="49.30643" lon="1.33291">
        <ele>148</ele>
        <time>2009-03-22T09:12:57Z</time>
      </trkpt>
      <trkpt lat="49.30637" lon="1.33305">
        <ele>148</ele>
        <time>2009-03-22T09:12:59Z</time>
      </trkpt>
      <trkpt lat="49.30632" lon="1.33318">
        <ele>148</ele>
        <time>2009-03-22T09:13:01Z</time>
      </trkpt>
      <trkpt lat="49.30626" lon="1.3333">
        <ele>148</ele>
        <time>2009-03-22T09:13:03Z</time>
      </trkpt>
      <trkpt lat="49.30622" lon="1.33342">
        <ele>148</ele>
        <time>2009-03-22T09:13:05Z</time>
      </trkpt>
      <trkpt lat="49.30616" lon="1.33355">
        <ele>148</ele>
        <time>2009-03-22T09:13:07Z</time>
      </trkpt>
      <trkpt lat="49.30611" lon="1.33367">
        <ele>148</ele>
        <time>2009-03-22T09:13:09Z</time>
      </trkpt>
      <trkpt lat="49.30604" lon="1.33385">
        <ele>148</ele>
        <time>2009-03-22T09:13:12Z</time>
      </trkpt>
      <trkpt lat="49.30599" lon="1.33396">
        <ele>148</ele>
        <time>2009-03-22T09:13:14Z</time>
      </trkpt>
      <trkpt lat="49.30592" lon="1.33413">
        <ele>148</ele>
        <time>2009-03-22T09:13:17Z</time>
      </trkpt>
      <trkpt lat="49.30586" lon="1.3343">
        <ele>148</ele>
        <time>2009-03-22T09:13:20Z</time>
      </trkpt>
      <trkpt lat="49.30579" lon="1.33446">
        <ele>148</ele>
        <time>2009-03-22T09:13:23Z</time>
      </trkpt>
      <trkpt lat="49.30572" lon="1.33463">
        <ele>148</ele>
        <time>2009-03-22T09:13:26Z</time>
      </trkpt>
      <trkpt lat="49.30565" lon="1.33477">
        <ele>148</ele>
        <time>2009-03-22T09:13:29Z</time>
      </trkpt>
      <trkpt lat="49.3056" lon="1.33491">
        <ele>148</ele>
        <time>2009-03-22T09:13:32Z</time>
      </trkpt>
      <trkpt lat="49.3056" lon="1.33505">
        <ele>148</ele>
        <time>2009-03-22T09:16:11Z</time>
      </trkpt>
      <trkpt lat="49.30561" lon="1.33523">
        <ele>148</ele>
        <time>2009-03-22T09:16:17Z</time>
      </trkpt>
      <trkpt lat="49.30563" lon="1.3354">
        <ele>148</ele>
        <time>2009-03-22T09:16:21Z</time>
      </trkpt>
      <trkpt lat="49.30565" lon="1.33557">
        <ele>148</ele>
        <time>2009-03-22T09:16:24Z</time>
      </trkpt>
      <trkpt lat="49.30567" lon="1.33576">
        <ele>148</ele>
        <time>2009-03-22T09:16:27Z</time>
      </trkpt>
      <trkpt lat="49.3057" lon="1.33589">
        <ele>148</ele>
        <time>2009-03-22T09:16:29Z</time>
      </trkpt>
      <trkpt lat="49.30573" lon="1.33604">
        <ele>148</ele>
        <time>2009-03-22T09:16:31Z</time>
      </trkpt>
      <trkpt lat="49.30576" lon="1.3362">
        <ele>148</ele>
        <time>2009-03-22T09:16:33Z</time>
      </trkpt>
      <trkpt lat="49.30578" lon="1.33636">
        <ele>148</ele>
        <time>2009-03-22T09:16:35Z</time>
      </trkpt>
      <trkpt lat="49.30579" lon="1.33652">
        <ele>148</ele>
        <time>2009-03-22T09:16:37Z</time>
      </trkpt>
      <trkpt lat="49.30579" lon="1.33668">
        <ele>148</ele>
        <time>2009-03-22T09:16:39Z</time>
      </trkpt>
      <trkpt lat="49.30579" lon="1.33683">
        <ele>148</ele>
        <time>2009-03-22T09:16:41Z</time>
      </trkpt>
      <trkpt lat="49.3058" lon="1.33698">
        <ele>148</ele>
        <time>2009-03-22T09:16:43Z</time>
      </trkpt>
      <trkpt lat="49.3058" lon="1.33714">
        <ele>148</ele>
        <time>2009-03-22T09:16:45Z</time>
      </trkpt>
      <trkpt lat="49.3058" lon="1.3373">
        <ele>148</ele>
        <time>2009-03-22T09:16:47Z</time>
      </trkpt>
      <trkpt lat="49.3058" lon="1.33745">
        <ele>148</ele>
        <time>2009-03-22T09:16:49Z</time>
      </trkpt>
      <trkpt lat="49.3058" lon="1.3376">
        <ele>148</ele>
        <time>2009-03-22T09:16:51Z</time>
      </trkpt>
      <trkpt lat="49.3058" lon="1.33776">
        <ele>148</ele>
        <time>2009-03-22T09:16:53Z</time>
      </trkpt>
      <trkpt lat="49.3058" lon="1.33792">
        <ele>148</ele>
        <time>2009-03-22T09:16:55Z</time>
      </trkpt>
      <trkpt lat="49.30581" lon="1.33808">
        <ele>148</ele>
        <time>2009-03-22T09:16:57Z</time>
      </trkpt>
      <trkpt lat="49.30581" lon="1.33824">
        <ele>148</ele>
        <time>2009-03-22T09:16:59Z</time>
      </trkpt>
      <trkpt lat="49.3058" lon="1.3384">
        <ele>148</ele>
        <time>2009-03-22T09:17:01Z</time>
      </trkpt>
      <trkpt lat="49.30579" lon="1.33855">
        <ele>148</ele>
        <time>2009-03-22T09:17:03Z</time>
      </trkpt>
      <trkpt lat="49.30578" lon="1.33871">
        <ele>148</ele>
        <time>2009-03-22T09:17:05Z</time>
      </trkpt>
      <trkpt lat="49.30577" lon="1.33887">
        <ele>148</ele>
        <time>2009-03-22T09:17:07Z</time>
      </trkpt>
      <trkpt lat="49.30576" lon="1.33902">
        <ele>148</ele>
        <time>2009-03-22T09:17:09Z</time>
      </trkpt>
      <trkpt lat="49.30575" lon="1.33917">
        <ele>148</ele>
        <time>2009-03-22T09:17:11Z</time>
      </trkpt>
      <trkpt lat="49.30575" lon="1.33933">
        <ele>148</ele>
        <time>2009-03-22T09:17:13Z</time>
      </trkpt>
      <trkpt lat="49.30574" lon="1.33949">
        <ele>148</ele>
        <time>2009-03-22T09:17:15Z</time>
      </trkpt>
      <trkpt lat="49.30574" lon="1.33964">
        <ele>148</ele>
        <time>2009-03-22T09:17:17Z</time>
      </trkpt>
      <trkpt lat="49.30574" lon="1.33979">
        <ele>148</ele>
        <time>2009-03-22T09:17:19Z</time>
      </trkpt>
      <trkpt lat="49.30573" lon="1.33995">
        <ele>143</ele>
        <time>2009-03-22T09:17:21Z</time>
      </trkpt>
      <trkpt lat="49.30574" lon="1.3401">
        <ele>143</ele>
        <time>2009-03-22T09:17:23Z</time>
      </trkpt>
      <trkpt lat="49.30575" lon="1.34026">
        <ele>143</ele>
        <time>2009-03-22T09:17:25Z</time>
      </trkpt>
      <trkpt lat="49.30576" lon="1.34042">
        <ele>143</ele>
        <time>2009-03-22T09:17:27Z</time>
      </trkpt>
      <trkpt lat="49.30577" lon="1.34057">
        <ele>143</ele>
        <time>2009-03-22T09:17:29Z</time>
      </trkpt>
      <trkpt lat="49.30579" lon="1.34074">
        <ele>143</ele>
        <time>2009-03-22T09:17:31Z</time>
      </trkpt>
      <trkpt lat="49.3058" lon="1.3409">
        <ele>143</ele>
        <time>2009-03-22T09:17:33Z</time>
      </trkpt>
      <trkpt lat="49.30581" lon="1.34106">
        <ele>143</ele>
        <time>2009-03-22T09:17:35Z</time>
      </trkpt>
      <trkpt lat="49.30582" lon="1.3412">
        <ele>143</ele>
        <time>2009-03-22T09:17:37Z</time>
      </trkpt>
      <trkpt lat="49.30583" lon="1.34136">
        <ele>143</ele>
        <time>2009-03-22T09:17:39Z</time>
      </trkpt>
      <trkpt lat="49.30584" lon="1.3415">
        <ele>143</ele>
        <time>2009-03-22T09:17:41Z</time>
      </trkpt>
      <trkpt lat="49.30586" lon="1.34165">
        <ele>143</ele>
        <time>2009-03-22T09:17:43Z</time>
      </trkpt>
      <trkpt lat="49.30586" lon="1.3418">
        <ele>143</ele>
        <time>2009-03-22T09:17:45Z</time>
      </trkpt>
      <trkpt lat="49.30587" lon="1.34194">
        <ele>143</ele>
        <time>2009-03-22T09:17:47Z</time>
      </trkpt>
      <trkpt lat="49.30587" lon="1.34208">
        <ele>143</ele>
        <time>2009-03-22T09:17:49Z</time>
      </trkpt>
      <trkpt lat="49.30587" lon="1.34223">
        <ele>143</ele>
        <time>2009-03-22T09:17:51Z</time>
      </trkpt>
      <trkpt lat="49.30586" lon="1.34238">
        <ele>143</ele>
        <time>2009-03-22T09:17:53Z</time>
      </trkpt>
      <trkpt lat="49.30585" lon="1.34253">
        <ele>143</ele>
        <time>2009-03-22T09:17:55Z</time>
      </trkpt>
      <trkpt lat="49.30584" lon="1.34269">
        <ele>143</ele>
        <time>2009-03-22T09:17:57Z</time>
      </trkpt>
      <trkpt lat="49.30583" lon="1.34284">
        <ele>143</ele>
        <time>2009-03-22T09:17:59Z</time>
      </trkpt>
      <trkpt lat="49.30581" lon="1.34299">
        <ele>143</ele>
        <time>2009-03-22T09:18:01Z</time>
      </trkpt>
      <trkpt lat="49.3058" lon="1.34313">
        <ele>143</ele>
        <time>2009-03-22T09:18:03Z</time>
      </trkpt>
      <trkpt lat="49.30579" lon="1.34328">
        <ele>143</ele>
        <time>2009-03-22T09:18:05Z</time>
      </trkpt>
      <trkpt lat="49.3058" lon="1.34348">
        <ele>143</ele>
        <time>2009-03-22T09:18:08Z</time>
      </trkpt>
      <trkpt lat="49.30583" lon="1.34362">
        <ele>143</ele>
        <time>2009-03-22T09:18:10Z</time>
      </trkpt>
      <trkpt lat="49.30587" lon="1.34381">
        <ele>143</ele>
        <time>2009-03-22T09:18:13Z</time>
      </trkpt>
      <trkpt lat="49.30593" lon="1.34398">
        <ele>143</ele>
        <time>2009-03-22T09:18:16Z</time>
      </trkpt>
      <trkpt lat="49.30599" lon="1.34414">
        <ele>143</ele>
        <time>2009-03-22T09:18:19Z</time>
      </trkpt>
      <trkpt lat="49.30604" lon="1.3443">
        <ele>143</ele>
        <time>2009-03-22T09:18:22Z</time>
      </trkpt>
      <trkpt lat="49.3061" lon="1.34446">
        <ele>143</ele>
        <time>2009-03-22T09:18:25Z</time>
      </trkpt>
      <trkpt lat="49.30613" lon="1.34462">
        <ele>143</ele>
        <time>2009-03-22T09:18:28Z</time>
      </trkpt>
      <trkpt lat="49.30611" lon="1.34476">
        <ele>143</ele>
        <time>2009-03-22T09:18:31Z</time>
      </trkpt>
      <trkpt lat="49.30603" lon="1.34484">
        <ele>143</ele>
        <time>2009-03-22T09:18:34Z</time>
      </trkpt>
      <trkpt lat="49.30593" lon="1.34492">
        <ele>143</ele>
        <time>2009-03-22T09:18:37Z</time>
      </trkpt>
      <trkpt lat="49.30583" lon="1.345">
        <ele>143</ele>
        <time>2009-03-22T09:18:40Z</time>
      </trkpt>
      <trkpt lat="49.30572" lon="1.34509">
        <ele>143</ele>
        <time>2009-03-22T09:18:43Z</time>
      </trkpt>
      <trkpt lat="49.3056" lon="1.34519">
        <ele>143</ele>
        <time>2009-03-22T09:18:46Z</time>
      </trkpt>
      <trkpt lat="49.30552" lon="1.34525">
        <ele>143</ele>
        <time>2009-03-22T09:18:48Z</time>
      </trkpt>
      <trkpt lat="49.30544" lon="1.34532">
        <ele>143</ele>
        <time>2009-03-22T09:18:50Z</time>
      </trkpt>
      <trkpt lat="49.30535" lon="1.3454">
        <ele>143</ele>
        <time>2009-03-22T09:18:52Z</time>
      </trkpt>
      <trkpt lat="49.30527" lon="1.34546">
        <ele>143</ele>
        <time>2009-03-22T09:18:54Z</time>
      </trkpt>
      <trkpt lat="49.30518" lon="1.34554">
        <ele>143</ele>
        <time>2009-03-22T09:18:56Z</time>
      </trkpt>
      <trkpt lat="49.30509" lon="1.34561">
        <ele>143</ele>
        <time>2009-03-22T09:18:58Z</time>
      </trkpt>
      <trkpt lat="49.305" lon="1.34569">
        <ele>143</ele>
        <time>2009-03-22T09:19:00Z</time>
      </trkpt>
      <trkpt lat="49.30492" lon="1.34576">
        <ele>143</ele>
        <time>2009-03-22T09:19:02Z</time>
      </trkpt>
      <trkpt lat="49.30482" lon="1.34584">
        <ele>143</ele>
        <time>2009-03-22T09:19:04Z</time>
      </trkpt>
      <trkpt lat="49.30473" lon="1.34591">
        <ele>143</ele>
        <time>2009-03-22T09:19:06Z</time>
      </trkpt>
      <trkpt lat="49.30464" lon="1.34599">
        <ele>143</ele>
        <time>2009-03-22T09:19:08Z</time>
      </trkpt>
      <trkpt lat="49.30455" lon="1.34606">
        <ele>143</ele>
        <time>2009-03-22T09:19:10Z</time>
      </trkpt>
      <trkpt lat="49.30445" lon="1.34614">
        <ele>143</ele>
        <time>2009-03-22T09:19:12Z</time>
      </trkpt>
      <trkpt lat="49.30436" lon="1.34622">
        <ele>143</ele>
        <time>2009-03-22T09:19:14Z</time>
      </trkpt>
      <trkpt lat="49.30428" lon="1.3463">
        <ele>143</ele>
        <time>2009-03-22T09:19:16Z</time>
      </trkpt>
      <trkpt lat="49.30419" lon="1.34637">
        <ele>143</ele>
        <time>2009-03-22T09:19:18Z</time>
      </trkpt>
      <trkpt lat="49.3041" lon="1.34644">
        <ele>143</ele>
        <time>2009-03-22T09:19:20Z</time>
      </trkpt>
      <trkpt lat="49.30401" lon="1.34651">
        <ele>143</ele>
        <time>2009-03-22T09:19:22Z</time>
      </trkpt>
      <trkpt lat="49.30393" lon="1.34658">
        <ele>143</ele>
        <time>2009-03-22T09:19:24Z</time>
      </trkpt>
      <trkpt lat="49.30384" lon="1.34666">
        <ele>143</ele>
        <time>2009-03-22T09:19:26Z</time>
      </trkpt>
      <trkpt lat="49.30375" lon="1.34673">
        <ele>143</ele>
        <time>2009-03-22T09:19:28Z</time>
      </trkpt>
      <trkpt lat="49.30367" lon="1.3468">
        <ele>143</ele>
        <time>2009-03-22T09:19:30Z</time>
      </trkpt>
      <trkpt lat="49.30358" lon="1.34687">
        <ele>143</ele>
        <time>2009-03-22T09:19:32Z</time>
      </trkpt>
      <trkpt lat="49.30349" lon="1.34694">
        <ele>143</ele>
        <time>2009-03-22T09:19:34Z</time>
      </trkpt>
      <trkpt lat="49.3034" lon="1.34702">
        <ele>143</ele>
        <time>2009-03-22T09:19:36Z</time>
      </trkpt>
      <trkpt lat="49.30331" lon="1.3471">
        <ele>143</ele>
        <time>2009-03-22T09:19:38Z</time>
      </trkpt>
      <trkpt lat="49.30322" lon="1.34717">
        <ele>143</ele>
        <time>2009-03-22T09:19:40Z</time>
      </trkpt>
      <trkpt lat="49.30313" lon="1.34724">
        <ele>143</ele>
        <time>2009-03-22T09:19:42Z</time>
      </trkpt>
      <trkpt lat="49.30304" lon="1.34731">
        <ele>143</ele>
        <time>2009-03-22T09:19:44Z</time>
      </trkpt>
      <trkpt lat="49.30295" lon="1.34738">
        <ele>143</ele>
        <time>2009-03-22T09:19:46Z</time>
      </trkpt>
      <trkpt lat="49.30287" lon="1.34746">
        <ele>143</ele>
        <time>2009-03-22T09:19:48Z</time>
      </trkpt>
      <trkpt lat="49.30279" lon="1.34752">
        <ele>143</ele>
        <time>2009-03-22T09:19:50Z</time>
      </trkpt>
      <trkpt lat="49.3027" lon="1.34759">
        <ele>143</ele>
        <time>2009-03-22T09:19:52Z</time>
      </trkpt>
      <trkpt lat="49.30261" lon="1.34766">
        <ele>143</ele>
        <time>2009-03-22T09:19:54Z</time>
      </trkpt>
      <trkpt lat="49.30253" lon="1.34774">
        <ele>143</ele>
        <time>2009-03-22T09:19:56Z</time>
      </trkpt>
      <trkpt lat="49.30244" lon="1.34781">
        <ele>143</ele>
        <time>2009-03-22T09:19:58Z</time>
      </trkpt>
      <trkpt lat="49.30236" lon="1.34789">
        <ele>143</ele>
        <time>2009-03-22T09:20:00Z</time>
      </trkpt>
      <trkpt lat="49.30227" lon="1.34796">
        <ele>143</ele>
        <time>2009-03-22T09:20:02Z</time>
      </trkpt>
      <trkpt lat="49.30219" lon="1.34803">
        <ele>143</ele>
        <time>2009-03-22T09:20:04Z</time>
      </trkpt>
      <trkpt lat="49.3021" lon="1.3481">
        <ele>143</ele>
        <time>2009-03-22T09:20:06Z</time>
      </trkpt>
      <trkpt lat="49.30201" lon="1.34817">
        <ele>143</ele>
        <time>2009-03-22T09:20:08Z</time>
      </trkpt>
      <trkpt lat="49.30193" lon="1.34825">
        <ele>143</ele>
        <time>2009-03-22T09:20:10Z</time>
      </trkpt>
      <trkpt lat="49.30184" lon="1.34832">
        <ele>143</ele>
        <time>2009-03-22T09:20:12Z</time>
      </trkpt>
      <trkpt lat="49.30175" lon="1.34839">
        <ele>143</ele>
        <time>2009-03-22T09:20:14Z</time>
      </trkpt>
      <trkpt lat="49.30166" lon="1.34846">
        <ele>143</ele>
        <time>2009-03-22T09:20:16Z</time>
      </trkpt>
      <trkpt lat="49.30157" lon="1.34854">
        <ele>143</ele>
        <time>2009-03-22T09:20:18Z</time>
      </trkpt>
      <trkpt lat="49.30148" lon="1.34861">
        <ele>148</ele>
        <time>2009-03-22T09:20:20Z</time>
      </trkpt>
      <trkpt lat="49.30139" lon="1.34869">
        <ele>148</ele>
        <time>2009-03-22T09:20:22Z</time>
      </trkpt>
      <trkpt lat="49.3013" lon="1.34876">
        <ele>148</ele>
        <time>2009-03-22T09:20:24Z</time>
      </trkpt>
      <trkpt lat="49.30122" lon="1.34883">
        <ele>148</ele>
        <time>2009-03-22T09:20:26Z</time>
      </trkpt>
      <trkpt lat="49.30113" lon="1.34891">
        <ele>148</ele>
        <time>2009-03-22T09:20:28Z</time>
      </trkpt>
      <trkpt lat="49.30103" lon="1.34899">
        <ele>148</ele>
        <time>2009-03-22T09:20:30Z</time>
      </trkpt>
      <trkpt lat="49.30094" lon="1.34906">
        <ele>148</ele>
        <time>2009-03-22T09:20:32Z</time>
      </trkpt>
      <trkpt lat="49.30085" lon="1.34914">
        <ele>148</ele>
        <time>2009-03-22T09:20:34Z</time>
      </trkpt>
      <trkpt lat="49.30076" lon="1.34922">
        <ele>148</ele>
        <time>2009-03-22T09:20:36Z</time>
      </trkpt>
      <trkpt lat="49.30066" lon="1.34929">
        <ele>148</ele>
        <time>2009-03-22T09:20:38Z</time>
      </trkpt>
      <trkpt lat="49.30057" lon="1.34937">
        <ele>148</ele>
        <time>2009-03-22T09:20:40Z</time>
      </trkpt>
      <trkpt lat="49.30048" lon="1.34945">
        <ele>148</ele>
        <time>2009-03-22T09:20:42Z</time>
      </trkpt>
      <trkpt lat="49.30038" lon="1.34953">
        <ele>148</ele>
        <time>2009-03-22T09:20:44Z</time>
      </trkpt>
      <trkpt lat="49.30028" lon="1.34961">
        <ele>148</ele>
        <time>2009-03-22T09:20:46Z</time>
      </trkpt>
      <trkpt lat="49.30018" lon="1.34969">
        <ele>148</ele>
        <time>2009-03-22T09:20:48Z</time>
      </trkpt>
      <trkpt lat="49.30008" lon="1.34977">
        <ele>148</ele>
        <time>2009-03-22T09:20:50Z</time>
      </trkpt>
      <trkpt lat="49.29998" lon="1.34986">
        <ele>148</ele>
        <time>2009-03-22T09:20:52Z</time>
      </trkpt>
      <trkpt lat="49.29988" lon="1.34993">
        <ele>148</ele>
        <time>2009-03-22T09:20:54Z</time>
      </trkpt>
      <trkpt lat="49.29978" lon="1.35002">
        <ele>148</ele>
        <time>2009-03-22T09:20:56Z</time>
      </trkpt>
      <trkpt lat="49.29969" lon="1.3501">
        <ele>148</ele>
        <time>2009-03-22T09:20:58Z</time>
      </trkpt>
      <trkpt lat="49.29961" lon="1.35016">
        <ele>148</ele>
        <time>2009-03-22T09:21:00Z</time>
      </trkpt>
      <trkpt lat="49.29949" lon="1.35025">
        <ele>148</ele>
        <time>2009-03-22T09:21:03Z</time>
      </trkpt>
      <trkpt lat="49.29938" lon="1.35034">
        <ele>148</ele>
        <time>2009-03-22T09:21:06Z</time>
      </trkpt>
      <trkpt lat="49.29928" lon="1.35044">
        <ele>148</ele>
        <time>2009-03-22T09:21:09Z</time>
      </trkpt>
      <trkpt lat="49.29922" lon="1.3506">
        <ele>148</ele>
        <time>2009-03-22T09:21:12Z</time>
      </trkpt>
      <trkpt lat="49.2992" lon="1.35077">
        <ele>148</ele>
        <time>2009-03-22T09:21:15Z</time>
      </trkpt>
      <trkpt lat="49.29917" lon="1.35094">
        <ele>148</ele>
        <time>2009-03-22T09:21:18Z</time>
      </trkpt>
      <trkpt lat="49.29911" lon="1.35108">
        <ele>148</ele>
        <time>2009-03-22T09:21:21Z</time>
      </trkpt>
      <trkpt lat="49.29907" lon="1.35122">
        <ele>148</ele>
        <time>2009-03-22T09:21:24Z</time>
      </trkpt>
      <trkpt lat="49.29903" lon="1.35135">
        <ele>148</ele>
        <time>2009-03-22T09:21:27Z</time>
      </trkpt>
      <trkpt lat="49.29894" lon="1.3514">
        <ele>148</ele>
        <time>2009-03-22T09:21:31Z</time>
      </trkpt>
      <trkpt lat="49.29885" lon="1.3514">
        <ele>148</ele>
        <time>2009-03-22T09:21:35Z</time>
      </trkpt>
      <trkpt lat="49.29875" lon="1.35135">
        <ele>156</ele>
        <time>2009-03-22T09:21:59Z</time>
      </trkpt>
      <trkpt lat="49.29865" lon="1.35139">
        <ele>156</ele>
        <time>2009-03-22T09:22:06Z</time>
      </trkpt>
      <trkpt lat="49.29859" lon="1.35129">
        <ele>156</ele>
        <time>2009-03-22T09:22:11Z</time>
      </trkpt>
      <trkpt lat="49.29853" lon="1.35117">
        <ele>156</ele>
        <time>2009-03-22T09:22:16Z</time>
      </trkpt>
      <trkpt lat="49.29847" lon="1.35106">
        <ele>156</ele>
        <time>2009-03-22T09:22:20Z</time>
      </trkpt>
      <trkpt lat="49.29841" lon="1.35091">
        <ele>156</ele>
        <time>2009-03-22T09:22:24Z</time>
      </trkpt>
      <trkpt lat="49.29835" lon="1.3508">
        <ele>156</ele>
        <time>2009-03-22T09:22:27Z</time>
      </trkpt>
      <trkpt lat="49.29828" lon="1.35067">
        <ele>156</ele>
        <time>2009-03-22T09:22:30Z</time>
      </trkpt>
      <trkpt lat="49.29821" lon="1.35053">
        <ele>156</ele>
        <time>2009-03-22T09:22:33Z</time>
      </trkpt>
      <trkpt lat="49.29814" lon="1.35038">
        <ele>156</ele>
        <time>2009-03-22T09:22:36Z</time>
      </trkpt>
      <trkpt lat="49.29807" lon="1.35022">
        <ele>156</ele>
        <time>2009-03-22T09:22:39Z</time>
      </trkpt>
      <trkpt lat="49.29801" lon="1.35011">
        <ele>156</ele>
        <time>2009-03-22T09:22:41Z</time>
      </trkpt>
      <trkpt lat="49.29795" lon="1.35001">
        <ele>156</ele>
        <time>2009-03-22T09:22:43Z</time>
      </trkpt>
      <trkpt lat="49.29789" lon="1.3499">
        <ele>156</ele>
        <time>2009-03-22T09:22:45Z</time>
      </trkpt>
      <trkpt lat="49.29783" lon="1.34979">
        <ele>156</ele>
        <time>2009-03-22T09:22:47Z</time>
      </trkpt>
      <trkpt lat="49.29777" lon="1.34967">
        <ele>156</ele>
        <time>2009-03-22T09:22:49Z</time>
      </trkpt>
      <trkpt lat="49.2977" lon="1.34956">
        <ele>156</ele>
        <time>2009-03-22T09:22:51Z</time>
      </trkpt>
      <trkpt lat="49.29764" lon="1.34944">
        <ele>156</ele>
        <time>2009-03-22T09:22:53Z</time>
      </trkpt>
      <trkpt lat="49.29757" lon="1.34931">
        <ele>156</ele>
        <time>2009-03-22T09:22:55Z</time>
      </trkpt>
      <trkpt lat="49.2975" lon="1.3492">
        <ele>156</ele>
        <time>2009-03-22T09:22:57Z</time>
      </trkpt>
      <trkpt lat="49.29743" lon="1.34907">
        <ele>156</ele>
        <time>2009-03-22T09:22:59Z</time>
      </trkpt>
      <trkpt lat="49.29736" lon="1.34894">
        <ele>156</ele>
        <time>2009-03-22T09:23:01Z</time>
      </trkpt>
      <trkpt lat="49.29729" lon="1.3488">
        <ele>156</ele>
        <time>2009-03-22T09:23:03Z</time>
      </trkpt>
      <trkpt lat="49.29721" lon="1.34871">
        <ele>156</ele>
        <time>2009-03-22T09:23:05Z</time>
      </trkpt>
      <trkpt lat="49.2971" lon="1.34873">
        <ele>156</ele>
        <time>2009-03-22T09:23:08Z</time>
      </trkpt>
      <trkpt lat="49.297" lon="1.34886">
        <ele>156</ele>
        <time>2009-03-22T09:23:11Z</time>
      </trkpt>
      <trkpt lat="49.29692" lon="1.34896">
        <ele>156</ele>
        <time>2009-03-22T09:23:13Z</time>
      </trkpt>
      <trkpt lat="49.29685" lon="1.34905">
        <ele>156</ele>
        <time>2009-03-22T09:23:15Z</time>
      </trkpt>
      <trkpt lat="49.29678" lon="1.34914">
        <ele>156</ele>
        <time>2009-03-22T09:23:17Z</time>
      </trkpt>
      <trkpt lat="49.29668" lon="1.34927">
        <ele>156</ele>
        <time>2009-03-22T09:23:20Z</time>
      </trkpt>
      <trkpt lat="49.29661" lon="1.34937">
        <ele>156</ele>
        <time>2009-03-22T09:23:22Z</time>
      </trkpt>
      <trkpt lat="49.29654" lon="1.34946">
        <ele>156</ele>
        <time>2009-03-22T09:23:24Z</time>
      </trkpt>
      <trkpt lat="49.29646" lon="1.34956">
        <ele>156</ele>
        <time>2009-03-22T09:23:26Z</time>
      </trkpt>
      <trkpt lat="49.29639" lon="1.34966">
        <ele>156</ele>
        <time>2009-03-22T09:23:28Z</time>
      </trkpt>
      <trkpt lat="49.29632" lon="1.34976">
        <ele>151</ele>
        <time>2009-03-22T09:23:30Z</time>
      </trkpt>
      <trkpt lat="49.2962" lon="1.34984">
        <ele>151</ele>
        <time>2009-03-22T09:23:33Z</time>
      </trkpt>
      <trkpt lat="49.29607" lon="1.34987">
        <ele>151</ele>
        <time>2009-03-22T09:23:36Z</time>
      </trkpt>
      <trkpt lat="49.29597" lon="1.34986">
        <ele>151</ele>
        <time>2009-03-22T09:23:38Z</time>
      </trkpt>
      <trkpt lat="49.29586" lon="1.34985">
        <ele>151</ele>
        <time>2009-03-22T09:23:40Z</time>
      </trkpt>
      <trkpt lat="49.29576" lon="1.34984">
        <ele>151</ele>
        <time>2009-03-22T09:23:42Z</time>
      </trkpt>
      <trkpt lat="49.29564" lon="1.34984">
        <ele>151</ele>
        <time>2009-03-22T09:23:44Z</time>
      </trkpt>
      <trkpt lat="49.29552" lon="1.34984">
        <ele>151</ele>
        <time>2009-03-22T09:23:46Z</time>
      </trkpt>
      <trkpt lat="49.29539" lon="1.34984">
        <ele>151</ele>
        <time>2009-03-22T09:23:48Z</time>
      </trkpt>
      <trkpt lat="49.29526" lon="1.34984">
        <ele>146</ele>
        <time>2009-03-22T09:23:50Z</time>
      </trkpt>
      <trkpt lat="49.29514" lon="1.34984">
        <ele>146</ele>
        <time>2009-03-22T09:23:52Z</time>
      </trkpt>
      <trkpt lat="49.29502" lon="1.34984">
        <ele>146</ele>
        <time>2009-03-22T09:23:54Z</time>
      </trkpt>
      <trkpt lat="49.29489" lon="1.34984">
        <ele>146</ele>
        <time>2009-03-22T09:23:56Z</time>
      </trkpt>
      <trkpt lat="49.29477" lon="1.34983">
        <ele>146</ele>
        <time>2009-03-22T09:23:58Z</time>
      </trkpt>
      <trkpt lat="49.29464" lon="1.34983">
        <ele>146</ele>
        <time>2009-03-22T09:24:00Z</time>
      </trkpt>
      <trkpt lat="49.29452" lon="1.34982">
        <ele>146</ele>
        <time>2009-03-22T09:24:02Z</time>
      </trkpt>
      <trkpt lat="49.29439" lon="1.34981">
        <ele>140</ele>
        <time>2009-03-22T09:24:04Z</time>
      </trkpt>
      <trkpt lat="49.29426" lon="1.34981">
        <ele>140</ele>
        <time>2009-03-22T09:24:06Z</time>
      </trkpt>
      <trkpt lat="49.29414" lon="1.3498">
        <ele>140</ele>
        <time>2009-03-22T09:24:08Z</time>
      </trkpt>
      <trkpt lat="49.29401" lon="1.34978">
        <ele>140</ele>
        <time>2009-03-22T09:24:10Z</time>
      </trkpt>
      <trkpt lat="49.29388" lon="1.34976">
        <ele>140</ele>
        <time>2009-03-22T09:24:12Z</time>
      </trkpt>
      <trkpt lat="49.29375" lon="1.34973">
        <ele>135</ele>
        <time>2009-03-22T09:24:14Z</time>
      </trkpt>
      <trkpt lat="49.29361" lon="1.34968">
        <ele>135</ele>
        <time>2009-03-22T09:24:16Z</time>
      </trkpt>
      <trkpt lat="49.29347" lon="1.34963">
        <ele>135</ele>
        <time>2009-03-22T09:24:18Z</time>
      </trkpt>
      <trkpt lat="49.29334" lon="1.34959">
        <ele>135</ele>
        <time>2009-03-22T09:24:20Z</time>
      </trkpt>
      <trkpt lat="49.29321" lon="1.34958">
        <ele>135</ele>
        <time>2009-03-22T09:24:22Z</time>
      </trkpt>
      <trkpt lat="49.2931" lon="1.34961">
        <ele>135</ele>
        <time>2009-03-22T09:24:24Z</time>
      </trkpt>
      <trkpt lat="49.29299" lon="1.34967">
        <ele>135</ele>
        <time>2009-03-22T09:24:26Z</time>
      </trkpt>
      <trkpt lat="49.29288" lon="1.34974">
        <ele>130</ele>
        <time>2009-03-22T09:24:28Z</time>
      </trkpt>
      <trkpt lat="49.29278" lon="1.34982">
        <ele>130</ele>
        <time>2009-03-22T09:24:30Z</time>
      </trkpt>
      <trkpt lat="49.29267" lon="1.34989">
        <ele>130</ele>
        <time>2009-03-22T09:24:32Z</time>
      </trkpt>
      <trkpt lat="49.29257" lon="1.34997">
        <ele>130</ele>
        <time>2009-03-22T09:24:34Z</time>
      </trkpt>
      <trkpt lat="49.29249" lon="1.35005">
        <ele>130</ele>
        <time>2009-03-22T09:24:36Z</time>
      </trkpt>
      <trkpt lat="49.29239" lon="1.35011">
        <ele>130</ele>
        <time>2009-03-22T09:24:38Z</time>
      </trkpt>
      <trkpt lat="49.2923" lon="1.3502">
        <ele>130</ele>
        <time>2009-03-22T09:24:40Z</time>
      </trkpt>
      <trkpt lat="49.29222" lon="1.35029">
        <ele>130</ele>
        <time>2009-03-22T09:24:42Z</time>
      </trkpt>
      <trkpt lat="49.29214" lon="1.35038">
        <ele>130</ele>
        <time>2009-03-22T09:24:44Z</time>
      </trkpt>
      <trkpt lat="49.29206" lon="1.35053">
        <ele>130</ele>
        <time>2009-03-22T09:24:47Z</time>
      </trkpt>
      <trkpt lat="49.29202" lon="1.35066">
        <ele>135</ele>
        <time>2009-03-22T09:24:50Z</time>
      </trkpt>
      <trkpt lat="49.2919" lon="1.35072">
        <ele>135</ele>
        <time>2009-03-22T09:24:54Z</time>
      </trkpt>
      <trkpt lat="49.2918" lon="1.35067">
        <ele>135</ele>
        <time>2009-03-22T09:24:57Z</time>
      </trkpt>
      <trkpt lat="49.29167" lon="1.35064">
        <ele>135</ele>
        <time>2009-03-22T09:25:00Z</time>
      </trkpt>
      <trkpt lat="49.29155" lon="1.35062">
        <ele>135</ele>
        <time>2009-03-22T09:25:03Z</time>
      </trkpt>
      <trkpt lat="49.29143" lon="1.3506">
        <ele>135</ele>
        <time>2009-03-22T09:25:06Z</time>
      </trkpt>
      <trkpt lat="49.2913" lon="1.35058">
        <ele>135</ele>
        <time>2009-03-22T09:25:09Z</time>
      </trkpt>
      <trkpt lat="49.29118" lon="1.35055">
        <ele>135</ele>
        <time>2009-03-22T09:25:12Z</time>
      </trkpt>
      <trkpt lat="49.29106" lon="1.35053">
        <ele>141</ele>
        <time>2009-03-22T09:25:15Z</time>
      </trkpt>
      <trkpt lat="49.29092" lon="1.3505">
        <ele>141</ele>
        <time>2009-03-22T09:25:18Z</time>
      </trkpt>
      <trkpt lat="49.29079" lon="1.35047">
        <ele>141</ele>
        <time>2009-03-22T09:25:21Z</time>
      </trkpt>
      <trkpt lat="49.29066" lon="1.35045">
        <ele>141</ele>
        <time>2009-03-22T09:25:24Z</time>
      </trkpt>
      <trkpt lat="49.29052" lon="1.35042">
        <ele>141</ele>
        <time>2009-03-22T09:25:27Z</time>
      </trkpt>
      <trkpt lat="49.29043" lon="1.3504">
        <ele>141</ele>
        <time>2009-03-22T09:25:29Z</time>
      </trkpt>
      <trkpt lat="49.29033" lon="1.35039">
        <ele>141</ele>
        <time>2009-03-22T09:25:31Z</time>
      </trkpt>
      <trkpt lat="49.29023" lon="1.35037">
        <ele>141</ele>
        <time>2009-03-22T09:25:33Z</time>
      </trkpt>
      <trkpt lat="49.29014" lon="1.35035">
        <ele>141</ele>
        <time>2009-03-22T09:25:35Z</time>
      </trkpt>
      <trkpt lat="49.29004" lon="1.35034">
        <ele>141</ele>
        <time>2009-03-22T09:25:37Z</time>
      </trkpt>
      <trkpt lat="49.28995" lon="1.35031">
        <ele>141</ele>
        <time>2009-03-22T09:25:39Z</time>
      </trkpt>
      <trkpt lat="49.28985" lon="1.35029">
        <ele>141</ele>
        <time>2009-03-22T09:25:41Z</time>
      </trkpt>
      <trkpt lat="49.28972" lon="1.35027">
        <ele>141</ele>
        <time>2009-03-22T09:25:44Z</time>
      </trkpt>
      <trkpt lat="49.28958" lon="1.35026">
        <ele>141</ele>
        <time>2009-03-22T09:25:47Z</time>
      </trkpt>
      <trkpt lat="49.28948" lon="1.35025">
        <ele>141</ele>
        <time>2009-03-22T09:25:49Z</time>
      </trkpt>
      <trkpt lat="49.28938" lon="1.35025">
        <ele>141</ele>
        <time>2009-03-22T09:25:51Z</time>
      </trkpt>
      <trkpt lat="49.28928" lon="1.35025">
        <ele>141</ele>
        <time>2009-03-22T09:25:53Z</time>
      </trkpt>
      <trkpt lat="49.28919" lon="1.35025">
        <ele>135</ele>
        <time>2009-03-22T09:25:55Z</time>
      </trkpt>
      <trkpt lat="49.28908" lon="1.35025">
        <ele>135</ele>
        <time>2009-03-22T09:25:57Z</time>
      </trkpt>
      <trkpt lat="49.28898" lon="1.35025">
        <ele>135</ele>
        <time>2009-03-22T09:25:59Z</time>
      </trkpt>
      <trkpt lat="49.28887" lon="1.35025">
        <ele>135</ele>
        <time>2009-03-22T09:26:01Z</time>
      </trkpt>
      <trkpt lat="49.28877" lon="1.35025">
        <ele>135</ele>
        <time>2009-03-22T09:26:03Z</time>
      </trkpt>
      <trkpt lat="49.28867" lon="1.35025">
        <ele>135</ele>
        <time>2009-03-22T09:26:05Z</time>
      </trkpt>
      <trkpt lat="49.28857" lon="1.35024">
        <ele>135</ele>
        <time>2009-03-22T09:26:07Z</time>
      </trkpt>
      <trkpt lat="49.28847" lon="1.35024">
        <ele>135</ele>
        <time>2009-03-22T09:26:09Z</time>
      </trkpt>
      <trkpt lat="49.28837" lon="1.35024">
        <ele>135</ele>
        <time>2009-03-22T09:26:11Z</time>
      </trkpt>
      <trkpt lat="49.28827" lon="1.35024">
        <ele>135</ele>
        <time>2009-03-22T09:26:13Z</time>
      </trkpt>
      <trkpt lat="49.28816" lon="1.35024">
        <ele>135</ele>
        <time>2009-03-22T09:26:15Z</time>
      </trkpt>
      <trkpt lat="49.28806" lon="1.35024">
        <ele>135</ele>
        <time>2009-03-22T09:26:17Z</time>
      </trkpt>
      <trkpt lat="49.28796" lon="1.35024">
        <ele>135</ele>
        <time>2009-03-22T09:26:19Z</time>
      </trkpt>
      <trkpt lat="49.28786" lon="1.35025">
        <ele>135</ele>
        <time>2009-03-22T09:26:21Z</time>
      </trkpt>
      <trkpt lat="49.28775" lon="1.35026">
        <ele>135</ele>
        <time>2009-03-22T09:26:23Z</time>
      </trkpt>
      <trkpt lat="49.28765" lon="1.35028">
        <ele>135</ele>
        <time>2009-03-22T09:26:25Z</time>
      </trkpt>
      <trkpt lat="49.28756" lon="1.35029">
        <ele>135</ele>
        <time>2009-03-22T09:26:27Z</time>
      </trkpt>
      <trkpt lat="49.28746" lon="1.3503">
        <ele>135</ele>
        <time>2009-03-22T09:26:29Z</time>
      </trkpt>
      <trkpt lat="49.28731" lon="1.35034">
        <ele>135</ele>
        <time>2009-03-22T09:26:32Z</time>
      </trkpt>
      <trkpt lat="49.28722" lon="1.35037">
        <ele>135</ele>
        <time>2009-03-22T09:26:34Z</time>
      </trkpt>
      <trkpt lat="49.28713" lon="1.3504">
        <ele>135</ele>
        <time>2009-03-22T09:26:36Z</time>
      </trkpt>
      <trkpt lat="49.28703" lon="1.35046">
        <ele>135</ele>
        <time>2009-03-22T09:26:38Z</time>
      </trkpt>
      <trkpt lat="49.28694" lon="1.3505">
        <ele>135</ele>
        <time>2009-03-22T09:26:40Z</time>
      </trkpt>
      <trkpt lat="49.28684" lon="1.35055">
        <ele>135</ele>
        <time>2009-03-22T09:26:42Z</time>
      </trkpt>
      <trkpt lat="49.28676" lon="1.3506">
        <ele>135</ele>
        <time>2009-03-22T09:26:44Z</time>
      </trkpt>
      <trkpt lat="49.28666" lon="1.35065">
        <ele>135</ele>
        <time>2009-03-22T09:26:46Z</time>
      </trkpt>
      <trkpt lat="49.28657" lon="1.35071">
        <ele>135</ele>
        <time>2009-03-22T09:26:48Z</time>
      </trkpt>
      <trkpt lat="49.28645" lon="1.3508">
        <ele>135</ele>
        <time>2009-03-22T09:26:51Z</time>
      </trkpt>
      <trkpt lat="49.28636" lon="1.35085">
        <ele>135</ele>
        <time>2009-03-22T09:26:53Z</time>
      </trkpt>
      <trkpt lat="49.28626" lon="1.35091">
        <ele>135</ele>
        <time>2009-03-22T09:26:55Z</time>
      </trkpt>
      <trkpt lat="49.28616" lon="1.35098">
        <ele>135</ele>
        <time>2009-03-22T09:26:57Z</time>
      </trkpt>
      <trkpt lat="49.28606" lon="1.35105">
        <ele>135</ele>
        <time>2009-03-22T09:26:59Z</time>
      </trkpt>
      <trkpt lat="49.28595" lon="1.35112">
        <ele>135</ele>
        <time>2009-03-22T09:27:01Z</time>
      </trkpt>
      <trkpt lat="49.28583" lon="1.35118">
        <ele>135</ele>
        <time>2009-03-22T09:27:03Z</time>
      </trkpt>
      <trkpt lat="49.28571" lon="1.35126">
        <ele>135</ele>
        <time>2009-03-22T09:27:05Z</time>
      </trkpt>
      <trkpt lat="49.28558" lon="1.35134">
        <ele>135</ele>
        <time>2009-03-22T09:27:07Z</time>
      </trkpt>
      <trkpt lat="49.28544" lon="1.35142">
        <ele>130</ele>
        <time>2009-03-22T09:27:09Z</time>
      </trkpt>
      <trkpt lat="49.28529" lon="1.3515">
        <ele>130</ele>
        <time>2009-03-22T09:27:11Z</time>
      </trkpt>
      <trkpt lat="49.28513" lon="1.35159">
        <ele>130</ele>
        <time>2009-03-22T09:27:13Z</time>
      </trkpt>
      <trkpt lat="49.28498" lon="1.35167">
        <ele>130</ele>
        <time>2009-03-22T09:27:15Z</time>
      </trkpt>
      <trkpt lat="49.28484" lon="1.35173">
        <ele>124</ele>
        <time>2009-03-22T09:27:17Z</time>
      </trkpt>
      <trkpt lat="49.28474" lon="1.35179">
        <ele>124</ele>
        <time>2009-03-22T09:27:19Z</time>
      </trkpt>
      <trkpt lat="49.28464" lon="1.35183">
        <ele>124</ele>
        <time>2009-03-22T09:27:21Z</time>
      </trkpt>
      <trkpt lat="49.28458" lon="1.35193">
        <ele>124</ele>
        <time>2009-03-22T09:27:28Z</time>
      </trkpt>
      <trkpt lat="49.28466" lon="1.352">
        <ele>124</ele>
        <time>2009-03-22T09:27:35Z</time>
      </trkpt>
      <trkpt lat="49.28472" lon="1.35212">
        <ele>124</ele>
        <time>2009-03-22T09:27:39Z</time>
      </trkpt>
      <trkpt lat="49.28478" lon="1.35223">
        <ele>124</ele>
        <time>2009-03-22T09:27:42Z</time>
      </trkpt>
      <trkpt lat="49.28481" lon="1.35239">
        <ele>124</ele>
        <time>2009-03-22T09:27:45Z</time>
      </trkpt>
      <trkpt lat="49.28476" lon="1.35256">
        <ele>124</ele>
        <time>2009-03-22T09:27:48Z</time>
      </trkpt>
      <trkpt lat="49.28468" lon="1.35264">
        <ele>124</ele>
        <time>2009-03-22T09:27:50Z</time>
      </trkpt>
      <trkpt lat="49.28459" lon="1.35267">
        <ele>124</ele>
        <time>2009-03-22T09:27:52Z</time>
      </trkpt>
      <trkpt lat="49.28449" lon="1.35271">
        <ele>124</ele>
        <time>2009-03-22T09:27:55Z</time>
      </trkpt>
      <trkpt lat="49.28445" lon="1.35285">
        <ele>124</ele>
        <time>2009-03-22T09:27:58Z</time>
      </trkpt>
      <trkpt lat="49.28452" lon="1.35294">
        <ele>118</ele>
        <time>2009-03-22T09:28:01Z</time>
      </trkpt>
      <trkpt lat="49.28463" lon="1.35303">
        <ele>118</ele>
        <time>2009-03-22T09:28:04Z</time>
      </trkpt>
      <trkpt lat="49.28472" lon="1.35311">
        <ele>118</ele>
        <time>2009-03-22T09:28:07Z</time>
      </trkpt>
      <trkpt lat="49.28482" lon="1.3532">
        <ele>118</ele>
        <time>2009-03-22T09:28:10Z</time>
      </trkpt>
      <trkpt lat="49.28491" lon="1.35326">
        <ele>118</ele>
        <time>2009-03-22T09:28:13Z</time>
      </trkpt>
      <trkpt lat="49.28501" lon="1.35334">
        <ele>118</ele>
        <time>2009-03-22T09:28:16Z</time>
      </trkpt>
      <trkpt lat="49.2851" lon="1.35341">
        <ele>118</ele>
        <time>2009-03-22T09:28:19Z</time>
      </trkpt>
      <trkpt lat="49.2852" lon="1.35347">
        <ele>118</ele>
        <time>2009-03-22T09:28:22Z</time>
      </trkpt>
      <trkpt lat="49.2853" lon="1.35354">
        <ele>124</ele>
        <time>2009-03-22T09:28:25Z</time>
      </trkpt>
      <trkpt lat="49.28541" lon="1.35362">
        <ele>124</ele>
        <time>2009-03-22T09:28:28Z</time>
      </trkpt>
      <trkpt lat="49.28549" lon="1.35369">
        <ele>124</ele>
        <time>2009-03-22T09:28:31Z</time>
      </trkpt>
      <trkpt lat="49.28558" lon="1.35376">
        <ele>124</ele>
        <time>2009-03-22T09:28:34Z</time>
      </trkpt>
      <trkpt lat="49.28566" lon="1.35385">
        <ele>124</ele>
        <time>2009-03-22T09:28:37Z</time>
      </trkpt>
      <trkpt lat="49.28575" lon="1.35392">
        <ele>124</ele>
        <time>2009-03-22T09:28:40Z</time>
      </trkpt>
      <trkpt lat="49.28582" lon="1.35401">
        <ele>124</ele>
        <time>2009-03-22T09:28:43Z</time>
      </trkpt>
      <trkpt lat="49.28592" lon="1.35409">
        <ele>130</ele>
        <time>2009-03-22T09:28:46Z</time>
      </trkpt>
      <trkpt lat="49.28602" lon="1.35418">
        <ele>130</ele>
        <time>2009-03-22T09:28:49Z</time>
      </trkpt>
      <trkpt lat="49.28609" lon="1.35427">
        <ele>130</ele>
        <time>2009-03-22T09:28:52Z</time>
      </trkpt>
      <trkpt lat="49.28617" lon="1.35437">
        <ele>130</ele>
        <time>2009-03-22T09:28:55Z</time>
      </trkpt>
      <trkpt lat="49.28625" lon="1.35446">
        <ele>130</ele>
        <time>2009-03-22T09:28:58Z</time>
      </trkpt>
      <trkpt lat="49.28633" lon="1.35454">
        <ele>130</ele>
        <time>2009-03-22T09:29:01Z</time>
      </trkpt>
      <trkpt lat="49.28641" lon="1.35465">
        <ele>130</ele>
        <time>2009-03-22T09:29:04Z</time>
      </trkpt>
      <trkpt lat="49.28649" lon="1.35474">
        <ele>130</ele>
        <time>2009-03-22T09:29:07Z</time>
      </trkpt>
      <trkpt lat="49.28659" lon="1.35485">
        <ele>130</ele>
        <time>2009-03-22T09:29:11Z</time>
      </trkpt>
      <trkpt lat="49.28669" lon="1.35496">
        <ele>135</ele>
        <time>2009-03-22T09:29:15Z</time>
      </trkpt>
      <trkpt lat="49.28677" lon="1.35506">
        <ele>135</ele>
        <time>2009-03-22T09:29:19Z</time>
      </trkpt>
      <trkpt lat="49.28686" lon="1.35515">
        <ele>135</ele>
        <time>2009-03-22T09:29:23Z</time>
      </trkpt>
      <trkpt lat="49.28693" lon="1.35524">
        <ele>135</ele>
        <time>2009-03-22T09:29:27Z</time>
      </trkpt>
      <trkpt lat="49.28703" lon="1.35532">
        <ele>135</ele>
        <time>2009-03-22T09:29:31Z</time>
      </trkpt>
      <trkpt lat="49.28712" lon="1.35538">
        <ele>135</ele>
        <time>2009-03-22T09:29:35Z</time>
      </trkpt>
      <trkpt lat="49.28723" lon="1.35541">
        <ele>135</ele>
        <time>2009-03-22T09:29:39Z</time>
      </trkpt>
      <trkpt lat="49.28734" lon="1.35543">
        <ele>135</ele>
        <time>2009-03-22T09:29:43Z</time>
      </trkpt>
      <trkpt lat="49.28745" lon="1.35544">
        <ele>135</ele>
        <time>2009-03-22T09:29:47Z</time>
      </trkpt>
      <trkpt lat="49.28755" lon="1.35546">
        <ele>135</ele>
        <time>2009-03-22T09:29:51Z</time>
      </trkpt>
      <trkpt lat="49.28765" lon="1.35548">
        <ele>140</ele>
        <time>2009-03-22T09:29:55Z</time>
      </trkpt>
      <trkpt lat="49.28775" lon="1.3555">
        <ele>140</ele>
        <time>2009-03-22T09:29:59Z</time>
      </trkpt>
      <trkpt lat="49.28786" lon="1.3555">
        <ele>140</ele>
        <time>2009-03-22T09:30:03Z</time>
      </trkpt>
      <trkpt lat="49.28796" lon="1.35551">
        <ele>140</ele>
        <time>2009-03-22T09:30:07Z</time>
      </trkpt>
      <trkpt lat="49.28807" lon="1.35553">
        <ele>140</ele>
        <time>2009-03-22T09:30:11Z</time>
      </trkpt>
      <trkpt lat="49.28817" lon="1.35554">
        <ele>140</ele>
        <time>2009-03-22T09:30:15Z</time>
      </trkpt>
      <trkpt lat="49.28827" lon="1.35556">
        <ele>140</ele>
        <time>2009-03-22T09:30:19Z</time>
      </trkpt>
      <trkpt lat="49.28837" lon="1.35556">
        <ele>140</ele>
        <time>2009-03-22T09:30:23Z</time>
      </trkpt>
      <trkpt lat="49.28848" lon="1.35555">
        <ele>140</ele>
        <time>2009-03-22T09:30:27Z</time>
      </trkpt>
      <trkpt lat="49.28859" lon="1.35553">
        <ele>140</ele>
        <time>2009-03-22T09:30:31Z</time>
      </trkpt>
      <trkpt lat="49.28871" lon="1.3555">
        <ele>140</ele>
        <time>2009-03-22T09:30:35Z</time>
      </trkpt>
      <trkpt lat="49.28883" lon="1.35548">
        <ele>140</ele>
        <time>2009-03-22T09:30:39Z</time>
      </trkpt>
      <trkpt lat="49.28894" lon="1.35544">
        <ele>140</ele>
        <time>2009-03-22T09:30:43Z</time>
      </trkpt>
      <trkpt lat="49.28905" lon="1.35541">
        <ele>140</ele>
        <time>2009-03-22T09:30:47Z</time>
      </trkpt>
      <trkpt lat="49.28915" lon="1.35538">
        <ele>140</ele>
        <time>2009-03-22T09:30:50Z</time>
      </trkpt>
      <trkpt lat="49.28925" lon="1.35535">
        <ele>146</ele>
        <time>2009-03-22T09:30:53Z</time>
      </trkpt>
      <trkpt lat="49.28935" lon="1.35532">
        <ele>146</ele>
        <time>2009-03-22T09:30:56Z</time>
      </trkpt>
      <trkpt lat="49.28945" lon="1.35529">
        <ele>146</ele>
        <time>2009-03-22T09:30:59Z</time>
      </trkpt>
      <trkpt lat="49.28955" lon="1.35525">
        <ele>146</ele>
        <time>2009-03-22T09:31:02Z</time>
      </trkpt>
      <trkpt lat="49.28965" lon="1.35522">
        <ele>146</ele>
        <time>2009-03-22T09:31:05Z</time>
      </trkpt>
      <trkpt lat="49.28974" lon="1.35519">
        <ele>146</ele>
        <time>2009-03-22T09:31:08Z</time>
      </trkpt>
      <trkpt lat="49.28984" lon="1.35515">
        <ele>146</ele>
        <time>2009-03-22T09:31:11Z</time>
      </trkpt>
      <trkpt lat="49.28994" lon="1.35512">
        <ele>146</ele>
        <time>2009-03-22T09:31:14Z</time>
      </trkpt>
      <trkpt lat="49.29005" lon="1.35508">
        <ele>146</ele>
        <time>2009-03-22T09:31:17Z</time>
      </trkpt>
      <trkpt lat="49.29015" lon="1.35505">
        <ele>146</ele>
        <time>2009-03-22T09:31:20Z</time>
      </trkpt>
      <trkpt lat="49.29025" lon="1.35501">
        <ele>146</ele>
        <time>2009-03-22T09:31:23Z</time>
      </trkpt>
      <trkpt lat="49.29035" lon="1.35497">
        <ele>146</ele>
        <time>2009-03-22T09:31:26Z</time>
      </trkpt>
      <trkpt lat="49.29046" lon="1.35494">
        <ele>146</ele>
        <time>2009-03-22T09:31:29Z</time>
      </trkpt>
      <trkpt lat="49.29058" lon="1.35489">
        <ele>146</ele>
        <time>2009-03-22T09:31:32Z</time>
      </trkpt>
      <trkpt lat="49.29069" lon="1.35486">
        <ele>146</ele>
        <time>2009-03-22T09:31:35Z</time>
      </trkpt>
      <trkpt lat="49.29081" lon="1.35482">
        <ele>146</ele>
        <time>2009-03-22T09:31:38Z</time>
      </trkpt>
      <trkpt lat="49.29092" lon="1.35478">
        <ele>146</ele>
        <time>2009-03-22T09:31:41Z</time>
      </trkpt>
      <trkpt lat="49.29104" lon="1.35474">
        <ele>146</ele>
        <time>2009-03-22T09:31:44Z</time>
      </trkpt>
      <trkpt lat="49.29117" lon="1.3547">
        <ele>146</ele>
        <time>2009-03-22T09:31:47Z</time>
      </trkpt>
      <trkpt lat="49.29129" lon="1.35466">
        <ele>146</ele>
        <time>2009-03-22T09:31:50Z</time>
      </trkpt>
      <trkpt lat="49.29142" lon="1.35462">
        <ele>146</ele>
        <time>2009-03-22T09:31:53Z</time>
      </trkpt>
      <trkpt lat="49.29155" lon="1.35459">
        <ele>146</ele>
        <time>2009-03-22T09:31:56Z</time>
      </trkpt>
      <trkpt lat="49.29167" lon="1.35455">
        <ele>146</ele>
        <time>2009-03-22T09:31:59Z</time>
      </trkpt>
      <trkpt lat="49.2918" lon="1.35453">
        <ele>146</ele>
        <time>2009-03-22T09:32:02Z</time>
      </trkpt>
      <trkpt lat="49.29194" lon="1.35449">
        <ele>146</ele>
        <time>2009-03-22T09:32:05Z</time>
      </trkpt>
      <trkpt lat="49.29207" lon="1.35445">
        <ele>146</ele>
        <time>2009-03-22T09:32:08Z</time>
      </trkpt>
      <trkpt lat="49.2922" lon="1.35443">
        <ele>146</ele>
        <time>2009-03-22T09:32:11Z</time>
      </trkpt>
      <trkpt lat="49.29233" lon="1.35439">
        <ele>146</ele>
        <time>2009-03-22T09:32:14Z</time>
      </trkpt>
      <trkpt lat="49.29243" lon="1.35436">
        <ele>146</ele>
        <time>2009-03-22T09:32:16Z</time>
      </trkpt>
      <trkpt lat="49.29256" lon="1.35432">
        <ele>146</ele>
        <time>2009-03-22T09:32:19Z</time>
      </trkpt>
      <trkpt lat="49.29265" lon="1.35428">
        <ele>146</ele>
        <time>2009-03-22T09:32:21Z</time>
      </trkpt>
      <trkpt lat="49.29274" lon="1.35423">
        <ele>146</ele>
        <time>2009-03-22T09:32:23Z</time>
      </trkpt>
      <trkpt lat="49.29283" lon="1.35417">
        <ele>146</ele>
        <time>2009-03-22T09:32:25Z</time>
      </trkpt>
      <trkpt lat="49.29291" lon="1.3541">
        <ele>146</ele>
        <time>2009-03-22T09:32:27Z</time>
      </trkpt>
      <trkpt lat="49.29301" lon="1.35402">
        <ele>146</ele>
        <time>2009-03-22T09:32:29Z</time>
      </trkpt>
      <trkpt lat="49.2931" lon="1.35394">
        <ele>146</ele>
        <time>2009-03-22T09:32:31Z</time>
      </trkpt>
      <trkpt lat="49.29319" lon="1.35386">
        <ele>146</ele>
        <time>2009-03-22T09:32:33Z</time>
      </trkpt>
      <trkpt lat="49.29328" lon="1.35378">
        <ele>146</ele>
        <time>2009-03-22T09:32:35Z</time>
      </trkpt>
      <trkpt lat="49.29338" lon="1.35371">
        <ele>146</ele>
        <time>2009-03-22T09:32:37Z</time>
      </trkpt>
      <trkpt lat="49.29347" lon="1.35363">
        <ele>146</ele>
        <time>2009-03-22T09:32:39Z</time>
      </trkpt>
      <trkpt lat="49.29357" lon="1.35355">
        <ele>146</ele>
        <time>2009-03-22T09:32:41Z</time>
      </trkpt>
      <trkpt lat="49.29365" lon="1.35346">
        <ele>146</ele>
        <time>2009-03-22T09:32:43Z</time>
      </trkpt>
      <trkpt lat="49.29373" lon="1.35338">
        <ele>140</ele>
        <time>2009-03-22T09:32:45Z</time>
      </trkpt>
      <trkpt lat="49.29381" lon="1.3533">
        <ele>140</ele>
        <time>2009-03-22T09:32:47Z</time>
      </trkpt>
      <trkpt lat="49.29391" lon="1.35329">
        <ele>140</ele>
        <time>2009-03-22T09:32:49Z</time>
      </trkpt>
      <trkpt lat="49.29402" lon="1.35338">
        <ele>140</ele>
        <time>2009-03-22T09:32:52Z</time>
      </trkpt>
      <trkpt lat="49.2941" lon="1.35355">
        <ele>140</ele>
        <time>2009-03-22T09:32:55Z</time>
      </trkpt>
      <trkpt lat="49.29418" lon="1.35371">
        <ele>140</ele>
        <time>2009-03-22T09:32:58Z</time>
      </trkpt>
      <trkpt lat="49.29424" lon="1.35382">
        <ele>140</ele>
        <time>2009-03-22T09:33:00Z</time>
      </trkpt>
      <trkpt lat="49.2943" lon="1.35393">
        <ele>140</ele>
        <time>2009-03-22T09:33:02Z</time>
      </trkpt>
      <trkpt lat="49.29436" lon="1.35404">
        <ele>140</ele>
        <time>2009-03-22T09:33:04Z</time>
      </trkpt>
      <trkpt lat="49.29442" lon="1.35415">
        <ele>140</ele>
        <time>2009-03-22T09:33:06Z</time>
      </trkpt>
      <trkpt lat="49.29448" lon="1.35426">
        <ele>140</ele>
        <time>2009-03-22T09:33:08Z</time>
      </trkpt>
      <trkpt lat="49.29456" lon="1.35441">
        <ele>140</ele>
        <time>2009-03-22T09:33:11Z</time>
      </trkpt>
      <trkpt lat="49.29464" lon="1.35456">
        <ele>140</ele>
        <time>2009-03-22T09:33:14Z</time>
      </trkpt>
      <trkpt lat="49.2947" lon="1.35467">
        <ele>140</ele>
        <time>2009-03-22T09:33:16Z</time>
      </trkpt>
      <trkpt lat="49.29476" lon="1.35478">
        <ele>140</ele>
        <time>2009-03-22T09:33:18Z</time>
      </trkpt>
      <trkpt lat="49.29484" lon="1.35493">
        <ele>145</ele>
        <time>2009-03-22T09:33:21Z</time>
      </trkpt>
      <trkpt lat="49.29492" lon="1.35509">
        <ele>145</ele>
        <time>2009-03-22T09:33:24Z</time>
      </trkpt>
      <trkpt lat="49.29499" lon="1.35524">
        <ele>145</ele>
        <time>2009-03-22T09:33:27Z</time>
      </trkpt>
      <trkpt lat="49.29507" lon="1.35538">
        <ele>145</ele>
        <time>2009-03-22T09:33:30Z</time>
      </trkpt>
      <trkpt lat="49.29518" lon="1.35546">
        <ele>145</ele>
        <time>2009-03-22T09:33:33Z</time>
      </trkpt>
      <trkpt lat="49.29531" lon="1.35545">
        <ele>145</ele>
        <time>2009-03-22T09:33:36Z</time>
      </trkpt>
      <trkpt lat="49.29543" lon="1.3554">
        <ele>145</ele>
        <time>2009-03-22T09:33:39Z</time>
      </trkpt>
      <trkpt lat="49.29554" lon="1.35533">
        <ele>145</ele>
        <time>2009-03-22T09:33:42Z</time>
      </trkpt>
      <trkpt lat="49.29563" lon="1.35528">
        <ele>145</ele>
        <time>2009-03-22T09:33:45Z</time>
      </trkpt>
      <trkpt lat="49.29573" lon="1.35523">
        <ele>145</ele>
        <time>2009-03-22T09:33:48Z</time>
      </trkpt>
      <trkpt lat="49.29583" lon="1.35516">
        <ele>145</ele>
        <time>2009-03-22T09:33:52Z</time>
      </trkpt>
      <trkpt lat="49.29592" lon="1.35512">
        <ele>145</ele>
        <time>2009-03-22T09:33:55Z</time>
      </trkpt>
      <trkpt lat="49.29603" lon="1.35509">
        <ele>145</ele>
        <time>2009-03-22T09:33:59Z</time>
      </trkpt>
      <trkpt lat="49.29607" lon="1.35523">
        <ele>145</ele>
        <time>2009-03-22T09:34:06Z</time>
      </trkpt>
      <trkpt lat="49.29598" lon="1.35519">
        <ele>153</ele>
        <time>2009-03-22T09:39:08Z</time>
      </trkpt>
      <trkpt lat="49.29605" lon="1.3553">
        <ele>153</ele>
        <time>2009-03-22T09:40:15Z</time>
      </trkpt>
      <trkpt lat="49.29612" lon="1.35539">
        <ele>153</ele>
        <time>2009-03-22T09:40:24Z</time>
      </trkpt>
      <trkpt lat="49.29618" lon="1.3555">
        <ele>153</ele>
        <time>2009-03-22T09:40:36Z</time>
      </trkpt>
      <trkpt lat="49.29622" lon="1.35565">
        <ele>148</ele>
        <time>2009-03-22T09:40:43Z</time>
      </trkpt>
      <trkpt lat="49.29626" lon="1.35578">
        <ele>148</ele>
        <time>2009-03-22T09:40:48Z</time>
      </trkpt>
      <trkpt lat="49.2963" lon="1.35592">
        <ele>148</ele>
        <time>2009-03-22T09:40:54Z</time>
      </trkpt>
      <trkpt lat="49.29633" lon="1.35606">
        <ele>148</ele>
        <time>2009-03-22T09:41:00Z</time>
      </trkpt>
      <trkpt lat="49.29638" lon="1.3562">
        <ele>140</ele>
        <time>2009-03-22T09:41:04Z</time>
      </trkpt>
      <trkpt lat="49.2964" lon="1.35633">
        <ele>140</ele>
        <time>2009-03-22T09:41:08Z</time>
      </trkpt>
      <trkpt lat="49.29645" lon="1.35648">
        <ele>140</ele>
        <time>2009-03-22T09:41:13Z</time>
      </trkpt>
      <trkpt lat="49.29648" lon="1.35667">
        <ele>140</ele>
        <time>2009-03-22T09:41:18Z</time>
      </trkpt>
      <trkpt lat="49.29648" lon="1.35683">
        <ele>140</ele>
        <time>2009-03-22T09:41:21Z</time>
      </trkpt>
      <trkpt lat="49.29642" lon="1.35699">
        <ele>140</ele>
        <time>2009-03-22T09:41:24Z</time>
      </trkpt>
      <trkpt lat="49.29634" lon="1.35709">
        <ele>140</ele>
        <time>2009-03-22T09:41:27Z</time>
      </trkpt>
      <trkpt lat="49.29626" lon="1.35719">
        <ele>140</ele>
        <time>2009-03-22T09:41:30Z</time>
      </trkpt>
      <trkpt lat="49.29617" lon="1.3573">
        <ele>140</ele>
        <time>2009-03-22T09:41:33Z</time>
      </trkpt>
      <trkpt lat="49.29609" lon="1.35741">
        <ele>140</ele>
        <time>2009-03-22T09:41:36Z</time>
      </trkpt>
      <trkpt lat="49.29601" lon="1.35753">
        <ele>140</ele>
        <time>2009-03-22T09:41:39Z</time>
      </trkpt>
      <trkpt lat="49.29595" lon="1.35765">
        <ele>140</ele>
        <time>2009-03-22T09:41:42Z</time>
      </trkpt>
      <trkpt lat="49.29589" lon="1.35779">
        <ele>145</ele>
        <time>2009-03-22T09:41:45Z</time>
      </trkpt>
      <trkpt lat="49.29586" lon="1.35797">
        <ele>145</ele>
        <time>2009-03-22T09:41:48Z</time>
      </trkpt>
      <trkpt lat="49.29584" lon="1.35814">
        <ele>145</ele>
        <time>2009-03-22T09:41:51Z</time>
      </trkpt>
      <trkpt lat="49.29579" lon="1.3583">
        <ele>145</ele>
        <time>2009-03-22T09:41:54Z</time>
      </trkpt>
      <trkpt lat="49.29573" lon="1.35847">
        <ele>145</ele>
        <time>2009-03-22T09:41:57Z</time>
      </trkpt>
      <trkpt lat="49.29566" lon="1.35863">
        <ele>145</ele>
        <time>2009-03-22T09:42:00Z</time>
      </trkpt>
      <trkpt lat="49.2956" lon="1.35879">
        <ele>145</ele>
        <time>2009-03-22T09:42:03Z</time>
      </trkpt>
      <trkpt lat="49.29553" lon="1.35894">
        <ele>151</ele>
        <time>2009-03-22T09:42:06Z</time>
      </trkpt>
      <trkpt lat="49.29545" lon="1.35909">
        <ele>151</ele>
        <time>2009-03-22T09:42:09Z</time>
      </trkpt>
      <trkpt lat="49.29536" lon="1.35922">
        <ele>151</ele>
        <time>2009-03-22T09:42:12Z</time>
      </trkpt>
      <trkpt lat="49.29529" lon="1.35938">
        <ele>151</ele>
        <time>2009-03-22T09:42:15Z</time>
      </trkpt>
      <trkpt lat="49.29521" lon="1.35953">
        <ele>151</ele>
        <time>2009-03-22T09:42:18Z</time>
      </trkpt>
      <trkpt lat="49.29513" lon="1.35967">
        <ele>151</ele>
        <time>2009-03-22T09:42:21Z</time>
      </trkpt>
      <trkpt lat="49.29505" lon="1.35982">
        <ele>151</ele>
        <time>2009-03-22T09:42:24Z</time>
      </trkpt>
      <trkpt lat="49.29497" lon="1.35996">
        <ele>151</ele>
        <time>2009-03-22T09:42:27Z</time>
      </trkpt>
      <trkpt lat="49.29488" lon="1.36012">
        <ele>151</ele>
        <time>2009-03-22T09:42:30Z</time>
      </trkpt>
      <trkpt lat="49.2948" lon="1.36028">
        <ele>151</ele>
        <time>2009-03-22T09:42:33Z</time>
      </trkpt>
      <trkpt lat="49.29474" lon="1.3604">
        <ele>151</ele>
        <time>2009-03-22T09:42:35Z</time>
      </trkpt>
      <trkpt lat="49.29468" lon="1.36052">
        <ele>151</ele>
        <time>2009-03-22T09:42:37Z</time>
      </trkpt>
      <trkpt lat="49.29462" lon="1.36063">
        <ele>151</ele>
        <time>2009-03-22T09:42:39Z</time>
      </trkpt>
      <trkpt lat="49.29455" lon="1.36076">
        <ele>151</ele>
        <time>2009-03-22T09:42:41Z</time>
      </trkpt>
      <trkpt lat="49.29449" lon="1.36088">
        <ele>151</ele>
        <time>2009-03-22T09:42:43Z</time>
      </trkpt>
      <trkpt lat="49.29442" lon="1.36099">
        <ele>151</ele>
        <time>2009-03-22T09:42:45Z</time>
      </trkpt>
      <trkpt lat="49.29435" lon="1.36112">
        <ele>151</ele>
        <time>2009-03-22T09:42:47Z</time>
      </trkpt>
      <trkpt lat="49.29429" lon="1.36124">
        <ele>151</ele>
        <time>2009-03-22T09:42:49Z</time>
      </trkpt>
      <trkpt lat="49.29422" lon="1.36136">
        <ele>151</ele>
        <time>2009-03-22T09:42:51Z</time>
      </trkpt>
      <trkpt lat="49.29415" lon="1.3615">
        <ele>151</ele>
        <time>2009-03-22T09:42:53Z</time>
      </trkpt>
      <trkpt lat="49.29409" lon="1.36162">
        <ele>151</ele>
        <time>2009-03-22T09:42:55Z</time>
      </trkpt>
      <trkpt lat="49.29402" lon="1.36175">
        <ele>151</ele>
        <time>2009-03-22T09:42:57Z</time>
      </trkpt>
      <trkpt lat="49.29395" lon="1.36186">
        <ele>151</ele>
        <time>2009-03-22T09:42:59Z</time>
      </trkpt>
      <trkpt lat="49.29389" lon="1.36199">
        <ele>151</ele>
        <time>2009-03-22T09:43:01Z</time>
      </trkpt>
      <trkpt lat="49.29383" lon="1.36212">
        <ele>157</ele>
        <time>2009-03-22T09:43:03Z</time>
      </trkpt>
      <trkpt lat="49.29377" lon="1.36225">
        <ele>157</ele>
        <time>2009-03-22T09:43:05Z</time>
      </trkpt>
      <trkpt lat="49.2937" lon="1.36238">
        <ele>157</ele>
        <time>2009-03-22T09:43:07Z</time>
      </trkpt>
      <trkpt lat="49.29363" lon="1.36251">
        <ele>157</ele>
        <time>2009-03-22T09:43:09Z</time>
      </trkpt>
      <trkpt lat="49.29356" lon="1.36265">
        <ele>157</ele>
        <time>2009-03-22T09:43:11Z</time>
      </trkpt>
      <trkpt lat="49.2935" lon="1.36278">
        <ele>157</ele>
        <time>2009-03-22T09:43:13Z</time>
      </trkpt>
      <trkpt lat="49.29342" lon="1.36291">
        <ele>157</ele>
        <time>2009-03-22T09:43:15Z</time>
      </trkpt>
      <trkpt lat="49.29335" lon="1.36304">
        <ele>157</ele>
        <time>2009-03-22T09:43:17Z</time>
      </trkpt>
      <trkpt lat="49.29328" lon="1.36319">
        <ele>157</ele>
        <time>2009-03-22T09:43:19Z</time>
      </trkpt>
      <trkpt lat="49.29321" lon="1.36335">
        <ele>157</ele>
        <time>2009-03-22T09:43:21Z</time>
      </trkpt>
      <trkpt lat="49.29314" lon="1.3635">
        <ele>157</ele>
        <time>2009-03-22T09:43:23Z</time>
      </trkpt>
      <trkpt lat="49.29307" lon="1.36366">
        <ele>157</ele>
        <time>2009-03-22T09:43:25Z</time>
      </trkpt>
      <trkpt lat="49.293" lon="1.36383">
        <ele>157</ele>
        <time>2009-03-22T09:43:27Z</time>
      </trkpt>
      <trkpt lat="49.29292" lon="1.36401">
        <ele>157</ele>
        <time>2009-03-22T09:43:29Z</time>
      </trkpt>
      <trkpt lat="49.29284" lon="1.36419">
        <ele>157</ele>
        <time>2009-03-22T09:43:31Z</time>
      </trkpt>
      <trkpt lat="49.29276" lon="1.36437">
        <ele>157</ele>
        <time>2009-03-22T09:43:33Z</time>
      </trkpt>
      <trkpt lat="49.29268" lon="1.36457">
        <ele>157</ele>
        <time>2009-03-22T09:43:35Z</time>
      </trkpt>
      <trkpt lat="49.29259" lon="1.36477">
        <ele>157</ele>
        <time>2009-03-22T09:43:37Z</time>
      </trkpt>
      <trkpt lat="49.2925" lon="1.36498">
        <ele>151</ele>
        <time>2009-03-22T09:43:39Z</time>
      </trkpt>
      <trkpt lat="49.2924" lon="1.36522">
        <ele>151</ele>
        <time>2009-03-22T09:43:41Z</time>
      </trkpt>
      <trkpt lat="49.29234" lon="1.36533">
        <ele>146</ele>
        <time>2009-03-22T09:43:42Z</time>
      </trkpt>
      <trkpt lat="49.29229" lon="1.36545">
        <ele>146</ele>
        <time>2009-03-22T09:43:43Z</time>
      </trkpt>
      <trkpt lat="49.29222" lon="1.36557">
        <ele>146</ele>
        <time>2009-03-22T09:43:44Z</time>
      </trkpt>
      <trkpt lat="49.29215" lon="1.36568">
        <ele>146</ele>
        <time>2009-03-22T09:43:45Z</time>
      </trkpt>
      <trkpt lat="49.29208" lon="1.3658">
        <ele>146</ele>
        <time>2009-03-22T09:43:46Z</time>
      </trkpt>
      <trkpt lat="49.29201" lon="1.36591">
        <ele>140</ele>
        <time>2009-03-22T09:43:47Z</time>
      </trkpt>
      <trkpt lat="49.29193" lon="1.36602">
        <ele>140</ele>
        <time>2009-03-22T09:43:48Z</time>
      </trkpt>
      <trkpt lat="49.29186" lon="1.36615">
        <ele>140</ele>
        <time>2009-03-22T09:43:49Z</time>
      </trkpt>
      <trkpt lat="49.29179" lon="1.36627">
        <ele>140</ele>
        <time>2009-03-22T09:43:50Z</time>
      </trkpt>
      <trkpt lat="49.29173" lon="1.36641">
        <ele>140</ele>
        <time>2009-03-22T09:43:51Z</time>
      </trkpt>
      <trkpt lat="49.29166" lon="1.36654">
        <ele>140</ele>
        <time>2009-03-22T09:43:52Z</time>
      </trkpt>
      <trkpt lat="49.2916" lon="1.36669">
        <ele>140</ele>
        <time>2009-03-22T09:43:53Z</time>
      </trkpt>
      <trkpt lat="49.29155" lon="1.36684">
        <ele>135</ele>
        <time>2009-03-22T09:43:54Z</time>
      </trkpt>
      <trkpt lat="49.29149" lon="1.36698">
        <ele>135</ele>
        <time>2009-03-22T09:43:55Z</time>
      </trkpt>
      <trkpt lat="49.29144" lon="1.36714">
        <ele>135</ele>
        <time>2009-03-22T09:43:56Z</time>
      </trkpt>
      <trkpt lat="49.29139" lon="1.36729">
        <ele>135</ele>
        <time>2009-03-22T09:43:57Z</time>
      </trkpt>
      <trkpt lat="49.29134" lon="1.36744">
        <ele>135</ele>
        <time>2009-03-22T09:43:58Z</time>
      </trkpt>
      <trkpt lat="49.29129" lon="1.3676">
        <ele>135</ele>
        <time>2009-03-22T09:43:59Z</time>
      </trkpt>
      <trkpt lat="49.29124" lon="1.36775">
        <ele>135</ele>
        <time>2009-03-22T09:44:00Z</time>
      </trkpt>
      <trkpt lat="49.2912" lon="1.3679">
        <ele>130</ele>
        <time>2009-03-22T09:44:01Z</time>
      </trkpt>
      <trkpt lat="49.29116" lon="1.36804">
        <ele>130</ele>
        <time>2009-03-22T09:44:02Z</time>
      </trkpt>
      <trkpt lat="49.29112" lon="1.36819">
        <ele>130</ele>
        <time>2009-03-22T09:44:03Z</time>
      </trkpt>
      <trkpt lat="49.29109" lon="1.36832">
        <ele>130</ele>
        <time>2009-03-22T09:44:04Z</time>
      </trkpt>
      <trkpt lat="49.29108" lon="1.36847">
        <ele>130</ele>
        <time>2009-03-22T09:44:05Z</time>
      </trkpt>
      <trkpt lat="49.29106" lon="1.36861">
        <ele>130</ele>
        <time>2009-03-22T09:44:06Z</time>
      </trkpt>
      <trkpt lat="49.29105" lon="1.36875">
        <ele>130</ele>
        <time>2009-03-22T09:44:07Z</time>
      </trkpt>
      <trkpt lat="49.29103" lon="1.3689">
        <ele>130</ele>
        <time>2009-03-22T09:44:08Z</time>
      </trkpt>
      <trkpt lat="49.29101" lon="1.36917">
        <ele>124</ele>
        <time>2009-03-22T09:44:10Z</time>
      </trkpt>
      <trkpt lat="49.29098" lon="1.3693">
        <ele>124</ele>
        <time>2009-03-22T09:44:11Z</time>
      </trkpt>
      <trkpt lat="49.29095" lon="1.36944">
        <ele>124</ele>
        <time>2009-03-22T09:44:12Z</time>
      </trkpt>
      <trkpt lat="49.29089" lon="1.36969">
        <ele>124</ele>
        <time>2009-03-22T09:44:14Z</time>
      </trkpt>
      <trkpt lat="49.29084" lon="1.36981">
        <ele>124</ele>
        <time>2009-03-22T09:44:15Z</time>
      </trkpt>
      <trkpt lat="49.29071" lon="1.36999">
        <ele>124</ele>
        <time>2009-03-22T09:44:17Z</time>
      </trkpt>
      <trkpt lat="49.29054" lon="1.37003">
        <ele>124</ele>
        <time>2009-03-22T09:44:19Z</time>
      </trkpt>
      <trkpt lat="49.29044" lon="1.36996">
        <ele>124</ele>
        <time>2009-03-22T09:44:20Z</time>
      </trkpt>
      <trkpt lat="49.29034" lon="1.3699">
        <ele>124</ele>
        <time>2009-03-22T09:44:21Z</time>
      </trkpt>
      <trkpt lat="49.29025" lon="1.36983">
        <ele>124</ele>
        <time>2009-03-22T09:44:22Z</time>
      </trkpt>
      <trkpt lat="49.29013" lon="1.36966">
        <ele>124</ele>
        <time>2009-03-22T09:44:24Z</time>
      </trkpt>
      <trkpt lat="49.29006" lon="1.36946">
        <ele>124</ele>
        <time>2009-03-22T09:44:26Z</time>
      </trkpt>
      <trkpt lat="49.29001" lon="1.36922">
        <ele>124</ele>
        <time>2009-03-22T09:44:28Z</time>
      </trkpt>
      <trkpt lat="49.28995" lon="1.369">
        <ele>124</ele>
        <time>2009-03-22T09:44:30Z</time>
      </trkpt>
      <trkpt lat="49.28987" lon="1.3688">
        <ele>124</ele>
        <time>2009-03-22T09:44:32Z</time>
      </trkpt>
      <trkpt lat="49.28974" lon="1.36866">
        <ele>124</ele>
        <time>2009-03-22T09:44:34Z</time>
      </trkpt>
      <trkpt lat="49.28961" lon="1.3686">
        <ele>124</ele>
        <time>2009-03-22T09:44:36Z</time>
      </trkpt>
      <trkpt lat="49.28948" lon="1.36863">
        <ele>130</ele>
        <time>2009-03-22T09:44:38Z</time>
      </trkpt>
      <trkpt lat="49.28938" lon="1.3687">
        <ele>130</ele>
        <time>2009-03-22T09:44:40Z</time>
      </trkpt>
      <trkpt lat="49.2893" lon="1.3688">
        <ele>130</ele>
        <time>2009-03-22T09:44:42Z</time>
      </trkpt>
      <trkpt lat="49.28922" lon="1.36889">
        <ele>130</ele>
        <time>2009-03-22T09:44:44Z</time>
      </trkpt>
      <trkpt lat="49.28913" lon="1.36902">
        <ele>136</ele>
        <time>2009-03-22T09:44:47Z</time>
      </trkpt>
      <trkpt lat="49.28904" lon="1.36912">
        <ele>136</ele>
        <time>2009-03-22T09:44:50Z</time>
      </trkpt>
      <trkpt lat="49.28895" lon="1.36924">
        <ele>136</ele>
        <time>2009-03-22T09:44:53Z</time>
      </trkpt>
      <trkpt lat="49.28887" lon="1.36935">
        <ele>136</ele>
        <time>2009-03-22T09:44:56Z</time>
      </trkpt>
      <trkpt lat="49.28879" lon="1.36945">
        <ele>136</ele>
        <time>2009-03-22T09:44:59Z</time>
      </trkpt>
      <trkpt lat="49.28871" lon="1.36956">
        <ele>136</ele>
        <time>2009-03-22T09:45:02Z</time>
      </trkpt>
      <trkpt lat="49.28862" lon="1.36967">
        <ele>143</ele>
        <time>2009-03-22T09:45:05Z</time>
      </trkpt>
      <trkpt lat="49.28854" lon="1.36977">
        <ele>143</ele>
        <time>2009-03-22T09:45:08Z</time>
      </trkpt>
      <trkpt lat="49.28845" lon="1.36987">
        <ele>143</ele>
        <time>2009-03-22T09:45:11Z</time>
      </trkpt>
      <trkpt lat="49.28836" lon="1.36996">
        <ele>143</ele>
        <time>2009-03-22T09:45:14Z</time>
      </trkpt>
      <trkpt lat="49.28827" lon="1.37006">
        <ele>143</ele>
        <time>2009-03-22T09:45:17Z</time>
      </trkpt>
      <trkpt lat="49.28817" lon="1.37016">
        <ele>143</ele>
        <time>2009-03-22T09:45:21Z</time>
      </trkpt>
      <trkpt lat="49.28808" lon="1.37024">
        <ele>143</ele>
        <time>2009-03-22T09:45:26Z</time>
      </trkpt>
      <trkpt lat="49.28806" lon="1.37038">
        <ele>143</ele>
        <time>2009-03-22T09:45:32Z</time>
      </trkpt>
      <trkpt lat="49.288" lon="1.37051">
        <ele>143</ele>
        <time>2009-03-22T09:45:38Z</time>
      </trkpt>
      <trkpt lat="49.28794" lon="1.37065">
        <ele>143</ele>
        <time>2009-03-22T09:45:43Z</time>
      </trkpt>
      <trkpt lat="49.28788" lon="1.37076">
        <ele>143</ele>
        <time>2009-03-22T09:45:47Z</time>
      </trkpt>
      <trkpt lat="49.28783" lon="1.37088">
        <ele>143</ele>
        <time>2009-03-22T09:45:51Z</time>
      </trkpt>
      <trkpt lat="49.28777" lon="1.37102">
        <ele>134</ele>
        <time>2009-03-22T09:45:55Z</time>
      </trkpt>
      <trkpt lat="49.28766" lon="1.37111">
        <ele>134</ele>
        <time>2009-03-22T09:45:59Z</time>
      </trkpt>
      <trkpt lat="49.28756" lon="1.37116">
        <ele>134</ele>
        <time>2009-03-22T09:46:03Z</time>
      </trkpt>
      <trkpt lat="49.28747" lon="1.37118">
        <ele>139</ele>
        <time>2009-03-22T09:46:06Z</time>
      </trkpt>
      <trkpt lat="49.28737" lon="1.37121">
        <ele>139</ele>
        <time>2009-03-22T09:46:09Z</time>
      </trkpt>
      <trkpt lat="49.28726" lon="1.37123">
        <ele>139</ele>
        <time>2009-03-22T09:46:12Z</time>
      </trkpt>
      <trkpt lat="49.28716" lon="1.37126">
        <ele>145</ele>
        <time>2009-03-22T09:46:15Z</time>
      </trkpt>
      <trkpt lat="49.28705" lon="1.37128">
        <ele>145</ele>
        <time>2009-03-22T09:46:18Z</time>
      </trkpt>
      <trkpt lat="49.28696" lon="1.3713">
        <ele>145</ele>
        <time>2009-03-22T09:46:21Z</time>
      </trkpt>
      <trkpt lat="49.28684" lon="1.37131">
        <ele>145</ele>
        <time>2009-03-22T09:46:25Z</time>
      </trkpt>
      <trkpt lat="49.28674" lon="1.37137">
        <ele>145</ele>
        <time>2009-03-22T09:46:29Z</time>
      </trkpt>
      <trkpt lat="49.28663" lon="1.3714">
        <ele>145</ele>
        <time>2009-03-22T09:46:33Z</time>
      </trkpt>
      <trkpt lat="49.28653" lon="1.37142">
        <ele>145</ele>
        <time>2009-03-22T09:46:36Z</time>
      </trkpt>
      <trkpt lat="49.28643" lon="1.37146">
        <ele>145</ele>
        <time>2009-03-22T09:46:39Z</time>
      </trkpt>
      <trkpt lat="49.28633" lon="1.37151">
        <ele>145</ele>
        <time>2009-03-22T09:46:42Z</time>
      </trkpt>
      <trkpt lat="49.28624" lon="1.37156">
        <ele>145</ele>
        <time>2009-03-22T09:46:45Z</time>
      </trkpt>
      <trkpt lat="49.28614" lon="1.37161">
        <ele>145</ele>
        <time>2009-03-22T09:46:48Z</time>
      </trkpt>
      <trkpt lat="49.28605" lon="1.37167">
        <ele>145</ele>
        <time>2009-03-22T09:46:51Z</time>
      </trkpt>
      <trkpt lat="49.28594" lon="1.37175">
        <ele>145</ele>
        <time>2009-03-22T09:46:54Z</time>
      </trkpt>
      <trkpt lat="49.28581" lon="1.37183">
        <ele>145</ele>
        <time>2009-03-22T09:46:57Z</time>
      </trkpt>
      <trkpt lat="49.28572" lon="1.37187">
        <ele>145</ele>
        <time>2009-03-22T09:46:59Z</time>
      </trkpt>
      <trkpt lat="49.28559" lon="1.37196">
        <ele>145</ele>
        <time>2009-03-22T09:47:02Z</time>
      </trkpt>
      <trkpt lat="49.2855" lon="1.37203">
        <ele>145</ele>
        <time>2009-03-22T09:47:04Z</time>
      </trkpt>
      <trkpt lat="49.28541" lon="1.37211">
        <ele>145</ele>
        <time>2009-03-22T09:47:06Z</time>
      </trkpt>
      <trkpt lat="49.28532" lon="1.3722">
        <ele>145</ele>
        <time>2009-03-22T09:47:08Z</time>
      </trkpt>
      <trkpt lat="49.28522" lon="1.37228">
        <ele>145</ele>
        <time>2009-03-22T09:47:10Z</time>
      </trkpt>
      <trkpt lat="49.28513" lon="1.37237">
        <ele>145</ele>
        <time>2009-03-22T09:47:12Z</time>
      </trkpt>
      <trkpt lat="49.28503" lon="1.37244">
        <ele>145</ele>
        <time>2009-03-22T09:47:14Z</time>
      </trkpt>
      <trkpt lat="49.28495" lon="1.37252">
        <ele>145</ele>
        <time>2009-03-22T09:47:16Z</time>
      </trkpt>
      <trkpt lat="49.28486" lon="1.37261">
        <ele>145</ele>
        <time>2009-03-22T09:47:18Z</time>
      </trkpt>
      <trkpt lat="49.28478" lon="1.37269">
        <ele>145</ele>
        <time>2009-03-22T09:47:20Z</time>
      </trkpt>
      <trkpt lat="49.28468" lon="1.37281">
        <ele>145</ele>
        <time>2009-03-22T09:47:23Z</time>
      </trkpt>
      <trkpt lat="49.2846" lon="1.3729">
        <ele>145</ele>
        <time>2009-03-22T09:47:25Z</time>
      </trkpt>
      <trkpt lat="49.28452" lon="1.37302">
        <ele>145</ele>
        <time>2009-03-22T09:47:27Z</time>
      </trkpt>
      <trkpt lat="49.28444" lon="1.37312">
        <ele>145</ele>
        <time>2009-03-22T09:47:29Z</time>
      </trkpt>
      <trkpt lat="49.28435" lon="1.37316">
        <ele>145</ele>
        <time>2009-03-22T09:47:31Z</time>
      </trkpt>
      <trkpt lat="49.28426" lon="1.37306">
        <ele>145</ele>
        <time>2009-03-22T09:47:34Z</time>
      </trkpt>
      <trkpt lat="49.28418" lon="1.37294">
        <ele>145</ele>
        <time>2009-03-22T09:47:37Z</time>
      </trkpt>
      <trkpt lat="49.28409" lon="1.37281">
        <ele>145</ele>
        <time>2009-03-22T09:47:40Z</time>
      </trkpt>
      <trkpt lat="49.284" lon="1.37269">
        <ele>145</ele>
        <time>2009-03-22T09:47:43Z</time>
      </trkpt>
      <trkpt lat="49.28394" lon="1.37259">
        <ele>145</ele>
        <time>2009-03-22T09:47:45Z</time>
      </trkpt>
      <trkpt lat="49.28387" lon="1.37249">
        <ele>145</ele>
        <time>2009-03-22T09:47:47Z</time>
      </trkpt>
      <trkpt lat="49.28379" lon="1.37238">
        <ele>145</ele>
        <time>2009-03-22T09:47:49Z</time>
      </trkpt>
      <trkpt lat="49.28373" lon="1.37228">
        <ele>145</ele>
        <time>2009-03-22T09:47:51Z</time>
      </trkpt>
      <trkpt lat="49.28366" lon="1.37218">
        <ele>145</ele>
        <time>2009-03-22T09:47:53Z</time>
      </trkpt>
      <trkpt lat="49.28359" lon="1.37207">
        <ele>145</ele>
        <time>2009-03-22T09:47:55Z</time>
      </trkpt>
      <trkpt lat="49.28352" lon="1.37196">
        <ele>145</ele>
        <time>2009-03-22T09:47:57Z</time>
      </trkpt>
      <trkpt lat="49.28345" lon="1.37186">
        <ele>145</ele>
        <time>2009-03-22T09:47:59Z</time>
      </trkpt>
      <trkpt lat="49.28338" lon="1.37175">
        <ele>145</ele>
        <time>2009-03-22T09:48:01Z</time>
      </trkpt>
      <trkpt lat="49.2833" lon="1.37166">
        <ele>145</ele>
        <time>2009-03-22T09:48:03Z</time>
      </trkpt>
      <trkpt lat="49.28322" lon="1.37157">
        <ele>145</ele>
        <time>2009-03-22T09:48:05Z</time>
      </trkpt>
      <trkpt lat="49.28313" lon="1.37147">
        <ele>145</ele>
        <time>2009-03-22T09:48:07Z</time>
      </trkpt>
      <trkpt lat="49.28305" lon="1.37138">
        <ele>145</ele>
        <time>2009-03-22T09:48:09Z</time>
      </trkpt>
      <trkpt lat="49.28297" lon="1.37129">
        <ele>145</ele>
        <time>2009-03-22T09:48:11Z</time>
      </trkpt>
      <trkpt lat="49.28288" lon="1.37119">
        <ele>145</ele>
        <time>2009-03-22T09:48:13Z</time>
      </trkpt>
      <trkpt lat="49.2828" lon="1.3711">
        <ele>145</ele>
        <time>2009-03-22T09:48:15Z</time>
      </trkpt>
      <trkpt lat="49.28273" lon="1.37102">
        <ele>145</ele>
        <time>2009-03-22T09:48:17Z</time>
      </trkpt>
      <trkpt lat="49.28265" lon="1.37093">
        <ele>145</ele>
        <time>2009-03-22T09:48:19Z</time>
      </trkpt>
      <trkpt lat="49.28257" lon="1.37084">
        <ele>145</ele>
        <time>2009-03-22T09:48:21Z</time>
      </trkpt>
      <trkpt lat="49.28248" lon="1.37076">
        <ele>145</ele>
        <time>2009-03-22T09:48:23Z</time>
      </trkpt>
      <trkpt lat="49.28239" lon="1.37066">
        <ele>145</ele>
        <time>2009-03-22T09:48:25Z</time>
      </trkpt>
      <trkpt lat="49.2823" lon="1.37055">
        <ele>145</ele>
        <time>2009-03-22T09:48:27Z</time>
      </trkpt>
      <trkpt lat="49.2822" lon="1.37044">
        <ele>145</ele>
        <time>2009-03-22T09:48:29Z</time>
      </trkpt>
      <trkpt lat="49.28211" lon="1.37033">
        <ele>145</ele>
        <time>2009-03-22T09:48:31Z</time>
      </trkpt>
      <trkpt lat="49.28203" lon="1.37022">
        <ele>145</ele>
        <time>2009-03-22T09:48:33Z</time>
      </trkpt>
      <trkpt lat="49.28194" lon="1.3701">
        <ele>145</ele>
        <time>2009-03-22T09:48:35Z</time>
      </trkpt>
      <trkpt lat="49.28184" lon="1.36999">
        <ele>145</ele>
        <time>2009-03-22T09:48:37Z</time>
      </trkpt>
      <trkpt lat="49.28175" lon="1.36989">
        <ele>145</ele>
        <time>2009-03-22T09:48:39Z</time>
      </trkpt>
      <trkpt lat="49.28165" lon="1.36977">
        <ele>145</ele>
        <time>2009-03-22T09:48:41Z</time>
      </trkpt>
      <trkpt lat="49.28155" lon="1.36964">
        <ele>145</ele>
        <time>2009-03-22T09:48:43Z</time>
      </trkpt>
      <trkpt lat="49.28146" lon="1.36952">
        <ele>145</ele>
        <time>2009-03-22T09:48:45Z</time>
      </trkpt>
      <trkpt lat="49.28134" lon="1.36939">
        <ele>145</ele>
        <time>2009-03-22T09:48:47Z</time>
      </trkpt>
      <trkpt lat="49.28123" lon="1.36928">
        <ele>145</ele>
        <time>2009-03-22T09:48:49Z</time>
      </trkpt>
      <trkpt lat="49.28112" lon="1.36915">
        <ele>139</ele>
        <time>2009-03-22T09:48:51Z</time>
      </trkpt>
      <trkpt lat="49.28102" lon="1.36903">
        <ele>139</ele>
        <time>2009-03-22T09:48:53Z</time>
      </trkpt>
      <trkpt lat="49.28092" lon="1.36892">
        <ele>139</ele>
        <time>2009-03-22T09:48:55Z</time>
      </trkpt>
      <trkpt lat="49.28083" lon="1.3688">
        <ele>139</ele>
        <time>2009-03-22T09:48:57Z</time>
      </trkpt>
      <trkpt lat="49.28076" lon="1.36867">
        <ele>139</ele>
        <time>2009-03-22T09:48:59Z</time>
      </trkpt>
      <trkpt lat="49.28069" lon="1.36854">
        <ele>139</ele>
        <time>2009-03-22T09:49:01Z</time>
      </trkpt>
      <trkpt lat="49.28063" lon="1.3684">
        <ele>139</ele>
        <time>2009-03-22T09:49:03Z</time>
      </trkpt>
      <trkpt lat="49.28058" lon="1.36824">
        <ele>139</ele>
        <time>2009-03-22T09:49:05Z</time>
      </trkpt>
      <trkpt lat="49.28053" lon="1.36809">
        <ele>139</ele>
        <time>2009-03-22T09:49:07Z</time>
      </trkpt>
      <trkpt lat="49.28047" lon="1.36794">
        <ele>139</ele>
        <time>2009-03-22T09:49:09Z</time>
      </trkpt>
      <trkpt lat="49.28041" lon="1.36778">
        <ele>139</ele>
        <time>2009-03-22T09:49:11Z</time>
      </trkpt>
      <trkpt lat="49.28035" lon="1.36762">
        <ele>139</ele>
        <time>2009-03-22T09:49:13Z</time>
      </trkpt>
      <trkpt lat="49.28029" lon="1.36747">
        <ele>139</ele>
        <time>2009-03-22T09:49:15Z</time>
      </trkpt>
      <trkpt lat="49.28023" lon="1.36731">
        <ele>139</ele>
        <time>2009-03-22T09:49:17Z</time>
      </trkpt>
      <trkpt lat="49.28017" lon="1.36716">
        <ele>139</ele>
        <time>2009-03-22T09:49:19Z</time>
      </trkpt>
      <trkpt lat="49.2801" lon="1.36702">
        <ele>139</ele>
        <time>2009-03-22T09:49:21Z</time>
      </trkpt>
      <trkpt lat="49.28005" lon="1.36689">
        <ele>139</ele>
        <time>2009-03-22T09:49:23Z</time>
      </trkpt>
      <trkpt lat="49.27999" lon="1.36676">
        <ele>139</ele>
        <time>2009-03-22T09:49:25Z</time>
      </trkpt>
      <trkpt lat="49.27994" lon="1.36662">
        <ele>139</ele>
        <time>2009-03-22T09:49:27Z</time>
      </trkpt>
      <trkpt lat="49.27988" lon="1.36647">
        <ele>139</ele>
        <time>2009-03-22T09:49:29Z</time>
      </trkpt>
      <trkpt lat="49.27982" lon="1.36632">
        <ele>139</ele>
        <time>2009-03-22T09:49:31Z</time>
      </trkpt>
      <trkpt lat="49.27976" lon="1.36618">
        <ele>139</ele>
        <time>2009-03-22T09:49:33Z</time>
      </trkpt>
      <trkpt lat="49.27969" lon="1.36603">
        <ele>139</ele>
        <time>2009-03-22T09:49:35Z</time>
      </trkpt>
      <trkpt lat="49.27963" lon="1.36589">
        <ele>139</ele>
        <time>2009-03-22T09:49:37Z</time>
      </trkpt>
      <trkpt lat="49.27957" lon="1.36575">
        <ele>139</ele>
        <time>2009-03-22T09:49:39Z</time>
      </trkpt>
      <trkpt lat="49.27951" lon="1.36561">
        <ele>139</ele>
        <time>2009-03-22T09:49:41Z</time>
      </trkpt>
      <trkpt lat="49.27945" lon="1.36547">
        <ele>134</ele>
        <time>2009-03-22T09:49:43Z</time>
      </trkpt>
      <trkpt lat="49.27939" lon="1.36532">
        <ele>134</ele>
        <time>2009-03-22T09:49:45Z</time>
      </trkpt>
      <trkpt lat="49.27933" lon="1.36518">
        <ele>134</ele>
        <time>2009-03-22T09:49:47Z</time>
      </trkpt>
      <trkpt lat="49.27928" lon="1.36504">
        <ele>134</ele>
        <time>2009-03-22T09:49:49Z</time>
      </trkpt>
      <trkpt lat="49.27922" lon="1.36488">
        <ele>134</ele>
        <time>2009-03-22T09:49:51Z</time>
      </trkpt>
      <trkpt lat="49.27916" lon="1.36473">
        <ele>134</ele>
        <time>2009-03-22T09:49:53Z</time>
      </trkpt>
      <trkpt lat="49.27909" lon="1.36458">
        <ele>134</ele>
        <time>2009-03-22T09:49:55Z</time>
      </trkpt>
      <trkpt lat="49.27903" lon="1.36442">
        <ele>134</ele>
        <time>2009-03-22T09:49:57Z</time>
      </trkpt>
      <trkpt lat="49.27897" lon="1.36428">
        <ele>134</ele>
        <time>2009-03-22T09:49:59Z</time>
      </trkpt>
      <trkpt lat="49.27891" lon="1.36415">
        <ele>128</ele>
        <time>2009-03-22T09:50:01Z</time>
      </trkpt>
      <trkpt lat="49.27887" lon="1.36398">
        <ele>128</ele>
        <time>2009-03-22T09:50:04Z</time>
      </trkpt>
      <trkpt lat="49.27882" lon="1.36382">
        <ele>128</ele>
        <time>2009-03-22T09:50:07Z</time>
      </trkpt>
      <trkpt lat="49.27881" lon="1.36365">
        <ele>128</ele>
        <time>2009-03-22T09:50:10Z</time>
      </trkpt>
      <trkpt lat="49.27878" lon="1.36351">
        <ele>128</ele>
        <time>2009-03-22T09:50:12Z</time>
      </trkpt>
      <trkpt lat="49.27873" lon="1.36332">
        <ele>128</ele>
        <time>2009-03-22T09:50:15Z</time>
      </trkpt>
      <trkpt lat="49.2787" lon="1.36313">
        <ele>128</ele>
        <time>2009-03-22T09:50:18Z</time>
      </trkpt>
      <trkpt lat="49.27864" lon="1.36295">
        <ele>128</ele>
        <time>2009-03-22T09:50:21Z</time>
      </trkpt>
      <trkpt lat="49.27859" lon="1.36283">
        <ele>128</ele>
        <time>2009-03-22T09:50:24Z</time>
      </trkpt>
      <trkpt lat="49.2785" lon="1.36275">
        <ele>120</ele>
        <time>2009-03-22T09:50:28Z</time>
      </trkpt>
      <trkpt lat="49.2784" lon="1.36272">
        <ele>120</ele>
        <time>2009-03-22T09:50:32Z</time>
      </trkpt>
      <trkpt lat="49.27829" lon="1.36272">
        <ele>120</ele>
        <time>2009-03-22T09:50:36Z</time>
      </trkpt>
      <trkpt lat="49.27818" lon="1.36275">
        <ele>120</ele>
        <time>2009-03-22T09:50:38Z</time>
      </trkpt>
      <trkpt lat="49.27806" lon="1.36278">
        <ele>120</ele>
        <time>2009-03-22T09:50:41Z</time>
      </trkpt>
      <trkpt lat="49.27795" lon="1.3628">
        <ele>120</ele>
        <time>2009-03-22T09:50:44Z</time>
      </trkpt>
      <trkpt lat="49.27782" lon="1.36284">
        <ele>113</ele>
        <time>2009-03-22T09:50:46Z</time>
      </trkpt>
      <trkpt lat="49.2777" lon="1.36286">
        <ele>113</ele>
        <time>2009-03-22T09:50:48Z</time>
      </trkpt>
      <trkpt lat="49.27761" lon="1.36291">
        <ele>113</ele>
        <time>2009-03-22T09:50:50Z</time>
      </trkpt>
      <trkpt lat="49.2775" lon="1.36295">
        <ele>113</ele>
        <time>2009-03-22T09:50:53Z</time>
      </trkpt>
      <trkpt lat="49.27741" lon="1.36301">
        <ele>113</ele>
        <time>2009-03-22T09:50:56Z</time>
      </trkpt>
      <trkpt lat="49.27732" lon="1.36306">
        <ele>113</ele>
        <time>2009-03-22T09:50:58Z</time>
      </trkpt>
      <trkpt lat="49.27719" lon="1.36317">
        <ele>113</ele>
        <time>2009-03-22T09:51:00Z</time>
      </trkpt>
      <trkpt lat="49.27711" lon="1.36325">
        <ele>108</ele>
        <time>2009-03-22T09:51:01Z</time>
      </trkpt>
      <trkpt lat="49.277" lon="1.36326">
        <ele>108</ele>
        <time>2009-03-22T09:51:05Z</time>
      </trkpt>
      <trkpt lat="49.2769" lon="1.36323">
        <ele>114</ele>
        <time>2009-03-22T09:51:08Z</time>
      </trkpt>
      <trkpt lat="49.27677" lon="1.36324">
        <ele>114</ele>
        <time>2009-03-22T09:51:12Z</time>
      </trkpt>
      <trkpt lat="49.27666" lon="1.36327">
        <ele>114</ele>
        <time>2009-03-22T09:51:15Z</time>
      </trkpt>
      <trkpt lat="49.27654" lon="1.36332">
        <ele>114</ele>
        <time>2009-03-22T09:51:18Z</time>
      </trkpt>
      <trkpt lat="49.27645" lon="1.36335">
        <ele>114</ele>
        <time>2009-03-22T09:51:21Z</time>
      </trkpt>
      <trkpt lat="49.27634" lon="1.36333">
        <ele>114</ele>
        <time>2009-03-22T09:51:24Z</time>
      </trkpt>
      <trkpt lat="49.27625" lon="1.36338">
        <ele>114</ele>
        <time>2009-03-22T09:51:27Z</time>
      </trkpt>
      <trkpt lat="49.27615" lon="1.3635">
        <ele>114</ele>
        <time>2009-03-22T09:51:31Z</time>
      </trkpt>
      <trkpt lat="49.27607" lon="1.36359">
        <ele>105</ele>
        <time>2009-03-22T09:51:34Z</time>
      </trkpt>
      <trkpt lat="49.27597" lon="1.36373">
        <ele>105</ele>
        <time>2009-03-22T09:51:37Z</time>
      </trkpt>
      <trkpt lat="49.27589" lon="1.36387">
        <ele>105</ele>
        <time>2009-03-22T09:51:39Z</time>
      </trkpt>
      <trkpt lat="49.27582" lon="1.36397">
        <ele>99</ele>
        <time>2009-03-22T09:51:41Z</time>
      </trkpt>
      <trkpt lat="49.27574" lon="1.36407">
        <ele>99</ele>
        <time>2009-03-22T09:51:43Z</time>
      </trkpt>
      <trkpt lat="49.27564" lon="1.36426">
        <ele>99</ele>
        <time>2009-03-22T09:51:45Z</time>
      </trkpt>
      <trkpt lat="49.27557" lon="1.36436">
        <ele>99</ele>
        <time>2009-03-22T09:51:46Z</time>
      </trkpt>
      <trkpt lat="49.27548" lon="1.36448">
        <ele>99</ele>
        <time>2009-03-22T09:51:48Z</time>
      </trkpt>
      <trkpt lat="49.27542" lon="1.36461">
        <ele>99</ele>
        <time>2009-03-22T09:51:51Z</time>
      </trkpt>
      <trkpt lat="49.27536" lon="1.36471">
        <ele>99</ele>
        <time>2009-03-22T09:51:53Z</time>
      </trkpt>
      <trkpt lat="49.27527" lon="1.36486">
        <ele>106</ele>
        <time>2009-03-22T09:51:55Z</time>
      </trkpt>
      <trkpt lat="49.27519" lon="1.36501">
        <ele>106</ele>
        <time>2009-03-22T09:51:57Z</time>
      </trkpt>
      <trkpt lat="49.27516" lon="1.36515">
        <ele>100</ele>
        <time>2009-03-22T09:51:59Z</time>
      </trkpt>
      <trkpt lat="49.27513" lon="1.3653">
        <ele>100</ele>
        <time>2009-03-22T09:52:01Z</time>
      </trkpt>
      <trkpt lat="49.27505" lon="1.36548">
        <ele>100</ele>
        <time>2009-03-22T09:52:03Z</time>
      </trkpt>
      <trkpt lat="49.27495" lon="1.36584">
        <ele>92</ele>
        <time>2009-03-22T09:52:07Z</time>
      </trkpt>
      <trkpt lat="49.275" lon="1.36603">
        <ele>92</ele>
        <time>2009-03-22T09:52:10Z</time>
      </trkpt>
      <trkpt lat="49.27504" lon="1.36621">
        <ele>92</ele>
        <time>2009-03-22T09:52:13Z</time>
      </trkpt>
      <trkpt lat="49.2751" lon="1.36635">
        <ele>92</ele>
        <time>2009-03-22T09:52:15Z</time>
      </trkpt>
      <trkpt lat="49.27518" lon="1.3665">
        <ele>92</ele>
        <time>2009-03-22T09:52:17Z</time>
      </trkpt>
      <trkpt lat="49.27525" lon="1.36665">
        <ele>85</ele>
        <time>2009-03-22T09:52:19Z</time>
      </trkpt>
      <trkpt lat="49.27535" lon="1.36681">
        <ele>85</ele>
        <time>2009-03-22T09:52:22Z</time>
      </trkpt>
      <trkpt lat="49.27544" lon="1.36683">
        <ele>85</ele>
        <time>2009-03-22T09:52:24Z</time>
      </trkpt>
      <trkpt lat="49.27552" lon="1.36692">
        <ele>85</ele>
        <time>2009-03-22T09:52:27Z</time>
      </trkpt>
      <trkpt lat="49.27559" lon="1.36702">
        <ele>80</ele>
        <time>2009-03-22T09:52:31Z</time>
      </trkpt>
      <trkpt lat="49.27566" lon="1.36716">
        <ele>80</ele>
        <time>2009-03-22T09:52:34Z</time>
      </trkpt>
      <trkpt lat="49.27565" lon="1.3673">
        <ele>71</ele>
        <time>2009-03-22T09:52:37Z</time>
      </trkpt>
      <trkpt lat="49.27558" lon="1.3674">
        <ele>65</ele>
        <time>2009-03-22T09:52:40Z</time>
      </trkpt>
      <trkpt lat="49.27551" lon="1.36751">
        <ele>65</ele>
        <time>2009-03-22T09:52:43Z</time>
      </trkpt>
      <trkpt lat="49.2754" lon="1.36761">
        <ele>65</ele>
        <time>2009-03-22T09:52:46Z</time>
      </trkpt>
      <trkpt lat="49.27534" lon="1.36771">
        <ele>65</ele>
        <time>2009-03-22T09:52:48Z</time>
      </trkpt>
      <trkpt lat="49.27525" lon="1.36784">
        <ele>60</ele>
        <time>2009-03-22T09:52:51Z</time>
      </trkpt>
      <trkpt lat="49.27521" lon="1.36798">
        <ele>60</ele>
        <time>2009-03-22T09:52:53Z</time>
      </trkpt>
      <trkpt lat="49.27514" lon="1.36813">
        <ele>60</ele>
        <time>2009-03-22T09:52:55Z</time>
      </trkpt>
      <trkpt lat="49.27507" lon="1.36828">
        <ele>60</ele>
        <time>2009-03-22T09:52:57Z</time>
      </trkpt>
      <trkpt lat="49.27493" lon="1.36844">
        <ele>66</ele>
        <time>2009-03-22T09:52:59Z</time>
      </trkpt>
      <trkpt lat="49.27482" lon="1.36854">
        <ele>66</ele>
        <time>2009-03-22T09:53:02Z</time>
      </trkpt>
      <trkpt lat="49.27477" lon="1.36867">
        <ele>66</ele>
        <time>2009-03-22T09:53:04Z</time>
      </trkpt>
      <trkpt lat="49.27471" lon="1.36881">
        <ele>66</ele>
        <time>2009-03-22T09:53:06Z</time>
      </trkpt>
      <trkpt lat="49.27465" lon="1.36893">
        <ele>66</ele>
        <time>2009-03-22T09:53:08Z</time>
      </trkpt>
      <trkpt lat="49.27458" lon="1.36906">
        <ele>66</ele>
        <time>2009-03-22T09:53:10Z</time>
      </trkpt>
      <trkpt lat="49.27445" lon="1.36914">
        <ele>66</ele>
        <time>2009-03-22T09:53:12Z</time>
      </trkpt>
      <trkpt lat="49.27434" lon="1.36919">
        <ele>66</ele>
        <time>2009-03-22T09:53:14Z</time>
      </trkpt>
      <trkpt lat="49.27424" lon="1.36921">
        <ele>66</ele>
        <time>2009-03-22T09:53:16Z</time>
      </trkpt>
      <trkpt lat="49.27416" lon="1.36918">
        <ele>66</ele>
        <time>2009-03-22T09:53:18Z</time>
      </trkpt>
      <trkpt lat="49.27404" lon="1.36911">
        <ele>66</ele>
        <time>2009-03-22T09:53:21Z</time>
      </trkpt>
      <trkpt lat="49.27397" lon="1.36897">
        <ele>60</ele>
        <time>2009-03-22T09:53:24Z</time>
      </trkpt>
      <trkpt lat="49.27389" lon="1.36884">
        <ele>60</ele>
        <time>2009-03-22T09:53:26Z</time>
      </trkpt>
      <trkpt lat="49.27382" lon="1.36869">
        <ele>60</ele>
        <time>2009-03-22T09:53:28Z</time>
      </trkpt>
      <trkpt lat="49.27373" lon="1.3685">
        <ele>60</ele>
        <time>2009-03-22T09:53:30Z</time>
      </trkpt>
      <trkpt lat="49.27367" lon="1.36836">
        <ele>60</ele>
        <time>2009-03-22T09:53:31Z</time>
      </trkpt>
      <trkpt lat="49.27362" lon="1.36823">
        <ele>60</ele>
        <time>2009-03-22T09:53:32Z</time>
      </trkpt>
      <trkpt lat="49.27351" lon="1.36802">
        <ele>67</ele>
        <time>2009-03-22T09:53:34Z</time>
      </trkpt>
      <trkpt lat="49.27342" lon="1.36788">
        <ele>73</ele>
        <time>2009-03-22T09:53:36Z</time>
      </trkpt>
      <trkpt lat="49.27332" lon="1.36777">
        <ele>73</ele>
        <time>2009-03-22T09:53:39Z</time>
      </trkpt>
      <trkpt lat="49.27322" lon="1.36773">
        <ele>73</ele>
        <time>2009-03-22T09:53:41Z</time>
      </trkpt>
      <trkpt lat="49.2731" lon="1.36774">
        <ele>73</ele>
        <time>2009-03-22T09:53:43Z</time>
      </trkpt>
      <trkpt lat="49.273" lon="1.36771">
        <ele>73</ele>
        <time>2009-03-22T09:53:45Z</time>
      </trkpt>
      <trkpt lat="49.2729" lon="1.36773">
        <ele>73</ele>
        <time>2009-03-22T09:53:47Z</time>
      </trkpt>
      <trkpt lat="49.27276" lon="1.3677">
        <ele>73</ele>
        <time>2009-03-22T09:53:49Z</time>
      </trkpt>
      <trkpt lat="49.27263" lon="1.36776">
        <ele>67</ele>
        <time>2009-03-22T09:53:51Z</time>
      </trkpt>
      <trkpt lat="49.27252" lon="1.36783">
        <ele>67</ele>
        <time>2009-03-22T09:53:53Z</time>
      </trkpt>
      <trkpt lat="49.27242" lon="1.36793">
        <ele>67</ele>
        <time>2009-03-22T09:53:55Z</time>
      </trkpt>
      <trkpt lat="49.27229" lon="1.36797">
        <ele>60</ele>
        <time>2009-03-22T09:53:57Z</time>
      </trkpt>
      <trkpt lat="49.27219" lon="1.36806">
        <ele>53</ele>
        <time>2009-03-22T09:54:00Z</time>
      </trkpt>
      <trkpt lat="49.2721" lon="1.36812">
        <ele>53</ele>
        <time>2009-03-22T09:54:02Z</time>
      </trkpt>
      <trkpt lat="49.272" lon="1.36818">
        <ele>53</ele>
        <time>2009-03-22T09:54:04Z</time>
      </trkpt>
      <trkpt lat="49.27188" lon="1.36823">
        <ele>53</ele>
        <time>2009-03-22T09:54:07Z</time>
      </trkpt>
      <trkpt lat="49.27173" lon="1.36823">
        <ele>53</ele>
        <time>2009-03-22T09:54:09Z</time>
      </trkpt>
      <trkpt lat="49.27162" lon="1.36825">
        <ele>53</ele>
        <time>2009-03-22T09:54:11Z</time>
      </trkpt>
      <trkpt lat="49.27151" lon="1.36827">
        <ele>53</ele>
        <time>2009-03-22T09:54:13Z</time>
      </trkpt>
      <trkpt lat="49.27139" lon="1.36828">
        <ele>53</ele>
        <time>2009-03-22T09:54:15Z</time>
      </trkpt>
      <trkpt lat="49.27129" lon="1.36832">
        <ele>53</ele>
        <time>2009-03-22T09:54:17Z</time>
      </trkpt>
      <trkpt lat="49.2712" lon="1.36837">
        <ele>53</ele>
        <time>2009-03-22T09:54:19Z</time>
      </trkpt>
      <trkpt lat="49.2711" lon="1.3684">
        <ele>53</ele>
        <time>2009-03-22T09:54:21Z</time>
      </trkpt>
      <trkpt lat="49.271" lon="1.36846">
        <ele>53</ele>
        <time>2009-03-22T09:54:23Z</time>
      </trkpt>
      <trkpt lat="49.27088" lon="1.36852">
        <ele>53</ele>
        <time>2009-03-22T09:54:25Z</time>
      </trkpt>
      <trkpt lat="49.27079" lon="1.36854">
        <ele>58</ele>
        <time>2009-03-22T09:54:27Z</time>
      </trkpt>
      <trkpt lat="49.27069" lon="1.36859">
        <ele>58</ele>
        <time>2009-03-22T09:54:29Z</time>
      </trkpt>
      <trkpt lat="49.27061" lon="1.36864">
        <ele>58</ele>
        <time>2009-03-22T09:54:31Z</time>
      </trkpt>
      <trkpt lat="49.27049" lon="1.36869">
        <ele>58</ele>
        <time>2009-03-22T09:54:34Z</time>
      </trkpt>
      <trkpt lat="49.27037" lon="1.36878">
        <ele>58</ele>
        <time>2009-03-22T09:54:37Z</time>
      </trkpt>
      <trkpt lat="49.27029" lon="1.36887">
        <ele>58</ele>
        <time>2009-03-22T09:54:39Z</time>
      </trkpt>
      <trkpt lat="49.27019" lon="1.36898">
        <ele>58</ele>
        <time>2009-03-22T09:54:41Z</time>
      </trkpt>
      <trkpt lat="49.27011" lon="1.36905">
        <ele>58</ele>
        <time>2009-03-22T09:54:43Z</time>
      </trkpt>
      <trkpt lat="49.26995" lon="1.36919">
        <ele>58</ele>
        <time>2009-03-22T09:54:47Z</time>
      </trkpt>
      <trkpt lat="49.26978" lon="1.36925">
        <ele>58</ele>
        <time>2009-03-22T09:54:49Z</time>
      </trkpt>
      <trkpt lat="49.26963" lon="1.36935">
        <ele>58</ele>
        <time>2009-03-22T09:54:51Z</time>
      </trkpt>
      <trkpt lat="49.26949" lon="1.36944">
        <ele>58</ele>
        <time>2009-03-22T09:54:53Z</time>
      </trkpt>
      <trkpt lat="49.2694" lon="1.36949">
        <ele>58</ele>
        <time>2009-03-22T09:54:55Z</time>
      </trkpt>
      <trkpt lat="49.2693" lon="1.36951">
        <ele>58</ele>
        <time>2009-03-22T09:54:57Z</time>
      </trkpt>
      <trkpt lat="49.2692" lon="1.36955">
        <ele>58</ele>
        <time>2009-03-22T09:55:00Z</time>
      </trkpt>
      <trkpt lat="49.26909" lon="1.36958">
        <ele>52</ele>
        <time>2009-03-22T09:55:03Z</time>
      </trkpt>
      <trkpt lat="49.269" lon="1.36963">
        <ele>52</ele>
        <time>2009-03-22T09:55:05Z</time>
      </trkpt>
      <trkpt lat="49.26888" lon="1.36965">
        <ele>52</ele>
        <time>2009-03-22T09:55:08Z</time>
      </trkpt>
      <trkpt lat="49.26877" lon="1.36963">
        <ele>52</ele>
        <time>2009-03-22T09:55:10Z</time>
      </trkpt>
      <trkpt lat="49.26862" lon="1.36959">
        <ele>52</ele>
        <time>2009-03-22T09:55:12Z</time>
      </trkpt>
      <trkpt lat="49.26854" lon="1.36971">
        <ele>52</ele>
        <time>2009-03-22T09:55:15Z</time>
      </trkpt>
      <trkpt lat="49.26851" lon="1.36989">
        <ele>52</ele>
        <time>2009-03-22T09:55:18Z</time>
      </trkpt>
      <trkpt lat="49.26847" lon="1.37008">
        <ele>52</ele>
        <time>2009-03-22T09:55:21Z</time>
      </trkpt>
      <trkpt lat="49.26842" lon="1.37025">
        <ele>52</ele>
        <time>2009-03-22T09:55:23Z</time>
      </trkpt>
      <trkpt lat="49.26835" lon="1.37039">
        <ele>52</ele>
        <time>2009-03-22T09:55:25Z</time>
      </trkpt>
      <trkpt lat="49.26829" lon="1.3705">
        <ele>52</ele>
        <time>2009-03-22T09:55:27Z</time>
      </trkpt>
      <trkpt lat="49.26824" lon="1.37066">
        <ele>52</ele>
        <time>2009-03-22T09:55:31Z</time>
      </trkpt>
      <trkpt lat="49.26815" lon="1.37075">
        <ele>52</ele>
        <time>2009-03-22T09:55:36Z</time>
      </trkpt>
      <trkpt lat="49.26808" lon="1.37086">
        <ele>62</ele>
        <time>2009-03-22T09:55:48Z</time>
      </trkpt>
      <trkpt lat="49.26798" lon="1.37092">
        <ele>62</ele>
        <time>2009-03-22T09:55:58Z</time>
      </trkpt>
      <trkpt lat="49.26793" lon="1.37104">
        <ele>62</ele>
        <time>2009-03-22T09:56:09Z</time>
      </trkpt>
      <trkpt lat="49.26788" lon="1.37116">
        <ele>62</ele>
        <time>2009-03-22T09:56:24Z</time>
      </trkpt>
      <trkpt lat="49.26778" lon="1.37117">
        <ele>55</ele>
        <time>2009-03-22T09:56:41Z</time>
      </trkpt>
      <trkpt lat="49.26771" lon="1.3713">
        <ele>55</ele>
        <time>2009-03-22T09:56:45Z</time>
      </trkpt>
      <trkpt lat="49.26766" lon="1.37141">
        <ele>48</ele>
        <time>2009-03-22T09:56:48Z</time>
      </trkpt>
      <trkpt lat="49.26758" lon="1.37152">
        <ele>48</ele>
        <time>2009-03-22T09:56:51Z</time>
      </trkpt>
      <trkpt lat="49.26751" lon="1.37162">
        <ele>48</ele>
        <time>2009-03-22T09:56:54Z</time>
      </trkpt>
      <trkpt lat="49.26743" lon="1.3717">
        <ele>40</ele>
        <time>2009-03-22T09:56:57Z</time>
      </trkpt>
      <trkpt lat="49.26735" lon="1.37179">
        <ele>40</ele>
        <time>2009-03-22T09:57:00Z</time>
      </trkpt>
      <trkpt lat="49.26726" lon="1.37186">
        <ele>40</ele>
        <time>2009-03-22T09:57:03Z</time>
      </trkpt>
      <trkpt lat="49.26718" lon="1.37195">
        <ele>34</ele>
        <time>2009-03-22T09:57:06Z</time>
      </trkpt>
      <trkpt lat="49.26707" lon="1.37202">
        <ele>34</ele>
        <time>2009-03-22T09:57:09Z</time>
      </trkpt>
      <trkpt lat="49.26697" lon="1.37211">
        <ele>34</ele>
        <time>2009-03-22T09:57:12Z</time>
      </trkpt>
      <trkpt lat="49.26687" lon="1.3722">
        <ele>34</ele>
        <time>2009-03-22T09:57:15Z</time>
      </trkpt>
      <trkpt lat="49.26677" lon="1.37228">
        <ele>28</ele>
        <time>2009-03-22T09:57:18Z</time>
      </trkpt>
      <trkpt lat="49.26667" lon="1.37235">
        <ele>28</ele>
        <time>2009-03-22T09:57:22Z</time>
      </trkpt>
      <trkpt lat="49.26657" lon="1.37241">
        <ele>21</ele>
        <time>2009-03-22T09:57:25Z</time>
      </trkpt>
      <trkpt lat="49.26646" lon="1.37248">
        <ele>21</ele>
        <time>2009-03-22T09:57:28Z</time>
      </trkpt>
      <trkpt lat="49.26637" lon="1.37255">
        <ele>21</ele>
        <time>2009-03-22T09:57:31Z</time>
      </trkpt>
      <trkpt lat="49.26625" lon="1.37264">
        <ele>21</ele>
        <time>2009-03-22T09:57:34Z</time>
      </trkpt>
      <trkpt lat="49.26612" lon="1.3727">
        <ele>21</ele>
        <time>2009-03-22T09:57:37Z</time>
      </trkpt>
      <trkpt lat="49.26603" lon="1.37275">
        <ele>21</ele>
        <time>2009-03-22T09:57:39Z</time>
      </trkpt>
      <trkpt lat="49.26591" lon="1.37281">
        <ele>27</ele>
        <time>2009-03-22T09:57:42Z</time>
      </trkpt>
      <trkpt lat="49.26582" lon="1.3729">
        <ele>27</ele>
        <time>2009-03-22T09:57:45Z</time>
      </trkpt>
      <trkpt lat="49.2657" lon="1.37304">
        <ele>27</ele>
        <time>2009-03-22T09:57:48Z</time>
      </trkpt>
      <trkpt lat="49.26561" lon="1.37316">
        <ele>38</ele>
        <time>2009-03-22T09:57:50Z</time>
      </trkpt>
      <trkpt lat="49.26552" lon="1.37322">
        <ele>38</ele>
        <time>2009-03-22T09:57:52Z</time>
      </trkpt>
      <trkpt lat="49.2654" lon="1.3733">
        <ele>45</ele>
        <time>2009-03-22T09:57:54Z</time>
      </trkpt>
      <trkpt lat="49.26531" lon="1.37337">
        <ele>45</ele>
        <time>2009-03-22T09:57:56Z</time>
      </trkpt>
      <trkpt lat="49.26523" lon="1.37348">
        <ele>45</ele>
        <time>2009-03-22T09:57:58Z</time>
      </trkpt>
      <trkpt lat="49.26515" lon="1.37357">
        <ele>45</ele>
        <time>2009-03-22T09:58:00Z</time>
      </trkpt>
      <trkpt lat="49.26507" lon="1.37373">
        <ele>38</ele>
        <time>2009-03-22T09:58:03Z</time>
      </trkpt>
      <trkpt lat="49.26502" lon="1.37385">
        <ele>38</ele>
        <time>2009-03-22T09:58:05Z</time>
      </trkpt>
      <trkpt lat="49.26496" lon="1.37398">
        <ele>38</ele>
        <time>2009-03-22T09:58:07Z</time>
      </trkpt>
      <trkpt lat="49.26492" lon="1.37414">
        <ele>38</ele>
        <time>2009-03-22T09:58:10Z</time>
      </trkpt>
      <trkpt lat="49.2649" lon="1.37427">
        <ele>38</ele>
        <time>2009-03-22T09:58:12Z</time>
      </trkpt>
      <trkpt lat="49.26489" lon="1.37443">
        <ele>43</ele>
        <time>2009-03-22T09:58:14Z</time>
      </trkpt>
      <trkpt lat="49.26487" lon="1.37458">
        <ele>43</ele>
        <time>2009-03-22T09:58:16Z</time>
      </trkpt>
      <trkpt lat="49.26487" lon="1.37475">
        <ele>43</ele>
        <time>2009-03-22T09:58:18Z</time>
      </trkpt>
      <trkpt lat="49.26487" lon="1.3749">
        <ele>43</ele>
        <time>2009-03-22T09:58:20Z</time>
      </trkpt>
      <trkpt lat="49.26487" lon="1.37506">
        <ele>43</ele>
        <time>2009-03-22T09:58:22Z</time>
      </trkpt>
      <trkpt lat="49.26487" lon="1.37523">
        <ele>43</ele>
        <time>2009-03-22T09:58:24Z</time>
      </trkpt>
      <trkpt lat="49.26486" lon="1.37542">
        <ele>43</ele>
        <time>2009-03-22T09:58:26Z</time>
      </trkpt>
      <trkpt lat="49.26485" lon="1.37564">
        <ele>43</ele>
        <time>2009-03-22T09:58:28Z</time>
      </trkpt>
      <trkpt lat="49.26483" lon="1.3758">
        <ele>43</ele>
        <time>2009-03-22T09:58:30Z</time>
      </trkpt>
      <trkpt lat="49.26484" lon="1.37599">
        <ele>43</ele>
        <time>2009-03-22T09:58:33Z</time>
      </trkpt>
      <trkpt lat="49.26488" lon="1.37617">
        <ele>43</ele>
        <time>2009-03-22T09:58:35Z</time>
      </trkpt>
      <trkpt lat="49.26491" lon="1.37631">
        <ele>43</ele>
        <time>2009-03-22T09:58:37Z</time>
      </trkpt>
      <trkpt lat="49.26493" lon="1.37653">
        <ele>38</ele>
        <time>2009-03-22T09:58:39Z</time>
      </trkpt>
      <trkpt lat="49.26492" lon="1.3768">
        <ele>38</ele>
        <time>2009-03-22T09:58:43Z</time>
      </trkpt>
      <trkpt lat="49.26484" lon="1.37693">
        <ele>38</ele>
        <time>2009-03-22T09:58:45Z</time>
      </trkpt>
      <trkpt lat="49.26483" lon="1.37727">
        <ele>38</ele>
        <time>2009-03-22T09:58:49Z</time>
      </trkpt>
      <trkpt lat="49.26488" lon="1.37745">
        <ele>38</ele>
        <time>2009-03-22T09:58:51Z</time>
      </trkpt>
      <trkpt lat="49.26487" lon="1.37764">
        <ele>38</ele>
        <time>2009-03-22T09:58:53Z</time>
      </trkpt>
      <trkpt lat="49.26483" lon="1.37779">
        <ele>38</ele>
        <time>2009-03-22T09:58:55Z</time>
      </trkpt>
      <trkpt lat="49.26483" lon="1.37794">
        <ele>38</ele>
        <time>2009-03-22T09:58:57Z</time>
      </trkpt>
      <trkpt lat="49.26481" lon="1.37824">
        <ele>38</ele>
        <time>2009-03-22T09:59:02Z</time>
      </trkpt>
      <trkpt lat="49.26483" lon="1.37843">
        <ele>32</ele>
        <time>2009-03-22T09:59:05Z</time>
      </trkpt>
      <trkpt lat="49.26476" lon="1.37853">
        <ele>26</ele>
        <time>2009-03-22T09:59:06Z</time>
      </trkpt>
      <trkpt lat="49.26475" lon="1.37874">
        <ele>26</ele>
        <time>2009-03-22T09:59:09Z</time>
      </trkpt>
      <trkpt lat="49.2647" lon="1.37887">
        <ele>26</ele>
        <time>2009-03-22T09:59:11Z</time>
      </trkpt>
      <trkpt lat="49.26464" lon="1.37911">
        <ele>26</ele>
        <time>2009-03-22T09:59:15Z</time>
      </trkpt>
      <trkpt lat="49.26462" lon="1.37928">
        <ele>26</ele>
        <time>2009-03-22T09:59:17Z</time>
      </trkpt>
      <trkpt lat="49.2646" lon="1.37947">
        <ele>26</ele>
        <time>2009-03-22T09:59:20Z</time>
      </trkpt>
      <trkpt lat="49.26455" lon="1.37959">
        <ele>33</ele>
        <time>2009-03-22T09:59:22Z</time>
      </trkpt>
      <trkpt lat="49.26448" lon="1.37971">
        <ele>33</ele>
        <time>2009-03-22T09:59:25Z</time>
      </trkpt>
      <trkpt lat="49.26442" lon="1.3799">
        <ele>33</ele>
        <time>2009-03-22T09:59:28Z</time>
      </trkpt>
      <trkpt lat="49.26437" lon="1.38004">
        <ele>40</ele>
        <time>2009-03-22T09:59:29Z</time>
      </trkpt>
      <trkpt lat="49.26435" lon="1.38019">
        <ele>40</ele>
        <time>2009-03-22T09:59:30Z</time>
      </trkpt>
      <trkpt lat="49.26432" lon="1.38036">
        <ele>40</ele>
        <time>2009-03-22T09:59:32Z</time>
      </trkpt>
      <trkpt lat="49.26422" lon="1.38049">
        <ele>40</ele>
        <time>2009-03-22T09:59:35Z</time>
      </trkpt>
      <trkpt lat="49.26409" lon="1.38055">
        <ele>40</ele>
        <time>2009-03-22T09:59:38Z</time>
      </trkpt>
      <trkpt lat="49.26394" lon="1.38056">
        <ele>40</ele>
        <time>2009-03-22T09:59:41Z</time>
      </trkpt>
      <trkpt lat="49.26382" lon="1.38051">
        <ele>40</ele>
        <time>2009-03-22T09:59:42Z</time>
      </trkpt>
      <trkpt lat="49.26366" lon="1.38054">
        <ele>40</ele>
        <time>2009-03-22T09:59:44Z</time>
      </trkpt>
      <trkpt lat="49.26342" lon="1.38059">
        <ele>40</ele>
        <time>2009-03-22T09:59:47Z</time>
      </trkpt>
      <trkpt lat="49.26332" lon="1.3806">
        <ele>40</ele>
        <time>2009-03-22T09:59:48Z</time>
      </trkpt>
      <trkpt lat="49.26322" lon="1.38062">
        <ele>40</ele>
        <time>2009-03-22T09:59:49Z</time>
      </trkpt>
      <trkpt lat="49.26307" lon="1.3807">
        <ele>34</ele>
        <time>2009-03-22T09:59:51Z</time>
      </trkpt>
      <trkpt lat="49.26294" lon="1.3808">
        <ele>34</ele>
        <time>2009-03-22T09:59:53Z</time>
      </trkpt>
      <trkpt lat="49.26279" lon="1.3809">
        <ele>34</ele>
        <time>2009-03-22T09:59:55Z</time>
      </trkpt>
      <trkpt lat="49.26265" lon="1.38099">
        <ele>34</ele>
        <time>2009-03-22T09:59:57Z</time>
      </trkpt>
      <trkpt lat="49.26248" lon="1.38103">
        <ele>34</ele>
        <time>2009-03-22T09:59:59Z</time>
      </trkpt>
      <trkpt lat="49.26236" lon="1.38111">
        <ele>26</ele>
        <time>2009-03-22T10:00:01Z</time>
      </trkpt>
      <trkpt lat="49.26224" lon="1.38116">
        <ele>26</ele>
        <time>2009-03-22T10:00:03Z</time>
      </trkpt>
      <trkpt lat="49.26215" lon="1.38122">
        <ele>18</ele>
        <time>2009-03-22T10:00:05Z</time>
      </trkpt>
      <trkpt lat="49.26202" lon="1.38128">
        <ele>13</ele>
        <time>2009-03-22T10:00:07Z</time>
      </trkpt>
      <trkpt lat="49.26189" lon="1.38138">
        <ele>13</ele>
        <time>2009-03-22T10:00:09Z</time>
      </trkpt>
      <trkpt lat="49.26176" lon="1.3815">
        <ele>13</ele>
        <time>2009-03-22T10:00:11Z</time>
      </trkpt>
      <trkpt lat="49.26164" lon="1.38156">
        <ele>6</ele>
        <time>2009-03-22T10:00:13Z</time>
      </trkpt>
      <trkpt lat="49.26152" lon="1.38166">
        <ele>6</ele>
        <time>2009-03-22T10:00:15Z</time>
      </trkpt>
      <trkpt lat="49.26138" lon="1.38181">
        <ele>6</ele>
        <time>2009-03-22T10:00:17Z</time>
      </trkpt>
      <trkpt lat="49.26126" lon="1.38194">
        <ele>6</ele>
        <time>2009-03-22T10:00:19Z</time>
      </trkpt>
      <trkpt lat="49.26113" lon="1.38202">
        <ele>6</ele>
        <time>2009-03-22T10:00:21Z</time>
      </trkpt>
      <trkpt lat="49.261" lon="1.38207">
        <ele>6</ele>
        <time>2009-03-22T10:00:23Z</time>
      </trkpt>
      <trkpt lat="49.26085" lon="1.38209">
        <ele>6</ele>
        <time>2009-03-22T10:00:25Z</time>
      </trkpt>
      <trkpt lat="49.2607" lon="1.38217">
        <ele>13</ele>
        <time>2009-03-22T10:00:27Z</time>
      </trkpt>
      <trkpt lat="49.26054" lon="1.38222">
        <ele>13</ele>
        <time>2009-03-22T10:00:29Z</time>
      </trkpt>
      <trkpt lat="49.26041" lon="1.38225">
        <ele>13</ele>
        <time>2009-03-22T10:00:31Z</time>
      </trkpt>
      <trkpt lat="49.26028" lon="1.38226">
        <ele>13</ele>
        <time>2009-03-22T10:00:33Z</time>
      </trkpt>
      <trkpt lat="49.26013" lon="1.38229">
        <ele>13</ele>
        <time>2009-03-22T10:00:35Z</time>
      </trkpt>
      <trkpt lat="49.25999" lon="1.38233">
        <ele>13</ele>
        <time>2009-03-22T10:00:37Z</time>
      </trkpt>
      <trkpt lat="49.25985" lon="1.38237">
        <ele>18</ele>
        <time>2009-03-22T10:00:39Z</time>
      </trkpt>
      <trkpt lat="49.25971" lon="1.38237">
        <ele>18</ele>
        <time>2009-03-22T10:00:41Z</time>
      </trkpt>
      <trkpt lat="49.25957" lon="1.38234">
        <ele>18</ele>
        <time>2009-03-22T10:00:43Z</time>
      </trkpt>
      <trkpt lat="49.25943" lon="1.38232">
        <ele>18</ele>
        <time>2009-03-22T10:00:45Z</time>
      </trkpt>
      <trkpt lat="49.25929" lon="1.38226">
        <ele>18</ele>
        <time>2009-03-22T10:00:47Z</time>
      </trkpt>
      <trkpt lat="49.25916" lon="1.38219">
        <ele>18</ele>
        <time>2009-03-22T10:00:49Z</time>
      </trkpt>
      <trkpt lat="49.25903" lon="1.38214">
        <ele>18</ele>
        <time>2009-03-22T10:00:51Z</time>
      </trkpt>
      <trkpt lat="49.2589" lon="1.38209">
        <ele>18</ele>
        <time>2009-03-22T10:00:53Z</time>
      </trkpt>
      <trkpt lat="49.25876" lon="1.38203">
        <ele>18</ele>
        <time>2009-03-22T10:00:55Z</time>
      </trkpt>
      <trkpt lat="49.25863" lon="1.38199">
        <ele>18</ele>
        <time>2009-03-22T10:00:57Z</time>
      </trkpt>
      <trkpt lat="49.25851" lon="1.38194">
        <ele>18</ele>
        <time>2009-03-22T10:00:59Z</time>
      </trkpt>
      <trkpt lat="49.25837" lon="1.38199">
        <ele>18</ele>
        <time>2009-03-22T10:01:01Z</time>
      </trkpt>
      <trkpt lat="49.25825" lon="1.38199">
        <ele>18</ele>
        <time>2009-03-22T10:01:03Z</time>
      </trkpt>
      <trkpt lat="49.25812" lon="1.38197">
        <ele>24</ele>
        <time>2009-03-22T10:01:05Z</time>
      </trkpt>
      <trkpt lat="49.258" lon="1.38202">
        <ele>24</ele>
        <time>2009-03-22T10:01:07Z</time>
      </trkpt>
      <trkpt lat="49.25788" lon="1.38209">
        <ele>24</ele>
        <time>2009-03-22T10:01:09Z</time>
      </trkpt>
      <trkpt lat="49.25774" lon="1.38215">
        <ele>24</ele>
        <time>2009-03-22T10:01:11Z</time>
      </trkpt>
      <trkpt lat="49.25761" lon="1.38219">
        <ele>16</ele>
        <time>2009-03-22T10:01:13Z</time>
      </trkpt>
      <trkpt lat="49.25748" lon="1.38221">
        <ele>16</ele>
        <time>2009-03-22T10:01:15Z</time>
      </trkpt>
      <trkpt lat="49.25737" lon="1.38226">
        <ele>16</ele>
        <time>2009-03-22T10:01:17Z</time>
      </trkpt>
      <trkpt lat="49.25725" lon="1.38228">
        <ele>16</ele>
        <time>2009-03-22T10:01:19Z</time>
      </trkpt>
      <trkpt lat="49.25713" lon="1.38225">
        <ele>16</ele>
        <time>2009-03-22T10:01:21Z</time>
      </trkpt>
      <trkpt lat="49.25701" lon="1.38218">
        <ele>16</ele>
        <time>2009-03-22T10:01:23Z</time>
      </trkpt>
      <trkpt lat="49.25694" lon="1.38209">
        <ele>16</ele>
        <time>2009-03-22T10:01:25Z</time>
      </trkpt>
      <trkpt lat="49.25687" lon="1.382">
        <ele>16</ele>
        <time>2009-03-22T10:01:28Z</time>
      </trkpt>
      <trkpt lat="49.2568" lon="1.38209">
        <ele>-8</ele>
        <time>2009-03-22T10:02:11Z</time>
      </trkpt>
      <trkpt lat="49.25673" lon="1.38197">
        <ele>-8</ele>
        <time>2009-03-22T10:02:31Z</time>
      </trkpt>
      <trkpt lat="49.25666" lon="1.38184">
        <ele>-1</ele>
        <time>2009-03-22T10:02:36Z</time>
      </trkpt>
      <trkpt lat="49.25659" lon="1.38172">
        <ele>-1</ele>
        <time>2009-03-22T10:02:40Z</time>
      </trkpt>
      <trkpt lat="49.25656" lon="1.38158">
        <ele>12</ele>
        <time>2009-03-22T10:02:43Z</time>
      </trkpt>
      <trkpt lat="49.25648" lon="1.38144">
        <ele>19</ele>
        <time>2009-03-22T10:02:47Z</time>
      </trkpt>
      <trkpt lat="49.2564" lon="1.38136">
        <ele>19</ele>
        <time>2009-03-22T10:02:51Z</time>
      </trkpt>
      <trkpt lat="49.25633" lon="1.38128">
        <ele>19</ele>
        <time>2009-03-22T10:02:54Z</time>
      </trkpt>
      <trkpt lat="49.25624" lon="1.38118">
        <ele>11</ele>
        <time>2009-03-22T10:02:57Z</time>
      </trkpt>
      <trkpt lat="49.25614" lon="1.38105">
        <ele>11</ele>
        <time>2009-03-22T10:03:00Z</time>
      </trkpt>
      <trkpt lat="49.25608" lon="1.38094">
        <ele>11</ele>
        <time>2009-03-22T10:03:02Z</time>
      </trkpt>
      <trkpt lat="49.25602" lon="1.38083">
        <ele>11</ele>
        <time>2009-03-22T10:03:04Z</time>
      </trkpt>
      <trkpt lat="49.25597" lon="1.3807">
        <ele>11</ele>
        <time>2009-03-22T10:03:06Z</time>
      </trkpt>
      <trkpt lat="49.25592" lon="1.38057">
        <ele>11</ele>
        <time>2009-03-22T10:03:08Z</time>
      </trkpt>
      <trkpt lat="49.25587" lon="1.38042">
        <ele>11</ele>
        <time>2009-03-22T10:03:10Z</time>
      </trkpt>
      <trkpt lat="49.25583" lon="1.38028">
        <ele>11</ele>
        <time>2009-03-22T10:03:12Z</time>
      </trkpt>
      <trkpt lat="49.25577" lon="1.38015">
        <ele>11</ele>
        <time>2009-03-22T10:03:14Z</time>
      </trkpt>
      <trkpt lat="49.25569" lon="1.38004">
        <ele>11</ele>
        <time>2009-03-22T10:03:16Z</time>
      </trkpt>
      <trkpt lat="49.25559" lon="1.37996">
        <ele>11</ele>
        <time>2009-03-22T10:03:18Z</time>
      </trkpt>
      <trkpt lat="49.2555" lon="1.37991">
        <ele>11</ele>
        <time>2009-03-22T10:03:20Z</time>
      </trkpt>
      <trkpt lat="49.2554" lon="1.37986">
        <ele>11</ele>
        <time>2009-03-22T10:03:22Z</time>
      </trkpt>
      <trkpt lat="49.25529" lon="1.3798">
        <ele>11</ele>
        <time>2009-03-22T10:03:24Z</time>
      </trkpt>
      <trkpt lat="49.25519" lon="1.37977">
        <ele>11</ele>
        <time>2009-03-22T10:03:26Z</time>
      </trkpt>
      <trkpt lat="49.25509" lon="1.37973">
        <ele>11</ele>
        <time>2009-03-22T10:03:28Z</time>
      </trkpt>
      <trkpt lat="49.25498" lon="1.3797">
        <ele>11</ele>
        <time>2009-03-22T10:03:30Z</time>
      </trkpt>
      <trkpt lat="49.25487" lon="1.37968">
        <ele>11</ele>
        <time>2009-03-22T10:03:32Z</time>
      </trkpt>
      <trkpt lat="49.25477" lon="1.37965">
        <ele>11</ele>
        <time>2009-03-22T10:03:34Z</time>
      </trkpt>
      <trkpt lat="49.25466" lon="1.37962">
        <ele>11</ele>
        <time>2009-03-22T10:03:36Z</time>
      </trkpt>
      <trkpt lat="49.25455" lon="1.37959">
        <ele>11</ele>
        <time>2009-03-22T10:03:38Z</time>
      </trkpt>
      <trkpt lat="49.25445" lon="1.37956">
        <ele>11</ele>
        <time>2009-03-22T10:03:40Z</time>
      </trkpt>
      <trkpt lat="49.25434" lon="1.37953">
        <ele>11</ele>
        <time>2009-03-22T10:03:42Z</time>
      </trkpt>
      <trkpt lat="49.25424" lon="1.37952">
        <ele>11</ele>
        <time>2009-03-22T10:03:44Z</time>
      </trkpt>
      <trkpt lat="49.25414" lon="1.37953">
        <ele>11</ele>
        <time>2009-03-22T10:03:46Z</time>
      </trkpt>
      <trkpt lat="49.25404" lon="1.37954">
        <ele>11</ele>
        <time>2009-03-22T10:03:48Z</time>
      </trkpt>
      <trkpt lat="49.25394" lon="1.37956">
        <ele>11</ele>
        <time>2009-03-22T10:03:51Z</time>
      </trkpt>
      <trkpt lat="49.25383" lon="1.3796">
        <ele>11</ele>
        <time>2009-03-22T10:04:03Z</time>
      </trkpt>
      <trkpt lat="49.25377" lon="1.3797">
        <ele>11</ele>
        <time>2009-03-22T10:04:06Z</time>
      </trkpt>
      <trkpt lat="49.25366" lon="1.37979">
        <ele>11</ele>
        <time>2009-03-22T10:04:09Z</time>
      </trkpt>
      <trkpt lat="49.25354" lon="1.37988">
        <ele>11</ele>
        <time>2009-03-22T10:04:12Z</time>
      </trkpt>
      <trkpt lat="49.25343" lon="1.37997">
        <ele>11</ele>
        <time>2009-03-22T10:04:15Z</time>
      </trkpt>
      <trkpt lat="49.2533" lon="1.38005">
        <ele>11</ele>
        <time>2009-03-22T10:04:18Z</time>
      </trkpt>
      <trkpt lat="49.25317" lon="1.38014">
        <ele>11</ele>
        <time>2009-03-22T10:04:21Z</time>
      </trkpt>
      <trkpt lat="49.25309" lon="1.38023">
        <ele>11</ele>
        <time>2009-03-22T10:04:23Z</time>
      </trkpt>
      <trkpt lat="49.25301" lon="1.38031">
        <ele>11</ele>
        <time>2009-03-22T10:04:25Z</time>
      </trkpt>
      <trkpt lat="49.25294" lon="1.38041">
        <ele>11</ele>
        <time>2009-03-22T10:04:27Z</time>
      </trkpt>
      <trkpt lat="49.25289" lon="1.38055">
        <ele>11</ele>
        <time>2009-03-22T10:04:29Z</time>
      </trkpt>
      <trkpt lat="49.25284" lon="1.38068">
        <ele>11</ele>
        <time>2009-03-22T10:04:31Z</time>
      </trkpt>
      <trkpt lat="49.25277" lon="1.38078">
        <ele>11</ele>
        <time>2009-03-22T10:04:33Z</time>
      </trkpt>
      <trkpt lat="49.25269" lon="1.38088">
        <ele>11</ele>
        <time>2009-03-22T10:04:35Z</time>
      </trkpt>
      <trkpt lat="49.25259" lon="1.38094">
        <ele>11</ele>
        <time>2009-03-22T10:04:37Z</time>
      </trkpt>
      <trkpt lat="49.25248" lon="1.38101">
        <ele>16</ele>
        <time>2009-03-22T10:04:39Z</time>
      </trkpt>
      <trkpt lat="49.2524" lon="1.3811">
        <ele>16</ele>
        <time>2009-03-22T10:04:41Z</time>
      </trkpt>
      <trkpt lat="49.25234" lon="1.38121">
        <ele>16</ele>
        <time>2009-03-22T10:04:43Z</time>
      </trkpt>
      <trkpt lat="49.25229" lon="1.38134">
        <ele>16</ele>
        <time>2009-03-22T10:04:45Z</time>
      </trkpt>
      <trkpt lat="49.25222" lon="1.38148">
        <ele>16</ele>
        <time>2009-03-22T10:04:47Z</time>
      </trkpt>
      <trkpt lat="49.25215" lon="1.38163">
        <ele>16</ele>
        <time>2009-03-22T10:04:49Z</time>
      </trkpt>
      <trkpt lat="49.25209" lon="1.38178">
        <ele>11</ele>
        <time>2009-03-22T10:04:51Z</time>
      </trkpt>
      <trkpt lat="49.25202" lon="1.38192">
        <ele>11</ele>
        <time>2009-03-22T10:04:53Z</time>
      </trkpt>
      <trkpt lat="49.25194" lon="1.38208">
        <ele>11</ele>
        <time>2009-03-22T10:04:55Z</time>
      </trkpt>
      <trkpt lat="49.25187" lon="1.38227">
        <ele>11</ele>
        <time>2009-03-22T10:04:57Z</time>
      </trkpt>
      <trkpt lat="49.25182" lon="1.38245">
        <ele>11</ele>
        <time>2009-03-22T10:04:59Z</time>
      </trkpt>
      <trkpt lat="49.25177" lon="1.3827">
        <ele>11</ele>
        <time>2009-03-22T10:05:01Z</time>
      </trkpt>
      <trkpt lat="49.2517" lon="1.38288">
        <ele>11</ele>
        <time>2009-03-22T10:05:03Z</time>
      </trkpt>
      <trkpt lat="49.25163" lon="1.38306">
        <ele>11</ele>
        <time>2009-03-22T10:05:05Z</time>
      </trkpt>
      <trkpt lat="49.25154" lon="1.3832">
        <ele>11</ele>
        <time>2009-03-22T10:05:07Z</time>
      </trkpt>
      <trkpt lat="49.25146" lon="1.38339">
        <ele>11</ele>
        <time>2009-03-22T10:05:09Z</time>
      </trkpt>
      <trkpt lat="49.2514" lon="1.38359">
        <ele>11</ele>
        <time>2009-03-22T10:05:11Z</time>
      </trkpt>
      <trkpt lat="49.25134" lon="1.3838">
        <ele>11</ele>
        <time>2009-03-22T10:05:13Z</time>
      </trkpt>
      <trkpt lat="49.25127" lon="1.384">
        <ele>11</ele>
        <time>2009-03-22T10:05:15Z</time>
      </trkpt>
      <trkpt lat="49.2512" lon="1.38418">
        <ele>11</ele>
        <time>2009-03-22T10:05:17Z</time>
      </trkpt>
      <trkpt lat="49.25113" lon="1.38435">
        <ele>11</ele>
        <time>2009-03-22T10:05:19Z</time>
      </trkpt>
      <trkpt lat="49.25106" lon="1.38452">
        <ele>11</ele>
        <time>2009-03-22T10:05:21Z</time>
      </trkpt>
      <trkpt lat="49.25099" lon="1.38468">
        <ele>11</ele>
        <time>2009-03-22T10:05:23Z</time>
      </trkpt>
      <trkpt lat="49.25092" lon="1.38486">
        <ele>11</ele>
        <time>2009-03-22T10:05:25Z</time>
      </trkpt>
      <trkpt lat="49.25086" lon="1.38505">
        <ele>11</ele>
        <time>2009-03-22T10:05:27Z</time>
      </trkpt>
      <trkpt lat="49.25079" lon="1.38523">
        <ele>11</ele>
        <time>2009-03-22T10:05:29Z</time>
      </trkpt>
      <trkpt lat="49.25073" lon="1.38541">
        <ele>11</ele>
        <time>2009-03-22T10:05:31Z</time>
      </trkpt>
      <trkpt lat="49.25066" lon="1.38558">
        <ele>11</ele>
        <time>2009-03-22T10:05:33Z</time>
      </trkpt>
      <trkpt lat="49.2506" lon="1.38575">
        <ele>11</ele>
        <time>2009-03-22T10:05:35Z</time>
      </trkpt>
      <trkpt lat="49.25054" lon="1.38594">
        <ele>11</ele>
        <time>2009-03-22T10:05:37Z</time>
      </trkpt>
      <trkpt lat="49.25047" lon="1.38612">
        <ele>11</ele>
        <time>2009-03-22T10:05:39Z</time>
      </trkpt>
      <trkpt lat="49.2504" lon="1.38628">
        <ele>11</ele>
        <time>2009-03-22T10:05:41Z</time>
      </trkpt>
      <trkpt lat="49.25033" lon="1.38645">
        <ele>5</ele>
        <time>2009-03-22T10:05:43Z</time>
      </trkpt>
      <trkpt lat="49.25026" lon="1.38663">
        <ele>5</ele>
        <time>2009-03-22T10:05:45Z</time>
      </trkpt>
      <trkpt lat="49.2502" lon="1.38683">
        <ele>5</ele>
        <time>2009-03-22T10:05:47Z</time>
      </trkpt>
      <trkpt lat="49.25014" lon="1.38702">
        <ele>5</ele>
        <time>2009-03-22T10:05:49Z</time>
      </trkpt>
      <trkpt lat="49.25007" lon="1.38721">
        <ele>5</ele>
        <time>2009-03-22T10:05:51Z</time>
      </trkpt>
      <trkpt lat="49.25" lon="1.3874">
        <ele>5</ele>
        <time>2009-03-22T10:05:53Z</time>
      </trkpt>
      <trkpt lat="49.24994" lon="1.38758">
        <ele>5</ele>
        <time>2009-03-22T10:05:55Z</time>
      </trkpt>
      <trkpt lat="49.24987" lon="1.38778">
        <ele>5</ele>
        <time>2009-03-22T10:05:57Z</time>
      </trkpt>
      <trkpt lat="49.24978" lon="1.38792">
        <ele>5</ele>
        <time>2009-03-22T10:05:59Z</time>
      </trkpt>
      <trkpt lat="49.24969" lon="1.38807">
        <ele>5</ele>
        <time>2009-03-22T10:06:01Z</time>
      </trkpt>
      <trkpt lat="49.2496" lon="1.38821">
        <ele>5</ele>
        <time>2009-03-22T10:06:03Z</time>
      </trkpt>
      <trkpt lat="49.24951" lon="1.38836">
        <ele>5</ele>
        <time>2009-03-22T10:06:05Z</time>
      </trkpt>
      <trkpt lat="49.24942" lon="1.3885">
        <ele>5</ele>
        <time>2009-03-22T10:06:07Z</time>
      </trkpt>
      <trkpt lat="49.24932" lon="1.38864">
        <ele>5</ele>
        <time>2009-03-22T10:06:09Z</time>
      </trkpt>
      <trkpt lat="49.24925" lon="1.3888">
        <ele>13</ele>
        <time>2009-03-22T10:06:11Z</time>
      </trkpt>
      <trkpt lat="49.24919" lon="1.38895">
        <ele>13</ele>
        <time>2009-03-22T10:06:13Z</time>
      </trkpt>
      <trkpt lat="49.24915" lon="1.38912">
        <ele>22</ele>
        <time>2009-03-22T10:06:15Z</time>
      </trkpt>
      <trkpt lat="49.24906" lon="1.38928">
        <ele>22</ele>
        <time>2009-03-22T10:06:17Z</time>
      </trkpt>
      <trkpt lat="49.24896" lon="1.38943">
        <ele>22</ele>
        <time>2009-03-22T10:06:19Z</time>
      </trkpt>
      <trkpt lat="49.24885" lon="1.38956">
        <ele>22</ele>
        <time>2009-03-22T10:06:21Z</time>
      </trkpt>
      <trkpt lat="49.24878" lon="1.3897">
        <ele>22</ele>
        <time>2009-03-22T10:06:23Z</time>
      </trkpt>
      <trkpt lat="49.24869" lon="1.38991">
        <ele>22</ele>
        <time>2009-03-22T10:06:25Z</time>
      </trkpt>
      <trkpt lat="49.24861" lon="1.39011">
        <ele>17</ele>
        <time>2009-03-22T10:06:27Z</time>
      </trkpt>
      <trkpt lat="49.24853" lon="1.39028">
        <ele>17</ele>
        <time>2009-03-22T10:06:29Z</time>
      </trkpt>
      <trkpt lat="49.24844" lon="1.39043">
        <ele>11</ele>
        <time>2009-03-22T10:06:31Z</time>
      </trkpt>
      <trkpt lat="49.24836" lon="1.39059">
        <ele>11</ele>
        <time>2009-03-22T10:06:33Z</time>
      </trkpt>
      <trkpt lat="49.24828" lon="1.39072">
        <ele>11</ele>
        <time>2009-03-22T10:06:35Z</time>
      </trkpt>
      <trkpt lat="49.24819" lon="1.39084">
        <ele>11</ele>
        <time>2009-03-22T10:06:37Z</time>
      </trkpt>
      <trkpt lat="49.24813" lon="1.39099">
        <ele>11</ele>
        <time>2009-03-22T10:06:39Z</time>
      </trkpt>
      <trkpt lat="49.24808" lon="1.39114">
        <ele>5</ele>
        <time>2009-03-22T10:06:41Z</time>
      </trkpt>
      <trkpt lat="49.24805" lon="1.3913">
        <ele>5</ele>
        <time>2009-03-22T10:06:43Z</time>
      </trkpt>
      <trkpt lat="49.24796" lon="1.39139">
        <ele>5</ele>
        <time>2009-03-22T10:06:46Z</time>
      </trkpt>
      <trkpt lat="49.24784" lon="1.39144">
        <ele>5</ele>
        <time>2009-03-22T10:06:49Z</time>
      </trkpt>
      <trkpt lat="49.24777" lon="1.39155">
        <ele>5</ele>
        <time>2009-03-22T10:06:52Z</time>
      </trkpt>
      <trkpt lat="49.24769" lon="1.39166">
        <ele>5</ele>
        <time>2009-03-22T10:06:55Z</time>
      </trkpt>
      <trkpt lat="49.24759" lon="1.3917">
        <ele>5</ele>
        <time>2009-03-22T10:06:59Z</time>
      </trkpt>
      <trkpt lat="49.2475" lon="1.39181">
        <ele>5</ele>
        <time>2009-03-22T10:07:02Z</time>
      </trkpt>
      <trkpt lat="49.24742" lon="1.39189">
        <ele>5</ele>
        <time>2009-03-22T10:07:04Z</time>
      </trkpt>
      <trkpt lat="49.24733" lon="1.39199">
        <ele>5</ele>
        <time>2009-03-22T10:07:07Z</time>
      </trkpt>
      <trkpt lat="49.24725" lon="1.39208">
        <ele>10</ele>
        <time>2009-03-22T10:07:09Z</time>
      </trkpt>
      <trkpt lat="49.24714" lon="1.39221">
        <ele>10</ele>
        <time>2009-03-22T10:07:12Z</time>
      </trkpt>
      <trkpt lat="49.24708" lon="1.39231">
        <ele>10</ele>
        <time>2009-03-22T10:07:14Z</time>
      </trkpt>
      <trkpt lat="49.247" lon="1.39246">
        <ele>10</ele>
        <time>2009-03-22T10:07:17Z</time>
      </trkpt>
      <trkpt lat="49.24693" lon="1.39263">
        <ele>10</ele>
        <time>2009-03-22T10:07:20Z</time>
      </trkpt>
      <trkpt lat="49.24688" lon="1.39276">
        <ele>10</ele>
        <time>2009-03-22T10:07:22Z</time>
      </trkpt>
      <trkpt lat="49.24681" lon="1.39293">
        <ele>4</ele>
        <time>2009-03-22T10:07:25Z</time>
      </trkpt>
      <trkpt lat="49.24676" lon="1.39305">
        <ele>4</ele>
        <time>2009-03-22T10:07:27Z</time>
      </trkpt>
      <trkpt lat="49.24666" lon="1.39318">
        <ele>4</ele>
        <time>2009-03-22T10:07:30Z</time>
      </trkpt>
      <trkpt lat="49.24659" lon="1.39334">
        <ele>4</ele>
        <time>2009-03-22T10:07:33Z</time>
      </trkpt>
      <trkpt lat="49.24653" lon="1.39345">
        <ele>4</ele>
        <time>2009-03-22T10:07:35Z</time>
      </trkpt>
      <trkpt lat="49.24648" lon="1.39357">
        <ele>4</ele>
        <time>2009-03-22T10:07:37Z</time>
      </trkpt>
      <trkpt lat="49.24637" lon="1.39366">
        <ele>4</ele>
        <time>2009-03-22T10:07:40Z</time>
      </trkpt>
      <trkpt lat="49.2463" lon="1.39382">
        <ele>4</ele>
        <time>2009-03-22T10:07:43Z</time>
      </trkpt>
      <trkpt lat="49.24622" lon="1.39398">
        <ele>4</ele>
        <time>2009-03-22T10:07:46Z</time>
      </trkpt>
      <trkpt lat="49.24613" lon="1.3941">
        <ele>4</ele>
        <time>2009-03-22T10:07:49Z</time>
      </trkpt>
      <trkpt lat="49.24606" lon="1.39426">
        <ele>4</ele>
        <time>2009-03-22T10:07:52Z</time>
      </trkpt>
      <trkpt lat="49.246" lon="1.39436">
        <ele>4</ele>
        <time>2009-03-22T10:07:54Z</time>
      </trkpt>
      <trkpt lat="49.24591" lon="1.39452">
        <ele>4</ele>
        <time>2009-03-22T10:07:57Z</time>
      </trkpt>
      <trkpt lat="49.24583" lon="1.39467">
        <ele>4</ele>
        <time>2009-03-22T10:08:00Z</time>
      </trkpt>
      <trkpt lat="49.24575" lon="1.39483">
        <ele>4</ele>
        <time>2009-03-22T10:08:03Z</time>
      </trkpt>
      <trkpt lat="49.24569" lon="1.39493">
        <ele>4</ele>
        <time>2009-03-22T10:08:05Z</time>
      </trkpt>
      <trkpt lat="49.24561" lon="1.39508">
        <ele>4</ele>
        <time>2009-03-22T10:08:08Z</time>
      </trkpt>
      <trkpt lat="49.24555" lon="1.39522">
        <ele>4</ele>
        <time>2009-03-22T10:08:11Z</time>
      </trkpt>
      <trkpt lat="49.24549" lon="1.39539">
        <ele>4</ele>
        <time>2009-03-22T10:08:14Z</time>
      </trkpt>
      <trkpt lat="49.24545" lon="1.39554">
        <ele>9</ele>
        <time>2009-03-22T10:08:17Z</time>
      </trkpt>
      <trkpt lat="49.24539" lon="1.39566">
        <ele>9</ele>
        <time>2009-03-22T10:08:20Z</time>
      </trkpt>
      <trkpt lat="49.24535" lon="1.3958">
        <ele>9</ele>
        <time>2009-03-22T10:08:24Z</time>
      </trkpt>
      <trkpt lat="49.24529" lon="1.3959">
        <ele>9</ele>
        <time>2009-03-22T10:08:27Z</time>
      </trkpt>
      <trkpt lat="49.24519" lon="1.39593">
        <ele>9</ele>
        <time>2009-03-22T10:08:30Z</time>
      </trkpt>
      <trkpt lat="49.24509" lon="1.39594">
        <ele>9</ele>
        <time>2009-03-22T10:08:33Z</time>
      </trkpt>
      <trkpt lat="49.24501" lon="1.39603">
        <ele>9</ele>
        <time>2009-03-22T10:08:37Z</time>
      </trkpt>
      <trkpt lat="49.24494" lon="1.39613">
        <ele>9</ele>
        <time>2009-03-22T10:08:40Z</time>
      </trkpt>
      <trkpt lat="49.24486" lon="1.39624">
        <ele>9</ele>
        <time>2009-03-22T10:08:44Z</time>
      </trkpt>
      <trkpt lat="49.24481" lon="1.39635">
        <ele>9</ele>
        <time>2009-03-22T10:08:47Z</time>
      </trkpt>
      <trkpt lat="49.24474" lon="1.39648">
        <ele>9</ele>
        <time>2009-03-22T10:08:50Z</time>
      </trkpt>
      <trkpt lat="49.24468" lon="1.3966">
        <ele>9</ele>
        <time>2009-03-22T10:08:53Z</time>
      </trkpt>
      <trkpt lat="49.2446" lon="1.39672">
        <ele>9</ele>
        <time>2009-03-22T10:08:56Z</time>
      </trkpt>
      <trkpt lat="49.24454" lon="1.39685">
        <ele>9</ele>
        <time>2009-03-22T10:08:59Z</time>
      </trkpt>
      <trkpt lat="49.24447" lon="1.397">
        <ele>9</ele>
        <time>2009-03-22T10:09:02Z</time>
      </trkpt>
      <trkpt lat="49.2444" lon="1.39714">
        <ele>9</ele>
        <time>2009-03-22T10:09:05Z</time>
      </trkpt>
      <trkpt lat="49.24431" lon="1.39729">
        <ele>9</ele>
        <time>2009-03-22T10:09:08Z</time>
      </trkpt>
      <trkpt lat="49.24422" lon="1.39742">
        <ele>9</ele>
        <time>2009-03-22T10:09:11Z</time>
      </trkpt>
      <trkpt lat="49.24412" lon="1.39755">
        <ele>9</ele>
        <time>2009-03-22T10:09:14Z</time>
      </trkpt>
      <trkpt lat="49.24401" lon="1.39765">
        <ele>9</ele>
        <time>2009-03-22T10:09:17Z</time>
      </trkpt>
      <trkpt lat="49.24391" lon="1.39775">
        <ele>9</ele>
        <time>2009-03-22T10:09:20Z</time>
      </trkpt>
      <trkpt lat="49.24379" lon="1.39782">
        <ele>9</ele>
        <time>2009-03-22T10:09:23Z</time>
      </trkpt>
      <trkpt lat="49.24367" lon="1.39789">
        <ele>9</ele>
        <time>2009-03-22T10:09:26Z</time>
      </trkpt>
      <trkpt lat="49.24354" lon="1.39797">
        <ele>9</ele>
        <time>2009-03-22T10:09:29Z</time>
      </trkpt>
      <trkpt lat="49.24345" lon="1.39802">
        <ele>9</ele>
        <time>2009-03-22T10:09:31Z</time>
      </trkpt>
      <trkpt lat="49.24336" lon="1.39808">
        <ele>9</ele>
        <time>2009-03-22T10:09:33Z</time>
      </trkpt>
      <trkpt lat="49.24328" lon="1.39811">
        <ele>9</ele>
        <time>2009-03-22T10:09:35Z</time>
      </trkpt>
      <trkpt lat="49.24319" lon="1.39815">
        <ele>9</ele>
        <time>2009-03-22T10:09:37Z</time>
      </trkpt>
      <trkpt lat="49.24309" lon="1.39819">
        <ele>9</ele>
        <time>2009-03-22T10:09:39Z</time>
      </trkpt>
      <trkpt lat="49.24299" lon="1.39823">
        <ele>9</ele>
        <time>2009-03-22T10:09:41Z</time>
      </trkpt>
      <trkpt lat="49.24289" lon="1.39827">
        <ele>9</ele>
        <time>2009-03-22T10:09:43Z</time>
      </trkpt>
      <trkpt lat="49.24279" lon="1.39832">
        <ele>9</ele>
        <time>2009-03-22T10:09:45Z</time>
      </trkpt>
      <trkpt lat="49.24271" lon="1.39837">
        <ele>9</ele>
        <time>2009-03-22T10:09:47Z</time>
      </trkpt>
      <trkpt lat="49.24262" lon="1.39843">
        <ele>9</ele>
        <time>2009-03-22T10:09:49Z</time>
      </trkpt>
      <trkpt lat="49.24252" lon="1.39849">
        <ele>9</ele>
        <time>2009-03-22T10:09:51Z</time>
      </trkpt>
      <trkpt lat="49.24245" lon="1.39857">
        <ele>9</ele>
        <time>2009-03-22T10:09:53Z</time>
      </trkpt>
      <trkpt lat="49.24236" lon="1.39863">
        <ele>9</ele>
        <time>2009-03-22T10:09:55Z</time>
      </trkpt>
      <trkpt lat="49.24225" lon="1.39872">
        <ele>9</ele>
        <time>2009-03-22T10:09:58Z</time>
      </trkpt>
      <trkpt lat="49.24214" lon="1.3988">
        <ele>9</ele>
        <time>2009-03-22T10:10:01Z</time>
      </trkpt>
      <trkpt lat="49.24203" lon="1.39887">
        <ele>9</ele>
        <time>2009-03-22T10:10:04Z</time>
      </trkpt>
      <trkpt lat="49.24194" lon="1.39895">
        <ele>9</ele>
        <time>2009-03-22T10:10:07Z</time>
      </trkpt>
      <trkpt lat="49.24185" lon="1.39901">
        <ele>9</ele>
        <time>2009-03-22T10:10:11Z</time>
      </trkpt>
      <trkpt lat="49.2418" lon="1.39913">
        <ele>9</ele>
        <time>2009-03-22T10:10:55Z</time>
      </trkpt>
      <trkpt lat="49.24172" lon="1.39923">
        <ele>9</ele>
        <time>2009-03-22T10:12:08Z</time>
      </trkpt>
      <trkpt lat="49.24162" lon="1.39931">
        <ele>9</ele>
        <time>2009-03-22T10:12:13Z</time>
      </trkpt>
      <trkpt lat="49.24153" lon="1.39938">
        <ele>9</ele>
        <time>2009-03-22T10:12:17Z</time>
      </trkpt>
      <trkpt lat="49.24142" lon="1.39944">
        <ele>9</ele>
        <time>2009-03-22T10:12:21Z</time>
      </trkpt>
      <trkpt lat="49.24132" lon="1.39953">
        <ele>9</ele>
        <time>2009-03-22T10:12:25Z</time>
      </trkpt>
      <trkpt lat="49.24124" lon="1.39959">
        <ele>9</ele>
        <time>2009-03-22T10:12:28Z</time>
      </trkpt>
      <trkpt lat="49.24115" lon="1.39966">
        <ele>9</ele>
        <time>2009-03-22T10:12:31Z</time>
      </trkpt>
      <trkpt lat="49.24107" lon="1.39972">
        <ele>9</ele>
        <time>2009-03-22T10:12:34Z</time>
      </trkpt>
      <trkpt lat="49.24096" lon="1.39975">
        <ele>9</ele>
        <time>2009-03-22T10:12:38Z</time>
      </trkpt>
      <trkpt lat="49.24088" lon="1.39978">
        <ele>9</ele>
        <time>2009-03-22T10:12:41Z</time>
      </trkpt>
      <trkpt lat="49.24076" lon="1.39984">
        <ele>9</ele>
        <time>2009-03-22T10:12:45Z</time>
      </trkpt>
      <trkpt lat="49.24067" lon="1.39986">
        <ele>9</ele>
        <time>2009-03-22T10:12:48Z</time>
      </trkpt>
      <trkpt lat="49.24057" lon="1.39992">
        <ele>9</ele>
        <time>2009-03-22T10:12:52Z</time>
      </trkpt>
      <trkpt lat="49.24048" lon="1.39996">
        <ele>9</ele>
        <time>2009-03-22T10:12:57Z</time>
      </trkpt>
      <trkpt lat="49.24038" lon="1.40002">
        <ele>9</ele>
        <time>2009-03-22T10:13:04Z</time>
      </trkpt>
      <trkpt lat="49.24029" lon="1.40004">
        <ele>9</ele>
        <time>2009-03-22T10:13:13Z</time>
      </trkpt>
      <trkpt lat="49.24019" lon="1.40006">
        <ele>9</ele>
        <time>2009-03-22T10:13:23Z</time>
      </trkpt>
      <trkpt lat="49.24009" lon="1.40007">
        <ele>4</ele>
        <time>2009-03-22T10:13:43Z</time>
      </trkpt>
      <trkpt lat="49.24001" lon="1.40014">
        <ele>4</ele>
        <time>2009-03-22T10:13:57Z</time>
      </trkpt>
      <trkpt lat="49.24011" lon="1.40011">
        <ele>-2</ele>
        <time>2009-03-22T10:15:57Z</time>
      </trkpt>
      <trkpt lat="49.24019" lon="1.40007">
        <ele>6</ele>
        <time>2009-03-22T10:17:00Z</time>
      </trkpt>
      <trkpt lat="49.24029" lon="1.40003">
        <ele>6</ele>
        <time>2009-03-22T10:17:09Z</time>
      </trkpt>
      <trkpt lat="49.24038" lon="1.4">
        <ele>6</ele>
        <time>2009-03-22T10:17:16Z</time>
      </trkpt>
      <trkpt lat="49.24046" lon="1.39994">
        <ele>6</ele>
        <time>2009-03-22T10:17:23Z</time>
      </trkpt>
      <trkpt lat="49.24057" lon="1.39991">
        <ele>6</ele>
        <time>2009-03-22T10:17:28Z</time>
      </trkpt>
      <trkpt lat="49.24068" lon="1.39987">
        <ele>6</ele>
        <time>2009-03-22T10:17:32Z</time>
      </trkpt>
      <trkpt lat="49.24078" lon="1.39986">
        <ele>6</ele>
        <time>2009-03-22T10:17:36Z</time>
      </trkpt>
      <trkpt lat="49.24087" lon="1.39991">
        <ele>6</ele>
        <time>2009-03-22T10:17:42Z</time>
      </trkpt>
      <trkpt lat="49.2409" lon="1.39977">
        <ele>6</ele>
        <time>2009-03-22T10:18:09Z</time>
      </trkpt>
      <trkpt lat="49.24098" lon="1.39971">
        <ele>1</ele>
        <time>2009-03-22T10:18:27Z</time>
      </trkpt>
      <trkpt lat="49.24107" lon="1.39967">
        <ele>1</ele>
        <time>2009-03-22T10:18:40Z</time>
      </trkpt>
      <trkpt lat="49.24115" lon="1.3996">
        <ele>9</ele>
        <time>2009-03-22T10:19:03Z</time>
      </trkpt>
      <trkpt lat="49.24124" lon="1.39953">
        <ele>9</ele>
        <time>2009-03-22T10:19:08Z</time>
      </trkpt>
      <trkpt lat="49.24132" lon="1.39947">
        <ele>9</ele>
        <time>2009-03-22T10:19:12Z</time>
      </trkpt>
      <trkpt lat="49.24139" lon="1.39935">
        <ele>9</ele>
        <time>2009-03-22T10:19:16Z</time>
      </trkpt>
      <trkpt lat="49.24149" lon="1.39932">
        <ele>9</ele>
        <time>2009-03-22T10:19:21Z</time>
      </trkpt>
      <trkpt lat="49.24158" lon="1.39924">
        <ele>9</ele>
        <time>2009-03-22T10:19:28Z</time>
      </trkpt>
      <trkpt lat="49.24168" lon="1.39914">
        <ele>9</ele>
        <time>2009-03-22T10:19:33Z</time>
      </trkpt>
      <trkpt lat="49.24177" lon="1.39911">
        <ele>9</ele>
        <time>2009-03-22T10:19:38Z</time>
      </trkpt>
      <trkpt lat="49.24185" lon="1.39919">
        <ele>9</ele>
        <time>2009-03-22T10:19:44Z</time>
      </trkpt>
      <trkpt lat="49.24189" lon="1.39932">
        <ele>15</ele>
        <time>2009-03-22T10:19:48Z</time>
      </trkpt>
      <trkpt lat="49.24191" lon="1.39948">
        <ele>23</ele>
        <time>2009-03-22T10:19:57Z</time>
      </trkpt>
      <trkpt lat="49.24194" lon="1.39965">
        <ele>18</ele>
        <time>2009-03-22T10:20:00Z</time>
      </trkpt>
      <trkpt lat="49.24196" lon="1.39984">
        <ele>18</ele>
        <time>2009-03-22T10:20:03Z</time>
      </trkpt>
      <trkpt lat="49.24199" lon="1.39998">
        <ele>18</ele>
        <time>2009-03-22T10:20:05Z</time>
      </trkpt>
      <trkpt lat="49.24199" lon="1.40015">
        <ele>12</ele>
        <time>2009-03-22T10:20:08Z</time>
      </trkpt>
      <trkpt lat="49.24206" lon="1.40025">
        <ele>12</ele>
        <time>2009-03-22T10:20:10Z</time>
      </trkpt>
      <trkpt lat="49.24218" lon="1.40022">
        <ele>6</ele>
        <time>2009-03-22T10:20:14Z</time>
      </trkpt>
      <trkpt lat="49.24225" lon="1.40014">
        <ele>6</ele>
        <time>2009-03-22T10:20:16Z</time>
      </trkpt>
      <trkpt lat="49.24233" lon="1.40006">
        <ele>6</ele>
        <time>2009-03-22T10:20:18Z</time>
      </trkpt>
      <trkpt lat="49.24244" lon="1.39998">
        <ele>6</ele>
        <time>2009-03-22T10:20:21Z</time>
      </trkpt>
      <trkpt lat="49.24254" lon="1.3999">
        <ele>6</ele>
        <time>2009-03-22T10:20:24Z</time>
      </trkpt>
      <trkpt lat="49.24265" lon="1.39982">
        <ele>6</ele>
        <time>2009-03-22T10:20:27Z</time>
      </trkpt>
      <trkpt lat="49.24274" lon="1.39975">
        <ele>12</ele>
        <time>2009-03-22T10:20:29Z</time>
      </trkpt>
      <trkpt lat="49.24282" lon="1.39968">
        <ele>12</ele>
        <time>2009-03-22T10:20:31Z</time>
      </trkpt>
      <trkpt lat="49.24293" lon="1.39956">
        <ele>12</ele>
        <time>2009-03-22T10:20:34Z</time>
      </trkpt>
      <trkpt lat="49.24305" lon="1.39944">
        <ele>12</ele>
        <time>2009-03-22T10:20:37Z</time>
      </trkpt>
      <trkpt lat="49.24313" lon="1.39938">
        <ele>12</ele>
        <time>2009-03-22T10:20:39Z</time>
      </trkpt>
      <trkpt lat="49.24322" lon="1.39932">
        <ele>12</ele>
        <time>2009-03-22T10:20:41Z</time>
      </trkpt>
      <trkpt lat="49.2433" lon="1.39924">
        <ele>12</ele>
        <time>2009-03-22T10:20:43Z</time>
      </trkpt>
      <trkpt lat="49.24339" lon="1.39917">
        <ele>12</ele>
        <time>2009-03-22T10:20:45Z</time>
      </trkpt>
      <trkpt lat="49.24349" lon="1.39908">
        <ele>12</ele>
        <time>2009-03-22T10:20:47Z</time>
      </trkpt>
      <trkpt lat="49.24359" lon="1.39901">
        <ele>12</ele>
        <time>2009-03-22T10:20:49Z</time>
      </trkpt>
      <trkpt lat="49.24369" lon="1.39894">
        <ele>12</ele>
        <time>2009-03-22T10:20:51Z</time>
      </trkpt>
      <trkpt lat="49.24379" lon="1.39886">
        <ele>12</ele>
        <time>2009-03-22T10:20:53Z</time>
      </trkpt>
      <trkpt lat="49.2439" lon="1.39878">
        <ele>12</ele>
        <time>2009-03-22T10:20:55Z</time>
      </trkpt>
      <trkpt lat="49.24399" lon="1.39869">
        <ele>12</ele>
        <time>2009-03-22T10:20:57Z</time>
      </trkpt>
      <trkpt lat="49.24408" lon="1.39861">
        <ele>12</ele>
        <time>2009-03-22T10:20:59Z</time>
      </trkpt>
      <trkpt lat="49.24418" lon="1.39852">
        <ele>12</ele>
        <time>2009-03-22T10:21:01Z</time>
      </trkpt>
      <trkpt lat="49.24426" lon="1.39843">
        <ele>12</ele>
        <time>2009-03-22T10:21:03Z</time>
      </trkpt>
      <trkpt lat="49.24434" lon="1.39832">
        <ele>12</ele>
        <time>2009-03-22T10:21:05Z</time>
      </trkpt>
      <trkpt lat="49.24442" lon="1.39822">
        <ele>12</ele>
        <time>2009-03-22T10:21:07Z</time>
      </trkpt>
      <trkpt lat="49.24449" lon="1.39812">
        <ele>12</ele>
        <time>2009-03-22T10:21:09Z</time>
      </trkpt>
      <trkpt lat="49.24459" lon="1.398">
        <ele>12</ele>
        <time>2009-03-22T10:21:12Z</time>
      </trkpt>
      <trkpt lat="49.24471" lon="1.39794">
        <ele>12</ele>
        <time>2009-03-22T10:21:15Z</time>
      </trkpt>
      <trkpt lat="49.24481" lon="1.39799">
        <ele>12</ele>
        <time>2009-03-22T10:21:17Z</time>
      </trkpt>
      <trkpt lat="49.2449" lon="1.39803">
        <ele>12</ele>
        <time>2009-03-22T10:21:19Z</time>
      </trkpt>
      <trkpt lat="49.24499" lon="1.39811">
        <ele>12</ele>
        <time>2009-03-22T10:21:21Z</time>
      </trkpt>
      <trkpt lat="49.24505" lon="1.39822">
        <ele>12</ele>
        <time>2009-03-22T10:21:23Z</time>
      </trkpt>
      <trkpt lat="49.24508" lon="1.39839">
        <ele>12</ele>
        <time>2009-03-22T10:21:26Z</time>
      </trkpt>
      <trkpt lat="49.2451" lon="1.39857">
        <ele>12</ele>
        <time>2009-03-22T10:21:29Z</time>
      </trkpt>
      <trkpt lat="49.24516" lon="1.39873">
        <ele>12</ele>
        <time>2009-03-22T10:21:32Z</time>
      </trkpt>
      <trkpt lat="49.24525" lon="1.3988">
        <ele>12</ele>
        <time>2009-03-22T10:21:34Z</time>
      </trkpt>
      <trkpt lat="49.24537" lon="1.39891">
        <ele>12</ele>
        <time>2009-03-22T10:21:37Z</time>
      </trkpt>
      <trkpt lat="49.24546" lon="1.39898">
        <ele>12</ele>
        <time>2009-03-22T10:21:39Z</time>
      </trkpt>
      <trkpt lat="49.24546" lon="1.39913">
        <ele>12</ele>
        <time>2009-03-22T10:21:41Z</time>
      </trkpt>
      <trkpt lat="49.24542" lon="1.39928">
        <ele>12</ele>
        <time>2009-03-22T10:21:43Z</time>
      </trkpt>
      <trkpt lat="49.24538" lon="1.39942">
        <ele>12</ele>
        <time>2009-03-22T10:21:45Z</time>
      </trkpt>
      <trkpt lat="49.24532" lon="1.39956">
        <ele>12</ele>
        <time>2009-03-22T10:21:47Z</time>
      </trkpt>
      <trkpt lat="49.24527" lon="1.39969">
        <ele>12</ele>
        <time>2009-03-22T10:21:49Z</time>
      </trkpt>
      <trkpt lat="49.24522" lon="1.39982">
        <ele>12</ele>
        <time>2009-03-22T10:21:51Z</time>
      </trkpt>
      <trkpt lat="49.24516" lon="1.39994">
        <ele>7</ele>
        <time>2009-03-22T10:21:53Z</time>
      </trkpt>
      <trkpt lat="49.24513" lon="1.40008">
        <ele>7</ele>
        <time>2009-03-22T10:21:55Z</time>
      </trkpt>
      <trkpt lat="49.24509" lon="1.40028">
        <ele>7</ele>
        <time>2009-03-22T10:21:58Z</time>
      </trkpt>
      <trkpt lat="49.24508" lon="1.40044">
        <ele>7</ele>
        <time>2009-03-22T10:22:00Z</time>
      </trkpt>
      <trkpt lat="49.24506" lon="1.40061">
        <ele>7</ele>
        <time>2009-03-22T10:22:02Z</time>
      </trkpt>
      <trkpt lat="49.24505" lon="1.40076">
        <ele>7</ele>
        <time>2009-03-22T10:22:04Z</time>
      </trkpt>
      <trkpt lat="49.24502" lon="1.40096">
        <ele>7</ele>
        <time>2009-03-22T10:22:07Z</time>
      </trkpt>
      <trkpt lat="49.24501" lon="1.40111">
        <ele>7</ele>
        <time>2009-03-22T10:22:10Z</time>
      </trkpt>
      <trkpt lat="49.24501" lon="1.40128">
        <ele>7</ele>
        <time>2009-03-22T10:22:13Z</time>
      </trkpt>
      <trkpt lat="49.24499" lon="1.40147">
        <ele>7</ele>
        <time>2009-03-22T10:22:16Z</time>
      </trkpt>
      <trkpt lat="49.24499" lon="1.40161">
        <ele>7</ele>
        <time>2009-03-22T10:22:18Z</time>
      </trkpt>
      <trkpt lat="49.24499" lon="1.40177">
        <ele>7</ele>
        <time>2009-03-22T10:22:20Z</time>
      </trkpt>
      <trkpt lat="49.24498" lon="1.40191">
        <ele>7</ele>
        <time>2009-03-22T10:22:22Z</time>
      </trkpt>
      <trkpt lat="49.24499" lon="1.40211">
        <ele>7</ele>
        <time>2009-03-22T10:22:25Z</time>
      </trkpt>
      <trkpt lat="49.24499" lon="1.40225">
        <ele>7</ele>
        <time>2009-03-22T10:22:27Z</time>
      </trkpt>
      <trkpt lat="49.24499" lon="1.40241">
        <ele>7</ele>
        <time>2009-03-22T10:22:29Z</time>
      </trkpt>
      <trkpt lat="49.24498" lon="1.40256">
        <ele>7</ele>
        <time>2009-03-22T10:22:31Z</time>
      </trkpt>
      <trkpt lat="49.24498" lon="1.40271">
        <ele>7</ele>
        <time>2009-03-22T10:22:33Z</time>
      </trkpt>
      <trkpt lat="49.24496" lon="1.40285">
        <ele>7</ele>
        <time>2009-03-22T10:22:35Z</time>
      </trkpt>
      <trkpt lat="49.24495" lon="1.40301">
        <ele>7</ele>
        <time>2009-03-22T10:22:37Z</time>
      </trkpt>
      <trkpt lat="49.24495" lon="1.40317">
        <ele>7</ele>
        <time>2009-03-22T10:22:39Z</time>
      </trkpt>
      <trkpt lat="49.24495" lon="1.40331">
        <ele>7</ele>
        <time>2009-03-22T10:22:41Z</time>
      </trkpt>
      <trkpt lat="49.24496" lon="1.40352">
        <ele>7</ele>
        <time>2009-03-22T10:22:44Z</time>
      </trkpt>
      <trkpt lat="49.24496" lon="1.40366">
        <ele>7</ele>
        <time>2009-03-22T10:22:46Z</time>
      </trkpt>
      <trkpt lat="49.24496" lon="1.40382">
        <ele>7</ele>
        <time>2009-03-22T10:22:48Z</time>
      </trkpt>
      <trkpt lat="49.24496" lon="1.40397">
        <ele>7</ele>
        <time>2009-03-22T10:22:50Z</time>
      </trkpt>
      <trkpt lat="49.24496" lon="1.40412">
        <ele>7</ele>
        <time>2009-03-22T10:22:52Z</time>
      </trkpt>
      <trkpt lat="49.24495" lon="1.40426">
        <ele>7</ele>
        <time>2009-03-22T10:22:54Z</time>
      </trkpt>
      <trkpt lat="49.24496" lon="1.40444">
        <ele>7</ele>
        <time>2009-03-22T10:22:57Z</time>
      </trkpt>
      <trkpt lat="49.24496" lon="1.40459">
        <ele>7</ele>
        <time>2009-03-22T10:23:01Z</time>
      </trkpt>
      <trkpt lat="49.24495" lon="1.40474">
        <ele>7</ele>
        <time>2009-03-22T10:23:04Z</time>
      </trkpt>
      <trkpt lat="49.24495" lon="1.40492">
        <ele>7</ele>
        <time>2009-03-22T10:23:07Z</time>
      </trkpt>
      <trkpt lat="49.24496" lon="1.40506">
        <ele>7</ele>
        <time>2009-03-22T10:23:09Z</time>
      </trkpt>
      <trkpt lat="49.24495" lon="1.40521">
        <ele>7</ele>
        <time>2009-03-22T10:23:11Z</time>
      </trkpt>
      <trkpt lat="49.24494" lon="1.40536">
        <ele>7</ele>
        <time>2009-03-22T10:23:13Z</time>
      </trkpt>
      <trkpt lat="49.24495" lon="1.4055">
        <ele>7</ele>
        <time>2009-03-22T10:23:15Z</time>
      </trkpt>
      <trkpt lat="49.24495" lon="1.40567">
        <ele>7</ele>
        <time>2009-03-22T10:23:17Z</time>
      </trkpt>
      <trkpt lat="49.24494" lon="1.40583">
        <ele>7</ele>
        <time>2009-03-22T10:23:19Z</time>
      </trkpt>
      <trkpt lat="49.24493" lon="1.40597">
        <ele>7</ele>
        <time>2009-03-22T10:23:21Z</time>
      </trkpt>
      <trkpt lat="49.24493" lon="1.40612">
        <ele>7</ele>
        <time>2009-03-22T10:23:23Z</time>
      </trkpt>
      <trkpt lat="49.24492" lon="1.40628">
        <ele>7</ele>
        <time>2009-03-22T10:23:25Z</time>
      </trkpt>
      <trkpt lat="49.24491" lon="1.40646">
        <ele>7</ele>
        <time>2009-03-22T10:23:28Z</time>
      </trkpt>
      <trkpt lat="49.24492" lon="1.40664">
        <ele>7</ele>
        <time>2009-03-22T10:23:31Z</time>
      </trkpt>
      <trkpt lat="49.24493" lon="1.40679">
        <ele>7</ele>
        <time>2009-03-22T10:23:34Z</time>
      </trkpt>
      <trkpt lat="49.24495" lon="1.40698">
        <ele>7</ele>
        <time>2009-03-22T10:23:37Z</time>
      </trkpt>
      <trkpt lat="49.24494" lon="1.40717">
        <ele>7</ele>
        <time>2009-03-22T10:23:40Z</time>
      </trkpt>
      <trkpt lat="49.24494" lon="1.40737">
        <ele>7</ele>
        <time>2009-03-22T10:23:43Z</time>
      </trkpt>
      <trkpt lat="49.24495" lon="1.40758">
        <ele>13</ele>
        <time>2009-03-22T10:23:46Z</time>
      </trkpt>
      <trkpt lat="49.24496" lon="1.40773">
        <ele>13</ele>
        <time>2009-03-22T10:23:48Z</time>
      </trkpt>
      <trkpt lat="49.24495" lon="1.40791">
        <ele>13</ele>
        <time>2009-03-22T10:23:51Z</time>
      </trkpt>
      <trkpt lat="49.24495" lon="1.40809">
        <ele>13</ele>
        <time>2009-03-22T10:23:54Z</time>
      </trkpt>
      <trkpt lat="49.24497" lon="1.4083">
        <ele>13</ele>
        <time>2009-03-22T10:23:57Z</time>
      </trkpt>
      <trkpt lat="49.24501" lon="1.40843">
        <ele>13</ele>
        <time>2009-03-22T10:23:59Z</time>
      </trkpt>
      <trkpt lat="49.24506" lon="1.40859">
        <ele>13</ele>
        <time>2009-03-22T10:24:01Z</time>
      </trkpt>
      <trkpt lat="49.24512" lon="1.40875">
        <ele>13</ele>
        <time>2009-03-22T10:24:03Z</time>
      </trkpt>
      <trkpt lat="49.24519" lon="1.40886">
        <ele>13</ele>
        <time>2009-03-22T10:24:05Z</time>
      </trkpt>
      <trkpt lat="49.24525" lon="1.40904">
        <ele>13</ele>
        <time>2009-03-22T10:24:08Z</time>
      </trkpt>
      <trkpt lat="49.24531" lon="1.40919">
        <ele>19</ele>
        <time>2009-03-22T10:24:11Z</time>
      </trkpt>
      <trkpt lat="49.24535" lon="1.40933">
        <ele>19</ele>
        <time>2009-03-22T10:24:14Z</time>
      </trkpt>
      <trkpt lat="49.24539" lon="1.40948">
        <ele>19</ele>
        <time>2009-03-22T10:24:16Z</time>
      </trkpt>
      <trkpt lat="49.24545" lon="1.40972">
        <ele>19</ele>
        <time>2009-03-22T10:24:20Z</time>
      </trkpt>
      <trkpt lat="49.24555" lon="1.40985">
        <ele>19</ele>
        <time>2009-03-22T10:24:22Z</time>
      </trkpt>
      <trkpt lat="49.24562" lon="1.41004">
        <ele>19</ele>
        <time>2009-03-22T10:24:25Z</time>
      </trkpt>
      <trkpt lat="49.24569" lon="1.41019">
        <ele>19</ele>
        <time>2009-03-22T10:24:27Z</time>
      </trkpt>
      <trkpt lat="49.24575" lon="1.41034">
        <ele>19</ele>
        <time>2009-03-22T10:24:29Z</time>
      </trkpt>
      <trkpt lat="49.24581" lon="1.41047">
        <ele>19</ele>
        <time>2009-03-22T10:24:31Z</time>
      </trkpt>
      <trkpt lat="49.24588" lon="1.41059">
        <ele>19</ele>
        <time>2009-03-22T10:24:33Z</time>
      </trkpt>
      <trkpt lat="49.24597" lon="1.41073">
        <ele>19</ele>
        <time>2009-03-22T10:24:36Z</time>
      </trkpt>
      <trkpt lat="49.24601" lon="1.4109">
        <ele>19</ele>
        <time>2009-03-22T10:24:38Z</time>
      </trkpt>
      <trkpt lat="49.24607" lon="1.4111">
        <ele>19</ele>
        <time>2009-03-22T10:24:41Z</time>
      </trkpt>
      <trkpt lat="49.24615" lon="1.41123">
        <ele>19</ele>
        <time>2009-03-22T10:24:43Z</time>
      </trkpt>
      <trkpt lat="49.24621" lon="1.41134">
        <ele>19</ele>
        <time>2009-03-22T10:24:45Z</time>
      </trkpt>
      <trkpt lat="49.24628" lon="1.41146">
        <ele>19</ele>
        <time>2009-03-22T10:24:47Z</time>
      </trkpt>
      <trkpt lat="49.24636" lon="1.4116">
        <ele>19</ele>
        <time>2009-03-22T10:24:50Z</time>
      </trkpt>
      <trkpt lat="49.24642" lon="1.41171">
        <ele>12</ele>
        <time>2009-03-22T10:24:53Z</time>
      </trkpt>
      <trkpt lat="49.24652" lon="1.41178">
        <ele>12</ele>
        <time>2009-03-22T10:24:56Z</time>
      </trkpt>
      <trkpt lat="49.24661" lon="1.4118">
        <ele>12</ele>
        <time>2009-03-22T10:24:58Z</time>
      </trkpt>
      <trkpt lat="49.24675" lon="1.41184">
        <ele>12</ele>
        <time>2009-03-22T10:25:01Z</time>
      </trkpt>
      <trkpt lat="49.24686" lon="1.41188">
        <ele>12</ele>
        <time>2009-03-22T10:25:04Z</time>
      </trkpt>
      <trkpt lat="49.24699" lon="1.41194">
        <ele>12</ele>
        <time>2009-03-22T10:25:07Z</time>
      </trkpt>
      <trkpt lat="49.24708" lon="1.41197">
        <ele>12</ele>
        <time>2009-03-22T10:25:09Z</time>
      </trkpt>
      <trkpt lat="49.2472" lon="1.41204">
        <ele>12</ele>
        <time>2009-03-22T10:25:12Z</time>
      </trkpt>
      <trkpt lat="49.24733" lon="1.41206">
        <ele>12</ele>
        <time>2009-03-22T10:25:15Z</time>
      </trkpt>
      <trkpt lat="49.24742" lon="1.41203">
        <ele>12</ele>
        <time>2009-03-22T10:25:19Z</time>
      </trkpt>
      <trkpt lat="49.24749" lon="1.41191">
        <ele>18</ele>
        <time>2009-03-22T10:25:24Z</time>
      </trkpt>
      <trkpt lat="49.24755" lon="1.41174">
        <ele>18</ele>
        <time>2009-03-22T10:25:28Z</time>
      </trkpt>
      <trkpt lat="49.24758" lon="1.41158">
        <ele>18</ele>
        <time>2009-03-22T10:25:31Z</time>
      </trkpt>
      <trkpt lat="49.24763" lon="1.41142">
        <ele>18</ele>
        <time>2009-03-22T10:25:34Z</time>
      </trkpt>
      <trkpt lat="49.24772" lon="1.41133">
        <ele>18</ele>
        <time>2009-03-22T10:25:37Z</time>
      </trkpt>
      <trkpt lat="49.24783" lon="1.41133">
        <ele>18</ele>
        <time>2009-03-22T10:25:40Z</time>
      </trkpt>
      <trkpt lat="49.24794" lon="1.41136">
        <ele>18</ele>
        <time>2009-03-22T10:25:43Z</time>
      </trkpt>
      <trkpt lat="49.24805" lon="1.41138">
        <ele>18</ele>
        <time>2009-03-22T10:25:46Z</time>
      </trkpt>
      <trkpt lat="49.24816" lon="1.41139">
        <ele>18</ele>
        <time>2009-03-22T10:25:50Z</time>
      </trkpt>
      <trkpt lat="49.24826" lon="1.41141">
        <ele>18</ele>
        <time>2009-03-22T10:25:57Z</time>
      </trkpt>
      <trkpt lat="49.24835" lon="1.41144">
        <ele>24</ele>
        <time>2009-03-22T10:26:02Z</time>
      </trkpt>
      <trkpt lat="49.24844" lon="1.41151">
        <ele>24</ele>
        <time>2009-03-22T10:26:07Z</time>
      </trkpt>
      <trkpt lat="49.24834" lon="1.41143">
        <ele>24</ele>
        <time>2009-03-22T10:26:21Z</time>
      </trkpt>
      <trkpt lat="49.24823" lon="1.41139">
        <ele>18</ele>
        <time>2009-03-22T10:26:23Z</time>
      </trkpt>
      <trkpt lat="49.24813" lon="1.41137">
        <ele>18</ele>
        <time>2009-03-22T10:26:25Z</time>
      </trkpt>
      <trkpt lat="49.24798" lon="1.41137">
        <ele>18</ele>
        <time>2009-03-22T10:26:27Z</time>
      </trkpt>
      <trkpt lat="49.24782" lon="1.41139">
        <ele>24</ele>
        <time>2009-03-22T10:26:29Z</time>
      </trkpt>
      <trkpt lat="49.2477" lon="1.41142">
        <ele>24</ele>
        <time>2009-03-22T10:26:31Z</time>
      </trkpt>
      <trkpt lat="49.24759" lon="1.41146">
        <ele>24</ele>
        <time>2009-03-22T10:26:33Z</time>
      </trkpt>
      <trkpt lat="49.24753" lon="1.41165">
        <ele>24</ele>
        <time>2009-03-22T10:26:36Z</time>
      </trkpt>
      <trkpt lat="49.24749" lon="1.41186">
        <ele>18</ele>
        <time>2009-03-22T10:26:39Z</time>
      </trkpt>
      <trkpt lat="49.24741" lon="1.41201">
        <ele>18</ele>
        <time>2009-03-22T10:26:42Z</time>
      </trkpt>
      <trkpt lat="49.24732" lon="1.41207">
        <ele>18</ele>
        <time>2009-03-22T10:26:45Z</time>
      </trkpt>
      <trkpt lat="49.24742" lon="1.41204">
        <ele>18</ele>
        <time>2009-03-22T10:27:05Z</time>
      </trkpt>
      <trkpt lat="49.24749" lon="1.41195">
        <ele>18</ele>
        <time>2009-03-22T10:27:10Z</time>
      </trkpt>
      <trkpt lat="49.24753" lon="1.41179">
        <ele>18</ele>
        <time>2009-03-22T10:27:14Z</time>
      </trkpt>
      <trkpt lat="49.24758" lon="1.41161">
        <ele>18</ele>
        <time>2009-03-22T10:27:18Z</time>
      </trkpt>
      <trkpt lat="49.24763" lon="1.41146">
        <ele>18</ele>
        <time>2009-03-22T10:27:22Z</time>
      </trkpt>
      <trkpt lat="49.24772" lon="1.41136">
        <ele>18</ele>
        <time>2009-03-22T10:27:26Z</time>
      </trkpt>
      <trkpt lat="49.24781" lon="1.41133">
        <ele>18</ele>
        <time>2009-03-22T10:27:30Z</time>
      </trkpt>
      <trkpt lat="49.2479" lon="1.41136">
        <ele>18</ele>
        <time>2009-03-22T10:27:34Z</time>
      </trkpt>
      <trkpt lat="49.248" lon="1.41139">
        <ele>18</ele>
        <time>2009-03-22T10:27:38Z</time>
      </trkpt>
      <trkpt lat="49.2481" lon="1.41142">
        <ele>18</ele>
        <time>2009-03-22T10:27:42Z</time>
      </trkpt>
      <trkpt lat="49.2482" lon="1.41141">
        <ele>23</ele>
        <time>2009-03-22T10:27:46Z</time>
      </trkpt>
      <trkpt lat="49.24831" lon="1.41142">
        <ele>23</ele>
        <time>2009-03-22T10:27:50Z</time>
      </trkpt>
      <trkpt lat="49.24842" lon="1.41144">
        <ele>23</ele>
        <time>2009-03-22T10:27:54Z</time>
      </trkpt>
      <trkpt lat="49.24853" lon="1.41148">
        <ele>23</ele>
        <time>2009-03-22T10:27:58Z</time>
      </trkpt>
      <trkpt lat="49.24865" lon="1.41151">
        <ele>23</ele>
        <time>2009-03-22T10:28:02Z</time>
      </trkpt>
      <trkpt lat="49.24875" lon="1.41153">
        <ele>23</ele>
        <time>2009-03-22T10:28:06Z</time>
      </trkpt>
      <trkpt lat="49.24886" lon="1.41154">
        <ele>23</ele>
        <time>2009-03-22T10:28:10Z</time>
      </trkpt>
      <trkpt lat="49.24896" lon="1.41157">
        <ele>30</ele>
        <time>2009-03-22T10:28:16Z</time>
      </trkpt>
      <trkpt lat="49.24901" lon="1.41169">
        <ele>30</ele>
        <time>2009-03-22T10:29:45Z</time>
      </trkpt>
      <trkpt lat="49.24908" lon="1.41186">
        <ele>30</ele>
        <time>2009-03-22T10:29:49Z</time>
      </trkpt>
      <trkpt lat="49.24909" lon="1.41205">
        <ele>30</ele>
        <time>2009-03-22T10:29:51Z</time>
      </trkpt>
      <trkpt lat="49.24907" lon="1.4123">
        <ele>23</ele>
        <time>2009-03-22T10:29:53Z</time>
      </trkpt>
      <trkpt lat="49.24905" lon="1.41257">
        <ele>23</ele>
        <time>2009-03-22T10:29:55Z</time>
      </trkpt>
      <trkpt lat="49.24904" lon="1.41281">
        <ele>23</ele>
        <time>2009-03-22T10:29:57Z</time>
      </trkpt>
      <trkpt lat="49.24903" lon="1.41301">
        <ele>23</ele>
        <time>2009-03-22T10:29:59Z</time>
      </trkpt>
      <trkpt lat="49.24902" lon="1.41316">
        <ele>17</ele>
        <time>2009-03-22T10:30:01Z</time>
      </trkpt>
      <trkpt lat="49.24902" lon="1.41331">
        <ele>17</ele>
        <time>2009-03-22T10:30:05Z</time>
      </trkpt>
      <trkpt lat="49.249" lon="1.41346">
        <ele>17</ele>
        <time>2009-03-22T10:30:11Z</time>
      </trkpt>
      <trkpt lat="49.24899" lon="1.41364">
        <ele>17</ele>
        <time>2009-03-22T10:30:15Z</time>
      </trkpt>
      <trkpt lat="49.24896" lon="1.41381">
        <ele>17</ele>
        <time>2009-03-22T10:30:19Z</time>
      </trkpt>
      <trkpt lat="49.24895" lon="1.41399">
        <ele>17</ele>
        <time>2009-03-22T10:30:23Z</time>
      </trkpt>
      <trkpt lat="49.24893" lon="1.4142">
        <ele>17</ele>
        <time>2009-03-22T10:30:26Z</time>
      </trkpt>
      <trkpt lat="49.2489" lon="1.41438">
        <ele>24</ele>
        <time>2009-03-22T10:30:29Z</time>
      </trkpt>
      <trkpt lat="49.24889" lon="1.41452">
        <ele>24</ele>
        <time>2009-03-22T10:30:32Z</time>
      </trkpt>
      <trkpt lat="49.2489" lon="1.41468">
        <ele>24</ele>
        <time>2009-03-22T10:30:35Z</time>
      </trkpt>
      <trkpt lat="49.24895" lon="1.41482">
        <ele>30</ele>
        <time>2009-03-22T10:30:41Z</time>
      </trkpt>
      <trkpt lat="49.24895" lon="1.415">
        <ele>30</ele>
        <time>2009-03-22T10:30:46Z</time>
      </trkpt>
      <trkpt lat="49.24898" lon="1.41517">
        <ele>30</ele>
        <time>2009-03-22T10:30:50Z</time>
      </trkpt>
      <trkpt lat="49.24899" lon="1.41533">
        <ele>30</ele>
        <time>2009-03-22T10:30:55Z</time>
      </trkpt>
      <trkpt lat="49.24899" lon="1.41548">
        <ele>30</ele>
        <time>2009-03-22T10:31:00Z</time>
      </trkpt>
      <trkpt lat="49.24893" lon="1.41559">
        <ele>30</ele>
        <time>2009-03-22T10:31:52Z</time>
      </trkpt>
      <trkpt lat="49.2489" lon="1.41575">
        <ele>30</ele>
        <time>2009-03-22T10:32:24Z</time>
      </trkpt>
      <trkpt lat="49.24886" lon="1.41587">
        <ele>30</ele>
        <time>2009-03-22T10:32:28Z</time>
      </trkpt>
      <trkpt lat="49.24882" lon="1.41602">
        <ele>30</ele>
        <time>2009-03-22T10:32:33Z</time>
      </trkpt>
      <trkpt lat="49.24878" lon="1.41617">
        <ele>30</ele>
        <time>2009-03-22T10:32:37Z</time>
      </trkpt>
      <trkpt lat="49.24876" lon="1.41634">
        <ele>30</ele>
        <time>2009-03-22T10:32:41Z</time>
      </trkpt>
      <trkpt lat="49.24873" lon="1.41647">
        <ele>30</ele>
        <time>2009-03-22T10:32:44Z</time>
      </trkpt>
      <trkpt lat="49.2487" lon="1.41661">
        <ele>30</ele>
        <time>2009-03-22T10:32:47Z</time>
      </trkpt>
      <trkpt lat="49.24868" lon="1.41677">
        <ele>30</ele>
        <time>2009-03-22T10:32:50Z</time>
      </trkpt>
      <trkpt lat="49.24867" lon="1.41692">
        <ele>30</ele>
        <time>2009-03-22T10:32:53Z</time>
      </trkpt>
      <trkpt lat="49.24865" lon="1.41708">
        <ele>30</ele>
        <time>2009-03-22T10:32:56Z</time>
      </trkpt>
      <trkpt lat="49.24862" lon="1.41725">
        <ele>30</ele>
        <time>2009-03-22T10:32:59Z</time>
      </trkpt>
      <trkpt lat="49.24862" lon="1.41744">
        <ele>30</ele>
        <time>2009-03-22T10:33:02Z</time>
      </trkpt>
      <trkpt lat="49.24859" lon="1.41764">
        <ele>30</ele>
        <time>2009-03-22T10:33:05Z</time>
      </trkpt>
      <trkpt lat="49.24855" lon="1.41783">
        <ele>30</ele>
        <time>2009-03-22T10:33:08Z</time>
      </trkpt>
      <trkpt lat="49.24851" lon="1.41801">
        <ele>30</ele>
        <time>2009-03-22T10:33:11Z</time>
      </trkpt>
      <trkpt lat="49.24848" lon="1.41814">
        <ele>30</ele>
        <time>2009-03-22T10:33:13Z</time>
      </trkpt>
      <trkpt lat="49.24845" lon="1.41833">
        <ele>35</ele>
        <time>2009-03-22T10:33:16Z</time>
      </trkpt>
      <trkpt lat="49.24845" lon="1.41849">
        <ele>35</ele>
        <time>2009-03-22T10:33:18Z</time>
      </trkpt>
      <trkpt lat="49.24843" lon="1.41865">
        <ele>35</ele>
        <time>2009-03-22T10:33:20Z</time>
      </trkpt>
      <trkpt lat="49.24843" lon="1.41883">
        <ele>35</ele>
        <time>2009-03-22T10:33:22Z</time>
      </trkpt>
      <trkpt lat="49.24842" lon="1.41898">
        <ele>35</ele>
        <time>2009-03-22T10:33:24Z</time>
      </trkpt>
      <trkpt lat="49.24841" lon="1.41913">
        <ele>35</ele>
        <time>2009-03-22T10:33:26Z</time>
      </trkpt>
      <trkpt lat="49.2484" lon="1.41929">
        <ele>35</ele>
        <time>2009-03-22T10:33:28Z</time>
      </trkpt>
      <trkpt lat="49.24839" lon="1.41946">
        <ele>35</ele>
        <time>2009-03-22T10:33:30Z</time>
      </trkpt>
      <trkpt lat="49.24839" lon="1.41963">
        <ele>35</ele>
        <time>2009-03-22T10:33:32Z</time>
      </trkpt>
      <trkpt lat="49.24839" lon="1.41979">
        <ele>35</ele>
        <time>2009-03-22T10:33:34Z</time>
      </trkpt>
      <trkpt lat="49.24839" lon="1.41995">
        <ele>35</ele>
        <time>2009-03-22T10:33:36Z</time>
      </trkpt>
      <trkpt lat="49.24838" lon="1.42013">
        <ele>35</ele>
        <time>2009-03-22T10:33:38Z</time>
      </trkpt>
      <trkpt lat="49.24839" lon="1.42031">
        <ele>35</ele>
        <time>2009-03-22T10:33:40Z</time>
      </trkpt>
      <trkpt lat="49.24839" lon="1.42049">
        <ele>35</ele>
        <time>2009-03-22T10:33:42Z</time>
      </trkpt>
      <trkpt lat="49.24839" lon="1.42065">
        <ele>35</ele>
        <time>2009-03-22T10:33:44Z</time>
      </trkpt>
      <trkpt lat="49.24839" lon="1.4208">
        <ele>35</ele>
        <time>2009-03-22T10:33:46Z</time>
      </trkpt>
      <trkpt lat="49.24839" lon="1.42096">
        <ele>35</ele>
        <time>2009-03-22T10:33:48Z</time>
      </trkpt>
      <trkpt lat="49.24839" lon="1.42115">
        <ele>35</ele>
        <time>2009-03-22T10:33:51Z</time>
      </trkpt>
      <trkpt lat="49.24839" lon="1.4213">
        <ele>35</ele>
        <time>2009-03-22T10:33:53Z</time>
      </trkpt>
      <trkpt lat="49.24839" lon="1.42148">
        <ele>35</ele>
        <time>2009-03-22T10:33:55Z</time>
      </trkpt>
      <trkpt lat="49.24838" lon="1.42165">
        <ele>35</ele>
        <time>2009-03-22T10:33:58Z</time>
      </trkpt>
      <trkpt lat="49.24837" lon="1.42182">
        <ele>29</ele>
        <time>2009-03-22T10:34:01Z</time>
      </trkpt>
      <trkpt lat="49.24836" lon="1.42201">
        <ele>29</ele>
        <time>2009-03-22T10:34:04Z</time>
      </trkpt>
      <trkpt lat="49.24835" lon="1.42218">
        <ele>29</ele>
        <time>2009-03-22T10:34:07Z</time>
      </trkpt>
      <trkpt lat="49.24834" lon="1.42232">
        <ele>29</ele>
        <time>2009-03-22T10:34:10Z</time>
      </trkpt>
      <trkpt lat="49.24833" lon="1.42252">
        <ele>29</ele>
        <time>2009-03-22T10:34:13Z</time>
      </trkpt>
      <trkpt lat="49.24833" lon="1.42272">
        <ele>29</ele>
        <time>2009-03-22T10:34:16Z</time>
      </trkpt>
      <trkpt lat="49.24831" lon="1.42288">
        <ele>29</ele>
        <time>2009-03-22T10:34:18Z</time>
      </trkpt>
      <trkpt lat="49.24829" lon="1.42303">
        <ele>29</ele>
        <time>2009-03-22T10:34:21Z</time>
      </trkpt>
      <trkpt lat="49.24828" lon="1.42321">
        <ele>29</ele>
        <time>2009-03-22T10:34:24Z</time>
      </trkpt>
      <trkpt lat="49.24827" lon="1.42341">
        <ele>29</ele>
        <time>2009-03-22T10:34:27Z</time>
      </trkpt>
      <trkpt lat="49.24826" lon="1.42357">
        <ele>29</ele>
        <time>2009-03-22T10:34:30Z</time>
      </trkpt>
      <trkpt lat="49.24826" lon="1.42375">
        <ele>29</ele>
        <time>2009-03-22T10:34:33Z</time>
      </trkpt>
      <trkpt lat="49.24825" lon="1.42393">
        <ele>29</ele>
        <time>2009-03-22T10:34:36Z</time>
      </trkpt>
      <trkpt lat="49.24823" lon="1.42411">
        <ele>29</ele>
        <time>2009-03-22T10:34:39Z</time>
      </trkpt>
      <trkpt lat="49.24823" lon="1.42426">
        <ele>29</ele>
        <time>2009-03-22T10:34:42Z</time>
      </trkpt>
      <trkpt lat="49.24824" lon="1.42443">
        <ele>29</ele>
        <time>2009-03-22T10:34:45Z</time>
      </trkpt>
      <trkpt lat="49.24823" lon="1.42463">
        <ele>29</ele>
        <time>2009-03-22T10:34:48Z</time>
      </trkpt>
      <trkpt lat="49.24822" lon="1.42478">
        <ele>29</ele>
        <time>2009-03-22T10:34:50Z</time>
      </trkpt>
      <trkpt lat="49.24823" lon="1.425">
        <ele>29</ele>
        <time>2009-03-22T10:34:53Z</time>
      </trkpt>
      <trkpt lat="49.24827" lon="1.42513">
        <ele>29</ele>
        <time>2009-03-22T10:34:55Z</time>
      </trkpt>
      <trkpt lat="49.24834" lon="1.42526">
        <ele>29</ele>
        <time>2009-03-22T10:34:59Z</time>
      </trkpt>
      <trkpt lat="49.24839" lon="1.42538">
        <ele>29</ele>
        <time>2009-03-22T10:35:03Z</time>
      </trkpt>
      <trkpt lat="49.24843" lon="1.42554">
        <ele>29</ele>
        <time>2009-03-22T10:35:08Z</time>
      </trkpt>
      <trkpt lat="49.24849" lon="1.42566">
        <ele>29</ele>
        <time>2009-03-22T10:35:12Z</time>
      </trkpt>
      <trkpt lat="49.24856" lon="1.42579">
        <ele>29</ele>
        <time>2009-03-22T10:35:16Z</time>
      </trkpt>
      <trkpt lat="49.24861" lon="1.42591">
        <ele>29</ele>
        <time>2009-03-22T10:35:20Z</time>
      </trkpt>
      <trkpt lat="49.24867" lon="1.42602">
        <ele>37</ele>
        <time>2009-03-22T10:35:27Z</time>
      </trkpt>
      <trkpt lat="49.24871" lon="1.42616">
        <ele>37</ele>
        <time>2009-03-22T10:35:34Z</time>
      </trkpt>
      <trkpt lat="49.24874" lon="1.42629">
        <ele>47</ele>
        <time>2009-03-22T10:35:40Z</time>
      </trkpt>
      <trkpt lat="49.24876" lon="1.42643">
        <ele>47</ele>
        <time>2009-03-22T10:35:45Z</time>
      </trkpt>
      <trkpt lat="49.24882" lon="1.42655">
        <ele>47</ele>
        <time>2009-03-22T10:35:50Z</time>
      </trkpt>
      <trkpt lat="49.24888" lon="1.42668">
        <ele>53</ele>
        <time>2009-03-22T10:35:56Z</time>
      </trkpt>
      <trkpt lat="49.24896" lon="1.42679">
        <ele>53</ele>
        <time>2009-03-22T10:36:01Z</time>
      </trkpt>
      <trkpt lat="49.24903" lon="1.4269">
        <ele>53</ele>
        <time>2009-03-22T10:36:06Z</time>
      </trkpt>
      <trkpt lat="49.24913" lon="1.42692">
        <ele>53</ele>
        <time>2009-03-22T10:36:12Z</time>
      </trkpt>
      <trkpt lat="49.2492" lon="1.42702">
        <ele>53</ele>
        <time>2009-03-22T10:36:20Z</time>
      </trkpt>
      <trkpt lat="49.24928" lon="1.42711">
        <ele>60</ele>
        <time>2009-03-22T10:36:26Z</time>
      </trkpt>
      <trkpt lat="49.24936" lon="1.42718">
        <ele>60</ele>
        <time>2009-03-22T10:36:34Z</time>
      </trkpt>
      <trkpt lat="49.24945" lon="1.42727">
        <ele>60</ele>
        <time>2009-03-22T10:36:41Z</time>
      </trkpt>
      <trkpt lat="49.2495" lon="1.42739">
        <ele>60</ele>
        <time>2009-03-22T10:36:47Z</time>
      </trkpt>
      <trkpt lat="49.24955" lon="1.42751">
        <ele>60</ele>
        <time>2009-03-22T10:36:53Z</time>
      </trkpt>
      <trkpt lat="49.24956" lon="1.42767">
        <ele>65</ele>
        <time>2009-03-22T10:37:01Z</time>
      </trkpt>
      <trkpt lat="49.24963" lon="1.42776">
        <ele>71</ele>
        <time>2009-03-22T10:37:08Z</time>
      </trkpt>
      <trkpt lat="49.24969" lon="1.42788">
        <ele>71</ele>
        <time>2009-03-22T10:37:19Z</time>
      </trkpt>
      <trkpt lat="49.24973" lon="1.42801">
        <ele>77</ele>
        <time>2009-03-22T10:37:30Z</time>
      </trkpt>
      <trkpt lat="49.24976" lon="1.42815">
        <ele>77</ele>
        <time>2009-03-22T10:37:49Z</time>
      </trkpt>
      <trkpt lat="49.2498" lon="1.42829">
        <ele>77</ele>
        <time>2009-03-22T10:37:57Z</time>
      </trkpt>
      <trkpt lat="49.24983" lon="1.42843">
        <ele>77</ele>
        <time>2009-03-22T10:38:03Z</time>
      </trkpt>
      <trkpt lat="49.24989" lon="1.42855">
        <ele>70</ele>
        <time>2009-03-22T10:38:10Z</time>
      </trkpt>
      <trkpt lat="49.24991" lon="1.42871">
        <ele>70</ele>
        <time>2009-03-22T10:38:17Z</time>
      </trkpt>
      <trkpt lat="49.24993" lon="1.42885">
        <ele>78</ele>
        <time>2009-03-22T10:38:26Z</time>
      </trkpt>
      <trkpt lat="49.24997" lon="1.42899">
        <ele>78</ele>
        <time>2009-03-22T10:38:33Z</time>
      </trkpt>
      <trkpt lat="49.25001" lon="1.42912">
        <ele>78</ele>
        <time>2009-03-22T10:38:40Z</time>
      </trkpt>
      <trkpt lat="49.25006" lon="1.42925">
        <ele>78</ele>
        <time>2009-03-22T10:38:47Z</time>
      </trkpt>
      <trkpt lat="49.25012" lon="1.42937">
        <ele>78</ele>
        <time>2009-03-22T10:38:52Z</time>
      </trkpt>
      <trkpt lat="49.25017" lon="1.42951">
        <ele>78</ele>
        <time>2009-03-22T10:38:57Z</time>
      </trkpt>
      <trkpt lat="49.25021" lon="1.42965">
        <ele>78</ele>
        <time>2009-03-22T10:39:04Z</time>
      </trkpt>
      <trkpt lat="49.25027" lon="1.42977">
        <ele>78</ele>
        <time>2009-03-22T10:39:14Z</time>
      </trkpt>
      <trkpt lat="49.25032" lon="1.42991">
        <ele>83</ele>
        <time>2009-03-22T10:39:23Z</time>
      </trkpt>
      <trkpt lat="49.25037" lon="1.43003">
        <ele>83</ele>
        <time>2009-03-22T10:39:31Z</time>
      </trkpt>
      <trkpt lat="49.25043" lon="1.43015">
        <ele>83</ele>
        <time>2009-03-22T10:39:39Z</time>
      </trkpt>
      <trkpt lat="49.25048" lon="1.43027">
        <ele>89</ele>
        <time>2009-03-22T10:39:50Z</time>
      </trkpt>
      <trkpt lat="49.25056" lon="1.43036">
        <ele>89</ele>
        <time>2009-03-22T10:40:09Z</time>
      </trkpt>
      <trkpt lat="49.25063" lon="1.43049">
        <ele>83</ele>
        <time>2009-03-22T10:40:15Z</time>
      </trkpt>
      <trkpt lat="49.25069" lon="1.4306">
        <ele>83</ele>
        <time>2009-03-22T10:40:20Z</time>
      </trkpt>
      <trkpt lat="49.25073" lon="1.43073">
        <ele>83</ele>
        <time>2009-03-22T10:40:26Z</time>
      </trkpt>
      <trkpt lat="49.25078" lon="1.43087">
        <ele>83</ele>
        <time>2009-03-22T10:40:32Z</time>
      </trkpt>
      <trkpt lat="49.25083" lon="1.431">
        <ele>83</ele>
        <time>2009-03-22T10:40:38Z</time>
      </trkpt>
      <trkpt lat="49.25087" lon="1.43112">
        <ele>83</ele>
        <time>2009-03-22T10:40:43Z</time>
      </trkpt>
      <trkpt lat="49.25094" lon="1.43122">
        <ele>88</ele>
        <time>2009-03-22T10:40:51Z</time>
      </trkpt>
      <trkpt lat="49.25099" lon="1.43136">
        <ele>88</ele>
        <time>2009-03-22T10:40:58Z</time>
      </trkpt>
      <trkpt lat="49.25103" lon="1.4315">
        <ele>88</ele>
        <time>2009-03-22T10:41:04Z</time>
      </trkpt>
      <trkpt lat="49.25109" lon="1.43164">
        <ele>88</ele>
        <time>2009-03-22T10:41:10Z</time>
      </trkpt>
      <trkpt lat="49.25115" lon="1.43175">
        <ele>88</ele>
        <time>2009-03-22T10:41:15Z</time>
      </trkpt>
      <trkpt lat="49.2512" lon="1.43187">
        <ele>94</ele>
        <time>2009-03-22T10:41:20Z</time>
      </trkpt>
      <trkpt lat="49.25125" lon="1.432">
        <ele>94</ele>
        <time>2009-03-22T10:41:27Z</time>
      </trkpt>
      <trkpt lat="49.25129" lon="1.43213">
        <ele>94</ele>
        <time>2009-03-22T10:41:33Z</time>
      </trkpt>
      <trkpt lat="49.25134" lon="1.43226">
        <ele>94</ele>
        <time>2009-03-22T10:41:39Z</time>
      </trkpt>
      <trkpt lat="49.2514" lon="1.43239">
        <ele>94</ele>
        <time>2009-03-22T10:41:45Z</time>
      </trkpt>
      <trkpt lat="49.25145" lon="1.43253">
        <ele>94</ele>
        <time>2009-03-22T10:41:51Z</time>
      </trkpt>
      <trkpt lat="49.2515" lon="1.43265">
        <ele>94</ele>
        <time>2009-03-22T10:41:57Z</time>
      </trkpt>
      <trkpt lat="49.25155" lon="1.43278">
        <ele>101</ele>
        <time>2009-03-22T10:42:03Z</time>
      </trkpt>
      <trkpt lat="49.25162" lon="1.43289">
        <ele>101</ele>
        <time>2009-03-22T10:42:09Z</time>
      </trkpt>
      <trkpt lat="49.25167" lon="1.43301">
        <ele>101</ele>
        <time>2009-03-22T10:42:15Z</time>
      </trkpt>
      <trkpt lat="49.25174" lon="1.43312">
        <ele>101</ele>
        <time>2009-03-22T10:42:21Z</time>
      </trkpt>
      <trkpt lat="49.2518" lon="1.43324">
        <ele>101</ele>
        <time>2009-03-22T10:42:27Z</time>
      </trkpt>
      <trkpt lat="49.25187" lon="1.43333">
        <ele>101</ele>
        <time>2009-03-22T10:44:15Z</time>
      </trkpt>
      <trkpt lat="49.25194" lon="1.43342">
        <ele>101</ele>
        <time>2009-03-22T10:44:23Z</time>
      </trkpt>
      <trkpt lat="49.25202" lon="1.43351">
        <ele>107</ele>
        <time>2009-03-22T10:44:31Z</time>
      </trkpt>
      <trkpt lat="49.25209" lon="1.43363">
        <ele>107</ele>
        <time>2009-03-22T10:44:43Z</time>
      </trkpt>
      <trkpt lat="49.25216" lon="1.43373">
        <ele>107</ele>
        <time>2009-03-22T10:44:53Z</time>
      </trkpt>
      <trkpt lat="49.2522" lon="1.43386">
        <ele>112</ele>
        <time>2009-03-22T10:45:01Z</time>
      </trkpt>
      <trkpt lat="49.25226" lon="1.43399">
        <ele>112</ele>
        <time>2009-03-22T10:45:10Z</time>
      </trkpt>
      <trkpt lat="49.2523" lon="1.43412">
        <ele>112</ele>
        <time>2009-03-22T10:45:18Z</time>
      </trkpt>
      <trkpt lat="49.25236" lon="1.43422">
        <ele>112</ele>
        <time>2009-03-22T10:45:31Z</time>
      </trkpt>
      <trkpt lat="49.25242" lon="1.43434">
        <ele>112</ele>
        <time>2009-03-22T10:45:41Z</time>
      </trkpt>
      <trkpt lat="49.25249" lon="1.43444">
        <ele>112</ele>
        <time>2009-03-22T10:45:53Z</time>
      </trkpt>
      <trkpt lat="49.25256" lon="1.43454">
        <ele>112</ele>
        <time>2009-03-22T10:46:00Z</time>
      </trkpt>
      <trkpt lat="49.25264" lon="1.43464">
        <ele>112</ele>
        <time>2009-03-22T10:46:06Z</time>
      </trkpt>
      <trkpt lat="49.25273" lon="1.4347">
        <ele>112</ele>
        <time>2009-03-22T10:46:12Z</time>
      </trkpt>
      <trkpt lat="49.25279" lon="1.43483">
        <ele>112</ele>
        <time>2009-03-22T10:46:17Z</time>
      </trkpt>
      <trkpt lat="49.25283" lon="1.43497">
        <ele>124</ele>
        <time>2009-03-22T10:46:23Z</time>
      </trkpt>
      <trkpt lat="49.25286" lon="1.43511">
        <ele>130</ele>
        <time>2009-03-22T10:46:30Z</time>
      </trkpt>
      <trkpt lat="49.25286" lon="1.43527">
        <ele>130</ele>
        <time>2009-03-22T10:46:35Z</time>
      </trkpt>
      <trkpt lat="49.25289" lon="1.43541">
        <ele>130</ele>
        <time>2009-03-22T10:46:41Z</time>
      </trkpt>
      <trkpt lat="49.25291" lon="1.43557">
        <ele>137</ele>
        <time>2009-03-22T10:46:46Z</time>
      </trkpt>
      <trkpt lat="49.25295" lon="1.43571">
        <ele>137</ele>
        <time>2009-03-22T10:46:50Z</time>
      </trkpt>
      <trkpt lat="49.253" lon="1.43585">
        <ele>137</ele>
        <time>2009-03-22T10:46:55Z</time>
      </trkpt>
      <trkpt lat="49.25306" lon="1.43598">
        <ele>137</ele>
        <time>2009-03-22T10:47:00Z</time>
      </trkpt>
      <trkpt lat="49.25312" lon="1.43611">
        <ele>137</ele>
        <time>2009-03-22T10:47:05Z</time>
      </trkpt>
      <trkpt lat="49.25318" lon="1.43622">
        <ele>137</ele>
        <time>2009-03-22T10:47:10Z</time>
      </trkpt>
      <trkpt lat="49.25328" lon="1.43619">
        <ele>137</ele>
        <time>2009-03-22T10:47:16Z</time>
      </trkpt>
      <trkpt lat="49.25337" lon="1.43613">
        <ele>137</ele>
        <time>2009-03-22T10:47:21Z</time>
      </trkpt>
      <trkpt lat="49.25346" lon="1.43612">
        <ele>130</ele>
        <time>2009-03-22T10:47:26Z</time>
      </trkpt>
      <trkpt lat="49.25354" lon="1.43618">
        <ele>130</ele>
        <time>2009-03-22T10:48:04Z</time>
      </trkpt>
      <trkpt lat="49.25362" lon="1.43627">
        <ele>130</ele>
        <time>2009-03-22T10:53:55Z</time>
      </trkpt>
      <trkpt lat="49.25371" lon="1.43638">
        <ele>130</ele>
        <time>2009-03-22T10:54:00Z</time>
      </trkpt>
      <trkpt lat="49.25381" lon="1.43648">
        <ele>130</ele>
        <time>2009-03-22T10:54:04Z</time>
      </trkpt>
      <trkpt lat="49.2539" lon="1.43656">
        <ele>130</ele>
        <time>2009-03-22T10:54:07Z</time>
      </trkpt>
      <trkpt lat="49.25399" lon="1.43666">
        <ele>130</ele>
        <time>2009-03-22T10:54:10Z</time>
      </trkpt>
      <trkpt lat="49.25409" lon="1.43676">
        <ele>130</ele>
        <time>2009-03-22T10:54:13Z</time>
      </trkpt>
      <trkpt lat="49.25419" lon="1.43686">
        <ele>130</ele>
        <time>2009-03-22T10:54:16Z</time>
      </trkpt>
      <trkpt lat="49.25429" lon="1.43696">
        <ele>130</ele>
        <time>2009-03-22T10:54:19Z</time>
      </trkpt>
      <trkpt lat="49.25439" lon="1.43705">
        <ele>130</ele>
        <time>2009-03-22T10:54:22Z</time>
      </trkpt>
      <trkpt lat="49.25449" lon="1.43699">
        <ele>130</ele>
        <time>2009-03-22T10:54:25Z</time>
      </trkpt>
      <trkpt lat="49.25458" lon="1.43687">
        <ele>130</ele>
        <time>2009-03-22T10:54:28Z</time>
      </trkpt>
      <trkpt lat="49.25468" lon="1.43677">
        <ele>130</ele>
        <time>2009-03-22T10:54:31Z</time>
      </trkpt>
      <trkpt lat="49.25479" lon="1.43666">
        <ele>130</ele>
        <time>2009-03-22T10:54:34Z</time>
      </trkpt>
      <trkpt lat="49.2549" lon="1.43654">
        <ele>130</ele>
        <time>2009-03-22T10:54:37Z</time>
      </trkpt>
      <trkpt lat="49.25497" lon="1.43646">
        <ele>130</ele>
        <time>2009-03-22T10:54:39Z</time>
      </trkpt>
      <trkpt lat="49.25506" lon="1.43638">
        <ele>130</ele>
        <time>2009-03-22T10:54:41Z</time>
      </trkpt>
      <trkpt lat="49.25516" lon="1.43626">
        <ele>130</ele>
        <time>2009-03-22T10:54:44Z</time>
      </trkpt>
      <trkpt lat="49.25527" lon="1.43616">
        <ele>130</ele>
        <time>2009-03-22T10:54:47Z</time>
      </trkpt>
      <trkpt lat="49.25537" lon="1.43604">
        <ele>130</ele>
        <time>2009-03-22T10:54:50Z</time>
      </trkpt>
      <trkpt lat="49.25547" lon="1.43593">
        <ele>130</ele>
        <time>2009-03-22T10:54:53Z</time>
      </trkpt>
      <trkpt lat="49.25558" lon="1.43581">
        <ele>130</ele>
        <time>2009-03-22T10:54:56Z</time>
      </trkpt>
      <trkpt lat="49.25568" lon="1.43571">
        <ele>130</ele>
        <time>2009-03-22T10:54:59Z</time>
      </trkpt>
      <trkpt lat="49.25579" lon="1.4356">
        <ele>130</ele>
        <time>2009-03-22T10:55:02Z</time>
      </trkpt>
      <trkpt lat="49.2559" lon="1.43548">
        <ele>130</ele>
        <time>2009-03-22T10:55:05Z</time>
      </trkpt>
      <trkpt lat="49.25601" lon="1.43536">
        <ele>130</ele>
        <time>2009-03-22T10:55:08Z</time>
      </trkpt>
      <trkpt lat="49.25612" lon="1.43525">
        <ele>130</ele>
        <time>2009-03-22T10:55:11Z</time>
      </trkpt>
      <trkpt lat="49.2562" lon="1.43517">
        <ele>130</ele>
        <time>2009-03-22T10:55:13Z</time>
      </trkpt>
      <trkpt lat="49.25627" lon="1.43509">
        <ele>130</ele>
        <time>2009-03-22T10:55:15Z</time>
      </trkpt>
      <trkpt lat="49.25635" lon="1.43501">
        <ele>130</ele>
        <time>2009-03-22T10:55:17Z</time>
      </trkpt>
      <trkpt lat="49.25646" lon="1.43488">
        <ele>130</ele>
        <time>2009-03-22T10:55:20Z</time>
      </trkpt>
      <trkpt lat="49.25654" lon="1.4348">
        <ele>130</ele>
        <time>2009-03-22T10:55:22Z</time>
      </trkpt>
      <trkpt lat="49.25662" lon="1.43471">
        <ele>130</ele>
        <time>2009-03-22T10:55:24Z</time>
      </trkpt>
      <trkpt lat="49.2567" lon="1.43462">
        <ele>130</ele>
        <time>2009-03-22T10:55:26Z</time>
      </trkpt>
      <trkpt lat="49.25678" lon="1.43453">
        <ele>130</ele>
        <time>2009-03-22T10:55:28Z</time>
      </trkpt>
      <trkpt lat="49.25687" lon="1.43444">
        <ele>130</ele>
        <time>2009-03-22T10:55:30Z</time>
      </trkpt>
      <trkpt lat="49.25695" lon="1.43434">
        <ele>130</ele>
        <time>2009-03-22T10:55:32Z</time>
      </trkpt>
      <trkpt lat="49.25704" lon="1.43425">
        <ele>130</ele>
        <time>2009-03-22T10:55:34Z</time>
      </trkpt>
      <trkpt lat="49.25713" lon="1.43415">
        <ele>130</ele>
        <time>2009-03-22T10:55:36Z</time>
      </trkpt>
      <trkpt lat="49.25721" lon="1.43407">
        <ele>130</ele>
        <time>2009-03-22T10:55:38Z</time>
      </trkpt>
      <trkpt lat="49.2573" lon="1.43398">
        <ele>130</ele>
        <time>2009-03-22T10:55:40Z</time>
      </trkpt>
      <trkpt lat="49.25738" lon="1.43389">
        <ele>130</ele>
        <time>2009-03-22T10:55:42Z</time>
      </trkpt>
      <trkpt lat="49.25748" lon="1.43383">
        <ele>130</ele>
        <time>2009-03-22T10:55:44Z</time>
      </trkpt>
      <trkpt lat="49.25759" lon="1.43377">
        <ele>130</ele>
        <time>2009-03-22T10:55:46Z</time>
      </trkpt>
      <trkpt lat="49.25772" lon="1.43373">
        <ele>130</ele>
        <time>2009-03-22T10:55:48Z</time>
      </trkpt>
      <trkpt lat="49.25785" lon="1.43369">
        <ele>130</ele>
        <time>2009-03-22T10:55:50Z</time>
      </trkpt>
      <trkpt lat="49.25798" lon="1.43366">
        <ele>130</ele>
        <time>2009-03-22T10:55:52Z</time>
      </trkpt>
      <trkpt lat="49.25809" lon="1.43365">
        <ele>130</ele>
        <time>2009-03-22T10:55:54Z</time>
      </trkpt>
      <trkpt lat="49.2582" lon="1.43366">
        <ele>130</ele>
        <time>2009-03-22T10:55:56Z</time>
      </trkpt>
      <trkpt lat="49.25831" lon="1.43368">
        <ele>125</ele>
        <time>2009-03-22T10:55:58Z</time>
      </trkpt>
      <trkpt lat="49.25841" lon="1.43371">
        <ele>125</ele>
        <time>2009-03-22T10:56:00Z</time>
      </trkpt>
      <trkpt lat="49.25855" lon="1.43376">
        <ele>125</ele>
        <time>2009-03-22T10:56:03Z</time>
      </trkpt>
      <trkpt lat="49.25864" lon="1.43379">
        <ele>125</ele>
        <time>2009-03-22T10:56:05Z</time>
      </trkpt>
      <trkpt lat="49.25876" lon="1.43387">
        <ele>125</ele>
        <time>2009-03-22T10:56:08Z</time>
      </trkpt>
      <trkpt lat="49.25885" lon="1.43391">
        <ele>125</ele>
        <time>2009-03-22T10:56:10Z</time>
      </trkpt>
      <trkpt lat="49.25894" lon="1.43395">
        <ele>125</ele>
        <time>2009-03-22T10:56:12Z</time>
      </trkpt>
      <trkpt lat="49.25902" lon="1.43402">
        <ele>125</ele>
        <time>2009-03-22T10:56:14Z</time>
      </trkpt>
      <trkpt lat="49.25911" lon="1.43414">
        <ele>125</ele>
        <time>2009-03-22T10:56:17Z</time>
      </trkpt>
      <trkpt lat="49.2592" lon="1.43428">
        <ele>125</ele>
        <time>2009-03-22T10:56:20Z</time>
      </trkpt>
      <trkpt lat="49.25925" lon="1.43439">
        <ele>125</ele>
        <time>2009-03-22T10:56:22Z</time>
      </trkpt>
      <trkpt lat="49.25935" lon="1.43452">
        <ele>125</ele>
        <time>2009-03-22T10:56:25Z</time>
      </trkpt>
      <trkpt lat="49.25944" lon="1.43459">
        <ele>125</ele>
        <time>2009-03-22T10:56:27Z</time>
      </trkpt>
      <trkpt lat="49.25953" lon="1.43465">
        <ele>125</ele>
        <time>2009-03-22T10:56:29Z</time>
      </trkpt>
      <trkpt lat="49.25962" lon="1.43472">
        <ele>125</ele>
        <time>2009-03-22T10:56:32Z</time>
      </trkpt>
      <trkpt lat="49.25972" lon="1.43472">
        <ele>125</ele>
        <time>2009-03-22T10:57:08Z</time>
      </trkpt>
      <trkpt lat="49.25978" lon="1.4346">
        <ele>125</ele>
        <time>2009-03-22T10:57:11Z</time>
      </trkpt>
      <trkpt lat="49.25987" lon="1.43446">
        <ele>125</ele>
        <time>2009-03-22T10:57:14Z</time>
      </trkpt>
      <trkpt lat="49.25995" lon="1.43436">
        <ele>125</ele>
        <time>2009-03-22T10:57:16Z</time>
      </trkpt>
      <trkpt lat="49.26003" lon="1.43429">
        <ele>125</ele>
        <time>2009-03-22T10:57:18Z</time>
      </trkpt>
      <trkpt lat="49.26014" lon="1.43426">
        <ele>125</ele>
        <time>2009-03-22T10:57:20Z</time>
      </trkpt>
      <trkpt lat="49.26027" lon="1.43424">
        <ele>125</ele>
        <time>2009-03-22T10:57:22Z</time>
      </trkpt>
      <trkpt lat="49.26041" lon="1.43421">
        <ele>125</ele>
        <time>2009-03-22T10:57:24Z</time>
      </trkpt>
      <trkpt lat="49.26054" lon="1.43414">
        <ele>119</ele>
        <time>2009-03-22T10:57:26Z</time>
      </trkpt>
      <trkpt lat="49.26067" lon="1.43404">
        <ele>119</ele>
        <time>2009-03-22T10:57:28Z</time>
      </trkpt>
      <trkpt lat="49.26081" lon="1.4339">
        <ele>119</ele>
        <time>2009-03-22T10:57:30Z</time>
      </trkpt>
      <trkpt lat="49.26095" lon="1.43374">
        <ele>119</ele>
        <time>2009-03-22T10:57:32Z</time>
      </trkpt>
      <trkpt lat="49.26102" lon="1.43366">
        <ele>119</ele>
        <time>2009-03-22T10:57:33Z</time>
      </trkpt>
      <trkpt lat="49.26111" lon="1.43357">
        <ele>119</ele>
        <time>2009-03-22T10:57:34Z</time>
      </trkpt>
      <trkpt lat="49.26119" lon="1.43348">
        <ele>119</ele>
        <time>2009-03-22T10:57:35Z</time>
      </trkpt>
      <trkpt lat="49.26127" lon="1.43339">
        <ele>119</ele>
        <time>2009-03-22T10:57:36Z</time>
      </trkpt>
      <trkpt lat="49.26136" lon="1.43332">
        <ele>113</ele>
        <time>2009-03-22T10:57:37Z</time>
      </trkpt>
      <trkpt lat="49.26145" lon="1.43325">
        <ele>113</ele>
        <time>2009-03-22T10:57:38Z</time>
      </trkpt>
      <trkpt lat="49.26155" lon="1.43321">
        <ele>113</ele>
        <time>2009-03-22T10:57:39Z</time>
      </trkpt>
      <trkpt lat="49.26165" lon="1.43318">
        <ele>113</ele>
        <time>2009-03-22T10:57:40Z</time>
      </trkpt>
      <trkpt lat="49.26175" lon="1.43313">
        <ele>113</ele>
        <time>2009-03-22T10:57:41Z</time>
      </trkpt>
      <trkpt lat="49.26184" lon="1.43309">
        <ele>113</ele>
        <time>2009-03-22T10:57:42Z</time>
      </trkpt>
      <trkpt lat="49.26194" lon="1.43306">
        <ele>113</ele>
        <time>2009-03-22T10:57:43Z</time>
      </trkpt>
      <trkpt lat="49.26203" lon="1.43301">
        <ele>113</ele>
        <time>2009-03-22T10:57:44Z</time>
      </trkpt>
      <trkpt lat="49.26213" lon="1.43296">
        <ele>113</ele>
        <time>2009-03-22T10:57:45Z</time>
      </trkpt>
      <trkpt lat="49.26222" lon="1.43289">
        <ele>113</ele>
        <time>2009-03-22T10:57:46Z</time>
      </trkpt>
      <trkpt lat="49.26231" lon="1.43283">
        <ele>113</ele>
        <time>2009-03-22T10:57:47Z</time>
      </trkpt>
      <trkpt lat="49.26239" lon="1.43277">
        <ele>113</ele>
        <time>2009-03-22T10:57:48Z</time>
      </trkpt>
      <trkpt lat="49.26255" lon="1.43265">
        <ele>113</ele>
        <time>2009-03-22T10:57:50Z</time>
      </trkpt>
      <trkpt lat="49.26271" lon="1.43255">
        <ele>107</ele>
        <time>2009-03-22T10:57:52Z</time>
      </trkpt>
      <trkpt lat="49.26286" lon="1.43245">
        <ele>107</ele>
        <time>2009-03-22T10:57:54Z</time>
      </trkpt>
      <trkpt lat="49.263" lon="1.43236">
        <ele>107</ele>
        <time>2009-03-22T10:57:56Z</time>
      </trkpt>
      <trkpt lat="49.26315" lon="1.43228">
        <ele>107</ele>
        <time>2009-03-22T10:57:58Z</time>
      </trkpt>
      <trkpt lat="49.26329" lon="1.43221">
        <ele>107</ele>
        <time>2009-03-22T10:58:00Z</time>
      </trkpt>
      <trkpt lat="49.26343" lon="1.43216">
        <ele>107</ele>
        <time>2009-03-22T10:58:02Z</time>
      </trkpt>
      <trkpt lat="49.2636" lon="1.43212">
        <ele>102</ele>
        <time>2009-03-22T10:58:04Z</time>
      </trkpt>
      <trkpt lat="49.26376" lon="1.43209">
        <ele>102</ele>
        <time>2009-03-22T10:58:06Z</time>
      </trkpt>
      <trkpt lat="49.26394" lon="1.43205">
        <ele>102</ele>
        <time>2009-03-22T10:58:08Z</time>
      </trkpt>
      <trkpt lat="49.26403" lon="1.43203">
        <ele>102</ele>
        <time>2009-03-22T10:58:09Z</time>
      </trkpt>
      <trkpt lat="49.2642" lon="1.43195">
        <ele>97</ele>
        <time>2009-03-22T10:58:11Z</time>
      </trkpt>
      <trkpt lat="49.26435" lon="1.4318">
        <ele>97</ele>
        <time>2009-03-22T10:58:13Z</time>
      </trkpt>
      <trkpt lat="49.26442" lon="1.43171">
        <ele>97</ele>
        <time>2009-03-22T10:58:14Z</time>
      </trkpt>
      <trkpt lat="49.26449" lon="1.43161">
        <ele>97</ele>
        <time>2009-03-22T10:58:15Z</time>
      </trkpt>
      <trkpt lat="49.26455" lon="1.43151">
        <ele>91</ele>
        <time>2009-03-22T10:58:16Z</time>
      </trkpt>
      <trkpt lat="49.26462" lon="1.43139">
        <ele>91</ele>
        <time>2009-03-22T10:58:17Z</time>
      </trkpt>
      <trkpt lat="49.26467" lon="1.43127">
        <ele>91</ele>
        <time>2009-03-22T10:58:18Z</time>
      </trkpt>
      <trkpt lat="49.26473" lon="1.43112">
        <ele>91</ele>
        <time>2009-03-22T10:58:19Z</time>
      </trkpt>
      <trkpt lat="49.26479" lon="1.43098">
        <ele>91</ele>
        <time>2009-03-22T10:58:20Z</time>
      </trkpt>
      <trkpt lat="49.26486" lon="1.43084">
        <ele>91</ele>
        <time>2009-03-22T10:58:21Z</time>
      </trkpt>
      <trkpt lat="49.26493" lon="1.4307">
        <ele>91</ele>
        <time>2009-03-22T10:58:22Z</time>
      </trkpt>
      <trkpt lat="49.265" lon="1.43055">
        <ele>86</ele>
        <time>2009-03-22T10:58:23Z</time>
      </trkpt>
      <trkpt lat="49.26507" lon="1.43041">
        <ele>86</ele>
        <time>2009-03-22T10:58:24Z</time>
      </trkpt>
      <trkpt lat="49.26516" lon="1.43025">
        <ele>86</ele>
        <time>2009-03-22T10:58:25Z</time>
      </trkpt>
      <trkpt lat="49.26524" lon="1.43011">
        <ele>86</ele>
        <time>2009-03-22T10:58:26Z</time>
      </trkpt>
      <trkpt lat="49.26533" lon="1.42997">
        <ele>81</ele>
        <time>2009-03-22T10:58:27Z</time>
      </trkpt>
      <trkpt lat="49.26542" lon="1.42982">
        <ele>81</ele>
        <time>2009-03-22T10:58:28Z</time>
      </trkpt>
      <trkpt lat="49.26551" lon="1.42969">
        <ele>81</ele>
        <time>2009-03-22T10:58:29Z</time>
      </trkpt>
      <trkpt lat="49.2656" lon="1.42955">
        <ele>81</ele>
        <time>2009-03-22T10:58:30Z</time>
      </trkpt>
      <trkpt lat="49.2657" lon="1.42943">
        <ele>81</ele>
        <time>2009-03-22T10:58:31Z</time>
      </trkpt>
      <trkpt lat="49.26579" lon="1.4293">
        <ele>75</ele>
        <time>2009-03-22T10:58:32Z</time>
      </trkpt>
      <trkpt lat="49.26589" lon="1.42918">
        <ele>75</ele>
        <time>2009-03-22T10:58:33Z</time>
      </trkpt>
      <trkpt lat="49.26599" lon="1.42906">
        <ele>75</ele>
        <time>2009-03-22T10:58:34Z</time>
      </trkpt>
      <trkpt lat="49.26608" lon="1.42894">
        <ele>75</ele>
        <time>2009-03-22T10:58:35Z</time>
      </trkpt>
      <trkpt lat="49.26617" lon="1.42882">
        <ele>75</ele>
        <time>2009-03-22T10:58:36Z</time>
      </trkpt>
      <trkpt lat="49.26627" lon="1.4287">
        <ele>70</ele>
        <time>2009-03-22T10:58:37Z</time>
      </trkpt>
      <trkpt lat="49.26636" lon="1.42858">
        <ele>70</ele>
        <time>2009-03-22T10:58:38Z</time>
      </trkpt>
      <trkpt lat="49.26646" lon="1.42846">
        <ele>70</ele>
        <time>2009-03-22T10:58:39Z</time>
      </trkpt>
      <trkpt lat="49.26655" lon="1.42833">
        <ele>70</ele>
        <time>2009-03-22T10:58:40Z</time>
      </trkpt>
      <trkpt lat="49.26664" lon="1.42821">
        <ele>70</ele>
        <time>2009-03-22T10:58:41Z</time>
      </trkpt>
      <trkpt lat="49.26674" lon="1.4281">
        <ele>70</ele>
        <time>2009-03-22T10:58:42Z</time>
      </trkpt>
      <trkpt lat="49.26684" lon="1.42797">
        <ele>64</ele>
        <time>2009-03-22T10:58:43Z</time>
      </trkpt>
      <trkpt lat="49.26693" lon="1.42786">
        <ele>64</ele>
        <time>2009-03-22T10:58:44Z</time>
      </trkpt>
      <trkpt lat="49.26701" lon="1.42776">
        <ele>64</ele>
        <time>2009-03-22T10:58:45Z</time>
      </trkpt>
      <trkpt lat="49.26708" lon="1.42767">
        <ele>64</ele>
        <time>2009-03-22T10:58:46Z</time>
      </trkpt>
      <trkpt lat="49.26715" lon="1.42758">
        <ele>64</ele>
        <time>2009-03-22T10:58:47Z</time>
      </trkpt>
      <trkpt lat="49.26722" lon="1.42749">
        <ele>64</ele>
        <time>2009-03-22T10:58:48Z</time>
      </trkpt>
      <trkpt lat="49.26737" lon="1.42735">
        <ele>58</ele>
        <time>2009-03-22T10:58:50Z</time>
      </trkpt>
      <trkpt lat="49.26753" lon="1.42724">
        <ele>58</ele>
        <time>2009-03-22T10:58:52Z</time>
      </trkpt>
      <trkpt lat="49.26769" lon="1.42715">
        <ele>58</ele>
        <time>2009-03-22T10:58:54Z</time>
      </trkpt>
      <trkpt lat="49.26785" lon="1.42707">
        <ele>52</ele>
        <time>2009-03-22T10:58:56Z</time>
      </trkpt>
      <trkpt lat="49.268" lon="1.42699">
        <ele>52</ele>
        <time>2009-03-22T10:58:58Z</time>
      </trkpt>
      <trkpt lat="49.2681" lon="1.42693">
        <ele>52</ele>
        <time>2009-03-22T10:59:00Z</time>
      </trkpt>
      <trkpt lat="49.26821" lon="1.42696">
        <ele>52</ele>
        <time>2009-03-22T10:59:03Z</time>
      </trkpt>
      <trkpt lat="49.2683" lon="1.42706">
        <ele>52</ele>
        <time>2009-03-22T10:59:06Z</time>
      </trkpt>
      <trkpt lat="49.26838" lon="1.42713">
        <ele>52</ele>
        <time>2009-03-22T10:59:09Z</time>
      </trkpt>
      <trkpt lat="49.26848" lon="1.42721">
        <ele>52</ele>
        <time>2009-03-22T10:59:12Z</time>
      </trkpt>
      <trkpt lat="49.26859" lon="1.42729">
        <ele>52</ele>
        <time>2009-03-22T10:59:15Z</time>
      </trkpt>
      <trkpt lat="49.2687" lon="1.42737">
        <ele>52</ele>
        <time>2009-03-22T10:59:18Z</time>
      </trkpt>
      <trkpt lat="49.26882" lon="1.42746">
        <ele>52</ele>
        <time>2009-03-22T10:59:21Z</time>
      </trkpt>
      <trkpt lat="49.26894" lon="1.42755">
        <ele>52</ele>
        <time>2009-03-22T10:59:24Z</time>
      </trkpt>
      <trkpt lat="49.26904" lon="1.42763">
        <ele>52</ele>
        <time>2009-03-22T10:59:27Z</time>
      </trkpt>
      <trkpt lat="49.26913" lon="1.42775">
        <ele>52</ele>
        <time>2009-03-22T10:59:30Z</time>
      </trkpt>
      <trkpt lat="49.2692" lon="1.4279">
        <ele>52</ele>
        <time>2009-03-22T10:59:33Z</time>
      </trkpt>
      <trkpt lat="49.26925" lon="1.42807">
        <ele>52</ele>
        <time>2009-03-22T10:59:36Z</time>
      </trkpt>
      <trkpt lat="49.26928" lon="1.42822">
        <ele>52</ele>
        <time>2009-03-22T10:59:39Z</time>
      </trkpt>
      <trkpt lat="49.26932" lon="1.42836">
        <ele>52</ele>
        <time>2009-03-22T10:59:42Z</time>
      </trkpt>
      <trkpt lat="49.26936" lon="1.42848">
        <ele>52</ele>
        <time>2009-03-22T10:59:46Z</time>
      </trkpt>
      <trkpt lat="49.26941" lon="1.42864">
        <ele>52</ele>
        <time>2009-03-22T10:59:51Z</time>
      </trkpt>
      <trkpt lat="49.26944" lon="1.42879">
        <ele>52</ele>
        <time>2009-03-22T10:59:56Z</time>
      </trkpt>
      <trkpt lat="49.26949" lon="1.42894">
        <ele>52</ele>
        <time>2009-03-22T11:00:01Z</time>
      </trkpt>
      <trkpt lat="49.26954" lon="1.4291">
        <ele>52</ele>
        <time>2009-03-22T11:00:06Z</time>
      </trkpt>
      <trkpt lat="49.26957" lon="1.42924">
        <ele>52</ele>
        <time>2009-03-22T11:00:11Z</time>
      </trkpt>
      <trkpt lat="49.26961" lon="1.42939">
        <ele>58</ele>
        <time>2009-03-22T11:00:16Z</time>
      </trkpt>
      <trkpt lat="49.26965" lon="1.42953">
        <ele>58</ele>
        <time>2009-03-22T11:00:21Z</time>
      </trkpt>
      <trkpt lat="49.26967" lon="1.42967">
        <ele>58</ele>
        <time>2009-03-22T11:00:26Z</time>
      </trkpt>
      <trkpt lat="49.26969" lon="1.42981">
        <ele>58</ele>
        <time>2009-03-22T11:00:31Z</time>
      </trkpt>
      <trkpt lat="49.26971" lon="1.42997">
        <ele>58</ele>
        <time>2009-03-22T11:00:36Z</time>
      </trkpt>
      <trkpt lat="49.26973" lon="1.43013">
        <ele>58</ele>
        <time>2009-03-22T11:00:42Z</time>
      </trkpt>
      <trkpt lat="49.26974" lon="1.43029">
        <ele>64</ele>
        <time>2009-03-22T11:00:48Z</time>
      </trkpt>
      <trkpt lat="49.26975" lon="1.43043">
        <ele>64</ele>
        <time>2009-03-22T11:00:54Z</time>
      </trkpt>
      <trkpt lat="49.26977" lon="1.43059">
        <ele>64</ele>
        <time>2009-03-22T11:01:00Z</time>
      </trkpt>
      <trkpt lat="49.26979" lon="1.43074">
        <ele>64</ele>
        <time>2009-03-22T11:01:05Z</time>
      </trkpt>
      <trkpt lat="49.26983" lon="1.43088">
        <ele>64</ele>
        <time>2009-03-22T11:01:10Z</time>
      </trkpt>
      <trkpt lat="49.26986" lon="1.43103">
        <ele>64</ele>
        <time>2009-03-22T11:01:15Z</time>
      </trkpt>
      <trkpt lat="49.26989" lon="1.43118">
        <ele>71</ele>
        <time>2009-03-22T11:01:20Z</time>
      </trkpt>
      <trkpt lat="49.26993" lon="1.43132">
        <ele>71</ele>
        <time>2009-03-22T11:01:25Z</time>
      </trkpt>
      <trkpt lat="49.26997" lon="1.43146">
        <ele>71</ele>
        <time>2009-03-22T11:01:29Z</time>
      </trkpt>
      <trkpt lat="49.27001" lon="1.43162">
        <ele>71</ele>
        <time>2009-03-22T11:01:33Z</time>
      </trkpt>
      <trkpt lat="49.27005" lon="1.43179">
        <ele>71</ele>
        <time>2009-03-22T11:01:37Z</time>
      </trkpt>
      <trkpt lat="49.27008" lon="1.43192">
        <ele>71</ele>
        <time>2009-03-22T11:01:40Z</time>
      </trkpt>
      <trkpt lat="49.27011" lon="1.43207">
        <ele>71</ele>
        <time>2009-03-22T11:01:43Z</time>
      </trkpt>
      <trkpt lat="49.27015" lon="1.43221">
        <ele>71</ele>
        <time>2009-03-22T11:01:46Z</time>
      </trkpt>
      <trkpt lat="49.2702" lon="1.43235">
        <ele>71</ele>
        <time>2009-03-22T11:01:49Z</time>
      </trkpt>
      <trkpt lat="49.27024" lon="1.43251">
        <ele>71</ele>
        <time>2009-03-22T11:01:52Z</time>
      </trkpt>
      <trkpt lat="49.27028" lon="1.43266">
        <ele>71</ele>
        <time>2009-03-22T11:01:55Z</time>
      </trkpt>
      <trkpt lat="49.27029" lon="1.43284">
        <ele>71</ele>
        <time>2009-03-22T11:01:58Z</time>
      </trkpt>
      <trkpt lat="49.27032" lon="1.43299">
        <ele>71</ele>
        <time>2009-03-22T11:02:01Z</time>
      </trkpt>
      <trkpt lat="49.27035" lon="1.43315">
        <ele>71</ele>
        <time>2009-03-22T11:02:04Z</time>
      </trkpt>
      <trkpt lat="49.27036" lon="1.43332">
        <ele>76</ele>
        <time>2009-03-22T11:02:08Z</time>
      </trkpt>
      <trkpt lat="49.27039" lon="1.43346">
        <ele>76</ele>
        <time>2009-03-22T11:02:11Z</time>
      </trkpt>
      <trkpt lat="49.27042" lon="1.43359">
        <ele>76</ele>
        <time>2009-03-22T11:02:14Z</time>
      </trkpt>
      <trkpt lat="49.27045" lon="1.43373">
        <ele>76</ele>
        <time>2009-03-22T11:02:17Z</time>
      </trkpt>
      <trkpt lat="49.27049" lon="1.4339">
        <ele>76</ele>
        <time>2009-03-22T11:02:21Z</time>
      </trkpt>
      <trkpt lat="49.27053" lon="1.43403">
        <ele>76</ele>
        <time>2009-03-22T11:02:24Z</time>
      </trkpt>
      <trkpt lat="49.27059" lon="1.43418">
        <ele>76</ele>
        <time>2009-03-22T11:02:28Z</time>
      </trkpt>
      <trkpt lat="49.27064" lon="1.43434">
        <ele>76</ele>
        <time>2009-03-22T11:02:31Z</time>
      </trkpt>
      <trkpt lat="49.27069" lon="1.43449">
        <ele>76</ele>
        <time>2009-03-22T11:02:34Z</time>
      </trkpt>
      <trkpt lat="49.27074" lon="1.43463">
        <ele>76</ele>
        <time>2009-03-22T11:02:37Z</time>
      </trkpt>
      <trkpt lat="49.27079" lon="1.43475">
        <ele>76</ele>
        <time>2009-03-22T11:02:40Z</time>
      </trkpt>
      <trkpt lat="49.27085" lon="1.43489">
        <ele>76</ele>
        <time>2009-03-22T11:02:43Z</time>
      </trkpt>
      <trkpt lat="49.27091" lon="1.435">
        <ele>81</ele>
        <time>2009-03-22T11:02:46Z</time>
      </trkpt>
      <trkpt lat="49.27097" lon="1.43511">
        <ele>81</ele>
        <time>2009-03-22T11:02:49Z</time>
      </trkpt>
      <trkpt lat="49.27106" lon="1.43524">
        <ele>81</ele>
        <time>2009-03-22T11:02:52Z</time>
      </trkpt>
      <trkpt lat="49.27116" lon="1.43536">
        <ele>81</ele>
        <time>2009-03-22T11:02:55Z</time>
      </trkpt>
      <trkpt lat="49.27126" lon="1.4355">
        <ele>81</ele>
        <time>2009-03-22T11:02:58Z</time>
      </trkpt>
      <trkpt lat="49.27132" lon="1.43562">
        <ele>81</ele>
        <time>2009-03-22T11:03:00Z</time>
      </trkpt>
      <trkpt lat="49.27142" lon="1.43571">
        <ele>81</ele>
        <time>2009-03-22T11:03:03Z</time>
      </trkpt>
      <trkpt lat="49.27152" lon="1.43576">
        <ele>81</ele>
        <time>2009-03-22T11:03:06Z</time>
      </trkpt>
      <trkpt lat="49.27163" lon="1.43576">
        <ele>81</ele>
        <time>2009-03-22T11:03:09Z</time>
      </trkpt>
      <trkpt lat="49.27175" lon="1.43579">
        <ele>81</ele>
        <time>2009-03-22T11:03:12Z</time>
      </trkpt>
      <trkpt lat="49.27185" lon="1.43581">
        <ele>81</ele>
        <time>2009-03-22T11:03:15Z</time>
      </trkpt>
      <trkpt lat="49.27197" lon="1.43586">
        <ele>81</ele>
        <time>2009-03-22T11:03:18Z</time>
      </trkpt>
      <trkpt lat="49.2721" lon="1.43587">
        <ele>81</ele>
        <time>2009-03-22T11:03:21Z</time>
      </trkpt>
      <trkpt lat="49.2722" lon="1.43588">
        <ele>81</ele>
        <time>2009-03-22T11:03:23Z</time>
      </trkpt>
      <trkpt lat="49.27233" lon="1.43587">
        <ele>81</ele>
        <time>2009-03-22T11:03:26Z</time>
      </trkpt>
      <trkpt lat="49.27245" lon="1.43582">
        <ele>81</ele>
        <time>2009-03-22T11:03:29Z</time>
      </trkpt>
      <trkpt lat="49.27256" lon="1.43578">
        <ele>81</ele>
        <time>2009-03-22T11:03:32Z</time>
      </trkpt>
      <trkpt lat="49.27269" lon="1.43572">
        <ele>81</ele>
        <time>2009-03-22T11:03:35Z</time>
      </trkpt>
      <trkpt lat="49.2728" lon="1.43563">
        <ele>89</ele>
        <time>2009-03-22T11:03:38Z</time>
      </trkpt>
      <trkpt lat="49.27293" lon="1.43555">
        <ele>89</ele>
        <time>2009-03-22T11:03:41Z</time>
      </trkpt>
      <trkpt lat="49.27301" lon="1.43549">
        <ele>89</ele>
        <time>2009-03-22T11:03:43Z</time>
      </trkpt>
      <trkpt lat="49.2731" lon="1.43543">
        <ele>89</ele>
        <time>2009-03-22T11:03:45Z</time>
      </trkpt>
      <trkpt lat="49.27323" lon="1.43536">
        <ele>89</ele>
        <time>2009-03-22T11:03:48Z</time>
      </trkpt>
      <trkpt lat="49.27333" lon="1.43532">
        <ele>89</ele>
        <time>2009-03-22T11:03:50Z</time>
      </trkpt>
      <trkpt lat="49.27343" lon="1.4353">
        <ele>89</ele>
        <time>2009-03-22T11:03:52Z</time>
      </trkpt>
      <trkpt lat="49.27355" lon="1.43527">
        <ele>89</ele>
        <time>2009-03-22T11:03:55Z</time>
      </trkpt>
      <trkpt lat="49.27367" lon="1.43524">
        <ele>89</ele>
        <time>2009-03-22T11:03:58Z</time>
      </trkpt>
      <trkpt lat="49.27379" lon="1.4352">
        <ele>89</ele>
        <time>2009-03-22T11:04:01Z</time>
      </trkpt>
      <trkpt lat="49.27389" lon="1.43519">
        <ele>83</ele>
        <time>2009-03-22T11:04:04Z</time>
      </trkpt>
      <trkpt lat="49.27399" lon="1.43523">
        <ele>83</ele>
        <time>2009-03-22T11:04:07Z</time>
      </trkpt>
      <trkpt lat="49.27409" lon="1.43529">
        <ele>83</ele>
        <time>2009-03-22T11:04:10Z</time>
      </trkpt>
      <trkpt lat="49.27418" lon="1.43536">
        <ele>78</ele>
        <time>2009-03-22T11:04:13Z</time>
      </trkpt>
      <trkpt lat="49.27429" lon="1.43543">
        <ele>78</ele>
        <time>2009-03-22T11:04:16Z</time>
      </trkpt>
      <trkpt lat="49.2744" lon="1.43551">
        <ele>78</ele>
        <time>2009-03-22T11:04:19Z</time>
      </trkpt>
      <trkpt lat="49.27449" lon="1.4356">
        <ele>78</ele>
        <time>2009-03-22T11:04:22Z</time>
      </trkpt>
      <trkpt lat="49.27458" lon="1.43571">
        <ele>78</ele>
        <time>2009-03-22T11:04:25Z</time>
      </trkpt>
      <trkpt lat="49.27467" lon="1.43582">
        <ele>78</ele>
        <time>2009-03-22T11:04:28Z</time>
      </trkpt>
      <trkpt lat="49.27475" lon="1.43594">
        <ele>78</ele>
        <time>2009-03-22T11:04:31Z</time>
      </trkpt>
      <trkpt lat="49.27481" lon="1.43607">
        <ele>78</ele>
        <time>2009-03-22T11:04:34Z</time>
      </trkpt>
      <trkpt lat="49.27488" lon="1.4362">
        <ele>78</ele>
        <time>2009-03-22T11:04:37Z</time>
      </trkpt>
      <trkpt lat="49.27494" lon="1.43633">
        <ele>78</ele>
        <time>2009-03-22T11:04:40Z</time>
      </trkpt>
      <trkpt lat="49.27502" lon="1.43647">
        <ele>78</ele>
        <time>2009-03-22T11:04:43Z</time>
      </trkpt>
      <trkpt lat="49.27507" lon="1.43665">
        <ele>78</ele>
        <time>2009-03-22T11:04:46Z</time>
      </trkpt>
      <trkpt lat="49.27513" lon="1.43683">
        <ele>78</ele>
        <time>2009-03-22T11:04:49Z</time>
      </trkpt>
      <trkpt lat="49.27518" lon="1.43695">
        <ele>78</ele>
        <time>2009-03-22T11:04:52Z</time>
      </trkpt>
      <trkpt lat="49.27524" lon="1.4371">
        <ele>78</ele>
        <time>2009-03-22T11:04:55Z</time>
      </trkpt>
      <trkpt lat="49.27526" lon="1.43725">
        <ele>78</ele>
        <time>2009-03-22T11:04:58Z</time>
      </trkpt>
      <trkpt lat="49.27532" lon="1.43739">
        <ele>85</ele>
        <time>2009-03-22T11:05:01Z</time>
      </trkpt>
      <trkpt lat="49.2754" lon="1.43754">
        <ele>85</ele>
        <time>2009-03-22T11:05:04Z</time>
      </trkpt>
      <trkpt lat="49.27546" lon="1.43768">
        <ele>91</ele>
        <time>2009-03-22T11:05:07Z</time>
      </trkpt>
      <trkpt lat="49.27552" lon="1.43783">
        <ele>91</ele>
        <time>2009-03-22T11:05:10Z</time>
      </trkpt>
      <trkpt lat="49.27555" lon="1.43802">
        <ele>91</ele>
        <time>2009-03-22T11:05:13Z</time>
      </trkpt>
      <trkpt lat="49.27559" lon="1.43821">
        <ele>91</ele>
        <time>2009-03-22T11:05:16Z</time>
      </trkpt>
      <trkpt lat="49.27562" lon="1.43837">
        <ele>91</ele>
        <time>2009-03-22T11:05:19Z</time>
      </trkpt>
      <trkpt lat="49.2757" lon="1.43853">
        <ele>91</ele>
        <time>2009-03-22T11:05:22Z</time>
      </trkpt>
      <trkpt lat="49.27574" lon="1.43865">
        <ele>91</ele>
        <time>2009-03-22T11:05:24Z</time>
      </trkpt>
      <trkpt lat="49.27578" lon="1.43882">
        <ele>91</ele>
        <time>2009-03-22T11:05:27Z</time>
      </trkpt>
      <trkpt lat="49.27583" lon="1.43898">
        <ele>91</ele>
        <time>2009-03-22T11:05:30Z</time>
      </trkpt>
      <trkpt lat="49.27588" lon="1.43914">
        <ele>86</ele>
        <time>2009-03-22T11:05:33Z</time>
      </trkpt>
      <trkpt lat="49.27592" lon="1.43927">
        <ele>86</ele>
        <time>2009-03-22T11:05:36Z</time>
      </trkpt>
      <trkpt lat="49.27595" lon="1.43941">
        <ele>86</ele>
        <time>2009-03-22T11:05:39Z</time>
      </trkpt>
      <trkpt lat="49.27598" lon="1.43956">
        <ele>86</ele>
        <time>2009-03-22T11:05:42Z</time>
      </trkpt>
      <trkpt lat="49.27603" lon="1.4397">
        <ele>86</ele>
        <time>2009-03-22T11:05:45Z</time>
      </trkpt>
      <trkpt lat="49.27608" lon="1.43987">
        <ele>86</ele>
        <time>2009-03-22T11:05:48Z</time>
      </trkpt>
      <trkpt lat="49.27614" lon="1.44003">
        <ele>80</ele>
        <time>2009-03-22T11:05:51Z</time>
      </trkpt>
      <trkpt lat="49.2762" lon="1.44019">
        <ele>80</ele>
        <time>2009-03-22T11:05:54Z</time>
      </trkpt>
      <trkpt lat="49.27624" lon="1.44033">
        <ele>80</ele>
        <time>2009-03-22T11:05:57Z</time>
      </trkpt>
      <trkpt lat="49.27629" lon="1.44047">
        <ele>80</ele>
        <time>2009-03-22T11:06:00Z</time>
      </trkpt>
      <trkpt lat="49.27634" lon="1.44061">
        <ele>80</ele>
        <time>2009-03-22T11:06:03Z</time>
      </trkpt>
      <trkpt lat="49.27639" lon="1.44075">
        <ele>80</ele>
        <time>2009-03-22T11:06:07Z</time>
      </trkpt>
      <trkpt lat="49.27642" lon="1.44089">
        <ele>80</ele>
        <time>2009-03-22T11:06:11Z</time>
      </trkpt>
      <trkpt lat="49.27643" lon="1.44103">
        <ele>80</ele>
        <time>2009-03-22T11:06:32Z</time>
      </trkpt>
      <trkpt lat="49.27641" lon="1.44118">
        <ele>80</ele>
        <time>2009-03-22T11:08:51Z</time>
      </trkpt>
      <trkpt lat="49.27651" lon="1.4412">
        <ele>80</ele>
        <time>2009-03-22T11:12:34Z</time>
      </trkpt>
      <trkpt lat="49.27655" lon="1.44136">
        <ele>80</ele>
        <time>2009-03-22T11:12:39Z</time>
      </trkpt>
      <trkpt lat="49.2766" lon="1.4415">
        <ele>80</ele>
        <time>2009-03-22T11:12:43Z</time>
      </trkpt>
      <trkpt lat="49.27664" lon="1.44163">
        <ele>80</ele>
        <time>2009-03-22T11:12:47Z</time>
      </trkpt>
      <trkpt lat="49.27668" lon="1.44178">
        <ele>80</ele>
        <time>2009-03-22T11:12:51Z</time>
      </trkpt>
      <trkpt lat="49.27672" lon="1.44192">
        <ele>80</ele>
        <time>2009-03-22T11:12:55Z</time>
      </trkpt>
      <trkpt lat="49.27679" lon="1.44208">
        <ele>80</ele>
        <time>2009-03-22T11:12:59Z</time>
      </trkpt>
      <trkpt lat="49.27685" lon="1.44223">
        <ele>80</ele>
        <time>2009-03-22T11:13:03Z</time>
      </trkpt>
      <trkpt lat="49.27692" lon="1.44236">
        <ele>80</ele>
        <time>2009-03-22T11:13:07Z</time>
      </trkpt>
      <trkpt lat="49.27701" lon="1.44251">
        <ele>80</ele>
        <time>2009-03-22T11:13:11Z</time>
      </trkpt>
      <trkpt lat="49.27707" lon="1.44261">
        <ele>80</ele>
        <time>2009-03-22T11:13:14Z</time>
      </trkpt>
      <trkpt lat="49.27715" lon="1.44272">
        <ele>80</ele>
        <time>2009-03-22T11:13:17Z</time>
      </trkpt>
      <trkpt lat="49.27723" lon="1.44282">
        <ele>86</ele>
        <time>2009-03-22T11:13:20Z</time>
      </trkpt>
      <trkpt lat="49.27731" lon="1.44292">
        <ele>86</ele>
        <time>2009-03-22T11:13:23Z</time>
      </trkpt>
      <trkpt lat="49.27738" lon="1.44304">
        <ele>86</ele>
        <time>2009-03-22T11:13:26Z</time>
      </trkpt>
      <trkpt lat="49.27747" lon="1.44314">
        <ele>86</ele>
        <time>2009-03-22T11:13:29Z</time>
      </trkpt>
      <trkpt lat="49.27755" lon="1.44325">
        <ele>86</ele>
        <time>2009-03-22T11:13:32Z</time>
      </trkpt>
      <trkpt lat="49.27765" lon="1.44334">
        <ele>91</ele>
        <time>2009-03-22T11:13:35Z</time>
      </trkpt>
      <trkpt lat="49.27774" lon="1.44346">
        <ele>91</ele>
        <time>2009-03-22T11:13:38Z</time>
      </trkpt>
      <trkpt lat="49.27786" lon="1.44354">
        <ele>91</ele>
        <time>2009-03-22T11:13:41Z</time>
      </trkpt>
      <trkpt lat="49.27797" lon="1.44362">
        <ele>85</ele>
        <time>2009-03-22T11:13:44Z</time>
      </trkpt>
      <trkpt lat="49.27806" lon="1.44372">
        <ele>85</ele>
        <time>2009-03-22T11:13:47Z</time>
      </trkpt>
      <trkpt lat="49.27816" lon="1.4438">
        <ele>85</ele>
        <time>2009-03-22T11:13:50Z</time>
      </trkpt>
      <trkpt lat="49.27825" lon="1.44389">
        <ele>85</ele>
        <time>2009-03-22T11:13:53Z</time>
      </trkpt>
      <trkpt lat="49.27835" lon="1.44399">
        <ele>80</ele>
        <time>2009-03-22T11:13:56Z</time>
      </trkpt>
      <trkpt lat="49.27847" lon="1.44409">
        <ele>80</ele>
        <time>2009-03-22T11:13:59Z</time>
      </trkpt>
      <trkpt lat="49.27859" lon="1.44418">
        <ele>80</ele>
        <time>2009-03-22T11:14:02Z</time>
      </trkpt>
      <trkpt lat="49.27869" lon="1.44424">
        <ele>80</ele>
        <time>2009-03-22T11:14:04Z</time>
      </trkpt>
      <trkpt lat="49.27877" lon="1.44432">
        <ele>80</ele>
        <time>2009-03-22T11:14:06Z</time>
      </trkpt>
      <trkpt lat="49.27885" lon="1.4444">
        <ele>80</ele>
        <time>2009-03-22T11:14:08Z</time>
      </trkpt>
      <trkpt lat="49.27895" lon="1.44449">
        <ele>80</ele>
        <time>2009-03-22T11:14:10Z</time>
      </trkpt>
      <trkpt lat="49.27903" lon="1.44456">
        <ele>80</ele>
        <time>2009-03-22T11:14:12Z</time>
      </trkpt>
      <trkpt lat="49.27912" lon="1.44464">
        <ele>80</ele>
        <time>2009-03-22T11:14:14Z</time>
      </trkpt>
      <trkpt lat="49.27921" lon="1.44471">
        <ele>80</ele>
        <time>2009-03-22T11:14:16Z</time>
      </trkpt>
      <trkpt lat="49.2793" lon="1.44479">
        <ele>80</ele>
        <time>2009-03-22T11:14:18Z</time>
      </trkpt>
      <trkpt lat="49.27939" lon="1.44486">
        <ele>80</ele>
        <time>2009-03-22T11:14:20Z</time>
      </trkpt>
      <trkpt lat="49.27948" lon="1.44494">
        <ele>80</ele>
        <time>2009-03-22T11:14:22Z</time>
      </trkpt>
      <trkpt lat="49.27958" lon="1.44501">
        <ele>80</ele>
        <time>2009-03-22T11:14:24Z</time>
      </trkpt>
      <trkpt lat="49.27966" lon="1.44509">
        <ele>80</ele>
        <time>2009-03-22T11:14:26Z</time>
      </trkpt>
      <trkpt lat="49.27974" lon="1.44517">
        <ele>80</ele>
        <time>2009-03-22T11:14:28Z</time>
      </trkpt>
      <trkpt lat="49.27986" lon="1.44526">
        <ele>80</ele>
        <time>2009-03-22T11:14:31Z</time>
      </trkpt>
      <trkpt lat="49.27996" lon="1.44535">
        <ele>80</ele>
        <time>2009-03-22T11:14:34Z</time>
      </trkpt>
      <trkpt lat="49.28006" lon="1.44543">
        <ele>80</ele>
        <time>2009-03-22T11:14:37Z</time>
      </trkpt>
      <trkpt lat="49.28016" lon="1.44552">
        <ele>80</ele>
        <time>2009-03-22T11:14:40Z</time>
      </trkpt>
      <trkpt lat="49.28027" lon="1.44562">
        <ele>80</ele>
        <time>2009-03-22T11:14:43Z</time>
      </trkpt>
      <trkpt lat="49.28036" lon="1.44571">
        <ele>80</ele>
        <time>2009-03-22T11:14:46Z</time>
      </trkpt>
      <trkpt lat="49.28047" lon="1.4458">
        <ele>80</ele>
        <time>2009-03-22T11:14:49Z</time>
      </trkpt>
      <trkpt lat="49.28057" lon="1.4459">
        <ele>80</ele>
        <time>2009-03-22T11:14:52Z</time>
      </trkpt>
      <trkpt lat="49.28068" lon="1.44602">
        <ele>80</ele>
        <time>2009-03-22T11:14:55Z</time>
      </trkpt>
      <trkpt lat="49.28077" lon="1.44611">
        <ele>80</ele>
        <time>2009-03-22T11:14:58Z</time>
      </trkpt>
      <trkpt lat="49.28087" lon="1.44619">
        <ele>80</ele>
        <time>2009-03-22T11:15:01Z</time>
      </trkpt>
      <trkpt lat="49.28097" lon="1.44626">
        <ele>80</ele>
        <time>2009-03-22T11:15:04Z</time>
      </trkpt>
      <trkpt lat="49.28107" lon="1.44636">
        <ele>80</ele>
        <time>2009-03-22T11:15:07Z</time>
      </trkpt>
      <trkpt lat="49.28119" lon="1.44647">
        <ele>80</ele>
        <time>2009-03-22T11:15:10Z</time>
      </trkpt>
      <trkpt lat="49.28128" lon="1.44654">
        <ele>74</ele>
        <time>2009-03-22T11:15:13Z</time>
      </trkpt>
      <trkpt lat="49.28138" lon="1.44658">
        <ele>74</ele>
        <time>2009-03-22T11:15:17Z</time>
      </trkpt>
      <trkpt lat="49.28149" lon="1.44667">
        <ele>74</ele>
        <time>2009-03-22T11:15:20Z</time>
      </trkpt>
      <trkpt lat="49.28157" lon="1.44675">
        <ele>74</ele>
        <time>2009-03-22T11:15:22Z</time>
      </trkpt>
      <trkpt lat="49.28164" lon="1.44684">
        <ele>74</ele>
        <time>2009-03-22T11:15:24Z</time>
      </trkpt>
      <trkpt lat="49.28175" lon="1.44687">
        <ele>83</ele>
        <time>2009-03-22T11:15:27Z</time>
      </trkpt>
      <trkpt lat="49.28188" lon="1.44692">
        <ele>83</ele>
        <time>2009-03-22T11:15:30Z</time>
      </trkpt>
      <trkpt lat="49.28199" lon="1.44696">
        <ele>90</ele>
        <time>2009-03-22T11:15:33Z</time>
      </trkpt>
      <trkpt lat="49.28208" lon="1.447">
        <ele>90</ele>
        <time>2009-03-22T11:15:35Z</time>
      </trkpt>
      <trkpt lat="49.28218" lon="1.447">
        <ele>90</ele>
        <time>2009-03-22T11:15:38Z</time>
      </trkpt>
      <trkpt lat="49.2823" lon="1.447">
        <ele>90</ele>
        <time>2009-03-22T11:15:41Z</time>
      </trkpt>
      <trkpt lat="49.28238" lon="1.44695">
        <ele>90</ele>
        <time>2009-03-22T11:15:43Z</time>
      </trkpt>
      <trkpt lat="49.28248" lon="1.44691">
        <ele>90</ele>
        <time>2009-03-22T11:15:45Z</time>
      </trkpt>
      <trkpt lat="49.28257" lon="1.44687">
        <ele>90</ele>
        <time>2009-03-22T11:15:47Z</time>
      </trkpt>
      <trkpt lat="49.28267" lon="1.44681">
        <ele>90</ele>
        <time>2009-03-22T11:15:50Z</time>
      </trkpt>
      <trkpt lat="49.28277" lon="1.44676">
        <ele>90</ele>
        <time>2009-03-22T11:15:53Z</time>
      </trkpt>
      <trkpt lat="49.28287" lon="1.44674">
        <ele>90</ele>
        <time>2009-03-22T11:15:56Z</time>
      </trkpt>
      <trkpt lat="49.28297" lon="1.4467">
        <ele>90</ele>
        <time>2009-03-22T11:16:00Z</time>
      </trkpt>
      <trkpt lat="49.28307" lon="1.44666">
        <ele>90</ele>
        <time>2009-03-22T11:16:07Z</time>
      </trkpt>
      <trkpt lat="49.28317" lon="1.44669">
        <ele>82</ele>
        <time>2009-03-22T11:17:10Z</time>
      </trkpt>
      <trkpt lat="49.28325" lon="1.4466">
        <ele>82</ele>
        <time>2009-03-22T11:17:14Z</time>
      </trkpt>
      <trkpt lat="49.28333" lon="1.44651">
        <ele>82</ele>
        <time>2009-03-22T11:17:17Z</time>
      </trkpt>
      <trkpt lat="49.28342" lon="1.4464">
        <ele>82</ele>
        <time>2009-03-22T11:17:20Z</time>
      </trkpt>
      <trkpt lat="49.28353" lon="1.44627">
        <ele>82</ele>
        <time>2009-03-22T11:17:23Z</time>
      </trkpt>
      <trkpt lat="49.28361" lon="1.44617">
        <ele>82</ele>
        <time>2009-03-22T11:17:25Z</time>
      </trkpt>
      <trkpt lat="49.28369" lon="1.44607">
        <ele>82</ele>
        <time>2009-03-22T11:17:27Z</time>
      </trkpt>
      <trkpt lat="49.28377" lon="1.44595">
        <ele>77</ele>
        <time>2009-03-22T11:17:29Z</time>
      </trkpt>
      <trkpt lat="49.28385" lon="1.4458">
        <ele>77</ele>
        <time>2009-03-22T11:17:31Z</time>
      </trkpt>
      <trkpt lat="49.28394" lon="1.44566">
        <ele>77</ele>
        <time>2009-03-22T11:17:33Z</time>
      </trkpt>
      <trkpt lat="49.28401" lon="1.44548">
        <ele>77</ele>
        <time>2009-03-22T11:17:35Z</time>
      </trkpt>
      <trkpt lat="49.28408" lon="1.4453">
        <ele>77</ele>
        <time>2009-03-22T11:17:37Z</time>
      </trkpt>
      <trkpt lat="49.28412" lon="1.44508">
        <ele>77</ele>
        <time>2009-03-22T11:17:39Z</time>
      </trkpt>
      <trkpt lat="49.28409" lon="1.44483">
        <ele>77</ele>
        <time>2009-03-22T11:17:41Z</time>
      </trkpt>
      <trkpt lat="49.28406" lon="1.44461">
        <ele>77</ele>
        <time>2009-03-22T11:17:43Z</time>
      </trkpt>
      <trkpt lat="49.28399" lon="1.4444">
        <ele>77</ele>
        <time>2009-03-22T11:17:45Z</time>
      </trkpt>
      <trkpt lat="49.28392" lon="1.44423">
        <ele>77</ele>
        <time>2009-03-22T11:17:47Z</time>
      </trkpt>
      <trkpt lat="49.28385" lon="1.44409">
        <ele>77</ele>
        <time>2009-03-22T11:17:49Z</time>
      </trkpt>
      <trkpt lat="49.28377" lon="1.44396">
        <ele>77</ele>
        <time>2009-03-22T11:17:51Z</time>
      </trkpt>
      <trkpt lat="49.2837" lon="1.44385">
        <ele>77</ele>
        <time>2009-03-22T11:17:53Z</time>
      </trkpt>
      <trkpt lat="49.28363" lon="1.44375">
        <ele>77</ele>
        <time>2009-03-22T11:17:55Z</time>
      </trkpt>
      <trkpt lat="49.28357" lon="1.44364">
        <ele>77</ele>
        <time>2009-03-22T11:17:57Z</time>
      </trkpt>
      <trkpt lat="49.28351" lon="1.44353">
        <ele>77</ele>
        <time>2009-03-22T11:17:59Z</time>
      </trkpt>
      <trkpt lat="49.28345" lon="1.44341">
        <ele>77</ele>
        <time>2009-03-22T11:18:01Z</time>
      </trkpt>
      <trkpt lat="49.28339" lon="1.44324">
        <ele>77</ele>
        <time>2009-03-22T11:18:04Z</time>
      </trkpt>
      <trkpt lat="49.28334" lon="1.44308">
        <ele>77</ele>
        <time>2009-03-22T11:18:07Z</time>
      </trkpt>
      <trkpt lat="49.28329" lon="1.44292">
        <ele>77</ele>
        <time>2009-03-22T11:18:10Z</time>
      </trkpt>
      <trkpt lat="49.28324" lon="1.44276">
        <ele>77</ele>
        <time>2009-03-22T11:18:13Z</time>
      </trkpt>
      <trkpt lat="49.2832" lon="1.44261">
        <ele>77</ele>
        <time>2009-03-22T11:18:16Z</time>
      </trkpt>
      <trkpt lat="49.28315" lon="1.44246">
        <ele>77</ele>
        <time>2009-03-22T11:18:19Z</time>
      </trkpt>
      <trkpt lat="49.28312" lon="1.44232">
        <ele>77</ele>
        <time>2009-03-22T11:18:22Z</time>
      </trkpt>
      <trkpt lat="49.28309" lon="1.44217">
        <ele>77</ele>
        <time>2009-03-22T11:18:25Z</time>
      </trkpt>
      <trkpt lat="49.28305" lon="1.44201">
        <ele>82</ele>
        <time>2009-03-22T11:18:29Z</time>
      </trkpt>
      <trkpt lat="49.28301" lon="1.44186">
        <ele>82</ele>
        <time>2009-03-22T11:18:33Z</time>
      </trkpt>
      <trkpt lat="49.28297" lon="1.44172">
        <ele>82</ele>
        <time>2009-03-22T11:18:37Z</time>
      </trkpt>
      <trkpt lat="49.28293" lon="1.44158">
        <ele>82</ele>
        <time>2009-03-22T11:18:41Z</time>
      </trkpt>
      <trkpt lat="49.28288" lon="1.44144">
        <ele>82</ele>
        <time>2009-03-22T11:18:45Z</time>
      </trkpt>
      <trkpt lat="49.28285" lon="1.44129">
        <ele>82</ele>
        <time>2009-03-22T11:18:49Z</time>
      </trkpt>
      <trkpt lat="49.28283" lon="1.44115">
        <ele>87</ele>
        <time>2009-03-22T11:18:53Z</time>
      </trkpt>
      <trkpt lat="49.28283" lon="1.441">
        <ele>87</ele>
        <time>2009-03-22T11:18:57Z</time>
      </trkpt>
      <trkpt lat="49.28285" lon="1.44085">
        <ele>87</ele>
        <time>2009-03-22T11:19:01Z</time>
      </trkpt>
      <trkpt lat="49.28291" lon="1.44073">
        <ele>87</ele>
        <time>2009-03-22T11:19:05Z</time>
      </trkpt>
      <trkpt lat="49.28297" lon="1.44062">
        <ele>87</ele>
        <time>2009-03-22T11:19:09Z</time>
      </trkpt>
      <trkpt lat="49.28307" lon="1.44053">
        <ele>87</ele>
        <time>2009-03-22T11:19:14Z</time>
      </trkpt>
      <trkpt lat="49.28316" lon="1.44048">
        <ele>87</ele>
        <time>2009-03-22T11:19:18Z</time>
      </trkpt>
      <trkpt lat="49.28325" lon="1.44046">
        <ele>87</ele>
        <time>2009-03-22T11:19:22Z</time>
      </trkpt>
      <trkpt lat="49.28335" lon="1.44043">
        <ele>93</ele>
        <time>2009-03-22T11:19:26Z</time>
      </trkpt>
      <trkpt lat="49.28345" lon="1.44041">
        <ele>93</ele>
        <time>2009-03-22T11:19:31Z</time>
      </trkpt>
      <trkpt lat="49.28355" lon="1.44039">
        <ele>93</ele>
        <time>2009-03-22T11:19:35Z</time>
      </trkpt>
      <trkpt lat="49.28365" lon="1.44034">
        <ele>93</ele>
        <time>2009-03-22T11:19:40Z</time>
      </trkpt>
      <trkpt lat="49.28375" lon="1.44031">
        <ele>93</ele>
        <time>2009-03-22T11:19:45Z</time>
      </trkpt>
      <trkpt lat="49.28386" lon="1.44025">
        <ele>93</ele>
        <time>2009-03-22T11:19:50Z</time>
      </trkpt>
      <trkpt lat="49.28395" lon="1.44019">
        <ele>93</ele>
        <time>2009-03-22T11:19:55Z</time>
      </trkpt>
      <trkpt lat="49.28405" lon="1.4401">
        <ele>93</ele>
        <time>2009-03-22T11:20:00Z</time>
      </trkpt>
      <trkpt lat="49.28414" lon="1.44001">
        <ele>93</ele>
        <time>2009-03-22T11:20:05Z</time>
      </trkpt>
      <trkpt lat="49.28422" lon="1.4399">
        <ele>93</ele>
        <time>2009-03-22T11:20:10Z</time>
      </trkpt>
      <trkpt lat="49.28428" lon="1.43979">
        <ele>93</ele>
        <time>2009-03-22T11:20:14Z</time>
      </trkpt>
      <trkpt lat="49.28434" lon="1.43967">
        <ele>93</ele>
        <time>2009-03-22T11:20:19Z</time>
      </trkpt>
      <trkpt lat="49.2844" lon="1.43954">
        <ele>93</ele>
        <time>2009-03-22T11:20:24Z</time>
      </trkpt>
      <trkpt lat="49.28445" lon="1.43941">
        <ele>99</ele>
        <time>2009-03-22T11:20:29Z</time>
      </trkpt>
      <trkpt lat="49.28451" lon="1.43928">
        <ele>99</ele>
        <time>2009-03-22T11:20:34Z</time>
      </trkpt>
      <trkpt lat="49.28457" lon="1.43916">
        <ele>99</ele>
        <time>2009-03-22T11:20:39Z</time>
      </trkpt>
      <trkpt lat="49.28464" lon="1.43907">
        <ele>99</ele>
        <time>2009-03-22T11:20:44Z</time>
      </trkpt>
      <trkpt lat="49.28471" lon="1.43897">
        <ele>99</ele>
        <time>2009-03-22T11:20:49Z</time>
      </trkpt>
      <trkpt lat="49.28479" lon="1.43889">
        <ele>105</ele>
        <time>2009-03-22T11:20:54Z</time>
      </trkpt>
      <trkpt lat="49.28488" lon="1.43882">
        <ele>105</ele>
        <time>2009-03-22T11:20:59Z</time>
      </trkpt>
      <trkpt lat="49.28498" lon="1.43876">
        <ele>105</ele>
        <time>2009-03-22T11:21:04Z</time>
      </trkpt>
      <trkpt lat="49.28507" lon="1.43871">
        <ele>105</ele>
        <time>2009-03-22T11:21:09Z</time>
      </trkpt>
      <trkpt lat="49.28517" lon="1.43866">
        <ele>105</ele>
        <time>2009-03-22T11:21:14Z</time>
      </trkpt>
      <trkpt lat="49.28527" lon="1.43861">
        <ele>105</ele>
        <time>2009-03-22T11:21:19Z</time>
      </trkpt>
      <trkpt lat="49.28538" lon="1.43857">
        <ele>105</ele>
        <time>2009-03-22T11:21:24Z</time>
      </trkpt>
      <trkpt lat="49.28548" lon="1.43853">
        <ele>105</ele>
        <time>2009-03-22T11:21:29Z</time>
      </trkpt>
      <trkpt lat="49.28558" lon="1.4385">
        <ele>110</ele>
        <time>2009-03-22T11:21:34Z</time>
      </trkpt>
      <trkpt lat="49.28569" lon="1.43847">
        <ele>110</ele>
        <time>2009-03-22T11:21:39Z</time>
      </trkpt>
      <trkpt lat="49.28578" lon="1.43845">
        <ele>110</ele>
        <time>2009-03-22T11:21:44Z</time>
      </trkpt>
      <trkpt lat="49.28588" lon="1.43845">
        <ele>110</ele>
        <time>2009-03-22T11:21:49Z</time>
      </trkpt>
      <trkpt lat="49.28598" lon="1.43845">
        <ele>110</ele>
        <time>2009-03-22T11:21:54Z</time>
      </trkpt>
      <trkpt lat="49.28607" lon="1.43845">
        <ele>110</ele>
        <time>2009-03-22T11:21:59Z</time>
      </trkpt>
      <trkpt lat="49.28617" lon="1.43842">
        <ele>116</ele>
        <time>2009-03-22T11:22:04Z</time>
      </trkpt>
      <trkpt lat="49.28626" lon="1.43835">
        <ele>116</ele>
        <time>2009-03-22T11:22:09Z</time>
      </trkpt>
      <trkpt lat="49.28632" lon="1.43823">
        <ele>116</ele>
        <time>2009-03-22T11:22:14Z</time>
      </trkpt>
      <trkpt lat="49.28636" lon="1.43807">
        <ele>116</ele>
        <time>2009-03-22T11:22:19Z</time>
      </trkpt>
      <trkpt lat="49.28635" lon="1.4379">
        <ele>116</ele>
        <time>2009-03-22T11:22:24Z</time>
      </trkpt>
      <trkpt lat="49.2863" lon="1.43778">
        <ele>116</ele>
        <time>2009-03-22T11:22:28Z</time>
      </trkpt>
      <trkpt lat="49.28622" lon="1.43767">
        <ele>116</ele>
        <time>2009-03-22T11:22:33Z</time>
      </trkpt>
      <trkpt lat="49.28612" lon="1.43762">
        <ele>116</ele>
        <time>2009-03-22T11:22:37Z</time>
      </trkpt>
      <trkpt lat="49.28603" lon="1.43756">
        <ele>116</ele>
        <time>2009-03-22T11:22:41Z</time>
      </trkpt>
      <trkpt lat="49.28592" lon="1.4375">
        <ele>116</ele>
        <time>2009-03-22T11:22:45Z</time>
      </trkpt>
      <trkpt lat="49.28581" lon="1.43745">
        <ele>116</ele>
        <time>2009-03-22T11:22:49Z</time>
      </trkpt>
      <trkpt lat="49.2857" lon="1.43739">
        <ele>116</ele>
        <time>2009-03-22T11:22:53Z</time>
      </trkpt>
      <trkpt lat="49.28559" lon="1.43731">
        <ele>116</ele>
        <time>2009-03-22T11:22:57Z</time>
      </trkpt>
      <trkpt lat="49.28549" lon="1.43722">
        <ele>116</ele>
        <time>2009-03-22T11:23:01Z</time>
      </trkpt>
      <trkpt lat="49.28542" lon="1.43713">
        <ele>116</ele>
        <time>2009-03-22T11:23:04Z</time>
      </trkpt>
      <trkpt lat="49.28536" lon="1.43703">
        <ele>121</ele>
        <time>2009-03-22T11:23:07Z</time>
      </trkpt>
      <trkpt lat="49.2853" lon="1.43691">
        <ele>121</ele>
        <time>2009-03-22T11:23:10Z</time>
      </trkpt>
      <trkpt lat="49.28523" lon="1.43674">
        <ele>121</ele>
        <time>2009-03-22T11:23:14Z</time>
      </trkpt>
      <trkpt lat="49.28521" lon="1.43659">
        <ele>121</ele>
        <time>2009-03-22T11:23:17Z</time>
      </trkpt>
      <trkpt lat="49.28519" lon="1.43642">
        <ele>121</ele>
        <time>2009-03-22T11:23:20Z</time>
      </trkpt>
      <trkpt lat="49.28519" lon="1.43625">
        <ele>121</ele>
        <time>2009-03-22T11:23:23Z</time>
      </trkpt>
      <trkpt lat="49.28521" lon="1.43608">
        <ele>121</ele>
        <time>2009-03-22T11:23:26Z</time>
      </trkpt>
      <trkpt lat="49.28524" lon="1.4359">
        <ele>121</ele>
        <time>2009-03-22T11:23:29Z</time>
      </trkpt>
      <trkpt lat="49.28528" lon="1.43572">
        <ele>121</ele>
        <time>2009-03-22T11:23:32Z</time>
      </trkpt>
      <trkpt lat="49.28532" lon="1.43554">
        <ele>121</ele>
        <time>2009-03-22T11:23:35Z</time>
      </trkpt>
      <trkpt lat="49.28536" lon="1.43535">
        <ele>127</ele>
        <time>2009-03-22T11:23:38Z</time>
      </trkpt>
      <trkpt lat="49.28541" lon="1.43515">
        <ele>127</ele>
        <time>2009-03-22T11:23:41Z</time>
      </trkpt>
      <trkpt lat="49.28545" lon="1.43495">
        <ele>127</ele>
        <time>2009-03-22T11:23:44Z</time>
      </trkpt>
      <trkpt lat="49.28548" lon="1.43476">
        <ele>127</ele>
        <time>2009-03-22T11:23:47Z</time>
      </trkpt>
      <trkpt lat="49.28553" lon="1.43457">
        <ele>127</ele>
        <time>2009-03-22T11:23:50Z</time>
      </trkpt>
      <trkpt lat="49.28556" lon="1.43438">
        <ele>127</ele>
        <time>2009-03-22T11:23:53Z</time>
      </trkpt>
      <trkpt lat="49.28559" lon="1.43424">
        <ele>127</ele>
        <time>2009-03-22T11:23:55Z</time>
      </trkpt>
      <trkpt lat="49.28563" lon="1.43411">
        <ele>127</ele>
        <time>2009-03-22T11:23:57Z</time>
      </trkpt>
      <trkpt lat="49.28566" lon="1.43397">
        <ele>127</ele>
        <time>2009-03-22T11:23:59Z</time>
      </trkpt>
      <trkpt lat="49.28569" lon="1.43384">
        <ele>127</ele>
        <time>2009-03-22T11:24:01Z</time>
      </trkpt>
      <trkpt lat="49.28572" lon="1.43369">
        <ele>127</ele>
        <time>2009-03-22T11:24:03Z</time>
      </trkpt>
      <trkpt lat="49.28575" lon="1.43356">
        <ele>127</ele>
        <time>2009-03-22T11:24:05Z</time>
      </trkpt>
      <trkpt lat="49.28577" lon="1.43342">
        <ele>127</ele>
        <time>2009-03-22T11:24:07Z</time>
      </trkpt>
      <trkpt lat="49.2858" lon="1.43329">
        <ele>127</ele>
        <time>2009-03-22T11:24:09Z</time>
      </trkpt>
      <trkpt lat="49.28583" lon="1.43315">
        <ele>127</ele>
        <time>2009-03-22T11:24:11Z</time>
      </trkpt>
      <trkpt lat="49.28586" lon="1.43301">
        <ele>127</ele>
        <time>2009-03-22T11:24:13Z</time>
      </trkpt>
      <trkpt lat="49.28589" lon="1.43288">
        <ele>127</ele>
        <time>2009-03-22T11:24:15Z</time>
      </trkpt>
      <trkpt lat="49.28591" lon="1.43273">
        <ele>127</ele>
        <time>2009-03-22T11:24:17Z</time>
      </trkpt>
      <trkpt lat="49.28594" lon="1.4326">
        <ele>127</ele>
        <time>2009-03-22T11:24:19Z</time>
      </trkpt>
      <trkpt lat="49.28596" lon="1.43245">
        <ele>127</ele>
        <time>2009-03-22T11:24:21Z</time>
      </trkpt>
      <trkpt lat="49.28599" lon="1.43231">
        <ele>127</ele>
        <time>2009-03-22T11:24:23Z</time>
      </trkpt>
      <trkpt lat="49.28603" lon="1.43217">
        <ele>127</ele>
        <time>2009-03-22T11:24:25Z</time>
      </trkpt>
      <trkpt lat="49.28605" lon="1.43201">
        <ele>127</ele>
        <time>2009-03-22T11:24:27Z</time>
      </trkpt>
      <trkpt lat="49.28609" lon="1.43186">
        <ele>127</ele>
        <time>2009-03-22T11:24:29Z</time>
      </trkpt>
      <trkpt lat="49.28612" lon="1.43171">
        <ele>127</ele>
        <time>2009-03-22T11:24:31Z</time>
      </trkpt>
      <trkpt lat="49.28614" lon="1.43156">
        <ele>127</ele>
        <time>2009-03-22T11:24:33Z</time>
      </trkpt>
      <trkpt lat="49.28617" lon="1.43141">
        <ele>127</ele>
        <time>2009-03-22T11:24:35Z</time>
      </trkpt>
      <trkpt lat="49.2862" lon="1.43127">
        <ele>127</ele>
        <time>2009-03-22T11:24:37Z</time>
      </trkpt>
      <trkpt lat="49.28622" lon="1.43112">
        <ele>127</ele>
        <time>2009-03-22T11:24:39Z</time>
      </trkpt>
      <trkpt lat="49.28625" lon="1.43097">
        <ele>127</ele>
        <time>2009-03-22T11:24:41Z</time>
      </trkpt>
      <trkpt lat="49.28627" lon="1.43083">
        <ele>127</ele>
        <time>2009-03-22T11:24:43Z</time>
      </trkpt>
      <trkpt lat="49.28629" lon="1.43068">
        <ele>127</ele>
        <time>2009-03-22T11:24:45Z</time>
      </trkpt>
      <trkpt lat="49.28631" lon="1.43054">
        <ele>127</ele>
        <time>2009-03-22T11:24:47Z</time>
      </trkpt>
      <trkpt lat="49.28633" lon="1.43039">
        <ele>127</ele>
        <time>2009-03-22T11:24:49Z</time>
      </trkpt>
      <trkpt lat="49.28635" lon="1.43023">
        <ele>127</ele>
        <time>2009-03-22T11:24:51Z</time>
      </trkpt>
      <trkpt lat="49.28637" lon="1.43006">
        <ele>127</ele>
        <time>2009-03-22T11:24:53Z</time>
      </trkpt>
      <trkpt lat="49.2864" lon="1.42988">
        <ele>127</ele>
        <time>2009-03-22T11:24:55Z</time>
      </trkpt>
      <trkpt lat="49.28643" lon="1.42971">
        <ele>127</ele>
        <time>2009-03-22T11:24:57Z</time>
      </trkpt>
      <trkpt lat="49.28647" lon="1.42954">
        <ele>127</ele>
        <time>2009-03-22T11:24:59Z</time>
      </trkpt>
      <trkpt lat="49.28651" lon="1.42937">
        <ele>127</ele>
        <time>2009-03-22T11:25:01Z</time>
      </trkpt>
      <trkpt lat="49.28656" lon="1.4292">
        <ele>127</ele>
        <time>2009-03-22T11:25:03Z</time>
      </trkpt>
      <trkpt lat="49.2866" lon="1.42905">
        <ele>127</ele>
        <time>2009-03-22T11:25:05Z</time>
      </trkpt>
      <trkpt lat="49.28664" lon="1.4289">
        <ele>127</ele>
        <time>2009-03-22T11:25:07Z</time>
      </trkpt>
      <trkpt lat="49.28669" lon="1.42875">
        <ele>127</ele>
        <time>2009-03-22T11:25:09Z</time>
      </trkpt>
      <trkpt lat="49.28673" lon="1.42861">
        <ele>127</ele>
        <time>2009-03-22T11:25:11Z</time>
      </trkpt>
      <trkpt lat="49.28677" lon="1.42847">
        <ele>127</ele>
        <time>2009-03-22T11:25:13Z</time>
      </trkpt>
      <trkpt lat="49.28682" lon="1.42831">
        <ele>127</ele>
        <time>2009-03-22T11:25:15Z</time>
      </trkpt>
      <trkpt lat="49.28686" lon="1.42817">
        <ele>127</ele>
        <time>2009-03-22T11:25:17Z</time>
      </trkpt>
      <trkpt lat="49.28691" lon="1.42803">
        <ele>127</ele>
        <time>2009-03-22T11:25:19Z</time>
      </trkpt>
      <trkpt lat="49.28696" lon="1.42788">
        <ele>127</ele>
        <time>2009-03-22T11:25:21Z</time>
      </trkpt>
      <trkpt lat="49.287" lon="1.42773">
        <ele>127</ele>
        <time>2009-03-22T11:25:23Z</time>
      </trkpt>
      <trkpt lat="49.28704" lon="1.42759">
        <ele>127</ele>
        <time>2009-03-22T11:25:25Z</time>
      </trkpt>
      <trkpt lat="49.28708" lon="1.42744">
        <ele>127</ele>
        <time>2009-03-22T11:25:27Z</time>
      </trkpt>
      <trkpt lat="49.28712" lon="1.4273">
        <ele>127</ele>
        <time>2009-03-22T11:25:29Z</time>
      </trkpt>
      <trkpt lat="49.28714" lon="1.42715">
        <ele>127</ele>
        <time>2009-03-22T11:25:31Z</time>
      </trkpt>
      <trkpt lat="49.28718" lon="1.427">
        <ele>127</ele>
        <time>2009-03-22T11:25:33Z</time>
      </trkpt>
      <trkpt lat="49.28721" lon="1.42686">
        <ele>127</ele>
        <time>2009-03-22T11:25:35Z</time>
      </trkpt>
      <trkpt lat="49.28724" lon="1.4267">
        <ele>127</ele>
        <time>2009-03-22T11:25:37Z</time>
      </trkpt>
      <trkpt lat="49.28727" lon="1.42655">
        <ele>127</ele>
        <time>2009-03-22T11:25:39Z</time>
      </trkpt>
      <trkpt lat="49.2873" lon="1.4264">
        <ele>127</ele>
        <time>2009-03-22T11:25:41Z</time>
      </trkpt>
      <trkpt lat="49.28733" lon="1.42625">
        <ele>127</ele>
        <time>2009-03-22T11:25:43Z</time>
      </trkpt>
      <trkpt lat="49.28736" lon="1.4261">
        <ele>127</ele>
        <time>2009-03-22T11:25:45Z</time>
      </trkpt>
      <trkpt lat="49.28739" lon="1.42595">
        <ele>127</ele>
        <time>2009-03-22T11:25:47Z</time>
      </trkpt>
      <trkpt lat="49.28742" lon="1.4258">
        <ele>127</ele>
        <time>2009-03-22T11:25:49Z</time>
      </trkpt>
      <trkpt lat="49.28744" lon="1.42565">
        <ele>127</ele>
        <time>2009-03-22T11:25:51Z</time>
      </trkpt>
      <trkpt lat="49.28747" lon="1.42552">
        <ele>127</ele>
        <time>2009-03-22T11:25:53Z</time>
      </trkpt>
      <trkpt lat="49.2875" lon="1.42538">
        <ele>127</ele>
        <time>2009-03-22T11:25:55Z</time>
      </trkpt>
      <trkpt lat="49.28753" lon="1.42523">
        <ele>127</ele>
        <time>2009-03-22T11:25:57Z</time>
      </trkpt>
      <trkpt lat="49.28756" lon="1.4251">
        <ele>127</ele>
        <time>2009-03-22T11:25:59Z</time>
      </trkpt>
      <trkpt lat="49.28759" lon="1.42495">
        <ele>127</ele>
        <time>2009-03-22T11:26:01Z</time>
      </trkpt>
      <trkpt lat="49.28761" lon="1.42482">
        <ele>127</ele>
        <time>2009-03-22T11:26:03Z</time>
      </trkpt>
      <trkpt lat="49.28764" lon="1.42467">
        <ele>132</ele>
        <time>2009-03-22T11:26:05Z</time>
      </trkpt>
      <trkpt lat="49.28767" lon="1.42453">
        <ele>132</ele>
        <time>2009-03-22T11:26:07Z</time>
      </trkpt>
      <trkpt lat="49.28769" lon="1.42439">
        <ele>132</ele>
        <time>2009-03-22T11:26:09Z</time>
      </trkpt>
      <trkpt lat="49.28772" lon="1.42424">
        <ele>132</ele>
        <time>2009-03-22T11:26:11Z</time>
      </trkpt>
      <trkpt lat="49.28775" lon="1.4241">
        <ele>132</ele>
        <time>2009-03-22T11:26:13Z</time>
      </trkpt>
      <trkpt lat="49.28778" lon="1.42396">
        <ele>132</ele>
        <time>2009-03-22T11:26:15Z</time>
      </trkpt>
      <trkpt lat="49.28781" lon="1.42383">
        <ele>132</ele>
        <time>2009-03-22T11:26:17Z</time>
      </trkpt>
      <trkpt lat="49.28783" lon="1.4237">
        <ele>132</ele>
        <time>2009-03-22T11:26:19Z</time>
      </trkpt>
      <trkpt lat="49.28786" lon="1.42356">
        <ele>132</ele>
        <time>2009-03-22T11:26:21Z</time>
      </trkpt>
      <trkpt lat="49.28788" lon="1.42343">
        <ele>132</ele>
        <time>2009-03-22T11:26:23Z</time>
      </trkpt>
      <trkpt lat="49.28791" lon="1.42328">
        <ele>132</ele>
        <time>2009-03-22T11:26:25Z</time>
      </trkpt>
      <trkpt lat="49.28794" lon="1.42315">
        <ele>132</ele>
        <time>2009-03-22T11:26:27Z</time>
      </trkpt>
      <trkpt lat="49.28797" lon="1.42301">
        <ele>132</ele>
        <time>2009-03-22T11:26:29Z</time>
      </trkpt>
      <trkpt lat="49.288" lon="1.42288">
        <ele>132</ele>
        <time>2009-03-22T11:26:31Z</time>
      </trkpt>
      <trkpt lat="49.28803" lon="1.42273">
        <ele>132</ele>
        <time>2009-03-22T11:26:33Z</time>
      </trkpt>
      <trkpt lat="49.28806" lon="1.4226">
        <ele>132</ele>
        <time>2009-03-22T11:26:35Z</time>
      </trkpt>
      <trkpt lat="49.28808" lon="1.42246">
        <ele>132</ele>
        <time>2009-03-22T11:26:37Z</time>
      </trkpt>
      <trkpt lat="49.28811" lon="1.4223">
        <ele>132</ele>
        <time>2009-03-22T11:26:39Z</time>
      </trkpt>
      <trkpt lat="49.28814" lon="1.42216">
        <ele>132</ele>
        <time>2009-03-22T11:26:41Z</time>
      </trkpt>
      <trkpt lat="49.28818" lon="1.42201">
        <ele>132</ele>
        <time>2009-03-22T11:26:43Z</time>
      </trkpt>
      <trkpt lat="49.28821" lon="1.42184">
        <ele>132</ele>
        <time>2009-03-22T11:26:45Z</time>
      </trkpt>
      <trkpt lat="49.28824" lon="1.42168">
        <ele>132</ele>
        <time>2009-03-22T11:26:47Z</time>
      </trkpt>
      <trkpt lat="49.28827" lon="1.42152">
        <ele>132</ele>
        <time>2009-03-22T11:26:49Z</time>
      </trkpt>
      <trkpt lat="49.28831" lon="1.42135">
        <ele>132</ele>
        <time>2009-03-22T11:26:51Z</time>
      </trkpt>
      <trkpt lat="49.28834" lon="1.42118">
        <ele>132</ele>
        <time>2009-03-22T11:26:53Z</time>
      </trkpt>
      <trkpt lat="49.28838" lon="1.42099">
        <ele>132</ele>
        <time>2009-03-22T11:26:55Z</time>
      </trkpt>
      <trkpt lat="49.28841" lon="1.4208">
        <ele>132</ele>
        <time>2009-03-22T11:26:57Z</time>
      </trkpt>
      <trkpt lat="49.28845" lon="1.42061">
        <ele>132</ele>
        <time>2009-03-22T11:26:59Z</time>
      </trkpt>
      <trkpt lat="49.2885" lon="1.42041">
        <ele>132</ele>
        <time>2009-03-22T11:27:01Z</time>
      </trkpt>
      <trkpt lat="49.28854" lon="1.4202">
        <ele>132</ele>
        <time>2009-03-22T11:27:03Z</time>
      </trkpt>
      <trkpt lat="49.28858" lon="1.41999">
        <ele>132</ele>
        <time>2009-03-22T11:27:05Z</time>
      </trkpt>
      <trkpt lat="49.28862" lon="1.41979">
        <ele>132</ele>
        <time>2009-03-22T11:27:07Z</time>
      </trkpt>
      <trkpt lat="49.28867" lon="1.41958">
        <ele>132</ele>
        <time>2009-03-22T11:27:09Z</time>
      </trkpt>
      <trkpt lat="49.28871" lon="1.41937">
        <ele>132</ele>
        <time>2009-03-22T11:27:11Z</time>
      </trkpt>
      <trkpt lat="49.28875" lon="1.41917">
        <ele>132</ele>
        <time>2009-03-22T11:27:13Z</time>
      </trkpt>
      <trkpt lat="49.28879" lon="1.41895">
        <ele>132</ele>
        <time>2009-03-22T11:27:15Z</time>
      </trkpt>
      <trkpt lat="49.28883" lon="1.41875">
        <ele>132</ele>
        <time>2009-03-22T11:27:17Z</time>
      </trkpt>
      <trkpt lat="49.28887" lon="1.41856">
        <ele>132</ele>
        <time>2009-03-22T11:27:19Z</time>
      </trkpt>
      <trkpt lat="49.2889" lon="1.41837">
        <ele>132</ele>
        <time>2009-03-22T11:27:21Z</time>
      </trkpt>
      <trkpt lat="49.28894" lon="1.41818">
        <ele>132</ele>
        <time>2009-03-22T11:27:23Z</time>
      </trkpt>
      <trkpt lat="49.28898" lon="1.41801">
        <ele>132</ele>
        <time>2009-03-22T11:27:25Z</time>
      </trkpt>
      <trkpt lat="49.28902" lon="1.41786">
        <ele>132</ele>
        <time>2009-03-22T11:27:27Z</time>
      </trkpt>
      <trkpt lat="49.28906" lon="1.4177">
        <ele>132</ele>
        <time>2009-03-22T11:27:29Z</time>
      </trkpt>
      <trkpt lat="49.28911" lon="1.41756">
        <ele>132</ele>
        <time>2009-03-22T11:27:31Z</time>
      </trkpt>
      <trkpt lat="49.28917" lon="1.41743">
        <ele>132</ele>
        <time>2009-03-22T11:27:33Z</time>
      </trkpt>
      <trkpt lat="49.28923" lon="1.4173">
        <ele>132</ele>
        <time>2009-03-22T11:27:35Z</time>
      </trkpt>
      <trkpt lat="49.28928" lon="1.41718">
        <ele>132</ele>
        <time>2009-03-22T11:27:37Z</time>
      </trkpt>
      <trkpt lat="49.28936" lon="1.41702">
        <ele>132</ele>
        <time>2009-03-22T11:27:40Z</time>
      </trkpt>
      <trkpt lat="49.28943" lon="1.41687">
        <ele>132</ele>
        <time>2009-03-22T11:27:43Z</time>
      </trkpt>
      <trkpt lat="49.2895" lon="1.41672">
        <ele>132</ele>
        <time>2009-03-22T11:27:46Z</time>
      </trkpt>
      <trkpt lat="49.28957" lon="1.41659">
        <ele>132</ele>
        <time>2009-03-22T11:27:49Z</time>
      </trkpt>
      <trkpt lat="49.28963" lon="1.41646">
        <ele>132</ele>
        <time>2009-03-22T11:27:52Z</time>
      </trkpt>
      <trkpt lat="49.28968" lon="1.41634">
        <ele>132</ele>
        <time>2009-03-22T11:27:55Z</time>
      </trkpt>
      <trkpt lat="49.28974" lon="1.41622">
        <ele>132</ele>
        <time>2009-03-22T11:27:58Z</time>
      </trkpt>
      <trkpt lat="49.28981" lon="1.41608">
        <ele>132</ele>
        <time>2009-03-22T11:28:02Z</time>
      </trkpt>
      <trkpt lat="49.28987" lon="1.41593">
        <ele>132</ele>
        <time>2009-03-22T11:28:06Z</time>
      </trkpt>
      <trkpt lat="49.28993" lon="1.41581">
        <ele>132</ele>
        <time>2009-03-22T11:28:11Z</time>
      </trkpt>
    </trkseg>
  </trk>
</gpx>